<?xml version="1.0" encoding="UTF-8" standalone="no" ?>
<gpx xmlns="http://www.topografix.com/GPX/1/1" xmlns:xsi="http://www.w3.org/2001/XMLSchema-instance" xsi:schemaLocation="http://www.topografix.com/GPX/1/1 http://www.topografix.com/GPX/1/1/gpx.xsd" version="1.1" creator="VisuGPX - https://www.visugpx.com">
  <metadata>
    <name>VTT - Mourre de Chanier</name>
    <desc><![CDATA[VTT - Mourre de Chanier
Relevé terrain:   1 800 m / 31 km]]></desc>
  </metadata>
  <trk>
    <name><![CDATA[2014-08-29T07:25:56Z]]></name>
    <trkseg>
      <trkpt lat="43.83573" lon="6.4238">
        <ele>858.926</ele>
        <time>2014-08-29T07:25:56Z</time>
      </trkpt>
      <trkpt lat="43.83575" lon="6.42379">
        <ele>855.894</ele>
        <time>2014-08-29T07:26:31Z</time>
      </trkpt>
      <trkpt lat="43.83589" lon="6.42376">
        <ele>856.253</ele>
        <time>2014-08-29T07:26:39Z</time>
      </trkpt>
      <trkpt lat="43.83591" lon="6.42376">
        <ele>856.513</ele>
        <time>2014-08-29T07:26:40Z</time>
      </trkpt>
      <trkpt lat="43.83603" lon="6.4238">
        <ele>859.077</ele>
        <time>2014-08-29T07:26:47Z</time>
      </trkpt>
      <trkpt lat="43.83613" lon="6.42378">
        <ele>861.367</ele>
        <time>2014-08-29T07:26:53Z</time>
      </trkpt>
      <trkpt lat="43.83631" lon="6.42386">
        <ele>861.158</ele>
        <time>2014-08-29T07:27:02Z</time>
      </trkpt>
      <trkpt lat="43.83643" lon="6.42389">
        <ele>863.49</ele>
        <time>2014-08-29T07:27:08Z</time>
      </trkpt>
      <trkpt lat="43.83651" lon="6.42386">
        <ele>864.323</ele>
        <time>2014-08-29T07:27:12Z</time>
      </trkpt>
      <trkpt lat="43.83651" lon="6.42374">
        <ele>866.804</ele>
        <time>2014-08-29T07:27:17Z</time>
      </trkpt>
      <trkpt lat="43.83645" lon="6.42371">
        <ele>868.354</ele>
        <time>2014-08-29T07:27:20Z</time>
      </trkpt>
      <trkpt lat="43.83629" lon="6.42357">
        <ele>872.702</ele>
        <time>2014-08-29T07:27:29Z</time>
      </trkpt>
      <trkpt lat="43.83617" lon="6.42348">
        <ele>874.112</ele>
        <time>2014-08-29T07:27:35Z</time>
      </trkpt>
      <trkpt lat="43.83613" lon="6.42343">
        <ele>874.082</ele>
        <time>2014-08-29T07:27:38Z</time>
      </trkpt>
      <trkpt lat="43.83612" lon="6.42334">
        <ele>875.184</ele>
        <time>2014-08-29T07:27:42Z</time>
      </trkpt>
      <trkpt lat="43.83619" lon="6.4233">
        <ele>875.371</ele>
        <time>2014-08-29T07:27:47Z</time>
      </trkpt>
      <trkpt lat="43.83629" lon="6.42337">
        <ele>874.566</ele>
        <time>2014-08-29T07:27:55Z</time>
      </trkpt>
      <trkpt lat="43.8364" lon="6.4234">
        <ele>876.298</ele>
        <time>2014-08-29T07:28:02Z</time>
      </trkpt>
      <trkpt lat="43.83654" lon="6.42336">
        <ele>877.463</ele>
        <time>2014-08-29T07:28:11Z</time>
      </trkpt>
      <trkpt lat="43.83665" lon="6.42328">
        <ele>877.449</ele>
        <time>2014-08-29T07:28:18Z</time>
      </trkpt>
      <trkpt lat="43.83674" lon="6.42312">
        <ele>878.688</ele>
        <time>2014-08-29T07:28:26Z</time>
      </trkpt>
      <trkpt lat="43.83681" lon="6.423">
        <ele>880.663</ele>
        <time>2014-08-29T07:28:32Z</time>
      </trkpt>
      <trkpt lat="43.83693" lon="6.4229">
        <ele>883.619</ele>
        <time>2014-08-29T07:28:40Z</time>
      </trkpt>
      <trkpt lat="43.83705" lon="6.4229">
        <ele>884.675</ele>
        <time>2014-08-29T07:28:47Z</time>
      </trkpt>
      <trkpt lat="43.83717" lon="6.42294">
        <ele>885.198</ele>
        <time>2014-08-29T07:28:54Z</time>
      </trkpt>
      <trkpt lat="43.83728" lon="6.4229">
        <ele>886.996</ele>
        <time>2014-08-29T07:29:00Z</time>
      </trkpt>
      <trkpt lat="43.8373" lon="6.42288">
        <ele>887.098</ele>
        <time>2014-08-29T07:29:01Z</time>
      </trkpt>
      <trkpt lat="43.83732" lon="6.42278">
        <ele>888.675</ele>
        <time>2014-08-29T07:29:06Z</time>
      </trkpt>
      <trkpt lat="43.83726" lon="6.42267">
        <ele>893.968</ele>
        <time>2014-08-29T07:29:13Z</time>
      </trkpt>
      <trkpt lat="43.83716" lon="6.42259">
        <ele>895.213</ele>
        <time>2014-08-29T07:29:20Z</time>
      </trkpt>
      <trkpt lat="43.83711" lon="6.42259">
        <ele>896.64</ele>
        <time>2014-08-29T07:29:23Z</time>
      </trkpt>
      <trkpt lat="43.83706" lon="6.42262">
        <ele>897.446</ele>
        <time>2014-08-29T07:29:27Z</time>
      </trkpt>
      <trkpt lat="43.83701" lon="6.42264">
        <ele>898.217</ele>
        <time>2014-08-29T07:29:30Z</time>
      </trkpt>
      <trkpt lat="43.83695" lon="6.42261">
        <ele>899.535</ele>
        <time>2014-08-29T07:29:35Z</time>
      </trkpt>
      <trkpt lat="43.83692" lon="6.42256">
        <ele>901.468</ele>
        <time>2014-08-29T07:29:40Z</time>
      </trkpt>
      <trkpt lat="43.83692" lon="6.42255">
        <ele>899.498</ele>
        <time>2014-08-29T07:29:46Z</time>
      </trkpt>
      <trkpt lat="43.837" lon="6.42256">
        <ele>894.993</ele>
        <time>2014-08-29T07:29:51Z</time>
      </trkpt>
      <trkpt lat="43.83704" lon="6.4225">
        <ele>894.946</ele>
        <time>2014-08-29T07:29:54Z</time>
      </trkpt>
      <trkpt lat="43.83711" lon="6.4223">
        <ele>898.451</ele>
        <time>2014-08-29T07:30:02Z</time>
      </trkpt>
      <trkpt lat="43.83704" lon="6.42226">
        <ele>900.331</ele>
        <time>2014-08-29T07:30:06Z</time>
      </trkpt>
      <trkpt lat="43.83694" lon="6.42221">
        <ele>902.107</ele>
        <time>2014-08-29T07:30:12Z</time>
      </trkpt>
      <trkpt lat="43.83687" lon="6.42209">
        <ele>903.049</ele>
        <time>2014-08-29T07:30:18Z</time>
      </trkpt>
      <trkpt lat="43.83679" lon="6.42198">
        <ele>904.014</ele>
        <time>2014-08-29T07:30:24Z</time>
      </trkpt>
      <trkpt lat="43.83673" lon="6.42186">
        <ele>906.055</ele>
        <time>2014-08-29T07:30:30Z</time>
      </trkpt>
      <trkpt lat="43.83671" lon="6.42173">
        <ele>905.988</ele>
        <time>2014-08-29T07:30:36Z</time>
      </trkpt>
      <trkpt lat="43.8367" lon="6.42163">
        <ele>907.107</ele>
        <time>2014-08-29T07:30:41Z</time>
      </trkpt>
      <trkpt lat="43.83665" lon="6.42144">
        <ele>908.154</ele>
        <time>2014-08-29T07:30:50Z</time>
      </trkpt>
      <trkpt lat="43.83665" lon="6.42132">
        <ele>907.812</ele>
        <time>2014-08-29T07:30:55Z</time>
      </trkpt>
      <trkpt lat="43.83666" lon="6.42118">
        <ele>909.262</ele>
        <time>2014-08-29T07:31:02Z</time>
      </trkpt>
      <trkpt lat="43.83667" lon="6.42109">
        <ele>909.018</ele>
        <time>2014-08-29T07:31:06Z</time>
      </trkpt>
      <trkpt lat="43.83669" lon="6.42095">
        <ele>907.31</ele>
        <time>2014-08-29T07:31:13Z</time>
      </trkpt>
      <trkpt lat="43.8367" lon="6.42077">
        <ele>908.841</ele>
        <time>2014-08-29T07:31:21Z</time>
      </trkpt>
      <trkpt lat="43.83673" lon="6.42064">
        <ele>908.62</ele>
        <time>2014-08-29T07:31:28Z</time>
      </trkpt>
      <trkpt lat="43.8367" lon="6.42046">
        <ele>910.404</ele>
        <time>2014-08-29T07:31:35Z</time>
      </trkpt>
      <trkpt lat="43.83663" lon="6.42037">
        <ele>913.151</ele>
        <time>2014-08-29T07:31:40Z</time>
      </trkpt>
      <trkpt lat="43.83651" lon="6.42029">
        <ele>913.454</ele>
        <time>2014-08-29T07:31:46Z</time>
      </trkpt>
      <trkpt lat="43.83637" lon="6.42024">
        <ele>917.299</ele>
        <time>2014-08-29T07:31:53Z</time>
      </trkpt>
      <trkpt lat="43.83626" lon="6.42019">
        <ele>919.579</ele>
        <time>2014-08-29T07:31:59Z</time>
      </trkpt>
      <trkpt lat="43.83608" lon="6.42015">
        <ele>922.488</ele>
        <time>2014-08-29T07:32:08Z</time>
      </trkpt>
      <trkpt lat="43.83592" lon="6.42012">
        <ele>924.798</ele>
        <time>2014-08-29T07:32:16Z</time>
      </trkpt>
      <trkpt lat="43.83582" lon="6.42011">
        <ele>926.108</ele>
        <time>2014-08-29T07:32:21Z</time>
      </trkpt>
      <trkpt lat="43.83568" lon="6.42003">
        <ele>928.061</ele>
        <time>2014-08-29T07:32:28Z</time>
      </trkpt>
      <trkpt lat="43.83558" lon="6.41993">
        <ele>931.202</ele>
        <time>2014-08-29T07:32:34Z</time>
      </trkpt>
      <trkpt lat="43.83549" lon="6.41975">
        <ele>933.03</ele>
        <time>2014-08-29T07:32:41Z</time>
      </trkpt>
      <trkpt lat="43.83546" lon="6.41957">
        <ele>931.113</ele>
        <time>2014-08-29T07:32:47Z</time>
      </trkpt>
      <trkpt lat="43.83546" lon="6.41937">
        <ele>929.552</ele>
        <time>2014-08-29T07:32:55Z</time>
      </trkpt>
      <trkpt lat="43.83544" lon="6.41923">
        <ele>928.489</ele>
        <time>2014-08-29T07:33:01Z</time>
      </trkpt>
      <trkpt lat="43.83539" lon="6.41907">
        <ele>929.251</ele>
        <time>2014-08-29T07:33:08Z</time>
      </trkpt>
      <trkpt lat="43.83528" lon="6.41891">
        <ele>934.318</ele>
        <time>2014-08-29T07:33:16Z</time>
      </trkpt>
      <trkpt lat="43.83515" lon="6.41873">
        <ele>937.806</ele>
        <time>2014-08-29T07:33:24Z</time>
      </trkpt>
      <trkpt lat="43.83502" lon="6.41855">
        <ele>940.346</ele>
        <time>2014-08-29T07:33:32Z</time>
      </trkpt>
      <trkpt lat="43.83491" lon="6.41841">
        <ele>944.216</ele>
        <time>2014-08-29T07:33:39Z</time>
      </trkpt>
      <trkpt lat="43.83483" lon="6.41826">
        <ele>943.12</ele>
        <time>2014-08-29T07:33:45Z</time>
      </trkpt>
      <trkpt lat="43.83477" lon="6.41809">
        <ele>942.394</ele>
        <time>2014-08-29T07:33:52Z</time>
      </trkpt>
      <trkpt lat="43.83471" lon="6.41791">
        <ele>943.698</ele>
        <time>2014-08-29T07:34:00Z</time>
      </trkpt>
      <trkpt lat="43.83468" lon="6.4178">
        <ele>946.072</ele>
        <time>2014-08-29T07:34:06Z</time>
      </trkpt>
      <trkpt lat="43.83462" lon="6.41762">
        <ele>949.264</ele>
        <time>2014-08-29T07:34:14Z</time>
      </trkpt>
      <trkpt lat="43.83457" lon="6.41744">
        <ele>949.589</ele>
        <time>2014-08-29T07:34:22Z</time>
      </trkpt>
      <trkpt lat="43.83451" lon="6.41731">
        <ele>950.409</ele>
        <time>2014-08-29T07:34:29Z</time>
      </trkpt>
      <trkpt lat="43.83442" lon="6.4172">
        <ele>951.091</ele>
        <time>2014-08-29T07:34:37Z</time>
      </trkpt>
      <trkpt lat="43.83435" lon="6.41714">
        <ele>950.999</ele>
        <time>2014-08-29T07:34:43Z</time>
      </trkpt>
      <trkpt lat="43.83432" lon="6.41712">
        <ele>951.186</ele>
        <time>2014-08-29T07:34:45Z</time>
      </trkpt>
      <trkpt lat="43.83424" lon="6.41702">
        <ele>952.373</ele>
        <time>2014-08-29T07:34:53Z</time>
      </trkpt>
      <trkpt lat="43.8342" lon="6.41698">
        <ele>952.293</ele>
        <time>2014-08-29T07:34:56Z</time>
      </trkpt>
      <trkpt lat="43.83416" lon="6.41687">
        <ele>955.228</ele>
        <time>2014-08-29T07:35:04Z</time>
      </trkpt>
      <trkpt lat="43.83411" lon="6.41674">
        <ele>956.845</ele>
        <time>2014-08-29T07:35:12Z</time>
      </trkpt>
      <trkpt lat="43.8341" lon="6.41671">
        <ele>956.813</ele>
        <time>2014-08-29T07:35:14Z</time>
      </trkpt>
      <trkpt lat="43.83404" lon="6.41657">
        <ele>957.994</ele>
        <time>2014-08-29T07:35:23Z</time>
      </trkpt>
      <trkpt lat="43.83403" lon="6.41653">
        <ele>958.336</ele>
        <time>2014-08-29T07:35:25Z</time>
      </trkpt>
      <trkpt lat="43.83398" lon="6.41645">
        <ele>960.107</ele>
        <time>2014-08-29T07:35:31Z</time>
      </trkpt>
      <trkpt lat="43.83395" lon="6.41639">
        <ele>961.159</ele>
        <time>2014-08-29T07:35:35Z</time>
      </trkpt>
      <trkpt lat="43.83389" lon="6.41628">
        <ele>963.448</ele>
        <time>2014-08-29T07:35:41Z</time>
      </trkpt>
      <trkpt lat="43.8338" lon="6.41613">
        <ele>965.284</ele>
        <time>2014-08-29T07:35:49Z</time>
      </trkpt>
      <trkpt lat="43.83372" lon="6.41598">
        <ele>968.02</ele>
        <time>2014-08-29T07:35:57Z</time>
      </trkpt>
      <trkpt lat="43.83364" lon="6.41582">
        <ele>966.957</ele>
        <time>2014-08-29T07:36:05Z</time>
      </trkpt>
      <trkpt lat="43.83362" lon="6.41566">
        <ele>965.366</ele>
        <time>2014-08-29T07:36:12Z</time>
      </trkpt>
      <trkpt lat="43.83363" lon="6.41546">
        <ele>964.876</ele>
        <time>2014-08-29T07:36:21Z</time>
      </trkpt>
      <trkpt lat="43.83362" lon="6.41535">
        <ele>964.979</ele>
        <time>2014-08-29T07:36:28Z</time>
      </trkpt>
      <trkpt lat="43.83361" lon="6.41526">
        <ele>965.898</ele>
        <time>2014-08-29T07:36:33Z</time>
      </trkpt>
      <trkpt lat="43.8336" lon="6.41516">
        <ele>965.653</ele>
        <time>2014-08-29T07:36:38Z</time>
      </trkpt>
      <trkpt lat="43.83361" lon="6.41502">
        <ele>963.999</ele>
        <time>2014-08-29T07:36:45Z</time>
      </trkpt>
      <trkpt lat="43.83361" lon="6.41496">
        <ele>962.776</ele>
        <time>2014-08-29T07:36:48Z</time>
      </trkpt>
      <trkpt lat="43.8336" lon="6.41485">
        <ele>963.89</ele>
        <time>2014-08-29T07:36:54Z</time>
      </trkpt>
      <trkpt lat="43.83361" lon="6.41476">
        <ele>965.876</ele>
        <time>2014-08-29T07:37:00Z</time>
      </trkpt>
      <trkpt lat="43.83362" lon="6.4147">
        <ele>964.07</ele>
        <time>2014-08-29T07:37:04Z</time>
      </trkpt>
      <trkpt lat="43.8336" lon="6.41455">
        <ele>966.748</ele>
        <time>2014-08-29T07:37:12Z</time>
      </trkpt>
      <trkpt lat="43.83357" lon="6.41438">
        <ele>971.543</ele>
        <time>2014-08-29T07:37:20Z</time>
      </trkpt>
      <trkpt lat="43.83355" lon="6.41425">
        <ele>973.391</ele>
        <time>2014-08-29T07:37:27Z</time>
      </trkpt>
      <trkpt lat="43.83354" lon="6.41408">
        <ele>973.223</ele>
        <time>2014-08-29T07:37:35Z</time>
      </trkpt>
      <trkpt lat="43.83352" lon="6.41392">
        <ele>973.043</ele>
        <time>2014-08-29T07:37:42Z</time>
      </trkpt>
      <trkpt lat="43.83349" lon="6.41375">
        <ele>973.732</ele>
        <time>2014-08-29T07:37:49Z</time>
      </trkpt>
      <trkpt lat="43.8334" lon="6.41353">
        <ele>977.029</ele>
        <time>2014-08-29T07:37:57Z</time>
      </trkpt>
      <trkpt lat="43.83333" lon="6.41329">
        <ele>980.112</ele>
        <time>2014-08-29T07:38:04Z</time>
      </trkpt>
      <trkpt lat="43.83326" lon="6.41307">
        <ele>983.106</ele>
        <time>2014-08-29T07:38:12Z</time>
      </trkpt>
      <trkpt lat="43.83321" lon="6.41288">
        <ele>984.485</ele>
        <time>2014-08-29T07:38:19Z</time>
      </trkpt>
      <trkpt lat="43.83317" lon="6.41266">
        <ele>984.92</ele>
        <time>2014-08-29T07:38:25Z</time>
      </trkpt>
      <trkpt lat="43.83317" lon="6.41233">
        <ele>978.596</ele>
        <time>2014-08-29T07:38:32Z</time>
      </trkpt>
      <trkpt lat="43.83326" lon="6.41207">
        <ele>976.822</ele>
        <time>2014-08-29T07:38:40Z</time>
      </trkpt>
      <trkpt lat="43.83333" lon="6.41186">
        <ele>980.869</ele>
        <time>2014-08-29T07:38:48Z</time>
      </trkpt>
      <trkpt lat="43.83334" lon="6.4117">
        <ele>984.558</ele>
        <time>2014-08-29T07:38:55Z</time>
      </trkpt>
      <trkpt lat="43.83335" lon="6.41155">
        <ele>985.987</ele>
        <time>2014-08-29T07:39:01Z</time>
      </trkpt>
      <trkpt lat="43.83337" lon="6.41137">
        <ele>985.157</ele>
        <time>2014-08-29T07:39:08Z</time>
      </trkpt>
      <trkpt lat="43.83338" lon="6.41121">
        <ele>982.977</ele>
        <time>2014-08-29T07:39:14Z</time>
      </trkpt>
      <trkpt lat="43.83336" lon="6.41099">
        <ele>979.711</ele>
        <time>2014-08-29T07:39:22Z</time>
      </trkpt>
      <trkpt lat="43.83328" lon="6.41085">
        <ele>985.306</ele>
        <time>2014-08-29T07:39:29Z</time>
      </trkpt>
      <trkpt lat="43.83317" lon="6.41076">
        <ele>990.454</ele>
        <time>2014-08-29T07:39:35Z</time>
      </trkpt>
      <trkpt lat="43.83303" lon="6.41063">
        <ele>993.421</ele>
        <time>2014-08-29T07:39:42Z</time>
      </trkpt>
      <trkpt lat="43.83289" lon="6.4105">
        <ele>995.448</ele>
        <time>2014-08-29T07:39:49Z</time>
      </trkpt>
      <trkpt lat="43.83277" lon="6.41038">
        <ele>997.252</ele>
        <time>2014-08-29T07:39:55Z</time>
      </trkpt>
      <trkpt lat="43.83261" lon="6.41024">
        <ele>997.178</ele>
        <time>2014-08-29T07:40:03Z</time>
      </trkpt>
      <trkpt lat="43.83244" lon="6.41008">
        <ele>999.622</ele>
        <time>2014-08-29T07:40:11Z</time>
      </trkpt>
      <trkpt lat="43.83231" lon="6.40996">
        <ele>999.418</ele>
        <time>2014-08-29T07:40:18Z</time>
      </trkpt>
      <trkpt lat="43.83215" lon="6.40981">
        <ele>999.369</ele>
        <time>2014-08-29T07:40:27Z</time>
      </trkpt>
      <trkpt lat="43.83204" lon="6.4097">
        <ele>999.44</ele>
        <time>2014-08-29T07:40:33Z</time>
      </trkpt>
      <trkpt lat="43.83194" lon="6.40953">
        <ele>1003.781</ele>
        <time>2014-08-29T07:40:41Z</time>
      </trkpt>
      <trkpt lat="43.8319" lon="6.40942">
        <ele>1005.507</ele>
        <time>2014-08-29T07:40:46Z</time>
      </trkpt>
      <trkpt lat="43.83187" lon="6.40926">
        <ele>1008.327</ele>
        <time>2014-08-29T07:40:53Z</time>
      </trkpt>
      <trkpt lat="43.83184" lon="6.40907">
        <ele>1009.816</ele>
        <time>2014-08-29T07:41:01Z</time>
      </trkpt>
      <trkpt lat="43.83182" lon="6.40889">
        <ele>1010.977</ele>
        <time>2014-08-29T07:41:09Z</time>
      </trkpt>
      <trkpt lat="43.83178" lon="6.40871">
        <ele>1010.737</ele>
        <time>2014-08-29T07:41:18Z</time>
      </trkpt>
      <trkpt lat="43.83178" lon="6.40867">
        <ele>1010.796</ele>
        <time>2014-08-29T07:41:20Z</time>
      </trkpt>
      <trkpt lat="43.83179" lon="6.4085">
        <ele>1010.342</ele>
        <time>2014-08-29T07:41:28Z</time>
      </trkpt>
      <trkpt lat="43.83179" lon="6.40836">
        <ele>1011.828</ele>
        <time>2014-08-29T07:41:35Z</time>
      </trkpt>
      <trkpt lat="43.83179" lon="6.40823">
        <ele>1011.424</ele>
        <time>2014-08-29T07:41:41Z</time>
      </trkpt>
      <trkpt lat="43.83181" lon="6.40804">
        <ele>1011.029</ele>
        <time>2014-08-29T07:41:50Z</time>
      </trkpt>
      <trkpt lat="43.83182" lon="6.4079">
        <ele>1010.854</ele>
        <time>2014-08-29T07:41:56Z</time>
      </trkpt>
      <trkpt lat="43.83182" lon="6.40779">
        <ele>1010.437</ele>
        <time>2014-08-29T07:42:02Z</time>
      </trkpt>
      <trkpt lat="43.83182" lon="6.40763">
        <ele>1014.066</ele>
        <time>2014-08-29T07:42:10Z</time>
      </trkpt>
      <trkpt lat="43.83184" lon="6.40749">
        <ele>1013.462</ele>
        <time>2014-08-29T07:42:17Z</time>
      </trkpt>
      <trkpt lat="43.83184" lon="6.40748">
        <ele>1013.571</ele>
        <time>2014-08-29T07:42:18Z</time>
      </trkpt>
      <trkpt lat="43.83184" lon="6.40735">
        <ele>1017.134</ele>
        <time>2014-08-29T07:42:25Z</time>
      </trkpt>
      <trkpt lat="43.83184" lon="6.40732">
        <ele>1017.024</ele>
        <time>2014-08-29T07:42:27Z</time>
      </trkpt>
      <trkpt lat="43.83184" lon="6.40722">
        <ele>1017.914</ele>
        <time>2014-08-29T07:42:32Z</time>
      </trkpt>
      <trkpt lat="43.83179" lon="6.40708">
        <ele>1019.425</ele>
        <time>2014-08-29T07:42:40Z</time>
      </trkpt>
      <trkpt lat="43.83174" lon="6.40697">
        <ele>1021.927</ele>
        <time>2014-08-29T07:42:47Z</time>
      </trkpt>
      <trkpt lat="43.83169" lon="6.40687">
        <ele>1022.629</ele>
        <time>2014-08-29T07:42:53Z</time>
      </trkpt>
      <trkpt lat="43.83159" lon="6.40669">
        <ele>1027.133</ele>
        <time>2014-08-29T07:43:03Z</time>
      </trkpt>
      <trkpt lat="43.83152" lon="6.40655">
        <ele>1029.639</ele>
        <time>2014-08-29T07:43:10Z</time>
      </trkpt>
      <trkpt lat="43.83149" lon="6.40643">
        <ele>1029.592</ele>
        <time>2014-08-29T07:43:16Z</time>
      </trkpt>
      <trkpt lat="43.83144" lon="6.40629">
        <ele>1030.342</ele>
        <time>2014-08-29T07:43:23Z</time>
      </trkpt>
      <trkpt lat="43.83141" lon="6.40621">
        <ele>1032.468</ele>
        <time>2014-08-29T07:43:28Z</time>
      </trkpt>
      <trkpt lat="43.83131" lon="6.40608">
        <ele>1032.612</ele>
        <time>2014-08-29T07:43:37Z</time>
      </trkpt>
      <trkpt lat="43.83129" lon="6.40606">
        <ele>1033.061</ele>
        <time>2014-08-29T07:43:39Z</time>
      </trkpt>
      <trkpt lat="43.83121" lon="6.406">
        <ele>1033.25</ele>
        <time>2014-08-29T07:43:45Z</time>
      </trkpt>
      <trkpt lat="43.8312" lon="6.406">
        <ele>1034.023</ele>
        <time>2014-08-29T07:43:46Z</time>
      </trkpt>
      <trkpt lat="43.83112" lon="6.40597">
        <ele>1034.029</ele>
        <time>2014-08-29T07:43:53Z</time>
      </trkpt>
      <trkpt lat="43.83104" lon="6.40599">
        <ele>1034.909</ele>
        <time>2014-08-29T07:44:00Z</time>
      </trkpt>
      <trkpt lat="43.83094" lon="6.40599">
        <ele>1035.588</ele>
        <time>2014-08-29T07:44:08Z</time>
      </trkpt>
      <trkpt lat="43.83084" lon="6.40598">
        <ele>1040.655</ele>
        <time>2014-08-29T07:44:16Z</time>
      </trkpt>
      <trkpt lat="43.83078" lon="6.406">
        <ele>1040.75</ele>
        <time>2014-08-29T07:44:22Z</time>
      </trkpt>
      <trkpt lat="43.83068" lon="6.40601">
        <ele>1041.917</ele>
        <time>2014-08-29T07:44:29Z</time>
      </trkpt>
      <trkpt lat="43.83056" lon="6.40604">
        <ele>1041.317</ele>
        <time>2014-08-29T07:44:38Z</time>
      </trkpt>
      <trkpt lat="43.83048" lon="6.40606">
        <ele>1042.941</ele>
        <time>2014-08-29T07:44:44Z</time>
      </trkpt>
      <trkpt lat="43.83043" lon="6.40608">
        <ele>1042.868</ele>
        <time>2014-08-29T07:44:47Z</time>
      </trkpt>
      <trkpt lat="43.83034" lon="6.40613">
        <ele>1045.417</ele>
        <time>2014-08-29T07:44:55Z</time>
      </trkpt>
      <trkpt lat="43.83027" lon="6.40618">
        <ele>1046.478</ele>
        <time>2014-08-29T07:45:01Z</time>
      </trkpt>
      <trkpt lat="43.83026" lon="6.4062">
        <ele>1047.8</ele>
        <time>2014-08-29T07:45:05Z</time>
      </trkpt>
      <trkpt lat="43.8302" lon="6.40626">
        <ele>1049.081</ele>
        <time>2014-08-29T07:45:10Z</time>
      </trkpt>
      <trkpt lat="43.8301" lon="6.40636">
        <ele>1051.031</ele>
        <time>2014-08-29T07:45:18Z</time>
      </trkpt>
      <trkpt lat="43.83003" lon="6.40643">
        <ele>1053.052</ele>
        <time>2014-08-29T07:45:25Z</time>
      </trkpt>
      <trkpt lat="43.82995" lon="6.40652">
        <ele>1055.413</ele>
        <time>2014-08-29T07:45:32Z</time>
      </trkpt>
      <trkpt lat="43.82986" lon="6.4066">
        <ele>1056.533</ele>
        <time>2014-08-29T07:45:38Z</time>
      </trkpt>
      <trkpt lat="43.82979" lon="6.40668">
        <ele>1056.672</ele>
        <time>2014-08-29T07:45:43Z</time>
      </trkpt>
      <trkpt lat="43.82975" lon="6.40672">
        <ele>1057.332</ele>
        <time>2014-08-29T07:45:46Z</time>
      </trkpt>
      <trkpt lat="43.8297" lon="6.4068">
        <ele>1058.049</ele>
        <time>2014-08-29T07:45:52Z</time>
      </trkpt>
      <trkpt lat="43.82967" lon="6.40684">
        <ele>1058.099</ele>
        <time>2014-08-29T07:45:55Z</time>
      </trkpt>
      <trkpt lat="43.82962" lon="6.40689">
        <ele>1059.121</ele>
        <time>2014-08-29T07:45:59Z</time>
      </trkpt>
      <trkpt lat="43.82951" lon="6.40699">
        <ele>1059.644</ele>
        <time>2014-08-29T07:46:07Z</time>
      </trkpt>
      <trkpt lat="43.82944" lon="6.40707">
        <ele>1059.58</ele>
        <time>2014-08-29T07:46:13Z</time>
      </trkpt>
      <trkpt lat="43.82937" lon="6.40713">
        <ele>1061.261</ele>
        <time>2014-08-29T07:46:19Z</time>
      </trkpt>
      <trkpt lat="43.8293" lon="6.40722">
        <ele>1061.371</ele>
        <time>2014-08-29T07:46:26Z</time>
      </trkpt>
      <trkpt lat="43.82921" lon="6.40729">
        <ele>1061.679</ele>
        <time>2014-08-29T07:46:32Z</time>
      </trkpt>
      <trkpt lat="43.82911" lon="6.40734">
        <ele>1063.804</ele>
        <time>2014-08-29T07:46:38Z</time>
      </trkpt>
      <trkpt lat="43.82909" lon="6.40736">
        <ele>1063.18</ele>
        <time>2014-08-29T07:46:40Z</time>
      </trkpt>
      <trkpt lat="43.82894" lon="6.4074">
        <ele>1062.691</ele>
        <time>2014-08-29T07:46:49Z</time>
      </trkpt>
      <trkpt lat="43.82881" lon="6.40743">
        <ele>1064.983</ele>
        <time>2014-08-29T07:46:57Z</time>
      </trkpt>
      <trkpt lat="43.82878" lon="6.40745">
        <ele>1066.133</ele>
        <time>2014-08-29T07:46:59Z</time>
      </trkpt>
      <trkpt lat="43.82866" lon="6.40747">
        <ele>1067.827</ele>
        <time>2014-08-29T07:47:07Z</time>
      </trkpt>
      <trkpt lat="43.82857" lon="6.40748">
        <ele>1067.937</ele>
        <time>2014-08-29T07:47:13Z</time>
      </trkpt>
      <trkpt lat="43.8285" lon="6.40748">
        <ele>1067.367</ele>
        <time>2014-08-29T07:47:17Z</time>
      </trkpt>
      <trkpt lat="43.82845" lon="6.40746">
        <ele>1067.299</ele>
        <time>2014-08-29T07:47:21Z</time>
      </trkpt>
      <trkpt lat="43.82838" lon="6.40739">
        <ele>1068.674</ele>
        <time>2014-08-29T07:47:28Z</time>
      </trkpt>
      <trkpt lat="43.8283" lon="6.4073">
        <ele>1072.305</ele>
        <time>2014-08-29T07:47:35Z</time>
      </trkpt>
      <trkpt lat="43.82822" lon="6.4072">
        <ele>1073.512</ele>
        <time>2014-08-29T07:47:42Z</time>
      </trkpt>
      <trkpt lat="43.82814" lon="6.40711">
        <ele>1077.929</ele>
        <time>2014-08-29T07:47:49Z</time>
      </trkpt>
      <trkpt lat="43.82806" lon="6.40702">
        <ele>1076.727</ele>
        <time>2014-08-29T07:47:57Z</time>
      </trkpt>
      <trkpt lat="43.82795" lon="6.40698">
        <ele>1076.196</ele>
        <time>2014-08-29T07:48:06Z</time>
      </trkpt>
      <trkpt lat="43.82787" lon="6.407">
        <ele>1076.629</ele>
        <time>2014-08-29T07:48:13Z</time>
      </trkpt>
      <trkpt lat="43.82777" lon="6.40702">
        <ele>1073.924</ele>
        <time>2014-08-29T07:48:21Z</time>
      </trkpt>
      <trkpt lat="43.82775" lon="6.40703">
        <ele>1073.482</ele>
        <time>2014-08-29T07:48:23Z</time>
      </trkpt>
      <trkpt lat="43.82768" lon="6.40705">
        <ele>1074.214</ele>
        <time>2014-08-29T07:48:28Z</time>
      </trkpt>
      <trkpt lat="43.82753" lon="6.40704">
        <ele>1078.636</ele>
        <time>2014-08-29T07:48:38Z</time>
      </trkpt>
      <trkpt lat="43.82746" lon="6.40699">
        <ele>1078.927</ele>
        <time>2014-08-29T07:48:45Z</time>
      </trkpt>
      <trkpt lat="43.82744" lon="6.40693">
        <ele>1080.03</ele>
        <time>2014-08-29T07:48:50Z</time>
      </trkpt>
      <trkpt lat="43.82739" lon="6.40682">
        <ele>1080.488</ele>
        <time>2014-08-29T07:48:56Z</time>
      </trkpt>
      <trkpt lat="43.82736" lon="6.40675">
        <ele>1080.651</ele>
        <time>2014-08-29T07:49:01Z</time>
      </trkpt>
      <trkpt lat="43.82733" lon="6.4067">
        <ele>1081.911</ele>
        <time>2014-08-29T07:49:04Z</time>
      </trkpt>
      <trkpt lat="43.82729" lon="6.40659">
        <ele>1086.063</ele>
        <time>2014-08-29T07:49:11Z</time>
      </trkpt>
      <trkpt lat="43.82734" lon="6.40652">
        <ele>1086.511</ele>
        <time>2014-08-29T07:49:17Z</time>
      </trkpt>
      <trkpt lat="43.82743" lon="6.40652">
        <ele>1085.491</ele>
        <time>2014-08-29T07:49:23Z</time>
      </trkpt>
      <trkpt lat="43.82756" lon="6.4065">
        <ele>1088.451</ele>
        <time>2014-08-29T07:49:32Z</time>
      </trkpt>
      <trkpt lat="43.82766" lon="6.4064">
        <ele>1089.229</ele>
        <time>2014-08-29T07:49:41Z</time>
      </trkpt>
      <trkpt lat="43.82768" lon="6.40637">
        <ele>1090.05</ele>
        <time>2014-08-29T07:49:43Z</time>
      </trkpt>
      <trkpt lat="43.82763" lon="6.40629">
        <ele>1093.145</ele>
        <time>2014-08-29T07:49:50Z</time>
      </trkpt>
      <trkpt lat="43.82755" lon="6.40627">
        <ele>1095.521</ele>
        <time>2014-08-29T07:49:56Z</time>
      </trkpt>
      <trkpt lat="43.82754" lon="6.40626">
        <ele>1096.112</ele>
        <time>2014-08-29T07:49:57Z</time>
      </trkpt>
      <trkpt lat="43.82744" lon="6.40621">
        <ele>1099.311</ele>
        <time>2014-08-29T07:50:05Z</time>
      </trkpt>
      <trkpt lat="43.82736" lon="6.40615">
        <ele>1101.09</ele>
        <time>2014-08-29T07:50:12Z</time>
      </trkpt>
      <trkpt lat="43.82726" lon="6.40607">
        <ele>1103.07</ele>
        <time>2014-08-29T07:50:20Z</time>
      </trkpt>
      <trkpt lat="43.82717" lon="6.40599">
        <ele>1102.557</ele>
        <time>2014-08-29T07:50:29Z</time>
      </trkpt>
      <trkpt lat="43.82708" lon="6.40596">
        <ele>1103.247</ele>
        <time>2014-08-29T07:50:36Z</time>
      </trkpt>
      <trkpt lat="43.82697" lon="6.40595">
        <ele>1102.923</ele>
        <time>2014-08-29T07:50:45Z</time>
      </trkpt>
      <trkpt lat="43.82692" lon="6.40595">
        <ele>1102.473</ele>
        <time>2014-08-29T07:50:50Z</time>
      </trkpt>
      <trkpt lat="43.82684" lon="6.40598">
        <ele>1101.502</ele>
        <time>2014-08-29T07:50:56Z</time>
      </trkpt>
      <trkpt lat="43.82674" lon="6.40599">
        <ele>1104.557</ele>
        <time>2014-08-29T07:51:02Z</time>
      </trkpt>
      <trkpt lat="43.82661" lon="6.40598">
        <ele>1106.581</ele>
        <time>2014-08-29T07:51:10Z</time>
      </trkpt>
      <trkpt lat="43.82659" lon="6.40597">
        <ele>1105.818</ele>
        <time>2014-08-29T07:51:11Z</time>
      </trkpt>
      <trkpt lat="43.82648" lon="6.40594">
        <ele>1106.573</ele>
        <time>2014-08-29T07:51:17Z</time>
      </trkpt>
      <trkpt lat="43.8264" lon="6.40589">
        <ele>1108.902</ele>
        <time>2014-08-29T07:51:23Z</time>
      </trkpt>
      <trkpt lat="43.82633" lon="6.40583">
        <ele>1110.3</ele>
        <time>2014-08-29T07:51:29Z</time>
      </trkpt>
      <trkpt lat="43.8263" lon="6.40578">
        <ele>1110.289</ele>
        <time>2014-08-29T07:51:33Z</time>
      </trkpt>
      <trkpt lat="43.82621" lon="6.40569">
        <ele>1111.568</ele>
        <time>2014-08-29T07:51:41Z</time>
      </trkpt>
      <trkpt lat="43.82611" lon="6.40563">
        <ele>1114.641</ele>
        <time>2014-08-29T07:51:48Z</time>
      </trkpt>
      <trkpt lat="43.82603" lon="6.40558">
        <ele>1114.976</ele>
        <time>2014-08-29T07:51:55Z</time>
      </trkpt>
      <trkpt lat="43.82594" lon="6.40553">
        <ele>1115.697</ele>
        <time>2014-08-29T07:52:02Z</time>
      </trkpt>
      <trkpt lat="43.82583" lon="6.40548">
        <ele>1116.278</ele>
        <time>2014-08-29T07:52:09Z</time>
      </trkpt>
      <trkpt lat="43.82574" lon="6.40543">
        <ele>1117.088</ele>
        <time>2014-08-29T07:52:16Z</time>
      </trkpt>
      <trkpt lat="43.82573" lon="6.40543">
        <ele>1117.99</ele>
        <time>2014-08-29T07:52:17Z</time>
      </trkpt>
      <trkpt lat="43.82561" lon="6.40537">
        <ele>1118.642</ele>
        <time>2014-08-29T07:52:25Z</time>
      </trkpt>
      <trkpt lat="43.8255" lon="6.40532">
        <ele>1118.831</ele>
        <time>2014-08-29T07:52:32Z</time>
      </trkpt>
      <trkpt lat="43.82539" lon="6.40528">
        <ele>1121.696</ele>
        <time>2014-08-29T07:52:39Z</time>
      </trkpt>
      <trkpt lat="43.8253" lon="6.40522">
        <ele>1123.077</ele>
        <time>2014-08-29T07:52:46Z</time>
      </trkpt>
      <trkpt lat="43.82525" lon="6.40513">
        <ele>1124.438</ele>
        <time>2014-08-29T07:52:52Z</time>
      </trkpt>
      <trkpt lat="43.8252" lon="6.40502">
        <ele>1127.559</ele>
        <time>2014-08-29T07:52:59Z</time>
      </trkpt>
      <trkpt lat="43.82515" lon="6.40488">
        <ele>1128.397</ele>
        <time>2014-08-29T07:53:06Z</time>
      </trkpt>
      <trkpt lat="43.82506" lon="6.40484">
        <ele>1130.109</ele>
        <time>2014-08-29T07:53:12Z</time>
      </trkpt>
      <trkpt lat="43.82499" lon="6.40482">
        <ele>1128.975</ele>
        <time>2014-08-29T07:53:17Z</time>
      </trkpt>
      <trkpt lat="43.82495" lon="6.4048">
        <ele>1129.715</ele>
        <time>2014-08-29T07:53:21Z</time>
      </trkpt>
      <trkpt lat="43.82485" lon="6.40471">
        <ele>1129.175</ele>
        <time>2014-08-29T07:53:29Z</time>
      </trkpt>
      <trkpt lat="43.82476" lon="6.40464">
        <ele>1132.33</ele>
        <time>2014-08-29T07:53:36Z</time>
      </trkpt>
      <trkpt lat="43.82473" lon="6.4046">
        <ele>1132.776</ele>
        <time>2014-08-29T07:53:39Z</time>
      </trkpt>
      <trkpt lat="43.82461" lon="6.40451">
        <ele>1136.364</ele>
        <time>2014-08-29T07:53:49Z</time>
      </trkpt>
      <trkpt lat="43.82455" lon="6.40446">
        <ele>1135.335</ele>
        <time>2014-08-29T07:53:55Z</time>
      </trkpt>
      <trkpt lat="43.82447" lon="6.40441">
        <ele>1136.23</ele>
        <time>2014-08-29T07:54:01Z</time>
      </trkpt>
      <trkpt lat="43.82438" lon="6.40436">
        <ele>1136.84</ele>
        <time>2014-08-29T07:54:08Z</time>
      </trkpt>
      <trkpt lat="43.82427" lon="6.40431">
        <ele>1140.55</ele>
        <time>2014-08-29T07:54:16Z</time>
      </trkpt>
      <trkpt lat="43.82419" lon="6.40425">
        <ele>1139.536</ele>
        <time>2014-08-29T07:54:22Z</time>
      </trkpt>
      <trkpt lat="43.82411" lon="6.40418">
        <ele>1136.336</ele>
        <time>2014-08-29T07:54:29Z</time>
      </trkpt>
      <trkpt lat="43.82402" lon="6.4041">
        <ele>1132.31</ele>
        <time>2014-08-29T07:54:35Z</time>
      </trkpt>
      <trkpt lat="43.82395" lon="6.40405">
        <ele>1131.857</ele>
        <time>2014-08-29T07:54:41Z</time>
      </trkpt>
      <trkpt lat="43.82383" lon="6.40398">
        <ele>1134.854</ele>
        <time>2014-08-29T07:54:48Z</time>
      </trkpt>
      <trkpt lat="43.82371" lon="6.40391">
        <ele>1139.078</ele>
        <time>2014-08-29T07:54:55Z</time>
      </trkpt>
      <trkpt lat="43.82355" lon="6.40381">
        <ele>1141.072</ele>
        <time>2014-08-29T07:55:05Z</time>
      </trkpt>
      <trkpt lat="43.82349" lon="6.40376">
        <ele>1141.163</ele>
        <time>2014-08-29T07:55:09Z</time>
      </trkpt>
      <trkpt lat="43.82344" lon="6.40366">
        <ele>1140.608</ele>
        <time>2014-08-29T07:55:16Z</time>
      </trkpt>
      <trkpt lat="43.82338" lon="6.40361">
        <ele>1149.571</ele>
        <time>2014-08-29T07:58:50Z</time>
      </trkpt>
      <trkpt lat="43.82337" lon="6.4036">
        <ele>1153.072</ele>
        <time>2014-08-29T07:59:02Z</time>
      </trkpt>
      <trkpt lat="43.82334" lon="6.40347">
        <ele>1154.838</ele>
        <time>2014-08-29T07:59:09Z</time>
      </trkpt>
      <trkpt lat="43.82331" lon="6.40338">
        <ele>1155.737</ele>
        <time>2014-08-29T07:59:14Z</time>
      </trkpt>
      <trkpt lat="43.82326" lon="6.40329">
        <ele>1156.279</ele>
        <time>2014-08-29T07:59:19Z</time>
      </trkpt>
      <trkpt lat="43.82323" lon="6.40319">
        <ele>1155.923</ele>
        <time>2014-08-29T07:59:25Z</time>
      </trkpt>
      <trkpt lat="43.8232" lon="6.40311">
        <ele>1156.734</ele>
        <time>2014-08-29T07:59:30Z</time>
      </trkpt>
      <trkpt lat="43.82317" lon="6.40294">
        <ele>1156.164</ele>
        <time>2014-08-29T07:59:39Z</time>
      </trkpt>
      <trkpt lat="43.82312" lon="6.4028">
        <ele>1157.436</ele>
        <time>2014-08-29T07:59:47Z</time>
      </trkpt>
      <trkpt lat="43.8231" lon="6.40269">
        <ele>1158.977</ele>
        <time>2014-08-29T07:59:54Z</time>
      </trkpt>
      <trkpt lat="43.82308" lon="6.40258">
        <ele>1159.277</ele>
        <time>2014-08-29T08:00:01Z</time>
      </trkpt>
      <trkpt lat="43.82306" lon="6.40251">
        <ele>1158.17</ele>
        <time>2014-08-29T08:00:07Z</time>
      </trkpt>
      <trkpt lat="43.82306" lon="6.40249">
        <ele>1157.577</ele>
        <time>2014-08-29T08:00:15Z</time>
      </trkpt>
      <trkpt lat="43.82305" lon="6.40248">
        <ele>1159.583</ele>
        <time>2014-08-29T08:00:22Z</time>
      </trkpt>
      <trkpt lat="43.82305" lon="6.40245">
        <ele>1161.265</ele>
        <time>2014-08-29T08:00:28Z</time>
      </trkpt>
      <trkpt lat="43.82302" lon="6.40236">
        <ele>1163.62</ele>
        <time>2014-08-29T08:00:34Z</time>
      </trkpt>
      <trkpt lat="43.82308" lon="6.40233">
        <ele>1164.175</ele>
        <time>2014-08-29T08:00:39Z</time>
      </trkpt>
      <trkpt lat="43.82318" lon="6.40237">
        <ele>1163.031</ele>
        <time>2014-08-29T08:00:45Z</time>
      </trkpt>
      <trkpt lat="43.82319" lon="6.40238">
        <ele>1162.88</ele>
        <time>2014-08-29T08:00:46Z</time>
      </trkpt>
      <trkpt lat="43.82329" lon="6.40242">
        <ele>1162.068</ele>
        <time>2014-08-29T08:00:54Z</time>
      </trkpt>
      <trkpt lat="43.82341" lon="6.40248">
        <ele>1160.407</ele>
        <time>2014-08-29T08:01:02Z</time>
      </trkpt>
      <trkpt lat="43.82352" lon="6.40253">
        <ele>1161.212</ele>
        <time>2014-08-29T08:01:10Z</time>
      </trkpt>
      <trkpt lat="43.82355" lon="6.40251">
        <ele>1161.354</ele>
        <time>2014-08-29T08:01:15Z</time>
      </trkpt>
      <trkpt lat="43.82354" lon="6.40249">
        <ele>1161.673</ele>
        <time>2014-08-29T08:01:17Z</time>
      </trkpt>
      <trkpt lat="43.82351" lon="6.40241">
        <ele>1166.908</ele>
        <time>2014-08-29T08:01:25Z</time>
      </trkpt>
      <trkpt lat="43.8235" lon="6.40237">
        <ele>1168.412</ele>
        <time>2014-08-29T08:01:32Z</time>
      </trkpt>
      <trkpt lat="43.82344" lon="6.40232">
        <ele>1182.904</ele>
        <time>2014-08-29T08:02:27Z</time>
      </trkpt>
      <trkpt lat="43.8234" lon="6.40219">
        <ele>1181.021</ele>
        <time>2014-08-29T08:02:32Z</time>
      </trkpt>
      <trkpt lat="43.82335" lon="6.40202">
        <ele>1180.111</ele>
        <time>2014-08-29T08:02:39Z</time>
      </trkpt>
      <trkpt lat="43.8233" lon="6.40184">
        <ele>1181.023</ele>
        <time>2014-08-29T08:02:47Z</time>
      </trkpt>
      <trkpt lat="43.82323" lon="6.40164">
        <ele>1184.078</ele>
        <time>2014-08-29T08:02:56Z</time>
      </trkpt>
      <trkpt lat="43.82321" lon="6.4015">
        <ele>1185.148</ele>
        <time>2014-08-29T08:03:03Z</time>
      </trkpt>
      <trkpt lat="43.82317" lon="6.40132">
        <ele>1184.063</ele>
        <time>2014-08-29T08:03:12Z</time>
      </trkpt>
      <trkpt lat="43.82313" lon="6.40114">
        <ele>1183.512</ele>
        <time>2014-08-29T08:03:21Z</time>
      </trkpt>
      <trkpt lat="43.82312" lon="6.40097">
        <ele>1183.784</ele>
        <time>2014-08-29T08:03:29Z</time>
      </trkpt>
      <trkpt lat="43.8231" lon="6.40081">
        <ele>1184.012</ele>
        <time>2014-08-29T08:03:36Z</time>
      </trkpt>
      <trkpt lat="43.82305" lon="6.4006">
        <ele>1187.475</ele>
        <time>2014-08-29T08:03:46Z</time>
      </trkpt>
      <trkpt lat="43.82302" lon="6.40043">
        <ele>1187.994</ele>
        <time>2014-08-29T08:03:54Z</time>
      </trkpt>
      <trkpt lat="43.82298" lon="6.40025">
        <ele>1188.622</ele>
        <time>2014-08-29T08:04:03Z</time>
      </trkpt>
      <trkpt lat="43.82293" lon="6.40006">
        <ele>1190.033</ele>
        <time>2014-08-29T08:04:12Z</time>
      </trkpt>
      <trkpt lat="43.8229" lon="6.39989">
        <ele>1191.214</ele>
        <time>2014-08-29T08:04:20Z</time>
      </trkpt>
      <trkpt lat="43.82286" lon="6.39975">
        <ele>1193.846</ele>
        <time>2014-08-29T08:04:28Z</time>
      </trkpt>
      <trkpt lat="43.82278" lon="6.39955">
        <ele>1197.416</ele>
        <time>2014-08-29T08:04:39Z</time>
      </trkpt>
      <trkpt lat="43.82273" lon="6.39939">
        <ele>1199.297</ele>
        <time>2014-08-29T08:04:47Z</time>
      </trkpt>
      <trkpt lat="43.82269" lon="6.39926">
        <ele>1203.011</ele>
        <time>2014-08-29T08:04:54Z</time>
      </trkpt>
      <trkpt lat="43.82262" lon="6.39915">
        <ele>1204.416</ele>
        <time>2014-08-29T08:05:02Z</time>
      </trkpt>
      <trkpt lat="43.82255" lon="6.39913">
        <ele>1203.631</ele>
        <time>2014-08-29T08:05:07Z</time>
      </trkpt>
      <trkpt lat="43.82248" lon="6.39909">
        <ele>1203.152</ele>
        <time>2014-08-29T08:05:13Z</time>
      </trkpt>
      <trkpt lat="43.82248" lon="6.39907">
        <ele>1202.692</ele>
        <time>2014-08-29T08:05:14Z</time>
      </trkpt>
      <trkpt lat="43.82247" lon="6.39899">
        <ele>1203.735</ele>
        <time>2014-08-29T08:05:19Z</time>
      </trkpt>
      <trkpt lat="43.82244" lon="6.3989">
        <ele>1204.494</ele>
        <time>2014-08-29T08:05:26Z</time>
      </trkpt>
      <trkpt lat="43.8224" lon="6.39892">
        <ele>1206.026</ele>
        <time>2014-08-29T08:05:31Z</time>
      </trkpt>
      <trkpt lat="43.82238" lon="6.39899">
        <ele>1209.155</ele>
        <time>2014-08-29T08:05:36Z</time>
      </trkpt>
      <trkpt lat="43.82232" lon="6.39908">
        <ele>1214.043</ele>
        <time>2014-08-29T08:05:43Z</time>
      </trkpt>
      <trkpt lat="43.82223" lon="6.39921">
        <ele>1215.899</ele>
        <time>2014-08-29T08:05:52Z</time>
      </trkpt>
      <trkpt lat="43.82214" lon="6.39927">
        <ele>1214.534</ele>
        <time>2014-08-29T08:05:59Z</time>
      </trkpt>
      <trkpt lat="43.82202" lon="6.39934">
        <ele>1212.711</ele>
        <time>2014-08-29T08:06:07Z</time>
      </trkpt>
      <trkpt lat="43.8219" lon="6.39934">
        <ele>1215.72</ele>
        <time>2014-08-29T08:06:15Z</time>
      </trkpt>
      <trkpt lat="43.82175" lon="6.39931">
        <ele>1216.151</ele>
        <time>2014-08-29T08:06:26Z</time>
      </trkpt>
      <trkpt lat="43.82166" lon="6.39926">
        <ele>1217.393</ele>
        <time>2014-08-29T08:06:33Z</time>
      </trkpt>
      <trkpt lat="43.82157" lon="6.39921">
        <ele>1218.723</ele>
        <time>2014-08-29T08:06:39Z</time>
      </trkpt>
      <trkpt lat="43.82145" lon="6.3991">
        <ele>1221.745</ele>
        <time>2014-08-29T08:06:47Z</time>
      </trkpt>
      <trkpt lat="43.82133" lon="6.39905">
        <ele>1220.531</ele>
        <time>2014-08-29T08:06:54Z</time>
      </trkpt>
      <trkpt lat="43.82124" lon="6.39907">
        <ele>1220.112</ele>
        <time>2014-08-29T08:07:01Z</time>
      </trkpt>
      <trkpt lat="43.82112" lon="6.3991">
        <ele>1219.29</ele>
        <time>2014-08-29T08:07:09Z</time>
      </trkpt>
      <trkpt lat="43.82109" lon="6.39911">
        <ele>1219.43</ele>
        <time>2014-08-29T08:07:11Z</time>
      </trkpt>
      <trkpt lat="43.82094" lon="6.39913">
        <ele>1219.741</ele>
        <time>2014-08-29T08:07:20Z</time>
      </trkpt>
      <trkpt lat="43.82093" lon="6.39913">
        <ele>1219.771</ele>
        <time>2014-08-29T08:07:21Z</time>
      </trkpt>
      <trkpt lat="43.82076" lon="6.39908">
        <ele>1221.682</ele>
        <time>2014-08-29T08:07:30Z</time>
      </trkpt>
      <trkpt lat="43.82069" lon="6.399">
        <ele>1223.035</ele>
        <time>2014-08-29T08:07:36Z</time>
      </trkpt>
      <trkpt lat="43.82058" lon="6.3989">
        <ele>1221.68</ele>
        <time>2014-08-29T08:07:43Z</time>
      </trkpt>
      <trkpt lat="43.82044" lon="6.39882">
        <ele>1223.872</ele>
        <time>2014-08-29T08:07:51Z</time>
      </trkpt>
      <trkpt lat="43.82032" lon="6.39872">
        <ele>1226.003</ele>
        <time>2014-08-29T08:07:58Z</time>
      </trkpt>
      <trkpt lat="43.82022" lon="6.3986">
        <ele>1229.237</ele>
        <time>2014-08-29T08:08:05Z</time>
      </trkpt>
      <trkpt lat="43.82016" lon="6.39852">
        <ele>1230.365</ele>
        <time>2014-08-29T08:08:10Z</time>
      </trkpt>
      <trkpt lat="43.82007" lon="6.39839">
        <ele>1233.015</ele>
        <time>2014-08-29T08:08:18Z</time>
      </trkpt>
      <trkpt lat="43.82" lon="6.39829">
        <ele>1231.378</ele>
        <time>2014-08-29T08:08:25Z</time>
      </trkpt>
      <trkpt lat="43.81997" lon="6.39826">
        <ele>1231.43</ele>
        <time>2014-08-29T08:08:27Z</time>
      </trkpt>
      <trkpt lat="43.81989" lon="6.39813">
        <ele>1233.977</ele>
        <time>2014-08-29T08:08:35Z</time>
      </trkpt>
      <trkpt lat="43.81978" lon="6.39803">
        <ele>1235.666</ele>
        <time>2014-08-29T08:08:41Z</time>
      </trkpt>
      <trkpt lat="43.81969" lon="6.39786">
        <ele>1238.496</ele>
        <time>2014-08-29T08:08:49Z</time>
      </trkpt>
      <trkpt lat="43.81962" lon="6.39763">
        <ele>1236.087</ele>
        <time>2014-08-29T08:08:58Z</time>
      </trkpt>
      <trkpt lat="43.81954" lon="6.39749">
        <ele>1234.738</ele>
        <time>2014-08-29T08:09:05Z</time>
      </trkpt>
      <trkpt lat="43.81947" lon="6.39741">
        <ele>1238.886</ele>
        <time>2014-08-29T08:09:11Z</time>
      </trkpt>
      <trkpt lat="43.81934" lon="6.39731">
        <ele>1239.819</ele>
        <time>2014-08-29T08:09:19Z</time>
      </trkpt>
      <trkpt lat="43.8192" lon="6.39728">
        <ele>1242.322</ele>
        <time>2014-08-29T08:09:26Z</time>
      </trkpt>
      <trkpt lat="43.8191" lon="6.39721">
        <ele>1245.095</ele>
        <time>2014-08-29T08:09:32Z</time>
      </trkpt>
      <trkpt lat="43.81902" lon="6.39707">
        <ele>1247.947</ele>
        <time>2014-08-29T08:09:39Z</time>
      </trkpt>
      <trkpt lat="43.81895" lon="6.39685">
        <ele>1247.26</ele>
        <time>2014-08-29T08:09:48Z</time>
      </trkpt>
      <trkpt lat="43.81893" lon="6.39669">
        <ele>1249.366</ele>
        <time>2014-08-29T08:09:55Z</time>
      </trkpt>
      <trkpt lat="43.8189" lon="6.39652">
        <ele>1250.53</ele>
        <time>2014-08-29T08:10:02Z</time>
      </trkpt>
      <trkpt lat="43.81888" lon="6.39636">
        <ele>1249.128</ele>
        <time>2014-08-29T08:10:08Z</time>
      </trkpt>
      <trkpt lat="43.81887" lon="6.39621">
        <ele>1250.591</ele>
        <time>2014-08-29T08:10:14Z</time>
      </trkpt>
      <trkpt lat="43.81888" lon="6.39601">
        <ele>1250.93</ele>
        <time>2014-08-29T08:10:21Z</time>
      </trkpt>
      <trkpt lat="43.81888" lon="6.39586">
        <ele>1250.316</ele>
        <time>2014-08-29T08:10:28Z</time>
      </trkpt>
      <trkpt lat="43.8189" lon="6.3958">
        <ele>1247.881</ele>
        <time>2014-08-29T08:10:34Z</time>
      </trkpt>
      <trkpt lat="43.81897" lon="6.39571">
        <ele>1251.058</ele>
        <time>2014-08-29T08:14:48Z</time>
      </trkpt>
      <trkpt lat="43.81893" lon="6.39572">
        <ele>1247.834</ele>
        <time>2014-08-29T08:14:54Z</time>
      </trkpt>
      <trkpt lat="43.81889" lon="6.39558">
        <ele>1246.635</ele>
        <time>2014-08-29T08:15:01Z</time>
      </trkpt>
      <trkpt lat="43.81887" lon="6.39531">
        <ele>1246.887</ele>
        <time>2014-08-29T08:15:08Z</time>
      </trkpt>
      <trkpt lat="43.81886" lon="6.39507">
        <ele>1246.285</ele>
        <time>2014-08-29T08:15:14Z</time>
      </trkpt>
      <trkpt lat="43.81889" lon="6.39477">
        <ele>1245.698</ele>
        <time>2014-08-29T08:15:21Z</time>
      </trkpt>
      <trkpt lat="43.81892" lon="6.39455">
        <ele>1245.209</ele>
        <time>2014-08-29T08:15:25Z</time>
      </trkpt>
      <trkpt lat="43.81882" lon="6.39422">
        <ele>1241.821</ele>
        <time>2014-08-29T08:15:30Z</time>
      </trkpt>
      <trkpt lat="43.81881" lon="6.39392">
        <ele>1240.855</ele>
        <time>2014-08-29T08:15:34Z</time>
      </trkpt>
      <trkpt lat="43.81885" lon="6.39381">
        <ele>1241.351</ele>
        <time>2014-08-29T08:15:36Z</time>
      </trkpt>
      <trkpt lat="43.81893" lon="6.39366">
        <ele>1242.712</ele>
        <time>2014-08-29T08:15:40Z</time>
      </trkpt>
      <trkpt lat="43.81891" lon="6.39344">
        <ele>1242.787</ele>
        <time>2014-08-29T08:15:46Z</time>
      </trkpt>
      <trkpt lat="43.81885" lon="6.39306">
        <ele>1241.245</ele>
        <time>2014-08-29T08:15:54Z</time>
      </trkpt>
      <trkpt lat="43.81881" lon="6.39276">
        <ele>1241.382</ele>
        <time>2014-08-29T08:16:01Z</time>
      </trkpt>
      <trkpt lat="43.81876" lon="6.39248">
        <ele>1242.251</ele>
        <time>2014-08-29T08:16:08Z</time>
      </trkpt>
      <trkpt lat="43.81873" lon="6.39214">
        <ele>1243.361</ele>
        <time>2014-08-29T08:16:16Z</time>
      </trkpt>
      <trkpt lat="43.81868" lon="6.39189">
        <ele>1244.491</ele>
        <time>2014-08-29T08:16:23Z</time>
      </trkpt>
      <trkpt lat="43.81865" lon="6.39174">
        <ele>1245.081</ele>
        <time>2014-08-29T08:16:27Z</time>
      </trkpt>
      <trkpt lat="43.81852" lon="6.39152">
        <ele>1245.104</ele>
        <time>2014-08-29T08:16:33Z</time>
      </trkpt>
      <trkpt lat="43.81843" lon="6.39136">
        <ele>1244.832</ele>
        <time>2014-08-29T08:16:37Z</time>
      </trkpt>
      <trkpt lat="43.81834" lon="6.3911">
        <ele>1244.694</ele>
        <time>2014-08-29T08:16:42Z</time>
      </trkpt>
      <trkpt lat="43.81819" lon="6.39086">
        <ele>1244.816</ele>
        <time>2014-08-29T08:16:48Z</time>
      </trkpt>
      <trkpt lat="43.81804" lon="6.39059">
        <ele>1246.189</ele>
        <time>2014-08-29T08:16:56Z</time>
      </trkpt>
      <trkpt lat="43.81794" lon="6.39045">
        <ele>1244.412</ele>
        <time>2014-08-29T08:17:00Z</time>
      </trkpt>
      <trkpt lat="43.81774" lon="6.39019">
        <ele>1244.143</ele>
        <time>2014-08-29T08:17:07Z</time>
      </trkpt>
      <trkpt lat="43.81753" lon="6.38986">
        <ele>1243.463</ele>
        <time>2014-08-29T08:17:15Z</time>
      </trkpt>
      <trkpt lat="43.81741" lon="6.38967">
        <ele>1242.74</ele>
        <time>2014-08-29T08:17:20Z</time>
      </trkpt>
      <trkpt lat="43.81731" lon="6.3894">
        <ele>1241.711</ele>
        <time>2014-08-29T08:17:26Z</time>
      </trkpt>
      <trkpt lat="43.81728" lon="6.38914">
        <ele>1242.444</ele>
        <time>2014-08-29T08:17:33Z</time>
      </trkpt>
      <trkpt lat="43.81728" lon="6.38896">
        <ele>1244.334</ele>
        <time>2014-08-29T08:17:40Z</time>
      </trkpt>
      <trkpt lat="43.81726" lon="6.38883">
        <ele>1244.943</ele>
        <time>2014-08-29T08:17:45Z</time>
      </trkpt>
      <trkpt lat="43.81725" lon="6.38881">
        <ele>1242.479</ele>
        <time>2014-08-29T08:17:50Z</time>
      </trkpt>
      <trkpt lat="43.81721" lon="6.38879">
        <ele>1244.21</ele>
        <time>2014-08-29T08:17:56Z</time>
      </trkpt>
      <trkpt lat="43.81717" lon="6.38879">
        <ele>1244.47</ele>
        <time>2014-08-29T08:18:00Z</time>
      </trkpt>
      <trkpt lat="43.81718" lon="6.38879">
        <ele>1243.162</ele>
        <time>2014-08-29T08:18:36Z</time>
      </trkpt>
      <trkpt lat="43.81713" lon="6.38876">
        <ele>1244.044</ele>
        <time>2014-08-29T08:18:41Z</time>
      </trkpt>
      <trkpt lat="43.81712" lon="6.38866">
        <ele>1245.579</ele>
        <time>2014-08-29T08:18:47Z</time>
      </trkpt>
      <trkpt lat="43.81716" lon="6.3886">
        <ele>1246.692</ele>
        <time>2014-08-29T08:18:50Z</time>
      </trkpt>
      <trkpt lat="43.81715" lon="6.38843">
        <ele>1249.493</ele>
        <time>2014-08-29T08:18:57Z</time>
      </trkpt>
      <trkpt lat="43.81709" lon="6.38826">
        <ele>1250.588</ele>
        <time>2014-08-29T08:19:05Z</time>
      </trkpt>
      <trkpt lat="43.81701" lon="6.38813">
        <ele>1250.794</ele>
        <time>2014-08-29T08:19:11Z</time>
      </trkpt>
      <trkpt lat="43.81696" lon="6.38803">
        <ele>1250.751</ele>
        <time>2014-08-29T08:19:16Z</time>
      </trkpt>
      <trkpt lat="43.81686" lon="6.38786">
        <ele>1248.317</ele>
        <time>2014-08-29T08:19:23Z</time>
      </trkpt>
      <trkpt lat="43.81676" lon="6.38777">
        <ele>1247.861</ele>
        <time>2014-08-29T08:19:29Z</time>
      </trkpt>
      <trkpt lat="43.81663" lon="6.38771">
        <ele>1248.132</ele>
        <time>2014-08-29T08:19:35Z</time>
      </trkpt>
      <trkpt lat="43.81656" lon="6.38767">
        <ele>1248.453</ele>
        <time>2014-08-29T08:19:40Z</time>
      </trkpt>
      <trkpt lat="43.81656" lon="6.38768">
        <ele>1248.848</ele>
        <time>2014-08-29T08:19:43Z</time>
      </trkpt>
      <trkpt lat="43.81666" lon="6.38775">
        <ele>1249.393</ele>
        <time>2014-08-29T08:19:50Z</time>
      </trkpt>
      <trkpt lat="43.81672" lon="6.38778">
        <ele>1250.595</ele>
        <time>2014-08-29T08:19:54Z</time>
      </trkpt>
      <trkpt lat="43.81676" lon="6.3877">
        <ele>1252.304</ele>
        <time>2014-08-29T08:19:59Z</time>
      </trkpt>
      <trkpt lat="43.81673" lon="6.38764">
        <ele>1253.482</ele>
        <time>2014-08-29T08:20:05Z</time>
      </trkpt>
      <trkpt lat="43.81667" lon="6.38754">
        <ele>1255.196</ele>
        <time>2014-08-29T08:20:10Z</time>
      </trkpt>
      <trkpt lat="43.81664" lon="6.38739">
        <ele>1256.804</ele>
        <time>2014-08-29T08:20:17Z</time>
      </trkpt>
      <trkpt lat="43.81664" lon="6.38738">
        <ele>1257.217</ele>
        <time>2014-08-29T08:20:22Z</time>
      </trkpt>
      <trkpt lat="43.81664" lon="6.38734">
        <ele>1256.035</ele>
        <time>2014-08-29T08:20:29Z</time>
      </trkpt>
      <trkpt lat="43.81663" lon="6.38731">
        <ele>1255.904</ele>
        <time>2014-08-29T08:20:34Z</time>
      </trkpt>
      <trkpt lat="43.81667" lon="6.38726">
        <ele>1255.987</ele>
        <time>2014-08-29T08:20:42Z</time>
      </trkpt>
      <trkpt lat="43.81668" lon="6.38724">
        <ele>1256.709</ele>
        <time>2014-08-29T08:20:47Z</time>
      </trkpt>
      <trkpt lat="43.81673" lon="6.38721">
        <ele>1257.138</ele>
        <time>2014-08-29T08:20:54Z</time>
      </trkpt>
      <trkpt lat="43.81676" lon="6.38715">
        <ele>1257.438</ele>
        <time>2014-08-29T08:21:01Z</time>
      </trkpt>
      <trkpt lat="43.81679" lon="6.38713">
        <ele>1257.116</ele>
        <time>2014-08-29T08:21:06Z</time>
      </trkpt>
      <trkpt lat="43.81685" lon="6.38711">
        <ele>1256.715</ele>
        <time>2014-08-29T08:21:13Z</time>
      </trkpt>
      <trkpt lat="43.81686" lon="6.38708">
        <ele>1259.042</ele>
        <time>2014-08-29T08:21:19Z</time>
      </trkpt>
      <trkpt lat="43.81687" lon="6.38706">
        <ele>1260.144</ele>
        <time>2014-08-29T08:21:21Z</time>
      </trkpt>
      <trkpt lat="43.81684" lon="6.38703">
        <ele>1264.132</ele>
        <time>2014-08-29T08:21:29Z</time>
      </trkpt>
      <trkpt lat="43.81679" lon="6.38692">
        <ele>1265.239</ele>
        <time>2014-08-29T08:21:36Z</time>
      </trkpt>
      <trkpt lat="43.81671" lon="6.3867">
        <ele>1267.208</ele>
        <time>2014-08-29T08:21:45Z</time>
      </trkpt>
      <trkpt lat="43.81674" lon="6.38653">
        <ele>1267.976</ele>
        <time>2014-08-29T08:21:52Z</time>
      </trkpt>
      <trkpt lat="43.81677" lon="6.38645">
        <ele>1267.735</ele>
        <time>2014-08-29T08:21:55Z</time>
      </trkpt>
      <trkpt lat="43.81673" lon="6.38633">
        <ele>1268.377</ele>
        <time>2014-08-29T08:22:00Z</time>
      </trkpt>
      <trkpt lat="43.81663" lon="6.3862">
        <ele>1270.144</ele>
        <time>2014-08-29T08:22:07Z</time>
      </trkpt>
      <trkpt lat="43.81663" lon="6.38606">
        <ele>1270.627</ele>
        <time>2014-08-29T08:22:12Z</time>
      </trkpt>
      <trkpt lat="43.8166" lon="6.38585">
        <ele>1271.667</ele>
        <time>2014-08-29T08:22:20Z</time>
      </trkpt>
      <trkpt lat="43.81653" lon="6.38566">
        <ele>1272.377</ele>
        <time>2014-08-29T08:22:28Z</time>
      </trkpt>
      <trkpt lat="43.81647" lon="6.38553">
        <ele>1272.367</ele>
        <time>2014-08-29T08:22:34Z</time>
      </trkpt>
      <trkpt lat="43.81638" lon="6.38535">
        <ele>1273.779</ele>
        <time>2014-08-29T08:22:42Z</time>
      </trkpt>
      <trkpt lat="43.8163" lon="6.38521">
        <ele>1274.577</ele>
        <time>2014-08-29T08:22:49Z</time>
      </trkpt>
      <trkpt lat="43.81624" lon="6.38504">
        <ele>1276.385</ele>
        <time>2014-08-29T08:22:56Z</time>
      </trkpt>
      <trkpt lat="43.81617" lon="6.3849">
        <ele>1278.502</ele>
        <time>2014-08-29T08:23:03Z</time>
      </trkpt>
      <trkpt lat="43.81609" lon="6.38476">
        <ele>1279.969</ele>
        <time>2014-08-29T08:23:10Z</time>
      </trkpt>
      <trkpt lat="43.816" lon="6.38457">
        <ele>1282.152</ele>
        <time>2014-08-29T08:23:20Z</time>
      </trkpt>
      <trkpt lat="43.81594" lon="6.38443">
        <ele>1284.459</ele>
        <time>2014-08-29T08:23:28Z</time>
      </trkpt>
      <trkpt lat="43.81588" lon="6.38434">
        <ele>1286.447</ele>
        <time>2014-08-29T08:23:34Z</time>
      </trkpt>
      <trkpt lat="43.81582" lon="6.38419">
        <ele>1288.262</ele>
        <time>2014-08-29T08:23:43Z</time>
      </trkpt>
      <trkpt lat="43.81574" lon="6.38402">
        <ele>1289.062</ele>
        <time>2014-08-29T08:23:53Z</time>
      </trkpt>
      <trkpt lat="43.81567" lon="6.38387">
        <ele>1289.91</ele>
        <time>2014-08-29T08:24:02Z</time>
      </trkpt>
      <trkpt lat="43.81561" lon="6.38371">
        <ele>1291.302</ele>
        <time>2014-08-29T08:24:11Z</time>
      </trkpt>
      <trkpt lat="43.81557" lon="6.38356">
        <ele>1291.975</ele>
        <time>2014-08-29T08:24:17Z</time>
      </trkpt>
      <trkpt lat="43.81549" lon="6.38333">
        <ele>1292.117</ele>
        <time>2014-08-29T08:24:28Z</time>
      </trkpt>
      <trkpt lat="43.81545" lon="6.38316">
        <ele>1292.568</ele>
        <time>2014-08-29T08:24:36Z</time>
      </trkpt>
      <trkpt lat="43.81541" lon="6.38303">
        <ele>1293.803</ele>
        <time>2014-08-29T08:24:43Z</time>
      </trkpt>
      <trkpt lat="43.81537" lon="6.38288">
        <ele>1294.923</ele>
        <time>2014-08-29T08:24:51Z</time>
      </trkpt>
      <trkpt lat="43.81531" lon="6.38275">
        <ele>1295.453</ele>
        <time>2014-08-29T08:24:58Z</time>
      </trkpt>
      <trkpt lat="43.81523" lon="6.38258">
        <ele>1297.994</ele>
        <time>2014-08-29T08:25:08Z</time>
      </trkpt>
      <trkpt lat="43.81516" lon="6.38245">
        <ele>1300.555</ele>
        <time>2014-08-29T08:25:16Z</time>
      </trkpt>
      <trkpt lat="43.81511" lon="6.38234">
        <ele>1302.068</ele>
        <time>2014-08-29T08:25:22Z</time>
      </trkpt>
      <trkpt lat="43.81503" lon="6.38213">
        <ele>1303.043</ele>
        <time>2014-08-29T08:25:33Z</time>
      </trkpt>
      <trkpt lat="43.81497" lon="6.38196">
        <ele>1304.137</ele>
        <time>2014-08-29T08:25:43Z</time>
      </trkpt>
      <trkpt lat="43.81494" lon="6.38189">
        <ele>1305.358</ele>
        <time>2014-08-29T08:25:49Z</time>
      </trkpt>
      <trkpt lat="43.81493" lon="6.3819">
        <ele>1304.662</ele>
        <time>2014-08-29T08:26:08Z</time>
      </trkpt>
      <trkpt lat="43.81493" lon="6.38186">
        <ele>1304.546</ele>
        <time>2014-08-29T08:27:08Z</time>
      </trkpt>
      <trkpt lat="43.81488" lon="6.38166">
        <ele>1307.212</ele>
        <time>2014-08-29T08:27:15Z</time>
      </trkpt>
      <trkpt lat="43.8149" lon="6.38151">
        <ele>1309.232</ele>
        <time>2014-08-29T08:27:21Z</time>
      </trkpt>
      <trkpt lat="43.81492" lon="6.38132">
        <ele>1314.274</ele>
        <time>2014-08-29T08:27:29Z</time>
      </trkpt>
      <trkpt lat="43.81489" lon="6.38118">
        <ele>1316.12</ele>
        <time>2014-08-29T08:27:35Z</time>
      </trkpt>
      <trkpt lat="43.81485" lon="6.38102">
        <ele>1318.129</ele>
        <time>2014-08-29T08:27:43Z</time>
      </trkpt>
      <trkpt lat="43.81485" lon="6.38088">
        <ele>1320.137</ele>
        <time>2014-08-29T08:27:50Z</time>
      </trkpt>
      <trkpt lat="43.81483" lon="6.38076">
        <ele>1321.508</ele>
        <time>2014-08-29T08:27:57Z</time>
      </trkpt>
      <trkpt lat="43.81482" lon="6.38063">
        <ele>1322.599</ele>
        <time>2014-08-29T08:28:03Z</time>
      </trkpt>
      <trkpt lat="43.81481" lon="6.38049">
        <ele>1324.339</ele>
        <time>2014-08-29T08:28:11Z</time>
      </trkpt>
      <trkpt lat="43.81476" lon="6.38026">
        <ele>1325.135</ele>
        <time>2014-08-29T08:28:23Z</time>
      </trkpt>
      <trkpt lat="43.81473" lon="6.3801">
        <ele>1326.679</ele>
        <time>2014-08-29T08:28:32Z</time>
      </trkpt>
      <trkpt lat="43.81469" lon="6.37996">
        <ele>1328.818</ele>
        <time>2014-08-29T08:28:40Z</time>
      </trkpt>
      <trkpt lat="43.81466" lon="6.3798">
        <ele>1330.418</ele>
        <time>2014-08-29T08:28:48Z</time>
      </trkpt>
      <trkpt lat="43.81462" lon="6.37966">
        <ele>1331.466</ele>
        <time>2014-08-29T08:28:55Z</time>
      </trkpt>
      <trkpt lat="43.81461" lon="6.37949">
        <ele>1333.046</ele>
        <time>2014-08-29T08:29:03Z</time>
      </trkpt>
      <trkpt lat="43.81461" lon="6.37945">
        <ele>1333.514</ele>
        <time>2014-08-29T08:29:08Z</time>
      </trkpt>
      <trkpt lat="43.81476" lon="6.3795">
        <ele>1341.486</ele>
        <time>2014-08-29T08:30:20Z</time>
      </trkpt>
      <trkpt lat="43.81475" lon="6.37949">
        <ele>1341.065</ele>
        <time>2014-08-29T08:30:26Z</time>
      </trkpt>
      <trkpt lat="43.81466" lon="6.37946">
        <ele>1336.809</ele>
        <time>2014-08-29T08:30:33Z</time>
      </trkpt>
      <trkpt lat="43.81463" lon="6.37946">
        <ele>1334.67</ele>
        <time>2014-08-29T08:30:41Z</time>
      </trkpt>
      <trkpt lat="43.81462" lon="6.37943">
        <ele>1325.193</ele>
        <time>2014-08-29T08:35:12Z</time>
      </trkpt>
      <trkpt lat="43.81463" lon="6.37943">
        <ele>1327.626</ele>
        <time>2014-08-29T08:35:20Z</time>
      </trkpt>
      <trkpt lat="43.81461" lon="6.37938">
        <ele>1325.512</ele>
        <time>2014-08-29T08:36:13Z</time>
      </trkpt>
      <trkpt lat="43.81458" lon="6.37926">
        <ele>1326.737</ele>
        <time>2014-08-29T08:36:19Z</time>
      </trkpt>
      <trkpt lat="43.81458" lon="6.37909">
        <ele>1329.267</ele>
        <time>2014-08-29T08:36:27Z</time>
      </trkpt>
      <trkpt lat="43.81459" lon="6.37891">
        <ele>1330.352</ele>
        <time>2014-08-29T08:36:34Z</time>
      </trkpt>
      <trkpt lat="43.8146" lon="6.37877">
        <ele>1331.274</ele>
        <time>2014-08-29T08:36:40Z</time>
      </trkpt>
      <trkpt lat="43.81461" lon="6.37872">
        <ele>1331.894</ele>
        <time>2014-08-29T08:36:43Z</time>
      </trkpt>
      <trkpt lat="43.81469" lon="6.37865">
        <ele>1332.757</ele>
        <time>2014-08-29T08:36:50Z</time>
      </trkpt>
      <trkpt lat="43.81475" lon="6.37856">
        <ele>1334.259</ele>
        <time>2014-08-29T08:36:57Z</time>
      </trkpt>
      <trkpt lat="43.81481" lon="6.3785">
        <ele>1335.598</ele>
        <time>2014-08-29T08:37:04Z</time>
      </trkpt>
      <trkpt lat="43.8149" lon="6.37847">
        <ele>1336.957</ele>
        <time>2014-08-29T08:37:12Z</time>
      </trkpt>
      <trkpt lat="43.81501" lon="6.37847">
        <ele>1337.495</ele>
        <time>2014-08-29T08:37:21Z</time>
      </trkpt>
      <trkpt lat="43.81512" lon="6.37846">
        <ele>1339.278</ele>
        <time>2014-08-29T08:37:30Z</time>
      </trkpt>
      <trkpt lat="43.81515" lon="6.37846">
        <ele>1339.745</ele>
        <time>2014-08-29T08:37:33Z</time>
      </trkpt>
      <trkpt lat="43.81523" lon="6.37843">
        <ele>1341.54</ele>
        <time>2014-08-29T08:37:40Z</time>
      </trkpt>
      <trkpt lat="43.81529" lon="6.3784">
        <ele>1343.752</ele>
        <time>2014-08-29T08:37:45Z</time>
      </trkpt>
      <trkpt lat="43.81531" lon="6.37838">
        <ele>1345.533</ele>
        <time>2014-08-29T08:37:49Z</time>
      </trkpt>
      <trkpt lat="43.81532" lon="6.37837">
        <ele>1345.965</ele>
        <time>2014-08-29T08:37:50Z</time>
      </trkpt>
      <trkpt lat="43.81533" lon="6.37831">
        <ele>1346.973</ele>
        <time>2014-08-29T08:37:57Z</time>
      </trkpt>
      <trkpt lat="43.81534" lon="6.37824">
        <ele>1348.095</ele>
        <time>2014-08-29T08:38:02Z</time>
      </trkpt>
      <trkpt lat="43.81538" lon="6.3781">
        <ele>1349.816</ele>
        <time>2014-08-29T08:38:08Z</time>
      </trkpt>
      <trkpt lat="43.81549" lon="6.37787">
        <ele>1350.994</ele>
        <time>2014-08-29T08:38:19Z</time>
      </trkpt>
      <trkpt lat="43.81555" lon="6.37769">
        <ele>1351.593</ele>
        <time>2014-08-29T08:38:27Z</time>
      </trkpt>
      <trkpt lat="43.81557" lon="6.37762">
        <ele>1353.455</ele>
        <time>2014-08-29T08:38:33Z</time>
      </trkpt>
      <trkpt lat="43.81558" lon="6.37756">
        <ele>1351.921</ele>
        <time>2014-08-29T08:38:44Z</time>
      </trkpt>
      <trkpt lat="43.81562" lon="6.37747">
        <ele>1352.626</ele>
        <time>2014-08-29T08:38:52Z</time>
      </trkpt>
      <trkpt lat="43.81565" lon="6.37743">
        <ele>1354.427</ele>
        <time>2014-08-29T08:38:57Z</time>
      </trkpt>
      <trkpt lat="43.81565" lon="6.37732">
        <ele>1356.516</ele>
        <time>2014-08-29T08:39:05Z</time>
      </trkpt>
      <trkpt lat="43.81565" lon="6.3773">
        <ele>1352.731</ele>
        <time>2014-08-29T08:40:37Z</time>
      </trkpt>
      <trkpt lat="43.81565" lon="6.37713">
        <ele>1354.978</ele>
        <time>2014-08-29T08:40:44Z</time>
      </trkpt>
      <trkpt lat="43.81569" lon="6.37691">
        <ele>1358.439</ele>
        <time>2014-08-29T08:40:52Z</time>
      </trkpt>
      <trkpt lat="43.81571" lon="6.37673">
        <ele>1362.07</ele>
        <time>2014-08-29T08:41:00Z</time>
      </trkpt>
      <trkpt lat="43.81575" lon="6.37654">
        <ele>1362.468</ele>
        <time>2014-08-29T08:41:08Z</time>
      </trkpt>
      <trkpt lat="43.81578" lon="6.37645">
        <ele>1364.048</ele>
        <time>2014-08-29T08:41:13Z</time>
      </trkpt>
      <trkpt lat="43.81584" lon="6.37631">
        <ele>1364.648</ele>
        <time>2014-08-29T08:41:20Z</time>
      </trkpt>
      <trkpt lat="43.81588" lon="6.37621">
        <ele>1364.828</ele>
        <time>2014-08-29T08:41:25Z</time>
      </trkpt>
      <trkpt lat="43.81591" lon="6.37617">
        <ele>1365.486</ele>
        <time>2014-08-29T08:41:29Z</time>
      </trkpt>
      <trkpt lat="43.81592" lon="6.37613">
        <ele>1365.582</ele>
        <time>2014-08-29T08:41:35Z</time>
      </trkpt>
      <trkpt lat="43.81592" lon="6.37609">
        <ele>1365.745</ele>
        <time>2014-08-29T08:41:45Z</time>
      </trkpt>
      <trkpt lat="43.81594" lon="6.37605">
        <ele>1368.597</ele>
        <time>2014-08-29T08:41:53Z</time>
      </trkpt>
      <trkpt lat="43.81597" lon="6.37601">
        <ele>1373.3</ele>
        <time>2014-08-29T08:42:00Z</time>
      </trkpt>
      <trkpt lat="43.81601" lon="6.37592">
        <ele>1374.586</ele>
        <time>2014-08-29T08:42:09Z</time>
      </trkpt>
      <trkpt lat="43.81601" lon="6.37591">
        <ele>1374.924</ele>
        <time>2014-08-29T08:42:10Z</time>
      </trkpt>
      <trkpt lat="43.81608" lon="6.3758">
        <ele>1374.573</ele>
        <time>2014-08-29T08:42:20Z</time>
      </trkpt>
      <trkpt lat="43.81613" lon="6.37569">
        <ele>1371.982</ele>
        <time>2014-08-29T08:42:30Z</time>
      </trkpt>
      <trkpt lat="43.81614" lon="6.3756">
        <ele>1372.567</ele>
        <time>2014-08-29T08:42:39Z</time>
      </trkpt>
      <trkpt lat="43.81615" lon="6.37558">
        <ele>1372.576</ele>
        <time>2014-08-29T08:42:41Z</time>
      </trkpt>
      <trkpt lat="43.81617" lon="6.37549">
        <ele>1373.265</ele>
        <time>2014-08-29T08:42:50Z</time>
      </trkpt>
      <trkpt lat="43.81624" lon="6.37541">
        <ele>1374.945</ele>
        <time>2014-08-29T08:42:59Z</time>
      </trkpt>
      <trkpt lat="43.81627" lon="6.37535">
        <ele>1376.899</ele>
        <time>2014-08-29T08:43:04Z</time>
      </trkpt>
      <trkpt lat="43.81628" lon="6.37524">
        <ele>1378.056</ele>
        <time>2014-08-29T08:43:13Z</time>
      </trkpt>
      <trkpt lat="43.81632" lon="6.37517">
        <ele>1381.198</ele>
        <time>2014-08-29T08:43:20Z</time>
      </trkpt>
      <trkpt lat="43.81631" lon="6.37514">
        <ele>1383.836</ele>
        <time>2014-08-29T08:43:27Z</time>
      </trkpt>
      <trkpt lat="43.81633" lon="6.37507">
        <ele>1383.844</ele>
        <time>2014-08-29T08:43:36Z</time>
      </trkpt>
      <trkpt lat="43.81639" lon="6.37486">
        <ele>1386.307</ele>
        <time>2014-08-29T08:43:45Z</time>
      </trkpt>
      <trkpt lat="43.81645" lon="6.37471">
        <ele>1387.478</ele>
        <time>2014-08-29T08:43:53Z</time>
      </trkpt>
      <trkpt lat="43.81653" lon="6.37457">
        <ele>1388.928</ele>
        <time>2014-08-29T08:44:00Z</time>
      </trkpt>
      <trkpt lat="43.81655" lon="6.37452">
        <ele>1389.293</ele>
        <time>2014-08-29T08:44:05Z</time>
      </trkpt>
      <trkpt lat="43.81657" lon="6.37445">
        <ele>1390.566</ele>
        <time>2014-08-29T08:44:10Z</time>
      </trkpt>
      <trkpt lat="43.8166" lon="6.37434">
        <ele>1392.542</ele>
        <time>2014-08-29T08:44:16Z</time>
      </trkpt>
      <trkpt lat="43.81666" lon="6.3742">
        <ele>1394.446</ele>
        <time>2014-08-29T08:44:24Z</time>
      </trkpt>
      <trkpt lat="43.81672" lon="6.37404">
        <ele>1395.729</ele>
        <time>2014-08-29T08:44:32Z</time>
      </trkpt>
      <trkpt lat="43.81678" lon="6.3739">
        <ele>1397.359</ele>
        <time>2014-08-29T08:44:40Z</time>
      </trkpt>
      <trkpt lat="43.81679" lon="6.37388">
        <ele>1396.313</ele>
        <time>2014-08-29T08:44:45Z</time>
      </trkpt>
      <trkpt lat="43.81681" lon="6.37386">
        <ele>1397.233</ele>
        <time>2014-08-29T08:44:52Z</time>
      </trkpt>
      <trkpt lat="43.81684" lon="6.37379">
        <ele>1398.496</ele>
        <time>2014-08-29T08:45:01Z</time>
      </trkpt>
      <trkpt lat="43.81693" lon="6.37365">
        <ele>1397.983</ele>
        <time>2014-08-29T08:45:09Z</time>
      </trkpt>
      <trkpt lat="43.81696" lon="6.37363">
        <ele>1398.353</ele>
        <time>2014-08-29T08:45:11Z</time>
      </trkpt>
      <trkpt lat="43.817" lon="6.37359">
        <ele>1400.045</ele>
        <time>2014-08-29T08:45:17Z</time>
      </trkpt>
      <trkpt lat="43.817" lon="6.37358">
        <ele>1401.123</ele>
        <time>2014-08-29T08:45:22Z</time>
      </trkpt>
      <trkpt lat="43.817" lon="6.37358">
        <ele>1400.901</ele>
        <time>2014-08-29T08:45:30Z</time>
      </trkpt>
      <trkpt lat="43.817" lon="6.37357">
        <ele>1406.006</ele>
        <time>2014-08-29T08:47:38Z</time>
      </trkpt>
      <trkpt lat="43.817" lon="6.37356">
        <ele>1405.751</ele>
        <time>2014-08-29T08:47:44Z</time>
      </trkpt>
      <trkpt lat="43.81704" lon="6.37348">
        <ele>1405.09</ele>
        <time>2014-08-29T08:47:50Z</time>
      </trkpt>
      <trkpt lat="43.81704" lon="6.37348">
        <ele>1406.722</ele>
        <time>2014-08-29T08:47:56Z</time>
      </trkpt>
      <trkpt lat="43.81708" lon="6.37342">
        <ele>1407.186</ele>
        <time>2014-08-29T08:48:00Z</time>
      </trkpt>
      <trkpt lat="43.81712" lon="6.37336">
        <ele>1407.708</ele>
        <time>2014-08-29T08:48:03Z</time>
      </trkpt>
      <trkpt lat="43.81713" lon="6.37326">
        <ele>1408.124</ele>
        <time>2014-08-29T08:48:07Z</time>
      </trkpt>
      <trkpt lat="43.81712" lon="6.37309">
        <ele>1408.365</ele>
        <time>2014-08-29T08:48:14Z</time>
      </trkpt>
      <trkpt lat="43.8171" lon="6.37293">
        <ele>1410.307</ele>
        <time>2014-08-29T08:48:21Z</time>
      </trkpt>
      <trkpt lat="43.8171" lon="6.3728">
        <ele>1412.499</ele>
        <time>2014-08-29T08:48:27Z</time>
      </trkpt>
      <trkpt lat="43.8171" lon="6.37278">
        <ele>1414.091</ele>
        <time>2014-08-29T08:48:29Z</time>
      </trkpt>
      <trkpt lat="43.8171" lon="6.37272">
        <ele>1413.896</ele>
        <time>2014-08-29T08:48:34Z</time>
      </trkpt>
      <trkpt lat="43.81711" lon="6.37268">
        <ele>1411.501</ele>
        <time>2014-08-29T08:48:42Z</time>
      </trkpt>
      <trkpt lat="43.81714" lon="6.37265">
        <ele>1412.844</ele>
        <time>2014-08-29T08:48:48Z</time>
      </trkpt>
      <trkpt lat="43.81714" lon="6.37257">
        <ele>1417.17</ele>
        <time>2014-08-29T08:48:58Z</time>
      </trkpt>
      <trkpt lat="43.81715" lon="6.37253">
        <ele>1412.379</ele>
        <time>2014-08-29T08:49:06Z</time>
      </trkpt>
      <trkpt lat="43.81714" lon="6.37246">
        <ele>1410.011</ele>
        <time>2014-08-29T08:49:14Z</time>
      </trkpt>
      <trkpt lat="43.81716" lon="6.37243">
        <ele>1414.25</ele>
        <time>2014-08-29T08:49:21Z</time>
      </trkpt>
      <trkpt lat="43.81715" lon="6.37236">
        <ele>1416.749</ele>
        <time>2014-08-29T08:49:29Z</time>
      </trkpt>
      <trkpt lat="43.8171" lon="6.37226">
        <ele>1416.023</ele>
        <time>2014-08-29T08:49:38Z</time>
      </trkpt>
      <trkpt lat="43.81707" lon="6.37221">
        <ele>1411.603</ele>
        <time>2014-08-29T08:50:04Z</time>
      </trkpt>
      <trkpt lat="43.81708" lon="6.3722">
        <ele>1413.184</ele>
        <time>2014-08-29T08:50:08Z</time>
      </trkpt>
      <trkpt lat="43.81708" lon="6.37208">
        <ele>1415.382</ele>
        <time>2014-08-29T08:50:14Z</time>
      </trkpt>
      <trkpt lat="43.81707" lon="6.37205">
        <ele>1415.383</ele>
        <time>2014-08-29T08:50:15Z</time>
      </trkpt>
      <trkpt lat="43.81704" lon="6.37195">
        <ele>1416.613</ele>
        <time>2014-08-29T08:50:21Z</time>
      </trkpt>
      <trkpt lat="43.81704" lon="6.37193">
        <ele>1419.463</ele>
        <time>2014-08-29T08:50:31Z</time>
      </trkpt>
      <trkpt lat="43.81703" lon="6.37186">
        <ele>1419.583</ele>
        <time>2014-08-29T08:50:41Z</time>
      </trkpt>
      <trkpt lat="43.81704" lon="6.37179">
        <ele>1420.738</ele>
        <time>2014-08-29T08:50:46Z</time>
      </trkpt>
      <trkpt lat="43.81704" lon="6.3718">
        <ele>1422.121</ele>
        <time>2014-08-29T08:50:47Z</time>
      </trkpt>
      <trkpt lat="43.81704" lon="6.37175">
        <ele>1421.903</ele>
        <time>2014-08-29T08:50:54Z</time>
      </trkpt>
      <trkpt lat="43.81703" lon="6.37165">
        <ele>1421.012</ele>
        <time>2014-08-29T08:50:59Z</time>
      </trkpt>
      <trkpt lat="43.81701" lon="6.37153">
        <ele>1421.475</ele>
        <time>2014-08-29T08:51:04Z</time>
      </trkpt>
      <trkpt lat="43.81697" lon="6.37143">
        <ele>1421.214</ele>
        <time>2014-08-29T08:51:08Z</time>
      </trkpt>
      <trkpt lat="43.81699" lon="6.37131">
        <ele>1423.008</ele>
        <time>2014-08-29T08:51:14Z</time>
      </trkpt>
      <trkpt lat="43.81699" lon="6.37128">
        <ele>1425.028</ele>
        <time>2014-08-29T08:51:20Z</time>
      </trkpt>
      <trkpt lat="43.81698" lon="6.37122">
        <ele>1427.096</ele>
        <time>2014-08-29T08:51:28Z</time>
      </trkpt>
      <trkpt lat="43.81697" lon="6.37114">
        <ele>1426.554</ele>
        <time>2014-08-29T08:51:32Z</time>
      </trkpt>
      <trkpt lat="43.81696" lon="6.37097">
        <ele>1428.991</ele>
        <time>2014-08-29T08:51:39Z</time>
      </trkpt>
      <trkpt lat="43.81696" lon="6.37093">
        <ele>1429.49</ele>
        <time>2014-08-29T08:51:41Z</time>
      </trkpt>
      <trkpt lat="43.81696" lon="6.37088">
        <ele>1430.385</ele>
        <time>2014-08-29T08:51:48Z</time>
      </trkpt>
      <trkpt lat="43.81693" lon="6.37084">
        <ele>1429.391</ele>
        <time>2014-08-29T08:51:56Z</time>
      </trkpt>
      <trkpt lat="43.81691" lon="6.37084">
        <ele>1425.632</ele>
        <time>2014-08-29T08:52:22Z</time>
      </trkpt>
      <trkpt lat="43.81692" lon="6.37076">
        <ele>1425.663</ele>
        <time>2014-08-29T08:52:29Z</time>
      </trkpt>
      <trkpt lat="43.81692" lon="6.37073">
        <ele>1427.154</ele>
        <time>2014-08-29T08:52:34Z</time>
      </trkpt>
      <trkpt lat="43.81692" lon="6.37057">
        <ele>1429.937</ele>
        <time>2014-08-29T08:52:41Z</time>
      </trkpt>
      <trkpt lat="43.81695" lon="6.37037">
        <ele>1433.928</ele>
        <time>2014-08-29T08:52:50Z</time>
      </trkpt>
      <trkpt lat="43.81698" lon="6.37024">
        <ele>1436.668</ele>
        <time>2014-08-29T08:52:57Z</time>
      </trkpt>
      <trkpt lat="43.81701" lon="6.37014">
        <ele>1439.127</ele>
        <time>2014-08-29T08:53:04Z</time>
      </trkpt>
      <trkpt lat="43.81701" lon="6.37006">
        <ele>1439.495</ele>
        <time>2014-08-29T08:53:10Z</time>
      </trkpt>
      <trkpt lat="43.81703" lon="6.36997">
        <ele>1440.527</ele>
        <time>2014-08-29T08:53:15Z</time>
      </trkpt>
      <trkpt lat="43.81704" lon="6.3699">
        <ele>1440.988</ele>
        <time>2014-08-29T08:53:19Z</time>
      </trkpt>
      <trkpt lat="43.81708" lon="6.36977">
        <ele>1442.938</ele>
        <time>2014-08-29T08:53:27Z</time>
      </trkpt>
      <trkpt lat="43.8171" lon="6.36972">
        <ele>1443.759</ele>
        <time>2014-08-29T08:53:30Z</time>
      </trkpt>
      <trkpt lat="43.81715" lon="6.36959">
        <ele>1445.4</ele>
        <time>2014-08-29T08:53:37Z</time>
      </trkpt>
      <trkpt lat="43.81719" lon="6.36951">
        <ele>1446.128</ele>
        <time>2014-08-29T08:53:42Z</time>
      </trkpt>
      <trkpt lat="43.81719" lon="6.36951">
        <ele>1447.636</ele>
        <time>2014-08-29T08:53:48Z</time>
      </trkpt>
      <trkpt lat="43.8172" lon="6.3695">
        <ele>1447.752</ele>
        <time>2014-08-29T08:54:01Z</time>
      </trkpt>
      <trkpt lat="43.81724" lon="6.36947">
        <ele>1447.934</ele>
        <time>2014-08-29T08:54:36Z</time>
      </trkpt>
      <trkpt lat="43.81726" lon="6.36949">
        <ele>1451.109</ele>
        <time>2014-08-29T08:54:41Z</time>
      </trkpt>
      <trkpt lat="43.81731" lon="6.36954">
        <ele>1453.167</ele>
        <time>2014-08-29T08:54:50Z</time>
      </trkpt>
      <trkpt lat="43.81734" lon="6.36963">
        <ele>1456.797</ele>
        <time>2014-08-29T08:55:00Z</time>
      </trkpt>
      <trkpt lat="43.81738" lon="6.36966">
        <ele>1455.685</ele>
        <time>2014-08-29T08:55:09Z</time>
      </trkpt>
      <trkpt lat="43.81742" lon="6.36969">
        <ele>1454.543</ele>
        <time>2014-08-29T08:55:15Z</time>
      </trkpt>
      <trkpt lat="43.81745" lon="6.36971">
        <ele>1455.806</ele>
        <time>2014-08-29T08:55:21Z</time>
      </trkpt>
      <trkpt lat="43.8175" lon="6.36974">
        <ele>1458.337</ele>
        <time>2014-08-29T08:55:28Z</time>
      </trkpt>
      <trkpt lat="43.81753" lon="6.36973">
        <ele>1459.335</ele>
        <time>2014-08-29T08:55:34Z</time>
      </trkpt>
      <trkpt lat="43.81756" lon="6.36973">
        <ele>1459.802</ele>
        <time>2014-08-29T08:55:42Z</time>
      </trkpt>
      <trkpt lat="43.81756" lon="6.36976">
        <ele>1461.744</ele>
        <time>2014-08-29T08:55:59Z</time>
      </trkpt>
      <trkpt lat="43.8176" lon="6.36982">
        <ele>1463.668</ele>
        <time>2014-08-29T08:56:07Z</time>
      </trkpt>
      <trkpt lat="43.81761" lon="6.36989">
        <ele>1465.825</ele>
        <time>2014-08-29T08:56:15Z</time>
      </trkpt>
      <trkpt lat="43.81762" lon="6.36994">
        <ele>1466.111</ele>
        <time>2014-08-29T08:56:23Z</time>
      </trkpt>
      <trkpt lat="43.81763" lon="6.36997">
        <ele>1464.872</ele>
        <time>2014-08-29T08:56:32Z</time>
      </trkpt>
      <trkpt lat="43.81763" lon="6.37016">
        <ele>1467.456</ele>
        <time>2014-08-29T08:56:41Z</time>
      </trkpt>
      <trkpt lat="43.81768" lon="6.37029">
        <ele>1470.067</ele>
        <time>2014-08-29T08:56:48Z</time>
      </trkpt>
      <trkpt lat="43.81776" lon="6.37038">
        <ele>1472.187</ele>
        <time>2014-08-29T08:56:55Z</time>
      </trkpt>
      <trkpt lat="43.81786" lon="6.37046">
        <ele>1474.54</ele>
        <time>2014-08-29T08:57:02Z</time>
      </trkpt>
      <trkpt lat="43.81788" lon="6.37047">
        <ele>1474.898</ele>
        <time>2014-08-29T08:57:04Z</time>
      </trkpt>
      <trkpt lat="43.81797" lon="6.37059">
        <ele>1474.854</ele>
        <time>2014-08-29T08:57:13Z</time>
      </trkpt>
      <trkpt lat="43.81802" lon="6.37071">
        <ele>1474.793</ele>
        <time>2014-08-29T08:57:20Z</time>
      </trkpt>
      <trkpt lat="43.81809" lon="6.3709">
        <ele>1475.384</ele>
        <time>2014-08-29T08:57:30Z</time>
      </trkpt>
      <trkpt lat="43.8181" lon="6.37093">
        <ele>1475.715</ele>
        <time>2014-08-29T08:57:32Z</time>
      </trkpt>
      <trkpt lat="43.81814" lon="6.37102">
        <ele>1476.525</ele>
        <time>2014-08-29T08:57:38Z</time>
      </trkpt>
      <trkpt lat="43.81822" lon="6.37114">
        <ele>1477.626</ele>
        <time>2014-08-29T08:57:46Z</time>
      </trkpt>
      <trkpt lat="43.81827" lon="6.37122">
        <ele>1478.769</ele>
        <time>2014-08-29T08:57:51Z</time>
      </trkpt>
      <trkpt lat="43.81829" lon="6.37126">
        <ele>1479.947</ele>
        <time>2014-08-29T08:57:56Z</time>
      </trkpt>
      <trkpt lat="43.8183" lon="6.37132">
        <ele>1481.527</ele>
        <time>2014-08-29T08:58:02Z</time>
      </trkpt>
      <trkpt lat="43.81831" lon="6.3714">
        <ele>1485.269</ele>
        <time>2014-08-29T08:58:12Z</time>
      </trkpt>
      <trkpt lat="43.81834" lon="6.37146">
        <ele>1486.539</ele>
        <time>2014-08-29T08:58:19Z</time>
      </trkpt>
      <trkpt lat="43.81835" lon="6.37152">
        <ele>1486.963</ele>
        <time>2014-08-29T08:58:36Z</time>
      </trkpt>
      <trkpt lat="43.81838" lon="6.37154">
        <ele>1483.722</ele>
        <time>2014-08-29T08:58:47Z</time>
      </trkpt>
      <trkpt lat="43.81841" lon="6.37155">
        <ele>1482.684</ele>
        <time>2014-08-29T08:58:53Z</time>
      </trkpt>
      <trkpt lat="43.81844" lon="6.37155">
        <ele>1484.004</ele>
        <time>2014-08-29T08:58:59Z</time>
      </trkpt>
      <trkpt lat="43.81848" lon="6.37155">
        <ele>1486.037</ele>
        <time>2014-08-29T08:59:06Z</time>
      </trkpt>
      <trkpt lat="43.81849" lon="6.37155">
        <ele>1486.226</ele>
        <time>2014-08-29T08:59:08Z</time>
      </trkpt>
      <trkpt lat="43.81852" lon="6.37156">
        <ele>1486.605</ele>
        <time>2014-08-29T08:59:11Z</time>
      </trkpt>
      <trkpt lat="43.81859" lon="6.3715">
        <ele>1484.961</ele>
        <time>2014-08-29T08:59:22Z</time>
      </trkpt>
      <trkpt lat="43.81864" lon="6.37146">
        <ele>1485.797</ele>
        <time>2014-08-29T08:59:55Z</time>
      </trkpt>
      <trkpt lat="43.81875" lon="6.37143">
        <ele>1488.918</ele>
        <time>2014-08-29T09:00:02Z</time>
      </trkpt>
      <trkpt lat="43.81889" lon="6.37133">
        <ele>1490.855</ele>
        <time>2014-08-29T09:00:12Z</time>
      </trkpt>
      <trkpt lat="43.81901" lon="6.3713">
        <ele>1493.058</ele>
        <time>2014-08-29T09:00:20Z</time>
      </trkpt>
      <trkpt lat="43.81913" lon="6.37124">
        <ele>1494.595</ele>
        <time>2014-08-29T09:00:28Z</time>
      </trkpt>
      <trkpt lat="43.81924" lon="6.37119">
        <ele>1496.348</ele>
        <time>2014-08-29T09:00:36Z</time>
      </trkpt>
      <trkpt lat="43.81935" lon="6.37117">
        <ele>1498.339</ele>
        <time>2014-08-29T09:00:43Z</time>
      </trkpt>
      <trkpt lat="43.81942" lon="6.3711">
        <ele>1499.727</ele>
        <time>2014-08-29T09:00:48Z</time>
      </trkpt>
      <trkpt lat="43.81948" lon="6.37102">
        <ele>1500.817</ele>
        <time>2014-08-29T09:00:54Z</time>
      </trkpt>
      <trkpt lat="43.81953" lon="6.37097">
        <ele>1501.84</ele>
        <time>2014-08-29T09:00:58Z</time>
      </trkpt>
      <trkpt lat="43.81964" lon="6.3709">
        <ele>1504.739</ele>
        <time>2014-08-29T09:01:07Z</time>
      </trkpt>
      <trkpt lat="43.81974" lon="6.37085">
        <ele>1507.027</ele>
        <time>2014-08-29T09:01:15Z</time>
      </trkpt>
      <trkpt lat="43.81975" lon="6.37084">
        <ele>1508.394</ele>
        <time>2014-08-29T09:01:21Z</time>
      </trkpt>
      <trkpt lat="43.81979" lon="6.37082">
        <ele>1508.855</ele>
        <time>2014-08-29T09:01:29Z</time>
      </trkpt>
      <trkpt lat="43.81982" lon="6.37079">
        <ele>1507.823</ele>
        <time>2014-08-29T09:01:37Z</time>
      </trkpt>
      <trkpt lat="43.81983" lon="6.37078">
        <ele>1507.395</ele>
        <time>2014-08-29T09:02:04Z</time>
      </trkpt>
      <trkpt lat="43.81987" lon="6.37075">
        <ele>1509.746</ele>
        <time>2014-08-29T09:02:20Z</time>
      </trkpt>
      <trkpt lat="43.81989" lon="6.37075">
        <ele>1512.26</ele>
        <time>2014-08-29T09:02:23Z</time>
      </trkpt>
      <trkpt lat="43.81994" lon="6.37072">
        <ele>1513.506</ele>
        <time>2014-08-29T09:02:28Z</time>
      </trkpt>
      <trkpt lat="43.82002" lon="6.37067">
        <ele>1514.356</ele>
        <time>2014-08-29T09:02:38Z</time>
      </trkpt>
      <trkpt lat="43.82004" lon="6.37065">
        <ele>1514.555</ele>
        <time>2014-08-29T09:02:40Z</time>
      </trkpt>
      <trkpt lat="43.82008" lon="6.37062">
        <ele>1515.575</ele>
        <time>2014-08-29T09:02:45Z</time>
      </trkpt>
      <trkpt lat="43.82014" lon="6.37058">
        <ele>1515.142</ele>
        <time>2014-08-29T09:02:50Z</time>
      </trkpt>
      <trkpt lat="43.82023" lon="6.37052">
        <ele>1515.513</ele>
        <time>2014-08-29T09:02:59Z</time>
      </trkpt>
      <trkpt lat="43.82025" lon="6.37048">
        <ele>1517.237</ele>
        <time>2014-08-29T09:03:06Z</time>
      </trkpt>
      <trkpt lat="43.82027" lon="6.3704">
        <ele>1516.375</ele>
        <time>2014-08-29T09:03:12Z</time>
      </trkpt>
      <trkpt lat="43.82031" lon="6.37032">
        <ele>1518.358</ele>
        <time>2014-08-29T09:03:20Z</time>
      </trkpt>
      <trkpt lat="43.82032" lon="6.37026">
        <ele>1518.686</ele>
        <time>2014-08-29T09:03:26Z</time>
      </trkpt>
      <trkpt lat="43.82036" lon="6.37018">
        <ele>1517.333</ele>
        <time>2014-08-29T09:03:35Z</time>
      </trkpt>
      <trkpt lat="43.82038" lon="6.37016">
        <ele>1516.522</ele>
        <time>2014-08-29T09:03:39Z</time>
      </trkpt>
      <trkpt lat="43.82041" lon="6.37012">
        <ele>1515.974</ele>
        <time>2014-08-29T09:03:44Z</time>
      </trkpt>
      <trkpt lat="43.82045" lon="6.37005">
        <ele>1518.426</ele>
        <time>2014-08-29T09:03:52Z</time>
      </trkpt>
      <trkpt lat="43.82051" lon="6.36999">
        <ele>1523.17</ele>
        <time>2014-08-29T09:04:01Z</time>
      </trkpt>
      <trkpt lat="43.82052" lon="6.36997">
        <ele>1523.007</ele>
        <time>2014-08-29T09:04:03Z</time>
      </trkpt>
      <trkpt lat="43.82055" lon="6.36989">
        <ele>1522.214</ele>
        <time>2014-08-29T09:04:10Z</time>
      </trkpt>
      <trkpt lat="43.82059" lon="6.36982">
        <ele>1522.964</ele>
        <time>2014-08-29T09:04:17Z</time>
      </trkpt>
      <trkpt lat="43.82062" lon="6.36975">
        <ele>1521.853</ele>
        <time>2014-08-29T09:04:25Z</time>
      </trkpt>
      <trkpt lat="43.82062" lon="6.36974">
        <ele>1522.204</ele>
        <time>2014-08-29T09:04:26Z</time>
      </trkpt>
      <trkpt lat="43.82065" lon="6.3697">
        <ele>1524.798</ele>
        <time>2014-08-29T09:04:34Z</time>
      </trkpt>
      <trkpt lat="43.82067" lon="6.36964">
        <ele>1525.884</ele>
        <time>2014-08-29T09:04:42Z</time>
      </trkpt>
      <trkpt lat="43.82073" lon="6.36955">
        <ele>1525.881</ele>
        <time>2014-08-29T09:04:50Z</time>
      </trkpt>
      <trkpt lat="43.82076" lon="6.36951">
        <ele>1524.7</ele>
        <time>2014-08-29T09:04:56Z</time>
      </trkpt>
      <trkpt lat="43.8208" lon="6.36943">
        <ele>1523.693</ele>
        <time>2014-08-29T09:05:03Z</time>
      </trkpt>
      <trkpt lat="43.82083" lon="6.36933">
        <ele>1523.674</ele>
        <time>2014-08-29T09:05:10Z</time>
      </trkpt>
      <trkpt lat="43.82082" lon="6.36931">
        <ele>1523.64</ele>
        <time>2014-08-29T09:05:16Z</time>
      </trkpt>
      <trkpt lat="43.82084" lon="6.3693">
        <ele>1527.383</ele>
        <time>2014-08-29T09:05:26Z</time>
      </trkpt>
      <trkpt lat="43.82088" lon="6.3692">
        <ele>1529.089</ele>
        <time>2014-08-29T09:05:31Z</time>
      </trkpt>
      <trkpt lat="43.82096" lon="6.36904">
        <ele>1532.819</ele>
        <time>2014-08-29T09:05:39Z</time>
      </trkpt>
      <trkpt lat="43.82102" lon="6.36891">
        <ele>1534.223</ele>
        <time>2014-08-29T09:05:45Z</time>
      </trkpt>
      <trkpt lat="43.82108" lon="6.36877">
        <ele>1535.043</ele>
        <time>2014-08-29T09:05:51Z</time>
      </trkpt>
      <trkpt lat="43.82116" lon="6.3686">
        <ele>1535.864</ele>
        <time>2014-08-29T09:05:58Z</time>
      </trkpt>
      <trkpt lat="43.82125" lon="6.36841">
        <ele>1537.105</ele>
        <time>2014-08-29T09:06:07Z</time>
      </trkpt>
      <trkpt lat="43.82134" lon="6.36823">
        <ele>1539.266</ele>
        <time>2014-08-29T09:06:16Z</time>
      </trkpt>
      <trkpt lat="43.82137" lon="6.36817">
        <ele>1540.027</ele>
        <time>2014-08-29T09:06:19Z</time>
      </trkpt>
      <trkpt lat="43.82142" lon="6.3681">
        <ele>1541.239</ele>
        <time>2014-08-29T09:06:23Z</time>
      </trkpt>
      <trkpt lat="43.82148" lon="6.36789">
        <ele>1542.411</ele>
        <time>2014-08-29T09:06:31Z</time>
      </trkpt>
      <trkpt lat="43.82155" lon="6.36771">
        <ele>1541.722</ele>
        <time>2014-08-29T09:06:38Z</time>
      </trkpt>
      <trkpt lat="43.82163" lon="6.36758">
        <ele>1541.636</ele>
        <time>2014-08-29T09:06:44Z</time>
      </trkpt>
      <trkpt lat="43.82171" lon="6.36739">
        <ele>1543.254</ele>
        <time>2014-08-29T09:06:51Z</time>
      </trkpt>
      <trkpt lat="43.8218" lon="6.36726">
        <ele>1544.017</ele>
        <time>2014-08-29T09:06:58Z</time>
      </trkpt>
      <trkpt lat="43.82185" lon="6.36718">
        <ele>1544.623</ele>
        <time>2014-08-29T09:07:03Z</time>
      </trkpt>
      <trkpt lat="43.82194" lon="6.36702">
        <ele>1545.003</ele>
        <time>2014-08-29T09:07:11Z</time>
      </trkpt>
      <trkpt lat="43.82205" lon="6.36685">
        <ele>1545.652</ele>
        <time>2014-08-29T09:07:17Z</time>
      </trkpt>
      <trkpt lat="43.82219" lon="6.36668">
        <ele>1545.079</ele>
        <time>2014-08-29T09:07:23Z</time>
      </trkpt>
      <trkpt lat="43.8223" lon="6.36654">
        <ele>1545.592</ele>
        <time>2014-08-29T09:07:28Z</time>
      </trkpt>
      <trkpt lat="43.82243" lon="6.36638">
        <ele>1545.892</ele>
        <time>2014-08-29T09:07:34Z</time>
      </trkpt>
      <trkpt lat="43.82253" lon="6.36622">
        <ele>1545.842</ele>
        <time>2014-08-29T09:07:39Z</time>
      </trkpt>
      <trkpt lat="43.82268" lon="6.36605">
        <ele>1546.163</ele>
        <time>2014-08-29T09:07:45Z</time>
      </trkpt>
      <trkpt lat="43.82283" lon="6.3659">
        <ele>1546.984</ele>
        <time>2014-08-29T09:07:52Z</time>
      </trkpt>
      <trkpt lat="43.82298" lon="6.3657">
        <ele>1547.575</ele>
        <time>2014-08-29T09:07:59Z</time>
      </trkpt>
      <trkpt lat="43.8231" lon="6.36559">
        <ele>1550.058</ele>
        <time>2014-08-29T09:08:05Z</time>
      </trkpt>
      <trkpt lat="43.82319" lon="6.36549">
        <ele>1551.718</ele>
        <time>2014-08-29T09:08:11Z</time>
      </trkpt>
      <trkpt lat="43.82323" lon="6.36545">
        <ele>1553.056</ele>
        <time>2014-08-29T09:08:16Z</time>
      </trkpt>
      <trkpt lat="43.82327" lon="6.36542">
        <ele>1553.404</ele>
        <time>2014-08-29T09:08:25Z</time>
      </trkpt>
      <trkpt lat="43.82327" lon="6.36541">
        <ele>1553.562</ele>
        <time>2014-08-29T09:08:31Z</time>
      </trkpt>
      <trkpt lat="43.82327" lon="6.36541">
        <ele>1553.371</ele>
        <time>2014-08-29T09:08:38Z</time>
      </trkpt>
      <trkpt lat="43.82334" lon="6.36537">
        <ele>1554.694</ele>
        <time>2014-08-29T09:08:44Z</time>
      </trkpt>
      <trkpt lat="43.82334" lon="6.36537">
        <ele>1555.191</ele>
        <time>2014-08-29T09:08:51Z</time>
      </trkpt>
      <trkpt lat="43.82339" lon="6.36534">
        <ele>1556.146</ele>
        <time>2014-08-29T09:08:59Z</time>
      </trkpt>
      <trkpt lat="43.8234" lon="6.36533">
        <ele>1556.995</ele>
        <time>2014-08-29T09:09:03Z</time>
      </trkpt>
      <trkpt lat="43.82346" lon="6.3653">
        <ele>1558.958</ele>
        <time>2014-08-29T09:09:11Z</time>
      </trkpt>
      <trkpt lat="43.8235" lon="6.36527">
        <ele>1560.206</ele>
        <time>2014-08-29T09:09:18Z</time>
      </trkpt>
      <trkpt lat="43.82352" lon="6.36528">
        <ele>1560.952</ele>
        <time>2014-08-29T09:09:23Z</time>
      </trkpt>
      <trkpt lat="43.82356" lon="6.36526">
        <ele>1564.019</ele>
        <time>2014-08-29T09:10:29Z</time>
      </trkpt>
      <trkpt lat="43.82354" lon="6.36525">
        <ele>1559.868</ele>
        <time>2014-08-29T09:10:47Z</time>
      </trkpt>
      <trkpt lat="43.82358" lon="6.3652">
        <ele>1557.795</ele>
        <time>2014-08-29T09:11:45Z</time>
      </trkpt>
      <trkpt lat="43.82367" lon="6.36513">
        <ele>1560.927</ele>
        <time>2014-08-29T09:11:53Z</time>
      </trkpt>
      <trkpt lat="43.82375" lon="6.36504">
        <ele>1561.082</ele>
        <time>2014-08-29T09:11:59Z</time>
      </trkpt>
      <trkpt lat="43.82382" lon="6.36497">
        <ele>1562.796</ele>
        <time>2014-08-29T09:12:06Z</time>
      </trkpt>
      <trkpt lat="43.82388" lon="6.36494">
        <ele>1563.515</ele>
        <time>2014-08-29T09:12:12Z</time>
      </trkpt>
      <trkpt lat="43.82395" lon="6.36489">
        <ele>1565.837</ele>
        <time>2014-08-29T09:12:18Z</time>
      </trkpt>
      <trkpt lat="43.82398" lon="6.36487">
        <ele>1566.277</ele>
        <time>2014-08-29T09:12:20Z</time>
      </trkpt>
      <trkpt lat="43.82407" lon="6.3648">
        <ele>1569.149</ele>
        <time>2014-08-29T09:12:28Z</time>
      </trkpt>
      <trkpt lat="43.82414" lon="6.36471">
        <ele>1570.877</ele>
        <time>2014-08-29T09:12:35Z</time>
      </trkpt>
      <trkpt lat="43.8242" lon="6.36465">
        <ele>1572.87</ele>
        <time>2014-08-29T09:12:41Z</time>
      </trkpt>
      <trkpt lat="43.82424" lon="6.36457">
        <ele>1574.947</ele>
        <time>2014-08-29T09:12:47Z</time>
      </trkpt>
      <trkpt lat="43.82427" lon="6.3645">
        <ele>1575.585</ele>
        <time>2014-08-29T09:12:51Z</time>
      </trkpt>
      <trkpt lat="43.8243" lon="6.36437">
        <ele>1576.767</ele>
        <time>2014-08-29T09:12:58Z</time>
      </trkpt>
      <trkpt lat="43.82431" lon="6.36429">
        <ele>1579.159</ele>
        <time>2014-08-29T09:13:04Z</time>
      </trkpt>
      <trkpt lat="43.82432" lon="6.36422">
        <ele>1580.3</ele>
        <time>2014-08-29T09:13:07Z</time>
      </trkpt>
      <trkpt lat="43.82432" lon="6.36419">
        <ele>1581.041</ele>
        <time>2014-08-29T09:13:09Z</time>
      </trkpt>
      <trkpt lat="43.82432" lon="6.36412">
        <ele>1583.159</ele>
        <time>2014-08-29T09:13:15Z</time>
      </trkpt>
      <trkpt lat="43.82433" lon="6.36409">
        <ele>1583.44</ele>
        <time>2014-08-29T09:13:18Z</time>
      </trkpt>
      <trkpt lat="43.82434" lon="6.36399">
        <ele>1585.471</ele>
        <time>2014-08-29T09:13:27Z</time>
      </trkpt>
      <trkpt lat="43.82435" lon="6.36391">
        <ele>1586.167</ele>
        <time>2014-08-29T09:13:35Z</time>
      </trkpt>
      <trkpt lat="43.82438" lon="6.36381">
        <ele>1585.606</ele>
        <time>2014-08-29T09:13:44Z</time>
      </trkpt>
      <trkpt lat="43.82439" lon="6.36379">
        <ele>1584.401</ele>
        <time>2014-08-29T09:13:52Z</time>
      </trkpt>
      <trkpt lat="43.82441" lon="6.36374">
        <ele>1585.294</ele>
        <time>2014-08-29T09:13:59Z</time>
      </trkpt>
      <trkpt lat="43.82445" lon="6.36368">
        <ele>1585.363</ele>
        <time>2014-08-29T09:14:06Z</time>
      </trkpt>
      <trkpt lat="43.82448" lon="6.36369">
        <ele>1585.134</ele>
        <time>2014-08-29T09:14:11Z</time>
      </trkpt>
      <trkpt lat="43.82452" lon="6.36365">
        <ele>1585.194</ele>
        <time>2014-08-29T09:14:16Z</time>
      </trkpt>
      <trkpt lat="43.82456" lon="6.3636">
        <ele>1586.936</ele>
        <time>2014-08-29T09:14:25Z</time>
      </trkpt>
      <trkpt lat="43.8246" lon="6.36361">
        <ele>1587.603</ele>
        <time>2014-08-29T09:14:31Z</time>
      </trkpt>
      <trkpt lat="43.82463" lon="6.36363">
        <ele>1590.646</ele>
        <time>2014-08-29T09:14:41Z</time>
      </trkpt>
      <trkpt lat="43.82465" lon="6.36368">
        <ele>1592.768</ele>
        <time>2014-08-29T09:14:47Z</time>
      </trkpt>
      <trkpt lat="43.82471" lon="6.36367">
        <ele>1594.507</ele>
        <time>2014-08-29T09:14:55Z</time>
      </trkpt>
      <trkpt lat="43.82471" lon="6.36362">
        <ele>1595.206</ele>
        <time>2014-08-29T09:15:00Z</time>
      </trkpt>
      <trkpt lat="43.82472" lon="6.36358">
        <ele>1595.486</ele>
        <time>2014-08-29T09:15:03Z</time>
      </trkpt>
      <trkpt lat="43.82472" lon="6.36353">
        <ele>1595.751</ele>
        <time>2014-08-29T09:15:11Z</time>
      </trkpt>
      <trkpt lat="43.82473" lon="6.36348">
        <ele>1595.804</ele>
        <time>2014-08-29T09:15:19Z</time>
      </trkpt>
      <trkpt lat="43.82474" lon="6.36347">
        <ele>1596.235</ele>
        <time>2014-08-29T09:15:22Z</time>
      </trkpt>
      <trkpt lat="43.82476" lon="6.36347">
        <ele>1596.948</ele>
        <time>2014-08-29T09:15:25Z</time>
      </trkpt>
      <trkpt lat="43.82478" lon="6.36347">
        <ele>1597.176</ele>
        <time>2014-08-29T09:15:27Z</time>
      </trkpt>
      <trkpt lat="43.82483" lon="6.36351">
        <ele>1598.606</ele>
        <time>2014-08-29T09:15:34Z</time>
      </trkpt>
      <trkpt lat="43.82485" lon="6.36353">
        <ele>1599.256</ele>
        <time>2014-08-29T09:15:37Z</time>
      </trkpt>
      <trkpt lat="43.82489" lon="6.36353">
        <ele>1600.305</ele>
        <time>2014-08-29T09:15:44Z</time>
      </trkpt>
      <trkpt lat="43.8249" lon="6.3635">
        <ele>1600.714</ele>
        <time>2014-08-29T09:15:49Z</time>
      </trkpt>
      <trkpt lat="43.8249" lon="6.36348">
        <ele>1601.145</ele>
        <time>2014-08-29T09:15:52Z</time>
      </trkpt>
      <trkpt lat="43.82492" lon="6.36344">
        <ele>1602.246</ele>
        <time>2014-08-29T09:15:59Z</time>
      </trkpt>
      <trkpt lat="43.82495" lon="6.36341">
        <ele>1603.588</ele>
        <time>2014-08-29T09:16:05Z</time>
      </trkpt>
      <trkpt lat="43.82494" lon="6.36334">
        <ele>1604.004</ele>
        <time>2014-08-29T09:16:10Z</time>
      </trkpt>
      <trkpt lat="43.82495" lon="6.36332">
        <ele>1604.325</ele>
        <time>2014-08-29T09:16:13Z</time>
      </trkpt>
      <trkpt lat="43.82502" lon="6.36335">
        <ele>1605.666</ele>
        <time>2014-08-29T09:16:22Z</time>
      </trkpt>
      <trkpt lat="43.82507" lon="6.36338">
        <ele>1606.064</ele>
        <time>2014-08-29T09:16:28Z</time>
      </trkpt>
      <trkpt lat="43.8251" lon="6.36337">
        <ele>1606.585</ele>
        <time>2014-08-29T09:16:34Z</time>
      </trkpt>
      <trkpt lat="43.82511" lon="6.36334">
        <ele>1606.765</ele>
        <time>2014-08-29T09:16:37Z</time>
      </trkpt>
      <trkpt lat="43.82516" lon="6.36326">
        <ele>1608.337</ele>
        <time>2014-08-29T09:16:48Z</time>
      </trkpt>
      <trkpt lat="43.82517" lon="6.36327">
        <ele>1608.686</ele>
        <time>2014-08-29T09:16:50Z</time>
      </trkpt>
      <trkpt lat="43.82521" lon="6.36333">
        <ele>1609.576</ele>
        <time>2014-08-29T09:16:57Z</time>
      </trkpt>
      <trkpt lat="43.82525" lon="6.3634">
        <ele>1610.504</ele>
        <time>2014-08-29T09:17:04Z</time>
      </trkpt>
      <trkpt lat="43.82525" lon="6.36343">
        <ele>1611.074</ele>
        <time>2014-08-29T09:17:07Z</time>
      </trkpt>
      <trkpt lat="43.8253" lon="6.36347">
        <ele>1611.593</ele>
        <time>2014-08-29T09:17:12Z</time>
      </trkpt>
      <trkpt lat="43.82534" lon="6.36345">
        <ele>1611.401</ele>
        <time>2014-08-29T09:17:16Z</time>
      </trkpt>
      <trkpt lat="43.82538" lon="6.36339">
        <ele>1610.75</ele>
        <time>2014-08-29T09:17:24Z</time>
      </trkpt>
      <trkpt lat="43.8254" lon="6.36338">
        <ele>1610.04</ele>
        <time>2014-08-29T09:17:37Z</time>
      </trkpt>
      <trkpt lat="43.82551" lon="6.36331">
        <ele>1608.356</ele>
        <time>2014-08-29T09:17:43Z</time>
      </trkpt>
      <trkpt lat="43.82557" lon="6.36323">
        <ele>1607.135</ele>
        <time>2014-08-29T09:17:47Z</time>
      </trkpt>
      <trkpt lat="43.82564" lon="6.36317">
        <ele>1606.154</ele>
        <time>2014-08-29T09:17:51Z</time>
      </trkpt>
      <trkpt lat="43.82583" lon="6.36307">
        <ele>1603.711</ele>
        <time>2014-08-29T09:17:59Z</time>
      </trkpt>
      <trkpt lat="43.82591" lon="6.36296">
        <ele>1602.604</ele>
        <time>2014-08-29T09:18:03Z</time>
      </trkpt>
      <trkpt lat="43.82596" lon="6.3629">
        <ele>1601.286</ele>
        <time>2014-08-29T09:18:08Z</time>
      </trkpt>
      <trkpt lat="43.82602" lon="6.36285">
        <ele>1600.515</ele>
        <time>2014-08-29T09:18:12Z</time>
      </trkpt>
      <trkpt lat="43.82613" lon="6.36276">
        <ele>1600.202</ele>
        <time>2014-08-29T09:18:17Z</time>
      </trkpt>
      <trkpt lat="43.82615" lon="6.36274">
        <ele>1600.222</ele>
        <time>2014-08-29T09:18:20Z</time>
      </trkpt>
      <trkpt lat="43.82618" lon="6.36272">
        <ele>1599.792</ele>
        <time>2014-08-29T09:18:27Z</time>
      </trkpt>
      <trkpt lat="43.82619" lon="6.36273">
        <ele>1600.903</ele>
        <time>2014-08-29T09:18:34Z</time>
      </trkpt>
      <trkpt lat="43.8262" lon="6.36273">
        <ele>1597.529</ele>
        <time>2014-08-29T09:19:00Z</time>
      </trkpt>
      <trkpt lat="43.82625" lon="6.3627">
        <ele>1599.987</ele>
        <time>2014-08-29T09:19:07Z</time>
      </trkpt>
      <trkpt lat="43.82628" lon="6.36267">
        <ele>1601.684</ele>
        <time>2014-08-29T09:19:13Z</time>
      </trkpt>
      <trkpt lat="43.82632" lon="6.36263">
        <ele>1600.748</ele>
        <time>2014-08-29T09:19:20Z</time>
      </trkpt>
      <trkpt lat="43.82637" lon="6.36259">
        <ele>1600.179</ele>
        <time>2014-08-29T09:19:26Z</time>
      </trkpt>
      <trkpt lat="43.8264" lon="6.36259">
        <ele>1600.002</ele>
        <time>2014-08-29T09:19:34Z</time>
      </trkpt>
      <trkpt lat="43.82642" lon="6.36256">
        <ele>1599.299</ele>
        <time>2014-08-29T09:19:51Z</time>
      </trkpt>
      <trkpt lat="43.82645" lon="6.3626">
        <ele>1605.212</ele>
        <time>2014-08-29T09:22:54Z</time>
      </trkpt>
      <trkpt lat="43.82645" lon="6.36261">
        <ele>1605.524</ele>
        <time>2014-08-29T09:22:55Z</time>
      </trkpt>
      <trkpt lat="43.82646" lon="6.36261">
        <ele>1605.502</ele>
        <time>2014-08-29T09:23:02Z</time>
      </trkpt>
      <trkpt lat="43.82651" lon="6.36262">
        <ele>1605.149</ele>
        <time>2014-08-29T09:23:11Z</time>
      </trkpt>
      <trkpt lat="43.82661" lon="6.3627">
        <ele>1604.338</ele>
        <time>2014-08-29T09:23:16Z</time>
      </trkpt>
      <trkpt lat="43.82678" lon="6.36271">
        <ele>1601.761</ele>
        <time>2014-08-29T09:23:23Z</time>
      </trkpt>
      <trkpt lat="43.8268" lon="6.36272">
        <ele>1601.34</ele>
        <time>2014-08-29T09:23:24Z</time>
      </trkpt>
      <trkpt lat="43.82686" lon="6.36281">
        <ele>1599.766</ele>
        <time>2014-08-29T09:23:29Z</time>
      </trkpt>
      <trkpt lat="43.82688" lon="6.36284">
        <ele>1600.951</ele>
        <time>2014-08-29T09:23:34Z</time>
      </trkpt>
      <trkpt lat="43.82688" lon="6.36284">
        <ele>1600.944</ele>
        <time>2014-08-29T09:23:49Z</time>
      </trkpt>
      <trkpt lat="43.82686" lon="6.36293">
        <ele>1602.834</ele>
        <time>2014-08-29T09:23:57Z</time>
      </trkpt>
      <trkpt lat="43.82685" lon="6.36298">
        <ele>1603.285</ele>
        <time>2014-08-29T09:24:05Z</time>
      </trkpt>
      <trkpt lat="43.82685" lon="6.36302">
        <ele>1603.522</ele>
        <time>2014-08-29T09:24:10Z</time>
      </trkpt>
      <trkpt lat="43.82686" lon="6.36307">
        <ele>1603.249</ele>
        <time>2014-08-29T09:24:13Z</time>
      </trkpt>
      <trkpt lat="43.82691" lon="6.36312">
        <ele>1604.723</ele>
        <time>2014-08-29T09:24:20Z</time>
      </trkpt>
      <trkpt lat="43.82696" lon="6.36321">
        <ele>1603.929</ele>
        <time>2014-08-29T09:24:28Z</time>
      </trkpt>
      <trkpt lat="43.82695" lon="6.36323">
        <ele>1602.239</ele>
        <time>2014-08-29T09:24:35Z</time>
      </trkpt>
      <trkpt lat="43.82695" lon="6.36327">
        <ele>1601.961</ele>
        <time>2014-08-29T09:24:40Z</time>
      </trkpt>
      <trkpt lat="43.82693" lon="6.36335">
        <ele>1602.742</ele>
        <time>2014-08-29T09:24:48Z</time>
      </trkpt>
      <trkpt lat="43.82693" lon="6.36335">
        <ele>1603.391</ele>
        <time>2014-08-29T09:24:53Z</time>
      </trkpt>
      <trkpt lat="43.82693" lon="6.36347">
        <ele>1602.924</ele>
        <time>2014-08-29T09:24:59Z</time>
      </trkpt>
      <trkpt lat="43.82688" lon="6.36363">
        <ele>1603.355</ele>
        <time>2014-08-29T09:25:05Z</time>
      </trkpt>
      <trkpt lat="43.82685" lon="6.36374">
        <ele>1604.545</ele>
        <time>2014-08-29T09:25:10Z</time>
      </trkpt>
      <trkpt lat="43.82693" lon="6.36382">
        <ele>1602.626</ele>
        <time>2014-08-29T09:25:15Z</time>
      </trkpt>
      <trkpt lat="43.82696" lon="6.36383">
        <ele>1601.306</ele>
        <time>2014-08-29T09:25:18Z</time>
      </trkpt>
      <trkpt lat="43.82704" lon="6.36385">
        <ele>1599.273</ele>
        <time>2014-08-29T09:25:23Z</time>
      </trkpt>
      <trkpt lat="43.82707" lon="6.36391">
        <ele>1598.654</ele>
        <time>2014-08-29T09:25:25Z</time>
      </trkpt>
      <trkpt lat="43.82711" lon="6.36415">
        <ele>1596.866</ele>
        <time>2014-08-29T09:25:32Z</time>
      </trkpt>
      <trkpt lat="43.82714" lon="6.36429">
        <ele>1595.565</ele>
        <time>2014-08-29T09:25:36Z</time>
      </trkpt>
      <trkpt lat="43.82722" lon="6.36441">
        <ele>1593.004</ele>
        <time>2014-08-29T09:25:42Z</time>
      </trkpt>
      <trkpt lat="43.82727" lon="6.36447">
        <ele>1590.731</ele>
        <time>2014-08-29T09:25:46Z</time>
      </trkpt>
      <trkpt lat="43.82738" lon="6.3646">
        <ele>1586.535</ele>
        <time>2014-08-29T09:25:51Z</time>
      </trkpt>
      <trkpt lat="43.82744" lon="6.3647">
        <ele>1583.793</ele>
        <time>2014-08-29T09:25:54Z</time>
      </trkpt>
      <trkpt lat="43.82749" lon="6.36478">
        <ele>1581.863</ele>
        <time>2014-08-29T09:25:56Z</time>
      </trkpt>
      <trkpt lat="43.82758" lon="6.36502">
        <ele>1578.96</ele>
        <time>2014-08-29T09:26:00Z</time>
      </trkpt>
      <trkpt lat="43.82779" lon="6.36547">
        <ele>1573.853</ele>
        <time>2014-08-29T09:26:07Z</time>
      </trkpt>
      <trkpt lat="43.82789" lon="6.36565">
        <ele>1572.918</ele>
        <time>2014-08-29T09:26:11Z</time>
      </trkpt>
      <trkpt lat="43.82795" lon="6.36578">
        <ele>1571.407</ele>
        <time>2014-08-29T09:26:14Z</time>
      </trkpt>
      <trkpt lat="43.82803" lon="6.36591">
        <ele>1571.66</ele>
        <time>2014-08-29T09:26:17Z</time>
      </trkpt>
      <trkpt lat="43.8281" lon="6.36599">
        <ele>1571.853</ele>
        <time>2014-08-29T09:26:19Z</time>
      </trkpt>
      <trkpt lat="43.8282" lon="6.3662">
        <ele>1570.602</ele>
        <time>2014-08-29T09:26:23Z</time>
      </trkpt>
      <trkpt lat="43.82829" lon="6.36637">
        <ele>1568.94</ele>
        <time>2014-08-29T09:26:26Z</time>
      </trkpt>
      <trkpt lat="43.82847" lon="6.36673">
        <ele>1567.077</ele>
        <time>2014-08-29T09:26:33Z</time>
      </trkpt>
      <trkpt lat="43.82856" lon="6.36694">
        <ele>1565.408</ele>
        <time>2014-08-29T09:26:39Z</time>
      </trkpt>
      <trkpt lat="43.82863" lon="6.36706">
        <ele>1565.403</ele>
        <time>2014-08-29T09:26:44Z</time>
      </trkpt>
      <trkpt lat="43.82873" lon="6.36724">
        <ele>1565</ele>
        <time>2014-08-29T09:26:51Z</time>
      </trkpt>
      <trkpt lat="43.82874" lon="6.36727">
        <ele>1565.283</ele>
        <time>2014-08-29T09:26:52Z</time>
      </trkpt>
      <trkpt lat="43.82881" lon="6.36741">
        <ele>1566.886</ele>
        <time>2014-08-29T09:26:58Z</time>
      </trkpt>
      <trkpt lat="43.82882" lon="6.36742">
        <ele>1567.646</ele>
        <time>2014-08-29T09:27:02Z</time>
      </trkpt>
      <trkpt lat="43.82882" lon="6.36742">
        <ele>1567.635</ele>
        <time>2014-08-29T09:27:04Z</time>
      </trkpt>
      <trkpt lat="43.82882" lon="6.36741">
        <ele>1567.162</ele>
        <time>2014-08-29T09:27:10Z</time>
      </trkpt>
      <trkpt lat="43.82884" lon="6.36743">
        <ele>1565.321</ele>
        <time>2014-08-29T09:27:24Z</time>
      </trkpt>
      <trkpt lat="43.82883" lon="6.36742">
        <ele>1565.402</ele>
        <time>2014-08-29T09:27:28Z</time>
      </trkpt>
      <trkpt lat="43.82891" lon="6.36752">
        <ele>1566.276</ele>
        <time>2014-08-29T09:27:35Z</time>
      </trkpt>
      <trkpt lat="43.82904" lon="6.36768">
        <ele>1569.081</ele>
        <time>2014-08-29T09:27:43Z</time>
      </trkpt>
      <trkpt lat="43.82913" lon="6.36781">
        <ele>1572.672</ele>
        <time>2014-08-29T09:27:50Z</time>
      </trkpt>
      <trkpt lat="43.82919" lon="6.3679">
        <ele>1573.669</ele>
        <time>2014-08-29T09:27:55Z</time>
      </trkpt>
      <trkpt lat="43.82927" lon="6.36803">
        <ele>1572.863</ele>
        <time>2014-08-29T09:28:02Z</time>
      </trkpt>
      <trkpt lat="43.82935" lon="6.36814">
        <ele>1572.064</ele>
        <time>2014-08-29T09:28:09Z</time>
      </trkpt>
      <trkpt lat="43.82946" lon="6.36826">
        <ele>1571.685</ele>
        <time>2014-08-29T09:28:17Z</time>
      </trkpt>
      <trkpt lat="43.82954" lon="6.36834">
        <ele>1572.196</ele>
        <time>2014-08-29T09:28:23Z</time>
      </trkpt>
      <trkpt lat="43.82967" lon="6.36847">
        <ele>1572.947</ele>
        <time>2014-08-29T09:28:32Z</time>
      </trkpt>
      <trkpt lat="43.82975" lon="6.36858">
        <ele>1574.418</ele>
        <time>2014-08-29T09:28:40Z</time>
      </trkpt>
      <trkpt lat="43.82983" lon="6.36869">
        <ele>1577.32</ele>
        <time>2014-08-29T09:28:48Z</time>
      </trkpt>
      <trkpt lat="43.82992" lon="6.36879">
        <ele>1577.945</ele>
        <time>2014-08-29T09:28:55Z</time>
      </trkpt>
      <trkpt lat="43.82999" lon="6.3689">
        <ele>1578.999</ele>
        <time>2014-08-29T09:29:02Z</time>
      </trkpt>
      <trkpt lat="43.83006" lon="6.36904">
        <ele>1578.242</ele>
        <time>2014-08-29T09:29:10Z</time>
      </trkpt>
      <trkpt lat="43.83015" lon="6.36915">
        <ele>1578.123</ele>
        <time>2014-08-29T09:29:17Z</time>
      </trkpt>
      <trkpt lat="43.83024" lon="6.36921">
        <ele>1579.518</ele>
        <time>2014-08-29T09:29:24Z</time>
      </trkpt>
      <trkpt lat="43.83034" lon="6.36921">
        <ele>1580.819</ele>
        <time>2014-08-29T09:29:30Z</time>
      </trkpt>
      <trkpt lat="43.83044" lon="6.36928">
        <ele>1581.335</ele>
        <time>2014-08-29T09:29:37Z</time>
      </trkpt>
      <trkpt lat="43.83056" lon="6.36932">
        <ele>1581.927</ele>
        <time>2014-08-29T09:29:45Z</time>
      </trkpt>
      <trkpt lat="43.8306" lon="6.36935">
        <ele>1582.196</ele>
        <time>2014-08-29T09:29:48Z</time>
      </trkpt>
      <trkpt lat="43.83074" lon="6.36938">
        <ele>1581.541</ele>
        <time>2014-08-29T09:29:56Z</time>
      </trkpt>
      <trkpt lat="43.83076" lon="6.36939">
        <ele>1581.371</ele>
        <time>2014-08-29T09:30:02Z</time>
      </trkpt>
      <trkpt lat="43.83078" lon="6.36941">
        <ele>1580.088</ele>
        <time>2014-08-29T09:30:11Z</time>
      </trkpt>
      <trkpt lat="43.83096" lon="6.36936">
        <ele>1576.868</ele>
        <time>2014-08-29T09:30:17Z</time>
      </trkpt>
      <trkpt lat="43.83099" lon="6.36934">
        <ele>1576.523</ele>
        <time>2014-08-29T09:30:18Z</time>
      </trkpt>
      <trkpt lat="43.83114" lon="6.36921">
        <ele>1575.43</ele>
        <time>2014-08-29T09:30:25Z</time>
      </trkpt>
      <trkpt lat="43.83116" lon="6.36917">
        <ele>1575.532</ele>
        <time>2014-08-29T09:30:30Z</time>
      </trkpt>
      <trkpt lat="43.83117" lon="6.36915">
        <ele>1574.751</ele>
        <time>2014-08-29T09:30:37Z</time>
      </trkpt>
      <trkpt lat="43.83118" lon="6.36919">
        <ele>1576.122</ele>
        <time>2014-08-29T09:31:07Z</time>
      </trkpt>
      <trkpt lat="43.83113" lon="6.36923">
        <ele>1573.651</ele>
        <time>2014-08-29T09:31:15Z</time>
      </trkpt>
      <trkpt lat="43.83107" lon="6.36937">
        <ele>1571.893</ele>
        <time>2014-08-29T09:31:20Z</time>
      </trkpt>
      <trkpt lat="43.83105" lon="6.3696">
        <ele>1568.946</ele>
        <time>2014-08-29T09:31:25Z</time>
      </trkpt>
      <trkpt lat="43.83106" lon="6.36964">
        <ele>1568.345</ele>
        <time>2014-08-29T09:31:26Z</time>
      </trkpt>
      <trkpt lat="43.83118" lon="6.36968">
        <ele>1564.185</ele>
        <time>2014-08-29T09:31:30Z</time>
      </trkpt>
      <trkpt lat="43.83121" lon="6.36965">
        <ele>1563.154</ele>
        <time>2014-08-29T09:31:31Z</time>
      </trkpt>
      <trkpt lat="43.83136" lon="6.36954">
        <ele>1559.315</ele>
        <time>2014-08-29T09:31:35Z</time>
      </trkpt>
      <trkpt lat="43.83149" lon="6.36942">
        <ele>1556.091</ele>
        <time>2014-08-29T09:31:39Z</time>
      </trkpt>
      <trkpt lat="43.83158" lon="6.36923">
        <ele>1553.931</ele>
        <time>2014-08-29T09:31:45Z</time>
      </trkpt>
      <trkpt lat="43.8317" lon="6.36902">
        <ele>1552.709</ele>
        <time>2014-08-29T09:31:53Z</time>
      </trkpt>
      <trkpt lat="43.83176" lon="6.36891">
        <ele>1553.273</ele>
        <time>2014-08-29T09:31:59Z</time>
      </trkpt>
      <trkpt lat="43.83181" lon="6.36881">
        <ele>1554.685</ele>
        <time>2014-08-29T09:32:04Z</time>
      </trkpt>
      <trkpt lat="43.83189" lon="6.36869">
        <ele>1554.575</ele>
        <time>2014-08-29T09:32:09Z</time>
      </trkpt>
      <trkpt lat="43.832" lon="6.36856">
        <ele>1560.017</ele>
        <time>2014-08-29T09:32:16Z</time>
      </trkpt>
      <trkpt lat="43.83207" lon="6.36838">
        <ele>1559.712</ele>
        <time>2014-08-29T09:32:23Z</time>
      </trkpt>
      <trkpt lat="43.83211" lon="6.3682">
        <ele>1558.383</ele>
        <time>2014-08-29T09:32:30Z</time>
      </trkpt>
      <trkpt lat="43.83214" lon="6.36806">
        <ele>1559.146</ele>
        <time>2014-08-29T09:32:37Z</time>
      </trkpt>
      <trkpt lat="43.83217" lon="6.36791">
        <ele>1558.674</ele>
        <time>2014-08-29T09:32:43Z</time>
      </trkpt>
      <trkpt lat="43.83222" lon="6.36776">
        <ele>1560.691</ele>
        <time>2014-08-29T09:32:50Z</time>
      </trkpt>
      <trkpt lat="43.83223" lon="6.36765">
        <ele>1562.67</ele>
        <time>2014-08-29T09:32:55Z</time>
      </trkpt>
      <trkpt lat="43.83224" lon="6.36751">
        <ele>1560.983</ele>
        <time>2014-08-29T09:33:01Z</time>
      </trkpt>
      <trkpt lat="43.83223" lon="6.36738">
        <ele>1561.691</ele>
        <time>2014-08-29T09:33:08Z</time>
      </trkpt>
      <trkpt lat="43.83223" lon="6.36734">
        <ele>1561.47</ele>
        <time>2014-08-29T09:33:10Z</time>
      </trkpt>
      <trkpt lat="43.83223" lon="6.36731">
        <ele>1562.614</ele>
        <time>2014-08-29T09:33:16Z</time>
      </trkpt>
      <trkpt lat="43.83223" lon="6.36725">
        <ele>1562.485</ele>
        <time>2014-08-29T09:33:22Z</time>
      </trkpt>
      <trkpt lat="43.83224" lon="6.36715">
        <ele>1563.007</ele>
        <time>2014-08-29T09:33:30Z</time>
      </trkpt>
      <trkpt lat="43.83225" lon="6.36707">
        <ele>1563.896</ele>
        <time>2014-08-29T09:33:37Z</time>
      </trkpt>
      <trkpt lat="43.83227" lon="6.36692">
        <ele>1565.027</ele>
        <time>2014-08-29T09:33:47Z</time>
      </trkpt>
      <trkpt lat="43.83229" lon="6.36681">
        <ele>1567.767</ele>
        <time>2014-08-29T09:33:55Z</time>
      </trkpt>
      <trkpt lat="43.8323" lon="6.36668">
        <ele>1569.498</ele>
        <time>2014-08-29T09:34:03Z</time>
      </trkpt>
      <trkpt lat="43.83232" lon="6.36659">
        <ele>1570.646</ele>
        <time>2014-08-29T09:34:09Z</time>
      </trkpt>
      <trkpt lat="43.83234" lon="6.3665">
        <ele>1570.754</ele>
        <time>2014-08-29T09:34:15Z</time>
      </trkpt>
      <trkpt lat="43.83237" lon="6.36642">
        <ele>1572.079</ele>
        <time>2014-08-29T09:34:21Z</time>
      </trkpt>
      <trkpt lat="43.8324" lon="6.36633">
        <ele>1573.8</ele>
        <time>2014-08-29T09:34:29Z</time>
      </trkpt>
      <trkpt lat="43.83241" lon="6.36622">
        <ele>1575.138</ele>
        <time>2014-08-29T09:34:37Z</time>
      </trkpt>
      <trkpt lat="43.8324" lon="6.36616">
        <ele>1575.937</ele>
        <time>2014-08-29T09:34:41Z</time>
      </trkpt>
      <trkpt lat="43.83243" lon="6.3661">
        <ele>1577.266</ele>
        <time>2014-08-29T09:34:45Z</time>
      </trkpt>
      <trkpt lat="43.83244" lon="6.36606">
        <ele>1576.985</ele>
        <time>2014-08-29T09:34:51Z</time>
      </trkpt>
      <trkpt lat="43.83244" lon="6.36604">
        <ele>1577.386</ele>
        <time>2014-08-29T09:34:53Z</time>
      </trkpt>
      <trkpt lat="43.83242" lon="6.36597">
        <ele>1578.115</ele>
        <time>2014-08-29T09:34:58Z</time>
      </trkpt>
      <trkpt lat="43.83237" lon="6.36595">
        <ele>1580.061</ele>
        <time>2014-08-29T09:35:03Z</time>
      </trkpt>
      <trkpt lat="43.83236" lon="6.36587">
        <ele>1582.05</ele>
        <time>2014-08-29T09:35:08Z</time>
      </trkpt>
      <trkpt lat="43.83235" lon="6.36571">
        <ele>1584.47</ele>
        <time>2014-08-29T09:35:19Z</time>
      </trkpt>
      <trkpt lat="43.83238" lon="6.36555">
        <ele>1586.469</ele>
        <time>2014-08-29T09:35:29Z</time>
      </trkpt>
      <trkpt lat="43.83243" lon="6.36545">
        <ele>1587.526</ele>
        <time>2014-08-29T09:35:38Z</time>
      </trkpt>
      <trkpt lat="43.83249" lon="6.36542">
        <ele>1587.87</ele>
        <time>2014-08-29T09:35:46Z</time>
      </trkpt>
      <trkpt lat="43.83249" lon="6.36543">
        <ele>1586.693</ele>
        <time>2014-08-29T09:35:54Z</time>
      </trkpt>
      <trkpt lat="43.83248" lon="6.36543">
        <ele>1585.721</ele>
        <time>2014-08-29T09:37:08Z</time>
      </trkpt>
      <trkpt lat="43.83253" lon="6.36541">
        <ele>1586.116</ele>
        <time>2014-08-29T09:37:13Z</time>
      </trkpt>
      <trkpt lat="43.83254" lon="6.36541">
        <ele>1586.33</ele>
        <time>2014-08-29T09:37:14Z</time>
      </trkpt>
      <trkpt lat="43.83261" lon="6.36536">
        <ele>1587.978</ele>
        <time>2014-08-29T09:37:21Z</time>
      </trkpt>
      <trkpt lat="43.83266" lon="6.3653">
        <ele>1589.864</ele>
        <time>2014-08-29T09:37:27Z</time>
      </trkpt>
      <trkpt lat="43.83274" lon="6.36526">
        <ele>1592.374</ele>
        <time>2014-08-29T09:37:36Z</time>
      </trkpt>
      <trkpt lat="43.83281" lon="6.36522">
        <ele>1593.934</ele>
        <time>2014-08-29T09:37:44Z</time>
      </trkpt>
      <trkpt lat="43.8329" lon="6.36516">
        <ele>1593.561</ele>
        <time>2014-08-29T09:37:53Z</time>
      </trkpt>
      <trkpt lat="43.83295" lon="6.36511">
        <ele>1593.464</ele>
        <time>2014-08-29T09:38:01Z</time>
      </trkpt>
      <trkpt lat="43.83301" lon="6.3651">
        <ele>1595.415</ele>
        <time>2014-08-29T09:38:09Z</time>
      </trkpt>
      <trkpt lat="43.83306" lon="6.36507">
        <ele>1597.65</ele>
        <time>2014-08-29T09:38:17Z</time>
      </trkpt>
      <trkpt lat="43.8331" lon="6.36505">
        <ele>1599.078</ele>
        <time>2014-08-29T09:38:24Z</time>
      </trkpt>
      <trkpt lat="43.83314" lon="6.36504">
        <ele>1600.181</ele>
        <time>2014-08-29T09:38:32Z</time>
      </trkpt>
      <trkpt lat="43.83316" lon="6.36504">
        <ele>1600.814</ele>
        <time>2014-08-29T09:38:38Z</time>
      </trkpt>
      <trkpt lat="43.83319" lon="6.36503">
        <ele>1602.046</ele>
        <time>2014-08-29T09:38:43Z</time>
      </trkpt>
      <trkpt lat="43.83323" lon="6.365">
        <ele>1603.275</ele>
        <time>2014-08-29T09:38:51Z</time>
      </trkpt>
      <trkpt lat="43.83328" lon="6.36501">
        <ele>1604.207</ele>
        <time>2014-08-29T09:39:01Z</time>
      </trkpt>
      <trkpt lat="43.83331" lon="6.36499">
        <ele>1605.41</ele>
        <time>2014-08-29T09:39:07Z</time>
      </trkpt>
      <trkpt lat="43.83332" lon="6.36493">
        <ele>1606.003</ele>
        <time>2014-08-29T09:39:15Z</time>
      </trkpt>
      <trkpt lat="43.83333" lon="6.36492">
        <ele>1606.554</ele>
        <time>2014-08-29T09:39:27Z</time>
      </trkpt>
      <trkpt lat="43.83335" lon="6.36488">
        <ele>1607.827</ele>
        <time>2014-08-29T09:39:32Z</time>
      </trkpt>
      <trkpt lat="43.83336" lon="6.36485">
        <ele>1608.492</ele>
        <time>2014-08-29T09:39:35Z</time>
      </trkpt>
      <trkpt lat="43.83338" lon="6.36479">
        <ele>1610.186</ele>
        <time>2014-08-29T09:39:43Z</time>
      </trkpt>
      <trkpt lat="43.83341" lon="6.36472">
        <ele>1610.825</ele>
        <time>2014-08-29T09:39:50Z</time>
      </trkpt>
      <trkpt lat="43.83342" lon="6.36464">
        <ele>1612.179</ele>
        <time>2014-08-29T09:39:58Z</time>
      </trkpt>
      <trkpt lat="43.83344" lon="6.36454">
        <ele>1613.448</ele>
        <time>2014-08-29T09:40:07Z</time>
      </trkpt>
      <trkpt lat="43.83346" lon="6.36444">
        <ele>1614.601</ele>
        <time>2014-08-29T09:40:16Z</time>
      </trkpt>
      <trkpt lat="43.83347" lon="6.36442">
        <ele>1616.202</ele>
        <time>2014-08-29T09:40:23Z</time>
      </trkpt>
      <trkpt lat="43.83352" lon="6.36438">
        <ele>1616.594</ele>
        <time>2014-08-29T09:40:29Z</time>
      </trkpt>
      <trkpt lat="43.83354" lon="6.36434">
        <ele>1616.759</ele>
        <time>2014-08-29T09:40:31Z</time>
      </trkpt>
      <trkpt lat="43.83359" lon="6.36419">
        <ele>1618.663</ele>
        <time>2014-08-29T09:40:38Z</time>
      </trkpt>
      <trkpt lat="43.83361" lon="6.36413">
        <ele>1619.622</ele>
        <time>2014-08-29T09:40:42Z</time>
      </trkpt>
      <trkpt lat="43.83361" lon="6.36412">
        <ele>1620.112</ele>
        <time>2014-08-29T09:40:45Z</time>
      </trkpt>
      <trkpt lat="43.83364" lon="6.36398">
        <ele>1622.471</ele>
        <time>2014-08-29T09:40:52Z</time>
      </trkpt>
      <trkpt lat="43.83368" lon="6.36386">
        <ele>1624.955</ele>
        <time>2014-08-29T09:40:59Z</time>
      </trkpt>
      <trkpt lat="43.8337" lon="6.36377">
        <ele>1626.468</ele>
        <time>2014-08-29T09:41:04Z</time>
      </trkpt>
      <trkpt lat="43.83371" lon="6.36366">
        <ele>1628.757</ele>
        <time>2014-08-29T09:41:11Z</time>
      </trkpt>
      <trkpt lat="43.83372" lon="6.36358">
        <ele>1630.708</ele>
        <time>2014-08-29T09:41:17Z</time>
      </trkpt>
      <trkpt lat="43.83371" lon="6.36356">
        <ele>1630.47</ele>
        <time>2014-08-29T09:41:23Z</time>
      </trkpt>
      <trkpt lat="43.83374" lon="6.36351">
        <ele>1629.257</ele>
        <time>2014-08-29T09:41:34Z</time>
      </trkpt>
      <trkpt lat="43.83373" lon="6.36348">
        <ele>1627.864</ele>
        <time>2014-08-29T09:42:18Z</time>
      </trkpt>
      <trkpt lat="43.83376" lon="6.36337">
        <ele>1630.302</ele>
        <time>2014-08-29T09:42:27Z</time>
      </trkpt>
      <trkpt lat="43.83376" lon="6.36329">
        <ele>1632.99</ele>
        <time>2014-08-29T09:42:34Z</time>
      </trkpt>
      <trkpt lat="43.8338" lon="6.36321">
        <ele>1634.574</ele>
        <time>2014-08-29T09:42:42Z</time>
      </trkpt>
      <trkpt lat="43.83383" lon="6.36316">
        <ele>1635.32</ele>
        <time>2014-08-29T09:42:48Z</time>
      </trkpt>
      <trkpt lat="43.83383" lon="6.36314">
        <ele>1637.889</ele>
        <time>2014-08-29T09:42:53Z</time>
      </trkpt>
      <trkpt lat="43.83384" lon="6.36311">
        <ele>1640.913</ele>
        <time>2014-08-29T09:42:59Z</time>
      </trkpt>
      <trkpt lat="43.83387" lon="6.36305">
        <ele>1641.739</ele>
        <time>2014-08-29T09:43:06Z</time>
      </trkpt>
      <trkpt lat="43.8339" lon="6.36297">
        <ele>1643.217</ele>
        <time>2014-08-29T09:43:15Z</time>
      </trkpt>
      <trkpt lat="43.83389" lon="6.36294">
        <ele>1645.066</ele>
        <time>2014-08-29T09:43:22Z</time>
      </trkpt>
      <trkpt lat="43.83392" lon="6.36288">
        <ele>1643.166</ele>
        <time>2014-08-29T09:43:27Z</time>
      </trkpt>
      <trkpt lat="43.83396" lon="6.36281">
        <ele>1642.272</ele>
        <time>2014-08-29T09:43:34Z</time>
      </trkpt>
      <trkpt lat="43.83401" lon="6.36274">
        <ele>1643.684</ele>
        <time>2014-08-29T09:43:44Z</time>
      </trkpt>
      <trkpt lat="43.83404" lon="6.3627">
        <ele>1643.563</ele>
        <time>2014-08-29T09:43:49Z</time>
      </trkpt>
      <trkpt lat="43.83407" lon="6.36262">
        <ele>1644.83</ele>
        <time>2014-08-29T09:43:57Z</time>
      </trkpt>
      <trkpt lat="43.83407" lon="6.36262">
        <ele>1645.074</ele>
        <time>2014-08-29T09:43:58Z</time>
      </trkpt>
      <trkpt lat="43.8341" lon="6.36254">
        <ele>1646.338</ele>
        <time>2014-08-29T09:44:06Z</time>
      </trkpt>
      <trkpt lat="43.83412" lon="6.36252">
        <ele>1647.145</ele>
        <time>2014-08-29T09:44:09Z</time>
      </trkpt>
      <trkpt lat="43.83416" lon="6.36244">
        <ele>1647.089</ele>
        <time>2014-08-29T09:44:17Z</time>
      </trkpt>
      <trkpt lat="43.8342" lon="6.36237">
        <ele>1648.622</ele>
        <time>2014-08-29T09:44:25Z</time>
      </trkpt>
      <trkpt lat="43.83424" lon="6.36232">
        <ele>1649.883</ele>
        <time>2014-08-29T09:44:32Z</time>
      </trkpt>
      <trkpt lat="43.83426" lon="6.36224">
        <ele>1652.186</ele>
        <time>2014-08-29T09:44:41Z</time>
      </trkpt>
      <trkpt lat="43.83426" lon="6.36224">
        <ele>1652.463</ele>
        <time>2014-08-29T09:44:48Z</time>
      </trkpt>
      <trkpt lat="43.83428" lon="6.3622">
        <ele>1653.178</ele>
        <time>2014-08-29T09:44:58Z</time>
      </trkpt>
      <trkpt lat="43.83429" lon="6.36217">
        <ele>1654.218</ele>
        <time>2014-08-29T09:45:03Z</time>
      </trkpt>
      <trkpt lat="43.83431" lon="6.36214">
        <ele>1654.102</ele>
        <time>2014-08-29T09:45:07Z</time>
      </trkpt>
      <trkpt lat="43.83433" lon="6.36208">
        <ele>1654.285</ele>
        <time>2014-08-29T09:45:13Z</time>
      </trkpt>
      <trkpt lat="43.83433" lon="6.36206">
        <ele>1655.322</ele>
        <time>2014-08-29T09:45:16Z</time>
      </trkpt>
      <trkpt lat="43.83432" lon="6.36191">
        <ele>1657.389</ele>
        <time>2014-08-29T09:45:26Z</time>
      </trkpt>
      <trkpt lat="43.83433" lon="6.36185">
        <ele>1657.457</ele>
        <time>2014-08-29T09:45:32Z</time>
      </trkpt>
      <trkpt lat="43.83435" lon="6.36184">
        <ele>1657.479</ele>
        <time>2014-08-29T09:45:38Z</time>
      </trkpt>
      <trkpt lat="43.83439" lon="6.36184">
        <ele>1658.967</ele>
        <time>2014-08-29T09:45:45Z</time>
      </trkpt>
      <trkpt lat="43.83441" lon="6.36181">
        <ele>1659.339</ele>
        <time>2014-08-29T09:45:50Z</time>
      </trkpt>
      <trkpt lat="43.83445" lon="6.36174">
        <ele>1658.972</ele>
        <time>2014-08-29T09:45:59Z</time>
      </trkpt>
      <trkpt lat="43.83447" lon="6.36171">
        <ele>1660.182</ele>
        <time>2014-08-29T09:46:04Z</time>
      </trkpt>
      <trkpt lat="43.83449" lon="6.36166">
        <ele>1660.851</ele>
        <time>2014-08-29T09:46:08Z</time>
      </trkpt>
      <trkpt lat="43.8345" lon="6.36162">
        <ele>1662.852</ele>
        <time>2014-08-29T09:46:12Z</time>
      </trkpt>
      <trkpt lat="43.83454" lon="6.36154">
        <ele>1662.334</ele>
        <time>2014-08-29T09:46:19Z</time>
      </trkpt>
      <trkpt lat="43.83458" lon="6.36148">
        <ele>1661.144</ele>
        <time>2014-08-29T09:46:27Z</time>
      </trkpt>
      <trkpt lat="43.8346" lon="6.36145">
        <ele>1662.185</ele>
        <time>2014-08-29T09:46:31Z</time>
      </trkpt>
      <trkpt lat="43.83464" lon="6.3614">
        <ele>1663.365</ele>
        <time>2014-08-29T09:46:37Z</time>
      </trkpt>
      <trkpt lat="43.83466" lon="6.36129">
        <ele>1664.305</ele>
        <time>2014-08-29T09:46:46Z</time>
      </trkpt>
      <trkpt lat="43.83468" lon="6.36123">
        <ele>1664.254</ele>
        <time>2014-08-29T09:46:51Z</time>
      </trkpt>
      <trkpt lat="43.83468" lon="6.36109">
        <ele>1666.821</ele>
        <time>2014-08-29T09:47:01Z</time>
      </trkpt>
      <trkpt lat="43.83468" lon="6.36105">
        <ele>1667.527</ele>
        <time>2014-08-29T09:47:05Z</time>
      </trkpt>
      <trkpt lat="43.83471" lon="6.361">
        <ele>1669.543</ele>
        <time>2014-08-29T09:47:13Z</time>
      </trkpt>
      <trkpt lat="43.83471" lon="6.36098">
        <ele>1671.921</ele>
        <time>2014-08-29T09:47:17Z</time>
      </trkpt>
      <trkpt lat="43.83474" lon="6.36087">
        <ele>1671.187</ele>
        <time>2014-08-29T09:47:24Z</time>
      </trkpt>
      <trkpt lat="43.83479" lon="6.36075">
        <ele>1670.4</ele>
        <time>2014-08-29T09:47:33Z</time>
      </trkpt>
      <trkpt lat="43.83482" lon="6.36072">
        <ele>1668.21</ele>
        <time>2014-08-29T09:47:40Z</time>
      </trkpt>
      <trkpt lat="43.8348" lon="6.36064">
        <ele>1673.46</ele>
        <time>2014-08-29T09:47:52Z</time>
      </trkpt>
      <trkpt lat="43.83481" lon="6.36058">
        <ele>1676.503</ele>
        <time>2014-08-29T09:47:59Z</time>
      </trkpt>
      <trkpt lat="43.83481" lon="6.36049">
        <ele>1679.809</ele>
        <time>2014-08-29T09:48:08Z</time>
      </trkpt>
      <trkpt lat="43.83484" lon="6.36041">
        <ele>1681.977</ele>
        <time>2014-08-29T09:48:16Z</time>
      </trkpt>
      <trkpt lat="43.83486" lon="6.36035">
        <ele>1683.694</ele>
        <time>2014-08-29T09:48:23Z</time>
      </trkpt>
      <trkpt lat="43.83491" lon="6.36029">
        <ele>1685.316</ele>
        <time>2014-08-29T09:48:31Z</time>
      </trkpt>
      <trkpt lat="43.83495" lon="6.36023">
        <ele>1687.101</ele>
        <time>2014-08-29T09:48:40Z</time>
      </trkpt>
      <trkpt lat="43.83498" lon="6.36015">
        <ele>1688.497</ele>
        <time>2014-08-29T09:48:49Z</time>
      </trkpt>
      <trkpt lat="43.83502" lon="6.3601">
        <ele>1689.932</ele>
        <time>2014-08-29T09:48:58Z</time>
      </trkpt>
      <trkpt lat="43.83505" lon="6.36007">
        <ele>1691.076</ele>
        <time>2014-08-29T09:49:06Z</time>
      </trkpt>
      <trkpt lat="43.83507" lon="6.36">
        <ele>1691.765</ele>
        <time>2014-08-29T09:49:13Z</time>
      </trkpt>
      <trkpt lat="43.8351" lon="6.35997">
        <ele>1692.387</ele>
        <time>2014-08-29T09:49:21Z</time>
      </trkpt>
      <trkpt lat="43.83513" lon="6.35994">
        <ele>1693.535</ele>
        <time>2014-08-29T09:49:28Z</time>
      </trkpt>
      <trkpt lat="43.83515" lon="6.35987">
        <ele>1694.934</ele>
        <time>2014-08-29T09:49:36Z</time>
      </trkpt>
      <trkpt lat="43.83514" lon="6.35982">
        <ele>1696.261</ele>
        <time>2014-08-29T09:49:44Z</time>
      </trkpt>
      <trkpt lat="43.83515" lon="6.35981">
        <ele>1696.628</ele>
        <time>2014-08-29T09:49:53Z</time>
      </trkpt>
      <trkpt lat="43.83518" lon="6.35974">
        <ele>1697.63</ele>
        <time>2014-08-29T09:50:07Z</time>
      </trkpt>
      <trkpt lat="43.83519" lon="6.35964">
        <ele>1698.969</ele>
        <time>2014-08-29T09:50:17Z</time>
      </trkpt>
      <trkpt lat="43.83522" lon="6.35961">
        <ele>1699.63</ele>
        <time>2014-08-29T09:50:24Z</time>
      </trkpt>
      <trkpt lat="43.83523" lon="6.35958">
        <ele>1700.126</ele>
        <time>2014-08-29T09:50:29Z</time>
      </trkpt>
      <trkpt lat="43.83525" lon="6.35955">
        <ele>1700.648</ele>
        <time>2014-08-29T09:50:35Z</time>
      </trkpt>
      <trkpt lat="43.83528" lon="6.35948">
        <ele>1701.502</ele>
        <time>2014-08-29T09:50:43Z</time>
      </trkpt>
      <trkpt lat="43.83529" lon="6.35943">
        <ele>1702.306</ele>
        <time>2014-08-29T09:50:50Z</time>
      </trkpt>
      <trkpt lat="43.83532" lon="6.35939">
        <ele>1703.184</ele>
        <time>2014-08-29T09:50:57Z</time>
      </trkpt>
      <trkpt lat="43.83534" lon="6.35934">
        <ele>1704.091</ele>
        <time>2014-08-29T09:51:03Z</time>
      </trkpt>
      <trkpt lat="43.83538" lon="6.35931">
        <ele>1705.194</ele>
        <time>2014-08-29T09:51:09Z</time>
      </trkpt>
      <trkpt lat="43.83538" lon="6.3593">
        <ele>1705.26</ele>
        <time>2014-08-29T09:51:10Z</time>
      </trkpt>
      <trkpt lat="43.8354" lon="6.35923">
        <ele>1705.666</ele>
        <time>2014-08-29T09:51:17Z</time>
      </trkpt>
      <trkpt lat="43.83543" lon="6.35918">
        <ele>1706.087</ele>
        <time>2014-08-29T09:51:23Z</time>
      </trkpt>
      <trkpt lat="43.83546" lon="6.35912">
        <ele>1706.709</ele>
        <time>2014-08-29T09:51:31Z</time>
      </trkpt>
      <trkpt lat="43.83549" lon="6.35909">
        <ele>1707.475</ele>
        <time>2014-08-29T09:51:36Z</time>
      </trkpt>
      <trkpt lat="43.8355" lon="6.35902">
        <ele>1708.308</ele>
        <time>2014-08-29T09:51:44Z</time>
      </trkpt>
      <trkpt lat="43.83551" lon="6.359">
        <ele>1708.678</ele>
        <time>2014-08-29T09:51:50Z</time>
      </trkpt>
      <trkpt lat="43.83554" lon="6.35896">
        <ele>1709.468</ele>
        <time>2014-08-29T09:51:58Z</time>
      </trkpt>
      <trkpt lat="43.83556" lon="6.3589">
        <ele>1710.5</ele>
        <time>2014-08-29T09:52:05Z</time>
      </trkpt>
      <trkpt lat="43.83558" lon="6.35885">
        <ele>1711.137</ele>
        <time>2014-08-29T09:52:10Z</time>
      </trkpt>
      <trkpt lat="43.83561" lon="6.35877">
        <ele>1712.116</ele>
        <time>2014-08-29T09:52:20Z</time>
      </trkpt>
      <trkpt lat="43.83561" lon="6.35875">
        <ele>1712.081</ele>
        <time>2014-08-29T09:52:23Z</time>
      </trkpt>
      <trkpt lat="43.83561" lon="6.35872">
        <ele>1711.93</ele>
        <time>2014-08-29T09:52:26Z</time>
      </trkpt>
      <trkpt lat="43.83563" lon="6.35868">
        <ele>1712.59</ele>
        <time>2014-08-29T09:52:31Z</time>
      </trkpt>
      <trkpt lat="43.83566" lon="6.35862">
        <ele>1713.429</ele>
        <time>2014-08-29T09:52:39Z</time>
      </trkpt>
      <trkpt lat="43.83571" lon="6.35859">
        <ele>1714.031</ele>
        <time>2014-08-29T09:52:46Z</time>
      </trkpt>
      <trkpt lat="43.83573" lon="6.35851">
        <ele>1714.921</ele>
        <time>2014-08-29T09:52:54Z</time>
      </trkpt>
      <trkpt lat="43.83576" lon="6.35846">
        <ele>1715.686</ele>
        <time>2014-08-29T09:53:01Z</time>
      </trkpt>
      <trkpt lat="43.83575" lon="6.35844">
        <ele>1716.341</ele>
        <time>2014-08-29T09:53:08Z</time>
      </trkpt>
      <trkpt lat="43.83576" lon="6.3584">
        <ele>1716.348</ele>
        <time>2014-08-29T09:53:14Z</time>
      </trkpt>
      <trkpt lat="43.83576" lon="6.35839">
        <ele>1716.526</ele>
        <time>2014-08-29T09:53:18Z</time>
      </trkpt>
      <trkpt lat="43.83578" lon="6.35837">
        <ele>1716.935</ele>
        <time>2014-08-29T09:53:24Z</time>
      </trkpt>
      <trkpt lat="43.83579" lon="6.35835">
        <ele>1717.366</ele>
        <time>2014-08-29T09:53:27Z</time>
      </trkpt>
      <trkpt lat="43.83585" lon="6.3583">
        <ele>1719.266</ele>
        <time>2014-08-29T09:53:37Z</time>
      </trkpt>
      <trkpt lat="43.8359" lon="6.35824">
        <ele>1720.677</ele>
        <time>2014-08-29T09:53:46Z</time>
      </trkpt>
      <trkpt lat="43.83595" lon="6.35818">
        <ele>1721.286</ele>
        <time>2014-08-29T09:53:53Z</time>
      </trkpt>
      <trkpt lat="43.83599" lon="6.35813">
        <ele>1722.456</ele>
        <time>2014-08-29T09:54:02Z</time>
      </trkpt>
      <trkpt lat="43.83602" lon="6.35811">
        <ele>1722.985</ele>
        <time>2014-08-29T09:54:06Z</time>
      </trkpt>
      <trkpt lat="43.83607" lon="6.35806">
        <ele>1723.976</ele>
        <time>2014-08-29T09:54:15Z</time>
      </trkpt>
      <trkpt lat="43.83611" lon="6.35802">
        <ele>1725.024</ele>
        <time>2014-08-29T09:54:24Z</time>
      </trkpt>
      <trkpt lat="43.83614" lon="6.35799">
        <ele>1726.094</ele>
        <time>2014-08-29T09:54:32Z</time>
      </trkpt>
      <trkpt lat="43.83615" lon="6.35797">
        <ele>1727.026</ele>
        <time>2014-08-29T09:54:40Z</time>
      </trkpt>
      <trkpt lat="43.83618" lon="6.35796">
        <ele>1727.885</ele>
        <time>2014-08-29T09:54:47Z</time>
      </trkpt>
      <trkpt lat="43.83622" lon="6.35793">
        <ele>1729.057</ele>
        <time>2014-08-29T09:54:54Z</time>
      </trkpt>
      <trkpt lat="43.83627" lon="6.3579">
        <ele>1730.186</ele>
        <time>2014-08-29T09:55:03Z</time>
      </trkpt>
      <trkpt lat="43.8363" lon="6.35789">
        <ele>1731.587</ele>
        <time>2014-08-29T09:55:10Z</time>
      </trkpt>
      <trkpt lat="43.83632" lon="6.35787">
        <ele>1732.465</ele>
        <time>2014-08-29T09:55:16Z</time>
      </trkpt>
      <trkpt lat="43.83634" lon="6.35787">
        <ele>1732.825</ele>
        <time>2014-08-29T09:55:22Z</time>
      </trkpt>
      <trkpt lat="43.83637" lon="6.35785">
        <ele>1734.426</ele>
        <time>2014-08-29T09:55:29Z</time>
      </trkpt>
      <trkpt lat="43.83641" lon="6.35783">
        <ele>1735.777</ele>
        <time>2014-08-29T09:55:36Z</time>
      </trkpt>
      <trkpt lat="43.83644" lon="6.35781">
        <ele>1736.426</ele>
        <time>2014-08-29T09:55:43Z</time>
      </trkpt>
      <trkpt lat="43.83646" lon="6.35781">
        <ele>1737.234</ele>
        <time>2014-08-29T09:55:50Z</time>
      </trkpt>
      <trkpt lat="43.83648" lon="6.35783">
        <ele>1735.511</ele>
        <time>2014-08-29T09:57:05Z</time>
      </trkpt>
      <trkpt lat="43.83649" lon="6.35781">
        <ele>1734.098</ele>
        <time>2014-08-29T09:57:12Z</time>
      </trkpt>
      <trkpt lat="43.8365" lon="6.3578">
        <ele>1733.463</ele>
        <time>2014-08-29T09:57:19Z</time>
      </trkpt>
      <trkpt lat="43.83653" lon="6.35776">
        <ele>1734.244</ele>
        <time>2014-08-29T09:57:26Z</time>
      </trkpt>
      <trkpt lat="43.83657" lon="6.35775">
        <ele>1734.916</ele>
        <time>2014-08-29T09:57:38Z</time>
      </trkpt>
      <trkpt lat="43.83662" lon="6.35771">
        <ele>1736.027</ele>
        <time>2014-08-29T09:57:46Z</time>
      </trkpt>
      <trkpt lat="43.83667" lon="6.35768">
        <ele>1737.656</ele>
        <time>2014-08-29T09:57:56Z</time>
      </trkpt>
      <trkpt lat="43.83673" lon="6.35766">
        <ele>1740.338</ele>
        <time>2014-08-29T09:58:07Z</time>
      </trkpt>
      <trkpt lat="43.83675" lon="6.35764">
        <ele>1741.376</ele>
        <time>2014-08-29T09:58:13Z</time>
      </trkpt>
      <trkpt lat="43.83678" lon="6.3576">
        <ele>1743.686</ele>
        <time>2014-08-29T09:58:21Z</time>
      </trkpt>
      <trkpt lat="43.83683" lon="6.35757">
        <ele>1745.375</ele>
        <time>2014-08-29T09:58:31Z</time>
      </trkpt>
      <trkpt lat="43.83689" lon="6.35752">
        <ele>1746.706</ele>
        <time>2014-08-29T09:58:42Z</time>
      </trkpt>
      <trkpt lat="43.83694" lon="6.35748">
        <ele>1749.566</ele>
        <time>2014-08-29T09:58:51Z</time>
      </trkpt>
      <trkpt lat="43.83697" lon="6.35747">
        <ele>1751.326</ele>
        <time>2014-08-29T09:58:58Z</time>
      </trkpt>
      <trkpt lat="43.837" lon="6.35745">
        <ele>1751.926</ele>
        <time>2014-08-29T09:59:03Z</time>
      </trkpt>
      <trkpt lat="43.83706" lon="6.35741">
        <ele>1753.416</ele>
        <time>2014-08-29T09:59:11Z</time>
      </trkpt>
      <trkpt lat="43.83712" lon="6.35737">
        <ele>1755.195</ele>
        <time>2014-08-29T09:59:20Z</time>
      </trkpt>
      <trkpt lat="43.83716" lon="6.35733">
        <ele>1757.216</ele>
        <time>2014-08-29T09:59:30Z</time>
      </trkpt>
      <trkpt lat="43.83719" lon="6.3573">
        <ele>1757.956</ele>
        <time>2014-08-29T09:59:36Z</time>
      </trkpt>
      <trkpt lat="43.83723" lon="6.35728">
        <ele>1760.257</ele>
        <time>2014-08-29T09:59:47Z</time>
      </trkpt>
      <trkpt lat="43.83728" lon="6.35725">
        <ele>1762.337</ele>
        <time>2014-08-29T09:59:56Z</time>
      </trkpt>
      <trkpt lat="43.83731" lon="6.35723">
        <ele>1764.206</ele>
        <time>2014-08-29T10:00:05Z</time>
      </trkpt>
      <trkpt lat="43.83734" lon="6.35723">
        <ele>1765.666</ele>
        <time>2014-08-29T10:00:12Z</time>
      </trkpt>
      <trkpt lat="43.83736" lon="6.35722">
        <ele>1766.705</ele>
        <time>2014-08-29T10:00:17Z</time>
      </trkpt>
      <trkpt lat="43.83739" lon="6.35721">
        <ele>1768.186</ele>
        <time>2014-08-29T10:00:23Z</time>
      </trkpt>
      <trkpt lat="43.83743" lon="6.35718">
        <ele>1768.955</ele>
        <time>2014-08-29T10:00:31Z</time>
      </trkpt>
      <trkpt lat="43.83745" lon="6.35717">
        <ele>1770.986</ele>
        <time>2014-08-29T10:00:38Z</time>
      </trkpt>
      <trkpt lat="43.83748" lon="6.35714">
        <ele>1773.146</ele>
        <time>2014-08-29T10:00:47Z</time>
      </trkpt>
      <trkpt lat="43.83751" lon="6.35713">
        <ele>1775.116</ele>
        <time>2014-08-29T10:00:55Z</time>
      </trkpt>
      <trkpt lat="43.83754" lon="6.35712">
        <ele>1777.877</ele>
        <time>2014-08-29T10:01:02Z</time>
      </trkpt>
      <trkpt lat="43.83757" lon="6.35709">
        <ele>1780.106</ele>
        <time>2014-08-29T10:01:10Z</time>
      </trkpt>
      <trkpt lat="43.83762" lon="6.35707">
        <ele>1782.396</ele>
        <time>2014-08-29T10:01:20Z</time>
      </trkpt>
      <trkpt lat="43.8377" lon="6.35701">
        <ele>1782.704</ele>
        <time>2014-08-29T10:01:31Z</time>
      </trkpt>
      <trkpt lat="43.83774" lon="6.35698">
        <ele>1783.195</ele>
        <time>2014-08-29T10:01:37Z</time>
      </trkpt>
      <trkpt lat="43.83779" lon="6.35695">
        <ele>1784.305</ele>
        <time>2014-08-29T10:01:44Z</time>
      </trkpt>
      <trkpt lat="43.83783" lon="6.3569">
        <ele>1785.916</ele>
        <time>2014-08-29T10:01:53Z</time>
      </trkpt>
      <trkpt lat="43.83788" lon="6.35687">
        <ele>1787.286</ele>
        <time>2014-08-29T10:02:00Z</time>
      </trkpt>
      <trkpt lat="43.83792" lon="6.35684">
        <ele>1788.946</ele>
        <time>2014-08-29T10:02:09Z</time>
      </trkpt>
      <trkpt lat="43.83797" lon="6.35679">
        <ele>1790.686</ele>
        <time>2014-08-29T10:02:18Z</time>
      </trkpt>
      <trkpt lat="43.83804" lon="6.35672">
        <ele>1791.434</ele>
        <time>2014-08-29T10:02:27Z</time>
      </trkpt>
      <trkpt lat="43.83809" lon="6.35664">
        <ele>1792.205</ele>
        <time>2014-08-29T10:02:35Z</time>
      </trkpt>
      <trkpt lat="43.83816" lon="6.35655">
        <ele>1792.283</ele>
        <time>2014-08-29T10:02:45Z</time>
      </trkpt>
      <trkpt lat="43.83818" lon="6.35648">
        <ele>1793.955</ele>
        <time>2014-08-29T10:02:52Z</time>
      </trkpt>
      <trkpt lat="43.8382" lon="6.35647">
        <ele>1793.964</ele>
        <time>2014-08-29T10:02:54Z</time>
      </trkpt>
      <trkpt lat="43.83827" lon="6.35639">
        <ele>1795.055</ele>
        <time>2014-08-29T10:03:04Z</time>
      </trkpt>
      <trkpt lat="43.8383" lon="6.35629">
        <ele>1796.054</ele>
        <time>2014-08-29T10:03:12Z</time>
      </trkpt>
      <trkpt lat="43.83834" lon="6.35621">
        <ele>1796.725</ele>
        <time>2014-08-29T10:03:19Z</time>
      </trkpt>
      <trkpt lat="43.83837" lon="6.35614">
        <ele>1796.795</ele>
        <time>2014-08-29T10:03:26Z</time>
      </trkpt>
      <trkpt lat="43.83843" lon="6.35605">
        <ele>1796.303</ele>
        <time>2014-08-29T10:03:34Z</time>
      </trkpt>
      <trkpt lat="43.8385" lon="6.35594">
        <ele>1796.395</ele>
        <time>2014-08-29T10:03:43Z</time>
      </trkpt>
      <trkpt lat="43.83853" lon="6.35588">
        <ele>1796.754</ele>
        <time>2014-08-29T10:03:49Z</time>
      </trkpt>
      <trkpt lat="43.83856" lon="6.35584">
        <ele>1796.996</ele>
        <time>2014-08-29T10:03:56Z</time>
      </trkpt>
      <trkpt lat="43.83859" lon="6.3558">
        <ele>1797.668</ele>
        <time>2014-08-29T10:04:01Z</time>
      </trkpt>
      <trkpt lat="43.8386" lon="6.35576">
        <ele>1798.506</ele>
        <time>2014-08-29T10:04:06Z</time>
      </trkpt>
      <trkpt lat="43.83863" lon="6.35569">
        <ele>1800.736</ele>
        <time>2014-08-29T10:04:15Z</time>
      </trkpt>
      <trkpt lat="43.83867" lon="6.35563">
        <ele>1800.474</ele>
        <time>2014-08-29T10:04:22Z</time>
      </trkpt>
      <trkpt lat="43.83869" lon="6.35558">
        <ele>1802.107</ele>
        <time>2014-08-29T10:04:30Z</time>
      </trkpt>
      <trkpt lat="43.8387" lon="6.35553">
        <ele>1803.465</ele>
        <time>2014-08-29T10:04:37Z</time>
      </trkpt>
      <trkpt lat="43.83872" lon="6.35548">
        <ele>1804.867</ele>
        <time>2014-08-29T10:04:43Z</time>
      </trkpt>
      <trkpt lat="43.83873" lon="6.35544">
        <ele>1806.827</ele>
        <time>2014-08-29T10:04:51Z</time>
      </trkpt>
      <trkpt lat="43.83874" lon="6.35542">
        <ele>1807.405</ele>
        <time>2014-08-29T10:04:57Z</time>
      </trkpt>
      <trkpt lat="43.83876" lon="6.35542">
        <ele>1808.837</ele>
        <time>2014-08-29T10:05:04Z</time>
      </trkpt>
      <trkpt lat="43.83878" lon="6.35542">
        <ele>1809.155</ele>
        <time>2014-08-29T10:05:09Z</time>
      </trkpt>
      <trkpt lat="43.83879" lon="6.35539">
        <ele>1810.697</ele>
        <time>2014-08-29T10:05:15Z</time>
      </trkpt>
      <trkpt lat="43.8388" lon="6.35536">
        <ele>1811.165</ele>
        <time>2014-08-29T10:05:19Z</time>
      </trkpt>
      <trkpt lat="43.83885" lon="6.35531">
        <ele>1812.529</ele>
        <time>2014-08-29T10:05:28Z</time>
      </trkpt>
      <trkpt lat="43.83886" lon="6.35531">
        <ele>1812.849</ele>
        <time>2014-08-29T10:05:29Z</time>
      </trkpt>
      <trkpt lat="43.83889" lon="6.35532">
        <ele>1813.304</ele>
        <time>2014-08-29T10:05:35Z</time>
      </trkpt>
      <trkpt lat="43.83889" lon="6.35532">
        <ele>1812.661</ele>
        <time>2014-08-29T10:05:43Z</time>
      </trkpt>
      <trkpt lat="43.83895" lon="6.35525">
        <ele>1813.433</ele>
        <time>2014-08-29T10:05:52Z</time>
      </trkpt>
      <trkpt lat="43.83896" lon="6.35525">
        <ele>1813.323</ele>
        <time>2014-08-29T10:06:01Z</time>
      </trkpt>
      <trkpt lat="43.839" lon="6.35522">
        <ele>1813.503</ele>
        <time>2014-08-29T10:06:09Z</time>
      </trkpt>
      <trkpt lat="43.83901" lon="6.35519">
        <ele>1813.313</ele>
        <time>2014-08-29T10:06:19Z</time>
      </trkpt>
      <trkpt lat="43.839" lon="6.35518">
        <ele>1812.552</ele>
        <time>2014-08-29T10:06:26Z</time>
      </trkpt>
      <trkpt lat="43.83897" lon="6.35519">
        <ele>1822.242</ele>
        <time>2014-08-29T10:11:28Z</time>
      </trkpt>
      <trkpt lat="43.83901" lon="6.35513">
        <ele>1815.133</ele>
        <time>2014-08-29T10:12:18Z</time>
      </trkpt>
      <trkpt lat="43.83903" lon="6.35507">
        <ele>1813.923</ele>
        <time>2014-08-29T10:12:46Z</time>
      </trkpt>
      <trkpt lat="43.83911" lon="6.35496">
        <ele>1813.984</ele>
        <time>2014-08-29T10:12:54Z</time>
      </trkpt>
      <trkpt lat="43.83919" lon="6.35483">
        <ele>1815.157</ele>
        <time>2014-08-29T10:13:03Z</time>
      </trkpt>
      <trkpt lat="43.83924" lon="6.35471">
        <ele>1816.616</ele>
        <time>2014-08-29T10:13:12Z</time>
      </trkpt>
      <trkpt lat="43.83933" lon="6.35467">
        <ele>1817.305</ele>
        <time>2014-08-29T10:13:20Z</time>
      </trkpt>
      <trkpt lat="43.83944" lon="6.35464">
        <ele>1818.517</ele>
        <time>2014-08-29T10:13:29Z</time>
      </trkpt>
      <trkpt lat="43.83955" lon="6.35458">
        <ele>1819.847</ele>
        <time>2014-08-29T10:13:40Z</time>
      </trkpt>
      <trkpt lat="43.8396" lon="6.35452">
        <ele>1820.756</ele>
        <time>2014-08-29T10:13:49Z</time>
      </trkpt>
      <trkpt lat="43.83962" lon="6.35449">
        <ele>1821.217</ele>
        <time>2014-08-29T10:13:52Z</time>
      </trkpt>
      <trkpt lat="43.83967" lon="6.35443">
        <ele>1824.807</ele>
        <time>2014-08-29T10:14:03Z</time>
      </trkpt>
      <trkpt lat="43.8397" lon="6.35439">
        <ele>1825.266</ele>
        <time>2014-08-29T10:14:11Z</time>
      </trkpt>
      <trkpt lat="43.83973" lon="6.35436">
        <ele>1826.696</ele>
        <time>2014-08-29T10:14:18Z</time>
      </trkpt>
      <trkpt lat="43.83978" lon="6.35432">
        <ele>1827.505</ele>
        <time>2014-08-29T10:14:29Z</time>
      </trkpt>
      <trkpt lat="43.8398" lon="6.3543">
        <ele>1827.874</ele>
        <time>2014-08-29T10:14:35Z</time>
      </trkpt>
      <trkpt lat="43.83983" lon="6.35427">
        <ele>1828.575</ele>
        <time>2014-08-29T10:14:42Z</time>
      </trkpt>
      <trkpt lat="43.83989" lon="6.35421">
        <ele>1829.315</ele>
        <time>2014-08-29T10:14:52Z</time>
      </trkpt>
      <trkpt lat="43.83991" lon="6.35419">
        <ele>1829.886</ele>
        <time>2014-08-29T10:14:57Z</time>
      </trkpt>
      <trkpt lat="43.83992" lon="6.35416">
        <ele>1829.284</ele>
        <time>2014-08-29T10:15:02Z</time>
      </trkpt>
      <trkpt lat="43.83994" lon="6.35413">
        <ele>1829.364</ele>
        <time>2014-08-29T10:15:07Z</time>
      </trkpt>
      <trkpt lat="43.83996" lon="6.35411">
        <ele>1830.657</ele>
        <time>2014-08-29T10:15:13Z</time>
      </trkpt>
      <trkpt lat="43.84" lon="6.35408">
        <ele>1832.394</ele>
        <time>2014-08-29T10:15:21Z</time>
      </trkpt>
      <trkpt lat="43.84" lon="6.35408">
        <ele>1833.411</ele>
        <time>2014-08-29T10:15:28Z</time>
      </trkpt>
      <trkpt lat="43.84003" lon="6.35403">
        <ele>1834.437</ele>
        <time>2014-08-29T10:15:35Z</time>
      </trkpt>
      <trkpt lat="43.84005" lon="6.354">
        <ele>1835.716</ele>
        <time>2014-08-29T10:15:41Z</time>
      </trkpt>
      <trkpt lat="43.84008" lon="6.35395">
        <ele>1837.727</ele>
        <time>2014-08-29T10:15:50Z</time>
      </trkpt>
      <trkpt lat="43.84012" lon="6.3539">
        <ele>1839.827</ele>
        <time>2014-08-29T10:16:00Z</time>
      </trkpt>
      <trkpt lat="43.84015" lon="6.35388">
        <ele>1841.106</ele>
        <time>2014-08-29T10:16:07Z</time>
      </trkpt>
      <trkpt lat="43.84019" lon="6.35384">
        <ele>1842.934</ele>
        <time>2014-08-29T10:16:16Z</time>
      </trkpt>
      <trkpt lat="43.84021" lon="6.35382">
        <ele>1844.505</ele>
        <time>2014-08-29T10:16:22Z</time>
      </trkpt>
      <trkpt lat="43.84022" lon="6.35381">
        <ele>1845.074</ele>
        <time>2014-08-29T10:16:27Z</time>
      </trkpt>
      <trkpt lat="43.84024" lon="6.35381">
        <ele>1845.082</ele>
        <time>2014-08-29T10:16:30Z</time>
      </trkpt>
      <trkpt lat="43.84028" lon="6.35378">
        <ele>1846.015</ele>
        <time>2014-08-29T10:16:38Z</time>
      </trkpt>
      <trkpt lat="43.84032" lon="6.35374">
        <ele>1847.857</ele>
        <time>2014-08-29T10:16:47Z</time>
      </trkpt>
      <trkpt lat="43.84034" lon="6.35371">
        <ele>1849.116</ele>
        <time>2014-08-29T10:16:54Z</time>
      </trkpt>
      <trkpt lat="43.84036" lon="6.35367">
        <ele>1850.296</ele>
        <time>2014-08-29T10:17:01Z</time>
      </trkpt>
      <trkpt lat="43.84039" lon="6.35365">
        <ele>1851.366</ele>
        <time>2014-08-29T10:17:07Z</time>
      </trkpt>
      <trkpt lat="43.84041" lon="6.3536">
        <ele>1852.976</ele>
        <time>2014-08-29T10:17:16Z</time>
      </trkpt>
      <trkpt lat="43.84045" lon="6.35356">
        <ele>1854.586</ele>
        <time>2014-08-29T10:17:26Z</time>
      </trkpt>
      <trkpt lat="43.8405" lon="6.35352">
        <ele>1856.235</ele>
        <time>2014-08-29T10:17:36Z</time>
      </trkpt>
      <trkpt lat="43.84052" lon="6.35349">
        <ele>1857.385</ele>
        <time>2014-08-29T10:17:43Z</time>
      </trkpt>
      <trkpt lat="43.84055" lon="6.35347">
        <ele>1858.365</ele>
        <time>2014-08-29T10:17:50Z</time>
      </trkpt>
      <trkpt lat="43.84061" lon="6.35344">
        <ele>1859.605</ele>
        <time>2014-08-29T10:18:01Z</time>
      </trkpt>
      <trkpt lat="43.84064" lon="6.35341">
        <ele>1860.685</ele>
        <time>2014-08-29T10:18:09Z</time>
      </trkpt>
      <trkpt lat="43.84068" lon="6.35338">
        <ele>1862.119</ele>
        <time>2014-08-29T10:18:17Z</time>
      </trkpt>
      <trkpt lat="43.84069" lon="6.35335">
        <ele>1863.316</ele>
        <time>2014-08-29T10:18:24Z</time>
      </trkpt>
      <trkpt lat="43.84071" lon="6.35333">
        <ele>1864.216</ele>
        <time>2014-08-29T10:18:29Z</time>
      </trkpt>
      <trkpt lat="43.84075" lon="6.35331">
        <ele>1865.456</ele>
        <time>2014-08-29T10:18:37Z</time>
      </trkpt>
      <trkpt lat="43.84077" lon="6.3533">
        <ele>1866.266</ele>
        <time>2014-08-29T10:18:44Z</time>
      </trkpt>
      <trkpt lat="43.84078" lon="6.35329">
        <ele>1865.812</ele>
        <time>2014-08-29T10:18:55Z</time>
      </trkpt>
      <trkpt lat="43.84081" lon="6.35328">
        <ele>1866.393</ele>
        <time>2014-08-29T10:19:03Z</time>
      </trkpt>
      <trkpt lat="43.84083" lon="6.35327">
        <ele>1867.034</ele>
        <time>2014-08-29T10:19:10Z</time>
      </trkpt>
      <trkpt lat="43.84086" lon="6.35326">
        <ele>1867.625</ele>
        <time>2014-08-29T10:19:16Z</time>
      </trkpt>
      <trkpt lat="43.8409" lon="6.35323">
        <ele>1868.914</ele>
        <time>2014-08-29T10:19:24Z</time>
      </trkpt>
      <trkpt lat="43.84092" lon="6.35321">
        <ele>1870.315</ele>
        <time>2014-08-29T10:19:31Z</time>
      </trkpt>
      <trkpt lat="43.84094" lon="6.35317">
        <ele>1872.227</ele>
        <time>2014-08-29T10:19:39Z</time>
      </trkpt>
      <trkpt lat="43.84094" lon="6.35315">
        <ele>1873.176</ele>
        <time>2014-08-29T10:19:45Z</time>
      </trkpt>
      <trkpt lat="43.84094" lon="6.35314">
        <ele>1873.583</ele>
        <time>2014-08-29T10:19:51Z</time>
      </trkpt>
      <trkpt lat="43.84096" lon="6.3531">
        <ele>1874.645</ele>
        <time>2014-08-29T10:19:58Z</time>
      </trkpt>
      <trkpt lat="43.84099" lon="6.35306">
        <ele>1875.915</ele>
        <time>2014-08-29T10:20:07Z</time>
      </trkpt>
      <trkpt lat="43.84104" lon="6.35302">
        <ele>1877.135</ele>
        <time>2014-08-29T10:20:17Z</time>
      </trkpt>
      <trkpt lat="43.84108" lon="6.35299">
        <ele>1878.525</ele>
        <time>2014-08-29T10:20:25Z</time>
      </trkpt>
      <trkpt lat="43.84111" lon="6.35295">
        <ele>1879.935</ele>
        <time>2014-08-29T10:20:34Z</time>
      </trkpt>
      <trkpt lat="43.84115" lon="6.3529">
        <ele>1881.265</ele>
        <time>2014-08-29T10:20:44Z</time>
      </trkpt>
      <trkpt lat="43.8412" lon="6.35286">
        <ele>1882.375</ele>
        <time>2014-08-29T10:20:53Z</time>
      </trkpt>
      <trkpt lat="43.84122" lon="6.3528">
        <ele>1883.605</ele>
        <time>2014-08-29T10:21:02Z</time>
      </trkpt>
      <trkpt lat="43.8412" lon="6.35279">
        <ele>1883.874</ele>
        <time>2014-08-29T10:21:07Z</time>
      </trkpt>
      <trkpt lat="43.84119" lon="6.35275">
        <ele>1884.776</ele>
        <time>2014-08-29T10:21:13Z</time>
      </trkpt>
      <trkpt lat="43.84119" lon="6.35272">
        <ele>1886.117</ele>
        <time>2014-08-29T10:21:20Z</time>
      </trkpt>
      <trkpt lat="43.84117" lon="6.35266">
        <ele>1887.817</ele>
        <time>2014-08-29T10:21:28Z</time>
      </trkpt>
      <trkpt lat="43.84115" lon="6.35262">
        <ele>1889.457</ele>
        <time>2014-08-29T10:21:36Z</time>
      </trkpt>
      <trkpt lat="43.84113" lon="6.35259">
        <ele>1890.635</ele>
        <time>2014-08-29T10:21:43Z</time>
      </trkpt>
      <trkpt lat="43.84112" lon="6.35256">
        <ele>1891.815</ele>
        <time>2014-08-29T10:21:50Z</time>
      </trkpt>
      <trkpt lat="43.84111" lon="6.35253">
        <ele>1892.935</ele>
        <time>2014-08-29T10:21:56Z</time>
      </trkpt>
      <trkpt lat="43.8411" lon="6.35249">
        <ele>1894.686</ele>
        <time>2014-08-29T10:22:06Z</time>
      </trkpt>
      <trkpt lat="43.84109" lon="6.35246">
        <ele>1895.434</ele>
        <time>2014-08-29T10:22:11Z</time>
      </trkpt>
      <trkpt lat="43.84109" lon="6.35244">
        <ele>1896.486</ele>
        <time>2014-08-29T10:22:17Z</time>
      </trkpt>
      <trkpt lat="43.84112" lon="6.35242">
        <ele>1898.065</ele>
        <time>2014-08-29T10:22:25Z</time>
      </trkpt>
      <trkpt lat="43.84115" lon="6.35241">
        <ele>1899.204</ele>
        <time>2014-08-29T10:22:31Z</time>
      </trkpt>
      <trkpt lat="43.84117" lon="6.35238">
        <ele>1900.615</ele>
        <time>2014-08-29T10:22:38Z</time>
      </trkpt>
      <trkpt lat="43.84119" lon="6.35236">
        <ele>1901.635</ele>
        <time>2014-08-29T10:22:44Z</time>
      </trkpt>
      <trkpt lat="43.84118" lon="6.35233">
        <ele>1902.465</ele>
        <time>2014-08-29T10:22:49Z</time>
      </trkpt>
      <trkpt lat="43.84118" lon="6.3523">
        <ele>1903.356</ele>
        <time>2014-08-29T10:22:55Z</time>
      </trkpt>
      <trkpt lat="43.84116" lon="6.35227">
        <ele>1904.327</ele>
        <time>2014-08-29T10:23:01Z</time>
      </trkpt>
      <trkpt lat="43.84115" lon="6.35224">
        <ele>1905.486</ele>
        <time>2014-08-29T10:23:07Z</time>
      </trkpt>
      <trkpt lat="43.84116" lon="6.35222">
        <ele>1906.105</ele>
        <time>2014-08-29T10:23:15Z</time>
      </trkpt>
      <trkpt lat="43.84115" lon="6.35219">
        <ele>1907.046</ele>
        <time>2014-08-29T10:23:22Z</time>
      </trkpt>
      <trkpt lat="43.84114" lon="6.35214">
        <ele>1907.886</ele>
        <time>2014-08-29T10:23:29Z</time>
      </trkpt>
      <trkpt lat="43.84114" lon="6.35209">
        <ele>1908.826</ele>
        <time>2014-08-29T10:23:37Z</time>
      </trkpt>
      <trkpt lat="43.84114" lon="6.35205">
        <ele>1909.465</ele>
        <time>2014-08-29T10:23:43Z</time>
      </trkpt>
      <trkpt lat="43.84113" lon="6.352">
        <ele>1910.166</ele>
        <time>2014-08-29T10:23:50Z</time>
      </trkpt>
      <trkpt lat="43.84114" lon="6.35198">
        <ele>1910.786</ele>
        <time>2014-08-29T10:23:58Z</time>
      </trkpt>
      <trkpt lat="43.84117" lon="6.35195">
        <ele>1912.296</ele>
        <time>2014-08-29T10:24:06Z</time>
      </trkpt>
      <trkpt lat="43.84116" lon="6.35193">
        <ele>1912.473</ele>
        <time>2014-08-29T10:24:13Z</time>
      </trkpt>
      <trkpt lat="43.84117" lon="6.3519">
        <ele>1913.255</ele>
        <time>2014-08-29T10:24:19Z</time>
      </trkpt>
      <trkpt lat="43.84118" lon="6.35189">
        <ele>1913.873</ele>
        <time>2014-08-29T10:24:25Z</time>
      </trkpt>
      <trkpt lat="43.84122" lon="6.35187">
        <ele>1914.925</ele>
        <time>2014-08-29T10:24:33Z</time>
      </trkpt>
      <trkpt lat="43.84121" lon="6.35183">
        <ele>1915.906</ele>
        <time>2014-08-29T10:24:39Z</time>
      </trkpt>
      <trkpt lat="43.84126" lon="6.35181">
        <ele>1917.275</ele>
        <time>2014-08-29T10:24:48Z</time>
      </trkpt>
      <trkpt lat="43.84128" lon="6.35179">
        <ele>1918.365</ele>
        <time>2014-08-29T10:24:55Z</time>
      </trkpt>
      <trkpt lat="43.84133" lon="6.35176">
        <ele>1919.545</ele>
        <time>2014-08-29T10:25:03Z</time>
      </trkpt>
      <trkpt lat="43.84136" lon="6.35173">
        <ele>1920.526</ele>
        <time>2014-08-29T10:25:09Z</time>
      </trkpt>
      <trkpt lat="43.84141" lon="6.35168">
        <ele>1921.765</ele>
        <time>2014-08-29T10:25:18Z</time>
      </trkpt>
      <trkpt lat="43.84145" lon="6.35165">
        <ele>1922.754</ele>
        <time>2014-08-29T10:25:25Z</time>
      </trkpt>
      <trkpt lat="43.84149" lon="6.3516">
        <ele>1923.835</ele>
        <time>2014-08-29T10:25:33Z</time>
      </trkpt>
      <trkpt lat="43.84154" lon="6.35155">
        <ele>1924.805</ele>
        <time>2014-08-29T10:25:41Z</time>
      </trkpt>
      <trkpt lat="43.8416" lon="6.3515">
        <ele>1925.803</ele>
        <time>2014-08-29T10:25:50Z</time>
      </trkpt>
      <trkpt lat="43.84162" lon="6.35145">
        <ele>1926.775</ele>
        <time>2014-08-29T10:25:57Z</time>
      </trkpt>
      <trkpt lat="43.84162" lon="6.35144">
        <ele>1926.855</ele>
        <time>2014-08-29T10:25:58Z</time>
      </trkpt>
      <trkpt lat="43.84166" lon="6.35135">
        <ele>1927.925</ele>
        <time>2014-08-29T10:26:07Z</time>
      </trkpt>
      <trkpt lat="43.8417" lon="6.35124">
        <ele>1928.934</ele>
        <time>2014-08-29T10:26:17Z</time>
      </trkpt>
      <trkpt lat="43.84175" lon="6.35112">
        <ele>1929.786</ele>
        <time>2014-08-29T10:26:27Z</time>
      </trkpt>
      <trkpt lat="43.84175" lon="6.35109">
        <ele>1930.094</ele>
        <time>2014-08-29T10:26:32Z</time>
      </trkpt>
      <trkpt lat="43.84175" lon="6.35102">
        <ele>1930.783</ele>
        <time>2014-08-29T10:26:39Z</time>
      </trkpt>
      <trkpt lat="43.84175" lon="6.351">
        <ele>1931.325</ele>
        <time>2014-08-29T10:26:42Z</time>
      </trkpt>
      <trkpt lat="43.84176" lon="6.35093">
        <ele>1931.741</ele>
        <time>2014-08-29T10:26:49Z</time>
      </trkpt>
      <trkpt lat="43.84177" lon="6.35092">
        <ele>1945.384</ele>
        <time>2014-08-29T10:50:27Z</time>
      </trkpt>
      <trkpt lat="43.84177" lon="6.35094">
        <ele>1944.752</ele>
        <time>2014-08-29T10:50:34Z</time>
      </trkpt>
      <trkpt lat="43.84176" lon="6.35095">
        <ele>1940.501</ele>
        <time>2014-08-29T10:51:06Z</time>
      </trkpt>
      <trkpt lat="43.84176" lon="6.35097">
        <ele>1940.63</ele>
        <time>2014-08-29T10:51:10Z</time>
      </trkpt>
      <trkpt lat="43.84174" lon="6.35104">
        <ele>1938.549</ele>
        <time>2014-08-29T10:51:15Z</time>
      </trkpt>
      <trkpt lat="43.84173" lon="6.35113">
        <ele>1937.365</ele>
        <time>2014-08-29T10:51:19Z</time>
      </trkpt>
      <trkpt lat="43.8417" lon="6.3512">
        <ele>1935.784</ele>
        <time>2014-08-29T10:51:21Z</time>
      </trkpt>
      <trkpt lat="43.84161" lon="6.35142">
        <ele>1932.424</ele>
        <time>2014-08-29T10:51:28Z</time>
      </trkpt>
      <trkpt lat="43.8415" lon="6.35158">
        <ele>1930.753</ele>
        <time>2014-08-29T10:51:34Z</time>
      </trkpt>
      <trkpt lat="43.84138" lon="6.35169">
        <ele>1927.409</ele>
        <time>2014-08-29T10:51:39Z</time>
      </trkpt>
      <trkpt lat="43.84127" lon="6.3518">
        <ele>1923.547</ele>
        <time>2014-08-29T10:51:44Z</time>
      </trkpt>
      <trkpt lat="43.84118" lon="6.35187">
        <ele>1919.148</ele>
        <time>2014-08-29T10:51:50Z</time>
      </trkpt>
      <trkpt lat="43.84118" lon="6.35187">
        <ele>1917.446</ele>
        <time>2014-08-29T10:51:56Z</time>
      </trkpt>
      <trkpt lat="43.84119" lon="6.35186">
        <ele>1917.862</ele>
        <time>2014-08-29T10:52:31Z</time>
      </trkpt>
      <trkpt lat="43.84117" lon="6.352">
        <ele>1915.071</ele>
        <time>2014-08-29T10:52:37Z</time>
      </trkpt>
      <trkpt lat="43.84115" lon="6.35214">
        <ele>1909.535</ele>
        <time>2014-08-29T10:52:42Z</time>
      </trkpt>
      <trkpt lat="43.84115" lon="6.35217">
        <ele>1908.756</ele>
        <time>2014-08-29T10:52:43Z</time>
      </trkpt>
      <trkpt lat="43.8411" lon="6.35222">
        <ele>1906.236</ele>
        <time>2014-08-29T10:52:47Z</time>
      </trkpt>
      <trkpt lat="43.84107" lon="6.35232">
        <ele>1901.323</ele>
        <time>2014-08-29T10:52:52Z</time>
      </trkpt>
      <trkpt lat="43.84104" lon="6.35238">
        <ele>1897.341</ele>
        <time>2014-08-29T10:52:55Z</time>
      </trkpt>
      <trkpt lat="43.84096" lon="6.35246">
        <ele>1893.105</ele>
        <time>2014-08-29T10:53:00Z</time>
      </trkpt>
      <trkpt lat="43.84097" lon="6.35257">
        <ele>1890.446</ele>
        <time>2014-08-29T10:53:04Z</time>
      </trkpt>
      <trkpt lat="43.84093" lon="6.35262">
        <ele>1889.256</ele>
        <time>2014-08-29T10:53:06Z</time>
      </trkpt>
      <trkpt lat="43.84083" lon="6.35266">
        <ele>1887.277</ele>
        <time>2014-08-29T10:53:10Z</time>
      </trkpt>
      <trkpt lat="43.8408" lon="6.35277">
        <ele>1883.205</ele>
        <time>2014-08-29T10:53:15Z</time>
      </trkpt>
      <trkpt lat="43.84081" lon="6.35291">
        <ele>1879.455</ele>
        <time>2014-08-29T10:53:20Z</time>
      </trkpt>
      <trkpt lat="43.84077" lon="6.35295">
        <ele>1877.507</ele>
        <time>2014-08-29T10:53:24Z</time>
      </trkpt>
      <trkpt lat="43.84076" lon="6.35296">
        <ele>1876.214</ele>
        <time>2014-08-29T10:53:29Z</time>
      </trkpt>
      <trkpt lat="43.84076" lon="6.35296">
        <ele>1877.508</ele>
        <time>2014-08-29T10:53:34Z</time>
      </trkpt>
      <trkpt lat="43.84067" lon="6.35298">
        <ele>1878.599</ele>
        <time>2014-08-29T10:53:40Z</time>
      </trkpt>
      <trkpt lat="43.84058" lon="6.35298">
        <ele>1876.765</ele>
        <time>2014-08-29T10:53:44Z</time>
      </trkpt>
      <trkpt lat="43.84047" lon="6.35312">
        <ele>1868.695</ele>
        <time>2014-08-29T10:53:51Z</time>
      </trkpt>
      <trkpt lat="43.84038" lon="6.35325">
        <ele>1864.444</ele>
        <time>2014-08-29T10:53:56Z</time>
      </trkpt>
      <trkpt lat="43.8403" lon="6.35331">
        <ele>1862.574</ele>
        <time>2014-08-29T10:54:00Z</time>
      </trkpt>
      <trkpt lat="43.84022" lon="6.35342">
        <ele>1858.144</ele>
        <time>2014-08-29T10:54:05Z</time>
      </trkpt>
      <trkpt lat="43.84016" lon="6.35355">
        <ele>1853.543</ele>
        <time>2014-08-29T10:54:10Z</time>
      </trkpt>
      <trkpt lat="43.84011" lon="6.35361">
        <ele>1849.869</ele>
        <time>2014-08-29T10:54:13Z</time>
      </trkpt>
      <trkpt lat="43.84" lon="6.35373">
        <ele>1845.473</ele>
        <time>2014-08-29T10:54:19Z</time>
      </trkpt>
      <trkpt lat="43.8399" lon="6.35383">
        <ele>1841.406</ele>
        <time>2014-08-29T10:54:26Z</time>
      </trkpt>
      <trkpt lat="43.83987" lon="6.35384">
        <ele>1840.889</ele>
        <time>2014-08-29T10:54:28Z</time>
      </trkpt>
      <trkpt lat="43.83981" lon="6.35394">
        <ele>1838.079</ele>
        <time>2014-08-29T10:54:33Z</time>
      </trkpt>
      <trkpt lat="43.83977" lon="6.35406">
        <ele>1832.745</ele>
        <time>2014-08-29T10:54:39Z</time>
      </trkpt>
      <trkpt lat="43.83973" lon="6.35414">
        <ele>1828.953</ele>
        <time>2014-08-29T10:54:43Z</time>
      </trkpt>
      <trkpt lat="43.83971" lon="6.35416">
        <ele>1827.592</ele>
        <time>2014-08-29T10:54:44Z</time>
      </trkpt>
      <trkpt lat="43.8396" lon="6.35433">
        <ele>1823.396</ele>
        <time>2014-08-29T10:54:50Z</time>
      </trkpt>
      <trkpt lat="43.83951" lon="6.35442">
        <ele>1822.461</ele>
        <time>2014-08-29T10:54:55Z</time>
      </trkpt>
      <trkpt lat="43.83952" lon="6.35443">
        <ele>1821.889</ele>
        <time>2014-08-29T10:55:00Z</time>
      </trkpt>
      <trkpt lat="43.83952" lon="6.35445">
        <ele>1835.113</ele>
        <time>2014-08-29T11:00:12Z</time>
      </trkpt>
      <trkpt lat="43.83951" lon="6.35444">
        <ele>1832.262</ele>
        <time>2014-08-29T11:00:55Z</time>
      </trkpt>
      <trkpt lat="43.83951" lon="6.35444">
        <ele>1833.573</ele>
        <time>2014-08-29T11:01:05Z</time>
      </trkpt>
      <trkpt lat="43.83947" lon="6.35447">
        <ele>1832.87</ele>
        <time>2014-08-29T11:01:09Z</time>
      </trkpt>
      <trkpt lat="43.83939" lon="6.35459">
        <ele>1830.955</ele>
        <time>2014-08-29T11:01:15Z</time>
      </trkpt>
      <trkpt lat="43.83924" lon="6.35474">
        <ele>1828.252</ele>
        <time>2014-08-29T11:01:21Z</time>
      </trkpt>
      <trkpt lat="43.83906" lon="6.35498">
        <ele>1823.141</ele>
        <time>2014-08-29T11:01:29Z</time>
      </trkpt>
      <trkpt lat="43.839" lon="6.35505">
        <ele>1821.344</ele>
        <time>2014-08-29T11:01:34Z</time>
      </trkpt>
      <trkpt lat="43.8389" lon="6.35519">
        <ele>1821.819</ele>
        <time>2014-08-29T11:01:40Z</time>
      </trkpt>
      <trkpt lat="43.83884" lon="6.3553">
        <ele>1820.055</ele>
        <time>2014-08-29T11:01:44Z</time>
      </trkpt>
      <trkpt lat="43.8388" lon="6.35539">
        <ele>1819.645</ele>
        <time>2014-08-29T11:01:47Z</time>
      </trkpt>
      <trkpt lat="43.83873" lon="6.35553">
        <ele>1819.926</ele>
        <time>2014-08-29T11:01:54Z</time>
      </trkpt>
      <trkpt lat="43.83868" lon="6.35564">
        <ele>1819.786</ele>
        <time>2014-08-29T11:02:00Z</time>
      </trkpt>
      <trkpt lat="43.83866" lon="6.35567">
        <ele>1821.231</ele>
        <time>2014-08-29T11:02:05Z</time>
      </trkpt>
      <trkpt lat="43.83865" lon="6.35568">
        <ele>1819.349</ele>
        <time>2014-08-29T11:02:08Z</time>
      </trkpt>
      <trkpt lat="43.83863" lon="6.35575">
        <ele>1817.387</ele>
        <time>2014-08-29T11:02:14Z</time>
      </trkpt>
      <trkpt lat="43.83862" lon="6.35576">
        <ele>1817.287</ele>
        <time>2014-08-29T11:02:15Z</time>
      </trkpt>
      <trkpt lat="43.83859" lon="6.3558">
        <ele>1815.238</ele>
        <time>2014-08-29T11:02:22Z</time>
      </trkpt>
      <trkpt lat="43.8386" lon="6.35578">
        <ele>1818.965</ele>
        <time>2014-08-29T11:02:38Z</time>
      </trkpt>
      <trkpt lat="43.83861" lon="6.35576">
        <ele>1816.981</ele>
        <time>2014-08-29T11:02:43Z</time>
      </trkpt>
      <trkpt lat="43.8386" lon="6.35571">
        <ele>1816.802</ele>
        <time>2014-08-29T11:02:50Z</time>
      </trkpt>
      <trkpt lat="43.83859" lon="6.35571">
        <ele>1815.643</ele>
        <time>2014-08-29T11:02:55Z</time>
      </trkpt>
      <trkpt lat="43.83855" lon="6.35577">
        <ele>1816.252</ele>
        <time>2014-08-29T11:03:04Z</time>
      </trkpt>
      <trkpt lat="43.83853" lon="6.35582">
        <ele>1815.52</ele>
        <time>2014-08-29T11:03:08Z</time>
      </trkpt>
      <trkpt lat="43.83848" lon="6.35587">
        <ele>1814.751</ele>
        <time>2014-08-29T11:03:15Z</time>
      </trkpt>
      <trkpt lat="43.83845" lon="6.35593">
        <ele>1811.366</ele>
        <time>2014-08-29T11:03:21Z</time>
      </trkpt>
      <trkpt lat="43.83843" lon="6.35596">
        <ele>1809.926</ele>
        <time>2014-08-29T11:03:25Z</time>
      </trkpt>
      <trkpt lat="43.83836" lon="6.3561">
        <ele>1808.699</ele>
        <time>2014-08-29T11:03:31Z</time>
      </trkpt>
      <trkpt lat="43.8383" lon="6.35621">
        <ele>1808.439</ele>
        <time>2014-08-29T11:03:36Z</time>
      </trkpt>
      <trkpt lat="43.83824" lon="6.35632">
        <ele>1805.366</ele>
        <time>2014-08-29T11:03:41Z</time>
      </trkpt>
      <trkpt lat="43.83822" lon="6.35636">
        <ele>1805.369</ele>
        <time>2014-08-29T11:03:45Z</time>
      </trkpt>
      <trkpt lat="43.83817" lon="6.35645">
        <ele>1805.83</ele>
        <time>2014-08-29T11:03:49Z</time>
      </trkpt>
      <trkpt lat="43.83817" lon="6.35646">
        <ele>1806.091</ele>
        <time>2014-08-29T11:03:50Z</time>
      </trkpt>
      <trkpt lat="43.8381" lon="6.35654">
        <ele>1804.138</ele>
        <time>2014-08-29T11:03:55Z</time>
      </trkpt>
      <trkpt lat="43.83803" lon="6.35666">
        <ele>1803.949</ele>
        <time>2014-08-29T11:04:00Z</time>
      </trkpt>
      <trkpt lat="43.83795" lon="6.35678">
        <ele>1803.037</ele>
        <time>2014-08-29T11:04:05Z</time>
      </trkpt>
      <trkpt lat="43.83783" lon="6.35688">
        <ele>1797.969</ele>
        <time>2014-08-29T11:04:11Z</time>
      </trkpt>
      <trkpt lat="43.83772" lon="6.35699">
        <ele>1793.687</ele>
        <time>2014-08-29T11:04:16Z</time>
      </trkpt>
      <trkpt lat="43.8376" lon="6.35707">
        <ele>1789.72</ele>
        <time>2014-08-29T11:04:20Z</time>
      </trkpt>
      <trkpt lat="43.83751" lon="6.35712">
        <ele>1786.021</ele>
        <time>2014-08-29T11:04:24Z</time>
      </trkpt>
      <trkpt lat="43.83739" lon="6.3572">
        <ele>1780.187</ele>
        <time>2014-08-29T11:04:30Z</time>
      </trkpt>
      <trkpt lat="43.83727" lon="6.35725">
        <ele>1774.391</ele>
        <time>2014-08-29T11:04:36Z</time>
      </trkpt>
      <trkpt lat="43.83714" lon="6.35732">
        <ele>1768.425</ele>
        <time>2014-08-29T11:04:42Z</time>
      </trkpt>
      <trkpt lat="43.837" lon="6.35743">
        <ele>1763.255</ele>
        <time>2014-08-29T11:04:48Z</time>
      </trkpt>
      <trkpt lat="43.83699" lon="6.35746">
        <ele>1761.304</ele>
        <time>2014-08-29T11:04:55Z</time>
      </trkpt>
      <trkpt lat="43.83696" lon="6.35748">
        <ele>1776.838</ele>
        <time>2014-08-29T11:05:19Z</time>
      </trkpt>
      <trkpt lat="43.83696" lon="6.35747">
        <ele>1775.245</ele>
        <time>2014-08-29T11:05:22Z</time>
      </trkpt>
      <trkpt lat="43.83688" lon="6.3575">
        <ele>1767.58</ele>
        <time>2014-08-29T11:05:29Z</time>
      </trkpt>
      <trkpt lat="43.83686" lon="6.35752">
        <ele>1766.502</ele>
        <time>2014-08-29T11:05:30Z</time>
      </trkpt>
      <trkpt lat="43.83666" lon="6.35768">
        <ele>1754.489</ele>
        <time>2014-08-29T11:05:39Z</time>
      </trkpt>
      <trkpt lat="43.83657" lon="6.35772">
        <ele>1748.297</ele>
        <time>2014-08-29T11:05:44Z</time>
      </trkpt>
      <trkpt lat="43.83645" lon="6.35779">
        <ele>1741.434</ele>
        <time>2014-08-29T11:05:51Z</time>
      </trkpt>
      <trkpt lat="43.83639" lon="6.35782">
        <ele>1737.703</ele>
        <time>2014-08-29T11:05:56Z</time>
      </trkpt>
      <trkpt lat="43.83637" lon="6.35784">
        <ele>1737.027</ele>
        <time>2014-08-29T11:06:03Z</time>
      </trkpt>
      <trkpt lat="43.83633" lon="6.35787">
        <ele>1735.964</ele>
        <time>2014-08-29T11:06:07Z</time>
      </trkpt>
      <trkpt lat="43.8363" lon="6.35789">
        <ele>1734.425</ele>
        <time>2014-08-29T11:06:12Z</time>
      </trkpt>
      <trkpt lat="43.83627" lon="6.3579">
        <ele>1733.954</ele>
        <time>2014-08-29T11:06:17Z</time>
      </trkpt>
      <trkpt lat="43.83625" lon="6.3579">
        <ele>1733.627</ele>
        <time>2014-08-29T11:06:21Z</time>
      </trkpt>
      <trkpt lat="43.83623" lon="6.35792">
        <ele>1734.922</ele>
        <time>2014-08-29T11:06:26Z</time>
      </trkpt>
      <trkpt lat="43.83616" lon="6.35796">
        <ele>1733.365</ele>
        <time>2014-08-29T11:06:31Z</time>
      </trkpt>
      <trkpt lat="43.83603" lon="6.35806">
        <ele>1729.088</ele>
        <time>2014-08-29T11:06:37Z</time>
      </trkpt>
      <trkpt lat="43.83588" lon="6.35824">
        <ele>1725.348</ele>
        <time>2014-08-29T11:06:43Z</time>
      </trkpt>
      <trkpt lat="43.83573" lon="6.35841">
        <ele>1719.336</ele>
        <time>2014-08-29T11:06:49Z</time>
      </trkpt>
      <trkpt lat="43.83564" lon="6.35853">
        <ele>1715.923</ele>
        <time>2014-08-29T11:06:53Z</time>
      </trkpt>
      <trkpt lat="43.83551" lon="6.35868">
        <ele>1710.974</ele>
        <time>2014-08-29T11:06:59Z</time>
      </trkpt>
      <trkpt lat="43.83541" lon="6.35878">
        <ele>1707.176</ele>
        <time>2014-08-29T11:07:03Z</time>
      </trkpt>
      <trkpt lat="43.8353" lon="6.35888">
        <ele>1703.028</ele>
        <time>2014-08-29T11:07:08Z</time>
      </trkpt>
      <trkpt lat="43.83518" lon="6.35902">
        <ele>1697.844</ele>
        <time>2014-08-29T11:07:14Z</time>
      </trkpt>
      <trkpt lat="43.83511" lon="6.35918">
        <ele>1699.311</ele>
        <time>2014-08-29T11:07:18Z</time>
      </trkpt>
      <trkpt lat="43.83504" lon="6.35933">
        <ele>1699.425</ele>
        <time>2014-08-29T11:07:23Z</time>
      </trkpt>
      <trkpt lat="43.83497" lon="6.35952">
        <ele>1699.184</ele>
        <time>2014-08-29T11:07:28Z</time>
      </trkpt>
      <trkpt lat="43.83487" lon="6.35974">
        <ele>1695.429</ele>
        <time>2014-08-29T11:07:33Z</time>
      </trkpt>
      <trkpt lat="43.83476" lon="6.35997">
        <ele>1694.681</ele>
        <time>2014-08-29T11:07:38Z</time>
      </trkpt>
      <trkpt lat="43.83474" lon="6.36002">
        <ele>1694.451</ele>
        <time>2014-08-29T11:07:39Z</time>
      </trkpt>
      <trkpt lat="43.83471" lon="6.36014">
        <ele>1693.31</ele>
        <time>2014-08-29T11:07:41Z</time>
      </trkpt>
      <trkpt lat="43.83463" lon="6.36029">
        <ele>1690.477</ele>
        <time>2014-08-29T11:07:44Z</time>
      </trkpt>
      <trkpt lat="43.83455" lon="6.36048">
        <ele>1687.927</ele>
        <time>2014-08-29T11:07:48Z</time>
      </trkpt>
      <trkpt lat="43.83456" lon="6.36059">
        <ele>1686.466</ele>
        <time>2014-08-29T11:07:50Z</time>
      </trkpt>
      <trkpt lat="43.8345" lon="6.36087">
        <ele>1685.462</ele>
        <time>2014-08-29T11:07:55Z</time>
      </trkpt>
      <trkpt lat="43.83445" lon="6.36105">
        <ele>1685.417</ele>
        <time>2014-08-29T11:08:00Z</time>
      </trkpt>
      <trkpt lat="43.83444" lon="6.3611">
        <ele>1684.826</ele>
        <time>2014-08-29T11:08:02Z</time>
      </trkpt>
      <trkpt lat="43.83438" lon="6.36124">
        <ele>1683.875</ele>
        <time>2014-08-29T11:08:07Z</time>
      </trkpt>
      <trkpt lat="43.83432" lon="6.36148">
        <ele>1684.069</ele>
        <time>2014-08-29T11:08:12Z</time>
      </trkpt>
      <trkpt lat="43.83423" lon="6.36173">
        <ele>1681.966</ele>
        <time>2014-08-29T11:08:19Z</time>
      </trkpt>
      <trkpt lat="43.83418" lon="6.36184">
        <ele>1677.252</ele>
        <time>2014-08-29T11:08:24Z</time>
      </trkpt>
      <trkpt lat="43.83417" lon="6.3619">
        <ele>1665.498</ele>
        <time>2014-08-29T11:08:43Z</time>
      </trkpt>
      <trkpt lat="43.83411" lon="6.362">
        <ele>1664.242</ele>
        <time>2014-08-29T11:08:49Z</time>
      </trkpt>
      <trkpt lat="43.83404" lon="6.3621">
        <ele>1662.406</ele>
        <time>2014-08-29T11:08:55Z</time>
      </trkpt>
      <trkpt lat="43.83402" lon="6.36216">
        <ele>1661.216</ele>
        <time>2014-08-29T11:08:59Z</time>
      </trkpt>
      <trkpt lat="43.83392" lon="6.36235">
        <ele>1658.773</ele>
        <time>2014-08-29T11:09:05Z</time>
      </trkpt>
      <trkpt lat="43.83385" lon="6.36262">
        <ele>1659.809</ele>
        <time>2014-08-29T11:09:11Z</time>
      </trkpt>
      <trkpt lat="43.83383" lon="6.36275">
        <ele>1659.196</ele>
        <time>2014-08-29T11:09:16Z</time>
      </trkpt>
      <trkpt lat="43.83383" lon="6.36275">
        <ele>1659.072</ele>
        <time>2014-08-29T11:09:30Z</time>
      </trkpt>
      <trkpt lat="43.83383" lon="6.36289">
        <ele>1657.94</ele>
        <time>2014-08-29T11:09:35Z</time>
      </trkpt>
      <trkpt lat="43.83379" lon="6.36302">
        <ele>1656.108</ele>
        <time>2014-08-29T11:09:40Z</time>
      </trkpt>
      <trkpt lat="43.83379" lon="6.36305">
        <ele>1655.268</ele>
        <time>2014-08-29T11:09:42Z</time>
      </trkpt>
      <trkpt lat="43.83379" lon="6.36309">
        <ele>1654.188</ele>
        <time>2014-08-29T11:09:45Z</time>
      </trkpt>
      <trkpt lat="43.83378" lon="6.36313">
        <ele>1650.326</ele>
        <time>2014-08-29T11:09:51Z</time>
      </trkpt>
      <trkpt lat="43.83375" lon="6.36318">
        <ele>1648.379</ele>
        <time>2014-08-29T11:10:10Z</time>
      </trkpt>
      <trkpt lat="43.83366" lon="6.36321">
        <ele>1640.342</ele>
        <time>2014-08-29T11:10:16Z</time>
      </trkpt>
      <trkpt lat="43.83362" lon="6.36324">
        <ele>1637.68</ele>
        <time>2014-08-29T11:10:18Z</time>
      </trkpt>
      <trkpt lat="43.8335" lon="6.36335">
        <ele>1632.792</ele>
        <time>2014-08-29T11:10:23Z</time>
      </trkpt>
      <trkpt lat="43.83345" lon="6.36348">
        <ele>1633.159</ele>
        <time>2014-08-29T11:10:28Z</time>
      </trkpt>
      <trkpt lat="43.83342" lon="6.36351">
        <ele>1632.848</ele>
        <time>2014-08-29T11:10:30Z</time>
      </trkpt>
      <trkpt lat="43.83337" lon="6.36358">
        <ele>1630.532</ele>
        <time>2014-08-29T11:10:33Z</time>
      </trkpt>
      <trkpt lat="43.83332" lon="6.3637">
        <ele>1627.086</ele>
        <time>2014-08-29T11:10:37Z</time>
      </trkpt>
      <trkpt lat="43.83324" lon="6.36385">
        <ele>1624.757</ele>
        <time>2014-08-29T11:10:43Z</time>
      </trkpt>
      <trkpt lat="43.83318" lon="6.36398">
        <ele>1624.522</ele>
        <time>2014-08-29T11:10:46Z</time>
      </trkpt>
      <trkpt lat="43.83312" lon="6.36403">
        <ele>1622.581</ele>
        <time>2014-08-29T11:10:50Z</time>
      </trkpt>
      <trkpt lat="43.83312" lon="6.36403">
        <ele>1620.729</ele>
        <time>2014-08-29T11:10:55Z</time>
      </trkpt>
      <trkpt lat="43.83311" lon="6.36404">
        <ele>1620.157</ele>
        <time>2014-08-29T11:10:56Z</time>
      </trkpt>
      <trkpt lat="43.83307" lon="6.36411">
        <ele>1618.443</ele>
        <time>2014-08-29T11:11:01Z</time>
      </trkpt>
      <trkpt lat="43.83306" lon="6.36414">
        <ele>1618.064</ele>
        <time>2014-08-29T11:11:02Z</time>
      </trkpt>
      <trkpt lat="43.83295" lon="6.36416">
        <ele>1612.836</ele>
        <time>2014-08-29T11:11:09Z</time>
      </trkpt>
      <trkpt lat="43.83285" lon="6.36416">
        <ele>1607.159</ele>
        <time>2014-08-29T11:11:14Z</time>
      </trkpt>
      <trkpt lat="43.83279" lon="6.36427">
        <ele>1603.421</ele>
        <time>2014-08-29T11:11:18Z</time>
      </trkpt>
      <trkpt lat="43.83271" lon="6.36435">
        <ele>1600.569</ele>
        <time>2014-08-29T11:11:23Z</time>
      </trkpt>
      <trkpt lat="43.8327" lon="6.36452">
        <ele>1598.4</ele>
        <time>2014-08-29T11:11:28Z</time>
      </trkpt>
      <trkpt lat="43.83263" lon="6.36465">
        <ele>1598.106</ele>
        <time>2014-08-29T11:11:34Z</time>
      </trkpt>
      <trkpt lat="43.83262" lon="6.36468">
        <ele>1598.761</ele>
        <time>2014-08-29T11:11:38Z</time>
      </trkpt>
      <trkpt lat="43.8326" lon="6.36474">
        <ele>1600.034</ele>
        <time>2014-08-29T11:11:42Z</time>
      </trkpt>
      <trkpt lat="43.83258" lon="6.36478">
        <ele>1601.446</ele>
        <time>2014-08-29T11:11:49Z</time>
      </trkpt>
      <trkpt lat="43.83258" lon="6.36479">
        <ele>1601.956</ele>
        <time>2014-08-29T11:11:51Z</time>
      </trkpt>
      <trkpt lat="43.83249" lon="6.3649">
        <ele>1599.951</ele>
        <time>2014-08-29T11:11:56Z</time>
      </trkpt>
      <trkpt lat="43.83241" lon="6.36502">
        <ele>1601.514</ele>
        <time>2014-08-29T11:12:01Z</time>
      </trkpt>
      <trkpt lat="43.83234" lon="6.3651">
        <ele>1601.605</ele>
        <time>2014-08-29T11:12:05Z</time>
      </trkpt>
      <trkpt lat="43.83231" lon="6.36516">
        <ele>1600.363</ele>
        <time>2014-08-29T11:12:07Z</time>
      </trkpt>
      <trkpt lat="43.8323" lon="6.36524">
        <ele>1599.803</ele>
        <time>2014-08-29T11:12:10Z</time>
      </trkpt>
      <trkpt lat="43.83223" lon="6.36536">
        <ele>1599.595</ele>
        <time>2014-08-29T11:12:16Z</time>
      </trkpt>
      <trkpt lat="43.83225" lon="6.36545">
        <ele>1600.156</ele>
        <time>2014-08-29T11:12:20Z</time>
      </trkpt>
      <trkpt lat="43.83231" lon="6.36562">
        <ele>1599.852</ele>
        <time>2014-08-29T11:12:27Z</time>
      </trkpt>
      <trkpt lat="43.83232" lon="6.36578">
        <ele>1598.55</ele>
        <time>2014-08-29T11:12:32Z</time>
      </trkpt>
      <trkpt lat="43.83237" lon="6.36602">
        <ele>1596.335</ele>
        <time>2014-08-29T11:12:37Z</time>
      </trkpt>
      <trkpt lat="43.83242" lon="6.36615">
        <ele>1594.332</ele>
        <time>2014-08-29T11:12:41Z</time>
      </trkpt>
      <trkpt lat="43.83243" lon="6.36616">
        <ele>1593.952</ele>
        <time>2014-08-29T11:13:03Z</time>
      </trkpt>
      <trkpt lat="43.83242" lon="6.36629">
        <ele>1592.698</ele>
        <time>2014-08-29T11:13:08Z</time>
      </trkpt>
      <trkpt lat="43.83235" lon="6.36646">
        <ele>1594.691</ele>
        <time>2014-08-29T11:13:14Z</time>
      </trkpt>
      <trkpt lat="43.8323" lon="6.36665">
        <ele>1594.272</ele>
        <time>2014-08-29T11:13:19Z</time>
      </trkpt>
      <trkpt lat="43.8323" lon="6.36682">
        <ele>1592.928</ele>
        <time>2014-08-29T11:13:23Z</time>
      </trkpt>
      <trkpt lat="43.83226" lon="6.36714">
        <ele>1589.105</ele>
        <time>2014-08-29T11:13:30Z</time>
      </trkpt>
      <trkpt lat="43.83224" lon="6.36735">
        <ele>1586.355</ele>
        <time>2014-08-29T11:13:35Z</time>
      </trkpt>
      <trkpt lat="43.83222" lon="6.36763">
        <ele>1584.856</ele>
        <time>2014-08-29T11:13:41Z</time>
      </trkpt>
      <trkpt lat="43.83218" lon="6.36792">
        <ele>1581.884</ele>
        <time>2014-08-29T11:13:46Z</time>
      </trkpt>
      <trkpt lat="43.83215" lon="6.36817">
        <ele>1579.202</ele>
        <time>2014-08-29T11:13:50Z</time>
      </trkpt>
      <trkpt lat="43.83213" lon="6.36844">
        <ele>1577.412</ele>
        <time>2014-08-29T11:13:54Z</time>
      </trkpt>
      <trkpt lat="43.83211" lon="6.3688">
        <ele>1574.501</ele>
        <time>2014-08-29T11:13:59Z</time>
      </trkpt>
      <trkpt lat="43.83209" lon="6.36902">
        <ele>1573.303</ele>
        <time>2014-08-29T11:14:02Z</time>
      </trkpt>
      <trkpt lat="43.83198" lon="6.36934">
        <ele>1571.48</ele>
        <time>2014-08-29T11:14:07Z</time>
      </trkpt>
      <trkpt lat="43.83195" lon="6.36941">
        <ele>1570.86</ele>
        <time>2014-08-29T11:14:08Z</time>
      </trkpt>
      <trkpt lat="43.83181" lon="6.36989">
        <ele>1567.054</ele>
        <time>2014-08-29T11:14:14Z</time>
      </trkpt>
      <trkpt lat="43.83181" lon="6.37004">
        <ele>1566.445</ele>
        <time>2014-08-29T11:14:16Z</time>
      </trkpt>
      <trkpt lat="43.83183" lon="6.37042">
        <ele>1563.559</ele>
        <time>2014-08-29T11:14:22Z</time>
      </trkpt>
      <trkpt lat="43.83183" lon="6.37047">
        <ele>1563.509</ele>
        <time>2014-08-29T11:14:23Z</time>
      </trkpt>
      <trkpt lat="43.83185" lon="6.37093">
        <ele>1564.723</ele>
        <time>2014-08-29T11:14:31Z</time>
      </trkpt>
      <trkpt lat="43.83185" lon="6.37124">
        <ele>1563.329</ele>
        <time>2014-08-29T11:14:37Z</time>
      </trkpt>
      <trkpt lat="43.83185" lon="6.37136">
        <ele>1563.873</ele>
        <time>2014-08-29T11:14:41Z</time>
      </trkpt>
      <trkpt lat="43.83183" lon="6.37152">
        <ele>1565.415</ele>
        <time>2014-08-29T11:14:47Z</time>
      </trkpt>
      <trkpt lat="43.83185" lon="6.37166">
        <ele>1565.575</ele>
        <time>2014-08-29T11:14:52Z</time>
      </trkpt>
      <trkpt lat="43.83186" lon="6.37168">
        <ele>1565.215</ele>
        <time>2014-08-29T11:14:54Z</time>
      </trkpt>
      <trkpt lat="43.83186" lon="6.37178">
        <ele>1564.434</ele>
        <time>2014-08-29T11:15:02Z</time>
      </trkpt>
      <trkpt lat="43.83185" lon="6.37184">
        <ele>1564.254</ele>
        <time>2014-08-29T11:15:08Z</time>
      </trkpt>
      <trkpt lat="43.83184" lon="6.37191">
        <ele>1563.903</ele>
        <time>2014-08-29T11:15:10Z</time>
      </trkpt>
      <trkpt lat="43.83184" lon="6.372">
        <ele>1563.234</ele>
        <time>2014-08-29T11:15:14Z</time>
      </trkpt>
      <trkpt lat="43.83183" lon="6.37202">
        <ele>1564.466</ele>
        <time>2014-08-29T11:15:20Z</time>
      </trkpt>
      <trkpt lat="43.83183" lon="6.37208">
        <ele>1565.766</ele>
        <time>2014-08-29T11:15:24Z</time>
      </trkpt>
      <trkpt lat="43.83183" lon="6.37215">
        <ele>1565.544</ele>
        <time>2014-08-29T11:15:32Z</time>
      </trkpt>
      <trkpt lat="43.83182" lon="6.37221">
        <ele>1563.331</ele>
        <time>2014-08-29T11:15:41Z</time>
      </trkpt>
      <trkpt lat="43.83182" lon="6.37224">
        <ele>1562.201</ele>
        <time>2014-08-29T11:15:43Z</time>
      </trkpt>
      <trkpt lat="43.83181" lon="6.37229">
        <ele>1561.847</ele>
        <time>2014-08-29T11:15:48Z</time>
      </trkpt>
      <trkpt lat="43.83181" lon="6.37237">
        <ele>1562.917</ele>
        <time>2014-08-29T11:15:54Z</time>
      </trkpt>
      <trkpt lat="43.83185" lon="6.37247">
        <ele>1562.223</ele>
        <time>2014-08-29T11:16:03Z</time>
      </trkpt>
      <trkpt lat="43.83185" lon="6.37248">
        <ele>1562.023</ele>
        <time>2014-08-29T11:16:04Z</time>
      </trkpt>
      <trkpt lat="43.83183" lon="6.37259">
        <ele>1559.178</ele>
        <time>2014-08-29T11:16:11Z</time>
      </trkpt>
      <trkpt lat="43.83183" lon="6.3726">
        <ele>1558.679</ele>
        <time>2014-08-29T11:16:12Z</time>
      </trkpt>
      <trkpt lat="43.83182" lon="6.37271">
        <ele>1556.491</ele>
        <time>2014-08-29T11:16:19Z</time>
      </trkpt>
      <trkpt lat="43.83181" lon="6.37273">
        <ele>1556.933</ele>
        <time>2014-08-29T11:16:20Z</time>
      </trkpt>
      <trkpt lat="43.83184" lon="6.37284">
        <ele>1559.635</ele>
        <time>2014-08-29T11:16:29Z</time>
      </trkpt>
      <trkpt lat="43.83185" lon="6.37284">
        <ele>1560.916</ele>
        <time>2014-08-29T11:16:35Z</time>
      </trkpt>
      <trkpt lat="43.83184" lon="6.37296">
        <ele>1561.767</ele>
        <time>2014-08-29T11:16:41Z</time>
      </trkpt>
      <trkpt lat="43.8318" lon="6.37307">
        <ele>1563.017</ele>
        <time>2014-08-29T11:16:47Z</time>
      </trkpt>
      <trkpt lat="43.83173" lon="6.37322">
        <ele>1564.365</ele>
        <time>2014-08-29T11:16:53Z</time>
      </trkpt>
      <trkpt lat="43.8317" lon="6.37331">
        <ele>1563.45</ele>
        <time>2014-08-29T11:16:56Z</time>
      </trkpt>
      <trkpt lat="43.83171" lon="6.37342">
        <ele>1562.331</ele>
        <time>2014-08-29T11:17:01Z</time>
      </trkpt>
      <trkpt lat="43.83172" lon="6.37352">
        <ele>1560.639</ele>
        <time>2014-08-29T11:17:05Z</time>
      </trkpt>
      <trkpt lat="43.83171" lon="6.37357">
        <ele>1560.312</ele>
        <time>2014-08-29T11:17:08Z</time>
      </trkpt>
      <trkpt lat="43.83171" lon="6.37369">
        <ele>1557.698</ele>
        <time>2014-08-29T11:17:13Z</time>
      </trkpt>
      <trkpt lat="43.83171" lon="6.37384">
        <ele>1557.808</ele>
        <time>2014-08-29T11:17:17Z</time>
      </trkpt>
      <trkpt lat="43.83171" lon="6.37387">
        <ele>1558.431</ele>
        <time>2014-08-29T11:17:18Z</time>
      </trkpt>
      <trkpt lat="43.8317" lon="6.37406">
        <ele>1555.755</ele>
        <time>2014-08-29T11:17:24Z</time>
      </trkpt>
      <trkpt lat="43.83171" lon="6.37426">
        <ele>1552.624</ele>
        <time>2014-08-29T11:17:29Z</time>
      </trkpt>
      <trkpt lat="43.83173" lon="6.37451">
        <ele>1551.247</ele>
        <time>2014-08-29T11:17:34Z</time>
      </trkpt>
      <trkpt lat="43.83177" lon="6.37478">
        <ele>1549.528</ele>
        <time>2014-08-29T11:17:39Z</time>
      </trkpt>
      <trkpt lat="43.83178" lon="6.37485">
        <ele>1547.666</ele>
        <time>2014-08-29T11:17:41Z</time>
      </trkpt>
      <trkpt lat="43.83189" lon="6.37495">
        <ele>1542.962</ele>
        <time>2014-08-29T11:17:47Z</time>
      </trkpt>
      <trkpt lat="43.83188" lon="6.37503">
        <ele>1539.725</ele>
        <time>2014-08-29T11:17:50Z</time>
      </trkpt>
      <trkpt lat="43.83179" lon="6.3751">
        <ele>1538.259</ele>
        <time>2014-08-29T11:17:54Z</time>
      </trkpt>
      <trkpt lat="43.8317" lon="6.37515">
        <ele>1535.709</ele>
        <time>2014-08-29T11:17:58Z</time>
      </trkpt>
      <trkpt lat="43.83166" lon="6.37517">
        <ele>1533.356</ele>
        <time>2014-08-29T11:18:00Z</time>
      </trkpt>
      <trkpt lat="43.83154" lon="6.37525">
        <ele>1527.593</ele>
        <time>2014-08-29T11:18:06Z</time>
      </trkpt>
      <trkpt lat="43.83149" lon="6.37525">
        <ele>1526.097</ele>
        <time>2014-08-29T11:18:08Z</time>
      </trkpt>
      <trkpt lat="43.83141" lon="6.37524">
        <ele>1523.888</ele>
        <time>2014-08-29T11:18:11Z</time>
      </trkpt>
      <trkpt lat="43.83141" lon="6.37526">
        <ele>1522.924</ele>
        <time>2014-08-29T11:18:15Z</time>
      </trkpt>
      <trkpt lat="43.83143" lon="6.37531">
        <ele>1521.074</ele>
        <time>2014-08-29T11:18:20Z</time>
      </trkpt>
      <trkpt lat="43.83137" lon="6.37533">
        <ele>1519.311</ele>
        <time>2014-08-29T11:18:23Z</time>
      </trkpt>
      <trkpt lat="43.83125" lon="6.37539">
        <ele>1517.493</ele>
        <time>2014-08-29T11:18:28Z</time>
      </trkpt>
      <trkpt lat="43.8312" lon="6.37546">
        <ele>1517.787</ele>
        <time>2014-08-29T11:18:32Z</time>
      </trkpt>
      <trkpt lat="43.83113" lon="6.37564">
        <ele>1518.148</ele>
        <time>2014-08-29T11:18:37Z</time>
      </trkpt>
      <trkpt lat="43.83108" lon="6.37584">
        <ele>1518.22</ele>
        <time>2014-08-29T11:18:42Z</time>
      </trkpt>
      <trkpt lat="43.83097" lon="6.37608">
        <ele>1514.965</ele>
        <time>2014-08-29T11:18:48Z</time>
      </trkpt>
      <trkpt lat="43.83094" lon="6.37633">
        <ele>1512.732</ele>
        <time>2014-08-29T11:18:53Z</time>
      </trkpt>
      <trkpt lat="43.83086" lon="6.37662">
        <ele>1511.814</ele>
        <time>2014-08-29T11:18:59Z</time>
      </trkpt>
      <trkpt lat="43.83082" lon="6.37674">
        <ele>1510.416</ele>
        <time>2014-08-29T11:19:02Z</time>
      </trkpt>
      <trkpt lat="43.8308" lon="6.37683">
        <ele>1509.988</ele>
        <time>2014-08-29T11:19:04Z</time>
      </trkpt>
      <trkpt lat="43.83075" lon="6.37708">
        <ele>1507.533</ele>
        <time>2014-08-29T11:19:09Z</time>
      </trkpt>
      <trkpt lat="43.83071" lon="6.37729">
        <ele>1505.117</ele>
        <time>2014-08-29T11:19:14Z</time>
      </trkpt>
      <trkpt lat="43.83069" lon="6.37744">
        <ele>1502.949</ele>
        <time>2014-08-29T11:19:19Z</time>
      </trkpt>
      <trkpt lat="43.83069" lon="6.37746">
        <ele>1502.674</ele>
        <time>2014-08-29T11:19:33Z</time>
      </trkpt>
      <trkpt lat="43.83068" lon="6.37754">
        <ele>1504.729</ele>
        <time>2014-08-29T11:19:37Z</time>
      </trkpt>
      <trkpt lat="43.83066" lon="6.37773">
        <ele>1503.565</ele>
        <time>2014-08-29T11:19:42Z</time>
      </trkpt>
      <trkpt lat="43.8306" lon="6.37789">
        <ele>1500.797</ele>
        <time>2014-08-29T11:19:47Z</time>
      </trkpt>
      <trkpt lat="43.83059" lon="6.37806">
        <ele>1499.52</ele>
        <time>2014-08-29T11:19:51Z</time>
      </trkpt>
      <trkpt lat="43.83064" lon="6.37826">
        <ele>1497.384</ele>
        <time>2014-08-29T11:19:55Z</time>
      </trkpt>
      <trkpt lat="43.83063" lon="6.3784">
        <ele>1496.816</ele>
        <time>2014-08-29T11:19:58Z</time>
      </trkpt>
      <trkpt lat="43.83061" lon="6.37853">
        <ele>1496.068</ele>
        <time>2014-08-29T11:20:02Z</time>
      </trkpt>
      <trkpt lat="43.8306" lon="6.37859">
        <ele>1495.359</ele>
        <time>2014-08-29T11:20:04Z</time>
      </trkpt>
      <trkpt lat="43.83061" lon="6.3789">
        <ele>1494.271</ele>
        <time>2014-08-29T11:20:11Z</time>
      </trkpt>
      <trkpt lat="43.83062" lon="6.37905">
        <ele>1493.66</ele>
        <time>2014-08-29T11:20:14Z</time>
      </trkpt>
      <trkpt lat="43.83072" lon="6.37924">
        <ele>1489.644</ele>
        <time>2014-08-29T11:20:19Z</time>
      </trkpt>
      <trkpt lat="43.83072" lon="6.37935">
        <ele>1488.398</ele>
        <time>2014-08-29T11:20:24Z</time>
      </trkpt>
      <trkpt lat="43.83072" lon="6.37934">
        <ele>1491.946</ele>
        <time>2014-08-29T11:20:33Z</time>
      </trkpt>
      <trkpt lat="43.83073" lon="6.37939">
        <ele>1491.434</ele>
        <time>2014-08-29T11:20:40Z</time>
      </trkpt>
      <trkpt lat="43.83073" lon="6.37939">
        <ele>1491.925</ele>
        <time>2014-08-29T11:20:41Z</time>
      </trkpt>
      <trkpt lat="43.83072" lon="6.37946">
        <ele>1491.077</ele>
        <time>2014-08-29T11:20:45Z</time>
      </trkpt>
      <trkpt lat="43.83071" lon="6.37952">
        <ele>1489.604</ele>
        <time>2014-08-29T11:20:52Z</time>
      </trkpt>
      <trkpt lat="43.83072" lon="6.37963">
        <ele>1489.136</ele>
        <time>2014-08-29T11:20:56Z</time>
      </trkpt>
      <trkpt lat="43.83072" lon="6.37981">
        <ele>1489.751</ele>
        <time>2014-08-29T11:21:01Z</time>
      </trkpt>
      <trkpt lat="43.83067" lon="6.38">
        <ele>1489.429</ele>
        <time>2014-08-29T11:21:06Z</time>
      </trkpt>
      <trkpt lat="43.83064" lon="6.38022">
        <ele>1485.48</ele>
        <time>2014-08-29T11:21:11Z</time>
      </trkpt>
      <trkpt lat="43.83063" lon="6.38032">
        <ele>1482.189</ele>
        <time>2014-08-29T11:21:15Z</time>
      </trkpt>
      <trkpt lat="43.83062" lon="6.38039">
        <ele>1479.078</ele>
        <time>2014-08-29T11:21:20Z</time>
      </trkpt>
      <trkpt lat="43.83062" lon="6.38058">
        <ele>1474.305</ele>
        <time>2014-08-29T11:21:26Z</time>
      </trkpt>
      <trkpt lat="43.83068" lon="6.38079">
        <ele>1471.107</ele>
        <time>2014-08-29T11:21:32Z</time>
      </trkpt>
      <trkpt lat="43.83071" lon="6.38085">
        <ele>1471.991</ele>
        <time>2014-08-29T11:21:37Z</time>
      </trkpt>
      <trkpt lat="43.83073" lon="6.38093">
        <ele>1471.292</ele>
        <time>2014-08-29T11:21:42Z</time>
      </trkpt>
      <trkpt lat="43.83077" lon="6.38113">
        <ele>1469.041</ele>
        <time>2014-08-29T11:21:48Z</time>
      </trkpt>
      <trkpt lat="43.83079" lon="6.38132">
        <ele>1471.004</ele>
        <time>2014-08-29T11:21:55Z</time>
      </trkpt>
      <trkpt lat="43.83079" lon="6.3814">
        <ele>1469.478</ele>
        <time>2014-08-29T11:21:57Z</time>
      </trkpt>
      <trkpt lat="43.83088" lon="6.38161">
        <ele>1468.528</ele>
        <time>2014-08-29T11:22:02Z</time>
      </trkpt>
      <trkpt lat="43.83092" lon="6.38183">
        <ele>1468.02</ele>
        <time>2014-08-29T11:22:09Z</time>
      </trkpt>
      <trkpt lat="43.83094" lon="6.38189">
        <ele>1467.911</ele>
        <time>2014-08-29T11:22:11Z</time>
      </trkpt>
      <trkpt lat="43.83104" lon="6.38188">
        <ele>1467.571</ele>
        <time>2014-08-29T11:22:14Z</time>
      </trkpt>
      <trkpt lat="43.83118" lon="6.38199">
        <ele>1468.013</ele>
        <time>2014-08-29T11:22:18Z</time>
      </trkpt>
      <trkpt lat="43.83129" lon="6.38214">
        <ele>1470.046</ele>
        <time>2014-08-29T11:22:23Z</time>
      </trkpt>
      <trkpt lat="43.83142" lon="6.38226">
        <ele>1470.366</ele>
        <time>2014-08-29T11:22:28Z</time>
      </trkpt>
      <trkpt lat="43.83152" lon="6.38236">
        <ele>1468.932</ele>
        <time>2014-08-29T11:22:32Z</time>
      </trkpt>
      <trkpt lat="43.83161" lon="6.38246">
        <ele>1465.679</ele>
        <time>2014-08-29T11:22:37Z</time>
      </trkpt>
      <trkpt lat="43.83172" lon="6.38259">
        <ele>1468.635</ele>
        <time>2014-08-29T11:22:42Z</time>
      </trkpt>
      <trkpt lat="43.83178" lon="6.38276">
        <ele>1468.907</ele>
        <time>2014-08-29T11:22:47Z</time>
      </trkpt>
      <trkpt lat="43.8318" lon="6.38293">
        <ele>1465.243</ele>
        <time>2014-08-29T11:22:51Z</time>
      </trkpt>
      <trkpt lat="43.83188" lon="6.38311">
        <ele>1462.113</ele>
        <time>2014-08-29T11:22:58Z</time>
      </trkpt>
      <trkpt lat="43.83194" lon="6.38324">
        <ele>1462.255</ele>
        <time>2014-08-29T11:23:02Z</time>
      </trkpt>
      <trkpt lat="43.832" lon="6.38344">
        <ele>1462.226</ele>
        <time>2014-08-29T11:23:07Z</time>
      </trkpt>
      <trkpt lat="43.83201" lon="6.38355">
        <ele>1461.275</ele>
        <time>2014-08-29T11:23:09Z</time>
      </trkpt>
      <trkpt lat="43.83215" lon="6.38376">
        <ele>1462.258</ele>
        <time>2014-08-29T11:23:16Z</time>
      </trkpt>
      <trkpt lat="43.83228" lon="6.38405">
        <ele>1460.714</ele>
        <time>2014-08-29T11:23:23Z</time>
      </trkpt>
      <trkpt lat="43.83237" lon="6.3841">
        <ele>1457.18</ele>
        <time>2014-08-29T11:23:27Z</time>
      </trkpt>
      <trkpt lat="43.83249" lon="6.38422">
        <ele>1456.17</ele>
        <time>2014-08-29T11:23:32Z</time>
      </trkpt>
      <trkpt lat="43.83247" lon="6.38425">
        <ele>1454.726</ele>
        <time>2014-08-29T11:23:36Z</time>
      </trkpt>
      <trkpt lat="43.83251" lon="6.38428">
        <ele>1451.02</ele>
        <time>2014-08-29T11:23:54Z</time>
      </trkpt>
      <trkpt lat="43.83259" lon="6.38434">
        <ele>1450.764</ele>
        <time>2014-08-29T11:24:00Z</time>
      </trkpt>
      <trkpt lat="43.83267" lon="6.38435">
        <ele>1451.533</ele>
        <time>2014-08-29T11:24:06Z</time>
      </trkpt>
      <trkpt lat="43.83281" lon="6.38438">
        <ele>1455.367</ele>
        <time>2014-08-29T11:24:11Z</time>
      </trkpt>
      <trkpt lat="43.83298" lon="6.38448">
        <ele>1456.904</ele>
        <time>2014-08-29T11:24:17Z</time>
      </trkpt>
      <trkpt lat="43.83312" lon="6.38442">
        <ele>1454.578</ele>
        <time>2014-08-29T11:24:22Z</time>
      </trkpt>
      <trkpt lat="43.83327" lon="6.38448">
        <ele>1453.172</ele>
        <time>2014-08-29T11:24:26Z</time>
      </trkpt>
      <trkpt lat="43.83331" lon="6.38451">
        <ele>1453.031</ele>
        <time>2014-08-29T11:24:27Z</time>
      </trkpt>
      <trkpt lat="43.83353" lon="6.38458">
        <ele>1450.245</ele>
        <time>2014-08-29T11:24:33Z</time>
      </trkpt>
      <trkpt lat="43.83367" lon="6.38459">
        <ele>1451.039</ele>
        <time>2014-08-29T11:24:37Z</time>
      </trkpt>
      <trkpt lat="43.83374" lon="6.38449">
        <ele>1448.5</ele>
        <time>2014-08-29T11:24:40Z</time>
      </trkpt>
      <trkpt lat="43.83381" lon="6.38441">
        <ele>1443.305</ele>
        <time>2014-08-29T11:24:45Z</time>
      </trkpt>
      <trkpt lat="43.83388" lon="6.38425">
        <ele>1436.669</ele>
        <time>2014-08-29T11:24:52Z</time>
      </trkpt>
      <trkpt lat="43.83384" lon="6.38429">
        <ele>1428.345</ele>
        <time>2014-08-29T11:25:06Z</time>
      </trkpt>
      <trkpt lat="43.83382" lon="6.38432">
        <ele>1425.5</ele>
        <time>2014-08-29T11:25:17Z</time>
      </trkpt>
      <trkpt lat="43.83388" lon="6.38423">
        <ele>1424.435</ele>
        <time>2014-08-29T11:25:23Z</time>
      </trkpt>
      <trkpt lat="43.83391" lon="6.38417">
        <ele>1422.677</ele>
        <time>2014-08-29T11:25:25Z</time>
      </trkpt>
      <trkpt lat="43.8341" lon="6.38407">
        <ele>1415.563</ele>
        <time>2014-08-29T11:25:32Z</time>
      </trkpt>
      <trkpt lat="43.8342" lon="6.38414">
        <ele>1414.423</ele>
        <time>2014-08-29T11:25:36Z</time>
      </trkpt>
      <trkpt lat="43.83437" lon="6.38422">
        <ele>1415.946</ele>
        <time>2014-08-29T11:25:41Z</time>
      </trkpt>
      <trkpt lat="43.8345" lon="6.38425">
        <ele>1418.449</ele>
        <time>2014-08-29T11:25:46Z</time>
      </trkpt>
      <trkpt lat="43.83467" lon="6.38423">
        <ele>1416.334</ele>
        <time>2014-08-29T11:25:52Z</time>
      </trkpt>
      <trkpt lat="43.83477" lon="6.38413">
        <ele>1410.044</ele>
        <time>2014-08-29T11:25:57Z</time>
      </trkpt>
      <trkpt lat="43.83486" lon="6.38398">
        <ele>1404.148</ele>
        <time>2014-08-29T11:26:02Z</time>
      </trkpt>
      <trkpt lat="43.8349" lon="6.38382">
        <ele>1400.138</ele>
        <time>2014-08-29T11:26:06Z</time>
      </trkpt>
      <trkpt lat="43.83494" lon="6.38374">
        <ele>1396.172</ele>
        <time>2014-08-29T11:26:11Z</time>
      </trkpt>
      <trkpt lat="43.83506" lon="6.38348">
        <ele>1391.355</ele>
        <time>2014-08-29T11:26:17Z</time>
      </trkpt>
      <trkpt lat="43.8351" lon="6.38341">
        <ele>1389.21</ele>
        <time>2014-08-29T11:26:19Z</time>
      </trkpt>
      <trkpt lat="43.8353" lon="6.38327">
        <ele>1385.38</ele>
        <time>2014-08-29T11:26:25Z</time>
      </trkpt>
      <trkpt lat="43.83535" lon="6.38324">
        <ele>1384.049</ele>
        <time>2014-08-29T11:26:27Z</time>
      </trkpt>
      <trkpt lat="43.83557" lon="6.38323">
        <ele>1381.56</ele>
        <time>2014-08-29T11:26:33Z</time>
      </trkpt>
      <trkpt lat="43.83569" lon="6.38324">
        <ele>1378.835</ele>
        <time>2014-08-29T11:26:37Z</time>
      </trkpt>
      <trkpt lat="43.83582" lon="6.38317">
        <ele>1375.243</ele>
        <time>2014-08-29T11:26:41Z</time>
      </trkpt>
      <trkpt lat="43.83604" lon="6.38305">
        <ele>1366.5</ele>
        <time>2014-08-29T11:26:47Z</time>
      </trkpt>
      <trkpt lat="43.83617" lon="6.38283">
        <ele>1359.342</ele>
        <time>2014-08-29T11:26:52Z</time>
      </trkpt>
      <trkpt lat="43.83621" lon="6.38274">
        <ele>1356.6</ele>
        <time>2014-08-29T11:26:54Z</time>
      </trkpt>
      <trkpt lat="43.83627" lon="6.38245">
        <ele>1357.867</ele>
        <time>2014-08-29T11:26:59Z</time>
      </trkpt>
      <trkpt lat="43.83631" lon="6.38233">
        <ele>1356.794</ele>
        <time>2014-08-29T11:27:02Z</time>
      </trkpt>
      <trkpt lat="43.83649" lon="6.38212">
        <ele>1351.177</ele>
        <time>2014-08-29T11:27:07Z</time>
      </trkpt>
      <trkpt lat="43.83654" lon="6.38209">
        <ele>1349.669</ele>
        <time>2014-08-29T11:27:10Z</time>
      </trkpt>
      <trkpt lat="43.83664" lon="6.38214">
        <ele>1346.462</ele>
        <time>2014-08-29T11:27:14Z</time>
      </trkpt>
      <trkpt lat="43.83683" lon="6.38221">
        <ele>1340.905</ele>
        <time>2014-08-29T11:27:19Z</time>
      </trkpt>
      <trkpt lat="43.83687" lon="6.3822">
        <ele>1339.798</ele>
        <time>2014-08-29T11:27:20Z</time>
      </trkpt>
      <trkpt lat="43.83699" lon="6.38211">
        <ele>1335.677</ele>
        <time>2014-08-29T11:27:24Z</time>
      </trkpt>
      <trkpt lat="43.83707" lon="6.38198">
        <ele>1330.674</ele>
        <time>2014-08-29T11:27:28Z</time>
      </trkpt>
      <trkpt lat="43.8371" lon="6.38188">
        <ele>1329.144</ele>
        <time>2014-08-29T11:27:31Z</time>
      </trkpt>
      <trkpt lat="43.8372" lon="6.38177">
        <ele>1325.98</ele>
        <time>2014-08-29T11:27:34Z</time>
      </trkpt>
      <trkpt lat="43.83739" lon="6.38155">
        <ele>1320.133</ele>
        <time>2014-08-29T11:27:39Z</time>
      </trkpt>
      <trkpt lat="43.83756" lon="6.38129">
        <ele>1314.82</ele>
        <time>2014-08-29T11:27:45Z</time>
      </trkpt>
      <trkpt lat="43.8376" lon="6.38111">
        <ele>1310.212</ele>
        <time>2014-08-29T11:27:49Z</time>
      </trkpt>
      <trkpt lat="43.83765" lon="6.38102">
        <ele>1306.397</ele>
        <time>2014-08-29T11:27:52Z</time>
      </trkpt>
      <trkpt lat="43.83774" lon="6.38077">
        <ele>1297.349</ele>
        <time>2014-08-29T11:27:58Z</time>
      </trkpt>
      <trkpt lat="43.83789" lon="6.38058">
        <ele>1292.029</ele>
        <time>2014-08-29T11:28:03Z</time>
      </trkpt>
      <trkpt lat="43.83799" lon="6.38043">
        <ele>1286.619</ele>
        <time>2014-08-29T11:28:07Z</time>
      </trkpt>
      <trkpt lat="43.83806" lon="6.38036">
        <ele>1284.299</ele>
        <time>2014-08-29T11:28:09Z</time>
      </trkpt>
      <trkpt lat="43.8382" lon="6.38018">
        <ele>1276.772</ele>
        <time>2014-08-29T11:28:13Z</time>
      </trkpt>
      <trkpt lat="43.83825" lon="6.38006">
        <ele>1273.181</ele>
        <time>2014-08-29T11:28:15Z</time>
      </trkpt>
      <trkpt lat="43.83843" lon="6.37983">
        <ele>1273.854</ele>
        <time>2014-08-29T11:28:20Z</time>
      </trkpt>
      <trkpt lat="43.83849" lon="6.37978">
        <ele>1271.312</ele>
        <time>2014-08-29T11:28:22Z</time>
      </trkpt>
      <trkpt lat="43.83853" lon="6.37962">
        <ele>1272.031</ele>
        <time>2014-08-29T11:28:27Z</time>
      </trkpt>
      <trkpt lat="43.83854" lon="6.37954">
        <ele>1269.057</ele>
        <time>2014-08-29T11:28:29Z</time>
      </trkpt>
      <trkpt lat="43.83856" lon="6.37946">
        <ele>1267.34</ele>
        <time>2014-08-29T11:28:31Z</time>
      </trkpt>
      <trkpt lat="43.83876" lon="6.37938">
        <ele>1262.547</ele>
        <time>2014-08-29T11:28:35Z</time>
      </trkpt>
      <trkpt lat="43.83881" lon="6.37936">
        <ele>1261.341</ele>
        <time>2014-08-29T11:28:36Z</time>
      </trkpt>
      <trkpt lat="43.83903" lon="6.37921">
        <ele>1255.489</ele>
        <time>2014-08-29T11:28:43Z</time>
      </trkpt>
      <trkpt lat="43.8392" lon="6.37921">
        <ele>1257.511</ele>
        <time>2014-08-29T11:28:47Z</time>
      </trkpt>
      <trkpt lat="43.83934" lon="6.37916">
        <ele>1249.805</ele>
        <time>2014-08-29T11:28:51Z</time>
      </trkpt>
      <trkpt lat="43.83943" lon="6.37904">
        <ele>1245.081</ele>
        <time>2014-08-29T11:28:54Z</time>
      </trkpt>
      <trkpt lat="43.83955" lon="6.3789">
        <ele>1239.878</ele>
        <time>2014-08-29T11:28:58Z</time>
      </trkpt>
      <trkpt lat="43.83967" lon="6.37868">
        <ele>1238.615</ele>
        <time>2014-08-29T11:29:03Z</time>
      </trkpt>
      <trkpt lat="43.83963" lon="6.37828">
        <ele>1237.031</ele>
        <time>2014-08-29T11:29:08Z</time>
      </trkpt>
      <trkpt lat="43.83969" lon="6.37819">
        <ele>1234.283</ele>
        <time>2014-08-29T11:29:11Z</time>
      </trkpt>
      <trkpt lat="43.83979" lon="6.37807">
        <ele>1232.745</ele>
        <time>2014-08-29T11:29:14Z</time>
      </trkpt>
      <trkpt lat="43.83981" lon="6.37785">
        <ele>1230.527</ele>
        <time>2014-08-29T11:29:18Z</time>
      </trkpt>
      <trkpt lat="43.8399" lon="6.37771">
        <ele>1227.395</ele>
        <time>2014-08-29T11:29:22Z</time>
      </trkpt>
      <trkpt lat="43.83994" lon="6.37761">
        <ele>1225.191</ele>
        <time>2014-08-29T11:29:24Z</time>
      </trkpt>
      <trkpt lat="43.83993" lon="6.37726">
        <ele>1220.07</ele>
        <time>2014-08-29T11:29:29Z</time>
      </trkpt>
      <trkpt lat="43.83995" lon="6.37705">
        <ele>1210.229</ele>
        <time>2014-08-29T11:29:34Z</time>
      </trkpt>
      <trkpt lat="43.84003" lon="6.37694">
        <ele>1202.245</ele>
        <time>2014-08-29T11:29:37Z</time>
      </trkpt>
      <trkpt lat="43.8402" lon="6.37668">
        <ele>1192.054</ele>
        <time>2014-08-29T11:29:41Z</time>
      </trkpt>
      <trkpt lat="43.84044" lon="6.3764">
        <ele>1186.08</ele>
        <time>2014-08-29T11:29:45Z</time>
      </trkpt>
      <trkpt lat="43.84051" lon="6.37634">
        <ele>1184.886</ele>
        <time>2014-08-29T11:29:46Z</time>
      </trkpt>
      <trkpt lat="43.84073" lon="6.37622">
        <ele>1185.181</ele>
        <time>2014-08-29T11:29:49Z</time>
      </trkpt>
      <trkpt lat="43.84095" lon="6.37604">
        <ele>1179.884</ele>
        <time>2014-08-29T11:29:53Z</time>
      </trkpt>
      <trkpt lat="43.84109" lon="6.37598">
        <ele>1180.821</ele>
        <time>2014-08-29T11:29:56Z</time>
      </trkpt>
      <trkpt lat="43.84123" lon="6.37586">
        <ele>1180.022</ele>
        <time>2014-08-29T11:30:00Z</time>
      </trkpt>
      <trkpt lat="43.84136" lon="6.37585">
        <ele>1179.122</ele>
        <time>2014-08-29T11:30:03Z</time>
      </trkpt>
      <trkpt lat="43.84168" lon="6.37569">
        <ele>1174.015</ele>
        <time>2014-08-29T11:30:09Z</time>
      </trkpt>
      <trkpt lat="43.84193" lon="6.37555">
        <ele>1169.194</ele>
        <time>2014-08-29T11:30:13Z</time>
      </trkpt>
      <trkpt lat="43.84224" lon="6.37544">
        <ele>1165.105</ele>
        <time>2014-08-29T11:30:18Z</time>
      </trkpt>
      <trkpt lat="43.84255" lon="6.37524">
        <ele>1157.998</ele>
        <time>2014-08-29T11:30:23Z</time>
      </trkpt>
      <trkpt lat="43.84264" lon="6.37515">
        <ele>1155.94</ele>
        <time>2014-08-29T11:30:26Z</time>
      </trkpt>
      <trkpt lat="43.84277" lon="6.37506">
        <ele>1151.896</ele>
        <time>2014-08-29T11:30:30Z</time>
      </trkpt>
      <trkpt lat="43.84298" lon="6.37502">
        <ele>1148.184</ele>
        <time>2014-08-29T11:30:35Z</time>
      </trkpt>
      <trkpt lat="43.84301" lon="6.37498">
        <ele>1146.383</ele>
        <time>2014-08-29T11:30:36Z</time>
      </trkpt>
      <trkpt lat="43.84319" lon="6.3748">
        <ele>1135.782</ele>
        <time>2014-08-29T11:30:41Z</time>
      </trkpt>
      <trkpt lat="43.84323" lon="6.37467">
        <ele>1135.009</ele>
        <time>2014-08-29T11:30:44Z</time>
      </trkpt>
      <trkpt lat="43.84332" lon="6.37456">
        <ele>1133.388</ele>
        <time>2014-08-29T11:30:47Z</time>
      </trkpt>
      <trkpt lat="43.84339" lon="6.37451">
        <ele>1130.415</ele>
        <time>2014-08-29T11:30:49Z</time>
      </trkpt>
      <trkpt lat="43.8436" lon="6.37442">
        <ele>1126.57</ele>
        <time>2014-08-29T11:30:53Z</time>
      </trkpt>
      <trkpt lat="43.84372" lon="6.3745">
        <ele>1126.348</ele>
        <time>2014-08-29T11:30:56Z</time>
      </trkpt>
      <trkpt lat="43.84376" lon="6.37454">
        <ele>1126.651</ele>
        <time>2014-08-29T11:30:57Z</time>
      </trkpt>
      <trkpt lat="43.84394" lon="6.37455">
        <ele>1116.802</ele>
        <time>2014-08-29T11:31:04Z</time>
      </trkpt>
      <trkpt lat="43.844" lon="6.37453">
        <ele>1114.473</ele>
        <time>2014-08-29T11:31:06Z</time>
      </trkpt>
      <trkpt lat="43.84412" lon="6.37468">
        <ele>1112.621</ele>
        <time>2014-08-29T11:31:11Z</time>
      </trkpt>
      <trkpt lat="43.84418" lon="6.37473">
        <ele>1112.22</ele>
        <time>2014-08-29T11:31:14Z</time>
      </trkpt>
      <trkpt lat="43.84428" lon="6.37468">
        <ele>1109.495</ele>
        <time>2014-08-29T11:31:18Z</time>
      </trkpt>
      <trkpt lat="43.8444" lon="6.37476">
        <ele>1108.497</ele>
        <time>2014-08-29T11:31:23Z</time>
      </trkpt>
      <trkpt lat="43.84451" lon="6.37473">
        <ele>1104.967</ele>
        <time>2014-08-29T11:31:28Z</time>
      </trkpt>
      <trkpt lat="43.84454" lon="6.3747">
        <ele>1105.113</ele>
        <time>2014-08-29T11:31:29Z</time>
      </trkpt>
      <trkpt lat="43.84459" lon="6.37466">
        <ele>1101.817</ele>
        <time>2014-08-29T11:31:31Z</time>
      </trkpt>
      <trkpt lat="43.84472" lon="6.37454">
        <ele>1095.965</ele>
        <time>2014-08-29T11:31:36Z</time>
      </trkpt>
      <trkpt lat="43.84478" lon="6.37451">
        <ele>1092.333</ele>
        <time>2014-08-29T11:31:39Z</time>
      </trkpt>
      <trkpt lat="43.84484" lon="6.37459">
        <ele>1086.328</ele>
        <time>2014-08-29T11:31:44Z</time>
      </trkpt>
      <trkpt lat="43.84487" lon="6.37458">
        <ele>1085.719</ele>
        <time>2014-08-29T11:31:46Z</time>
      </trkpt>
      <trkpt lat="43.84495" lon="6.37453">
        <ele>1077.916</ele>
        <time>2014-08-29T11:31:51Z</time>
      </trkpt>
      <trkpt lat="43.84511" lon="6.37454">
        <ele>1076.628</ele>
        <time>2014-08-29T11:31:54Z</time>
      </trkpt>
      <trkpt lat="43.84525" lon="6.37444">
        <ele>1074.291</ele>
        <time>2014-08-29T11:31:56Z</time>
      </trkpt>
      <trkpt lat="43.8456" lon="6.37434">
        <ele>1068.854</ele>
        <time>2014-08-29T11:32:01Z</time>
      </trkpt>
      <trkpt lat="43.84581" lon="6.37425">
        <ele>1064.816</ele>
        <time>2014-08-29T11:32:06Z</time>
      </trkpt>
      <trkpt lat="43.84593" lon="6.37429">
        <ele>1064.558</ele>
        <time>2014-08-29T11:32:09Z</time>
      </trkpt>
      <trkpt lat="43.84601" lon="6.37435">
        <ele>1064.721</ele>
        <time>2014-08-29T11:32:11Z</time>
      </trkpt>
      <trkpt lat="43.84616" lon="6.37435">
        <ele>1059.681</ele>
        <time>2014-08-29T11:32:15Z</time>
      </trkpt>
      <trkpt lat="43.84622" lon="6.37427">
        <ele>1054.621</ele>
        <time>2014-08-29T11:32:19Z</time>
      </trkpt>
      <trkpt lat="43.84641" lon="6.37415">
        <ele>1049.342</ele>
        <time>2014-08-29T11:32:23Z</time>
      </trkpt>
      <trkpt lat="43.84657" lon="6.37413">
        <ele>1049.501</ele>
        <time>2014-08-29T11:32:27Z</time>
      </trkpt>
      <trkpt lat="43.84671" lon="6.37405">
        <ele>1045.62</ele>
        <time>2014-08-29T11:32:32Z</time>
      </trkpt>
      <trkpt lat="43.84682" lon="6.37399">
        <ele>1042.912</ele>
        <time>2014-08-29T11:32:34Z</time>
      </trkpt>
      <trkpt lat="43.84703" lon="6.37397">
        <ele>1039.693</ele>
        <time>2014-08-29T11:32:38Z</time>
      </trkpt>
      <trkpt lat="43.84715" lon="6.37397">
        <ele>1036.981</ele>
        <time>2014-08-29T11:32:42Z</time>
      </trkpt>
      <trkpt lat="43.84718" lon="6.37395">
        <ele>1035.984</ele>
        <time>2014-08-29T11:32:43Z</time>
      </trkpt>
      <trkpt lat="43.84724" lon="6.37389">
        <ele>1033.868</ele>
        <time>2014-08-29T11:32:45Z</time>
      </trkpt>
      <trkpt lat="43.84741" lon="6.37368">
        <ele>1029.791</ele>
        <time>2014-08-29T11:32:50Z</time>
      </trkpt>
      <trkpt lat="43.84749" lon="6.37357">
        <ele>1027.455</ele>
        <time>2014-08-29T11:32:53Z</time>
      </trkpt>
      <trkpt lat="43.84757" lon="6.37347">
        <ele>1021.902</ele>
        <time>2014-08-29T11:32:56Z</time>
      </trkpt>
      <trkpt lat="43.84774" lon="6.37331">
        <ele>1019.067</ele>
        <time>2014-08-29T11:33:00Z</time>
      </trkpt>
      <trkpt lat="43.84784" lon="6.37325">
        <ele>1019.115</ele>
        <time>2014-08-29T11:33:03Z</time>
      </trkpt>
      <trkpt lat="43.84793" lon="6.37321">
        <ele>1016.834</ele>
        <time>2014-08-29T11:33:08Z</time>
      </trkpt>
      <trkpt lat="43.84805" lon="6.37318">
        <ele>1015.031</ele>
        <time>2014-08-29T11:33:12Z</time>
      </trkpt>
      <trkpt lat="43.84818" lon="6.37313">
        <ele>1013.111</ele>
        <time>2014-08-29T11:33:17Z</time>
      </trkpt>
      <trkpt lat="43.8482" lon="6.37315">
        <ele>1013.451</ele>
        <time>2014-08-29T11:33:18Z</time>
      </trkpt>
      <trkpt lat="43.84828" lon="6.3732">
        <ele>1012.852</ele>
        <time>2014-08-29T11:33:20Z</time>
      </trkpt>
      <trkpt lat="43.84838" lon="6.37315">
        <ele>1012.476</ele>
        <time>2014-08-29T11:33:23Z</time>
      </trkpt>
      <trkpt lat="43.84847" lon="6.37314">
        <ele>1011.447</ele>
        <time>2014-08-29T11:33:26Z</time>
      </trkpt>
      <trkpt lat="43.84867" lon="6.37304">
        <ele>1009.389</ele>
        <time>2014-08-29T11:33:30Z</time>
      </trkpt>
      <trkpt lat="43.84892" lon="6.37298">
        <ele>1002.033</ele>
        <time>2014-08-29T11:33:35Z</time>
      </trkpt>
      <trkpt lat="43.84898" lon="6.37305">
        <ele>1000.951</ele>
        <time>2014-08-29T11:33:38Z</time>
      </trkpt>
      <trkpt lat="43.84901" lon="6.37305">
        <ele>999.217</ele>
        <time>2014-08-29T11:33:40Z</time>
      </trkpt>
      <trkpt lat="43.84909" lon="6.37295">
        <ele>991.139</ele>
        <time>2014-08-29T11:33:46Z</time>
      </trkpt>
      <trkpt lat="43.84921" lon="6.37285">
        <ele>986.296</ele>
        <time>2014-08-29T11:33:50Z</time>
      </trkpt>
      <trkpt lat="43.84927" lon="6.37285">
        <ele>985.599</ele>
        <time>2014-08-29T11:33:52Z</time>
      </trkpt>
      <trkpt lat="43.84938" lon="6.37293">
        <ele>983.062</ele>
        <time>2014-08-29T11:33:57Z</time>
      </trkpt>
      <trkpt lat="43.84937" lon="6.37296">
        <ele>984.024</ele>
        <time>2014-08-29T11:34:03Z</time>
      </trkpt>
      <trkpt lat="43.8494" lon="6.37291">
        <ele>987.054</ele>
        <time>2014-08-29T11:35:25Z</time>
      </trkpt>
      <trkpt lat="43.84946" lon="6.37297">
        <ele>988.389</ele>
        <time>2014-08-29T11:35:29Z</time>
      </trkpt>
      <trkpt lat="43.84949" lon="6.37308">
        <ele>988.309</ele>
        <time>2014-08-29T11:35:33Z</time>
      </trkpt>
      <trkpt lat="43.84953" lon="6.37321">
        <ele>985.653</ele>
        <time>2014-08-29T11:35:38Z</time>
      </trkpt>
      <trkpt lat="43.84971" lon="6.37329">
        <ele>982.674</ele>
        <time>2014-08-29T11:35:43Z</time>
      </trkpt>
      <trkpt lat="43.84975" lon="6.37331">
        <ele>981.559</ele>
        <time>2014-08-29T11:35:45Z</time>
      </trkpt>
      <trkpt lat="43.8498" lon="6.37331">
        <ele>980.434</ele>
        <time>2014-08-29T11:35:48Z</time>
      </trkpt>
      <trkpt lat="43.84983" lon="6.37331">
        <ele>980.021</ele>
        <time>2014-08-29T11:35:53Z</time>
      </trkpt>
      <trkpt lat="43.84984" lon="6.37333">
        <ele>977.568</ele>
        <time>2014-08-29T11:36:08Z</time>
      </trkpt>
      <trkpt lat="43.84985" lon="6.37327">
        <ele>969.618</ele>
        <time>2014-08-29T11:36:15Z</time>
      </trkpt>
      <trkpt lat="43.84989" lon="6.37324">
        <ele>966.951</ele>
        <time>2014-08-29T11:36:20Z</time>
      </trkpt>
      <trkpt lat="43.84989" lon="6.37323">
        <ele>965.576</ele>
        <time>2014-08-29T11:36:21Z</time>
      </trkpt>
      <trkpt lat="43.84999" lon="6.37311">
        <ele>974.002</ele>
        <time>2014-08-29T11:36:29Z</time>
      </trkpt>
      <trkpt lat="43.85" lon="6.37309">
        <ele>972.775</ele>
        <time>2014-08-29T11:36:31Z</time>
      </trkpt>
      <trkpt lat="43.85006" lon="6.37303">
        <ele>974.267</ele>
        <time>2014-08-29T11:36:39Z</time>
      </trkpt>
      <trkpt lat="43.85009" lon="6.37297">
        <ele>981.483</ele>
        <time>2014-08-29T11:38:38Z</time>
      </trkpt>
      <trkpt lat="43.85025" lon="6.37299">
        <ele>981.334</ele>
        <time>2014-08-29T11:38:45Z</time>
      </trkpt>
      <trkpt lat="43.85041" lon="6.37301">
        <ele>977.443</ele>
        <time>2014-08-29T11:38:49Z</time>
      </trkpt>
      <trkpt lat="43.85066" lon="6.37312">
        <ele>971.986</ele>
        <time>2014-08-29T11:38:55Z</time>
      </trkpt>
      <trkpt lat="43.85081" lon="6.37317">
        <ele>967.788</ele>
        <time>2014-08-29T11:39:00Z</time>
      </trkpt>
      <trkpt lat="43.85094" lon="6.37315">
        <ele>966.995</ele>
        <time>2014-08-29T11:39:05Z</time>
      </trkpt>
      <trkpt lat="43.85111" lon="6.37327">
        <ele>969.409</ele>
        <time>2014-08-29T11:39:11Z</time>
      </trkpt>
      <trkpt lat="43.85122" lon="6.37334">
        <ele>967.551</ele>
        <time>2014-08-29T11:39:16Z</time>
      </trkpt>
      <trkpt lat="43.85134" lon="6.37342">
        <ele>969.786</ele>
        <time>2014-08-29T11:39:21Z</time>
      </trkpt>
      <trkpt lat="43.85146" lon="6.37354">
        <ele>970.89</ele>
        <time>2014-08-29T11:39:26Z</time>
      </trkpt>
      <trkpt lat="43.85162" lon="6.37356">
        <ele>971.712</ele>
        <time>2014-08-29T11:39:30Z</time>
      </trkpt>
      <trkpt lat="43.85175" lon="6.37354">
        <ele>973.396</ele>
        <time>2014-08-29T11:39:35Z</time>
      </trkpt>
      <trkpt lat="43.85186" lon="6.37352">
        <ele>973.533</ele>
        <time>2014-08-29T11:39:40Z</time>
      </trkpt>
      <trkpt lat="43.85195" lon="6.37344">
        <ele>976.06</ele>
        <time>2014-08-29T11:39:46Z</time>
      </trkpt>
      <trkpt lat="43.85196" lon="6.37344">
        <ele>977.444</ele>
        <time>2014-08-29T11:39:50Z</time>
      </trkpt>
      <trkpt lat="43.85198" lon="6.37343">
        <ele>977.927</ele>
        <time>2014-08-29T11:39:52Z</time>
      </trkpt>
      <trkpt lat="43.85203" lon="6.37345">
        <ele>979.693</ele>
        <time>2014-08-29T11:39:58Z</time>
      </trkpt>
      <trkpt lat="43.85208" lon="6.37355">
        <ele>979.506</ele>
        <time>2014-08-29T11:40:05Z</time>
      </trkpt>
      <trkpt lat="43.85222" lon="6.37361">
        <ele>978.018</ele>
        <time>2014-08-29T11:40:10Z</time>
      </trkpt>
      <trkpt lat="43.85226" lon="6.37361">
        <ele>977.538</ele>
        <time>2014-08-29T11:40:11Z</time>
      </trkpt>
      <trkpt lat="43.85239" lon="6.37359">
        <ele>975.126</ele>
        <time>2014-08-29T11:40:14Z</time>
      </trkpt>
      <trkpt lat="43.85257" lon="6.37352">
        <ele>972.719</ele>
        <time>2014-08-29T11:40:18Z</time>
      </trkpt>
      <trkpt lat="43.85284" lon="6.37353">
        <ele>971.987</ele>
        <time>2014-08-29T11:40:23Z</time>
      </trkpt>
      <trkpt lat="43.85303" lon="6.37362">
        <ele>970.715</ele>
        <time>2014-08-29T11:40:28Z</time>
      </trkpt>
      <trkpt lat="43.85309" lon="6.37361">
        <ele>968.891</ele>
        <time>2014-08-29T11:40:30Z</time>
      </trkpt>
      <trkpt lat="43.85317" lon="6.37356">
        <ele>966.435</ele>
        <time>2014-08-29T11:40:33Z</time>
      </trkpt>
      <trkpt lat="43.85323" lon="6.37345">
        <ele>962.814</ele>
        <time>2014-08-29T11:40:37Z</time>
      </trkpt>
      <trkpt lat="43.85338" lon="6.37324">
        <ele>956.1</ele>
        <time>2014-08-29T11:40:43Z</time>
      </trkpt>
      <trkpt lat="43.85364" lon="6.37311">
        <ele>956.357</ele>
        <time>2014-08-29T11:40:48Z</time>
      </trkpt>
      <trkpt lat="43.85374" lon="6.37308">
        <ele>955.287</ele>
        <time>2014-08-29T11:40:50Z</time>
      </trkpt>
      <trkpt lat="43.854" lon="6.3729">
        <ele>944.482</ele>
        <time>2014-08-29T11:40:57Z</time>
      </trkpt>
      <trkpt lat="43.85403" lon="6.3729">
        <ele>944.808</ele>
        <time>2014-08-29T11:40:58Z</time>
      </trkpt>
      <trkpt lat="43.85408" lon="6.37301">
        <ele>941.775</ele>
        <time>2014-08-29T11:41:03Z</time>
      </trkpt>
      <trkpt lat="43.85412" lon="6.37301">
        <ele>941.879</ele>
        <time>2014-08-29T11:41:05Z</time>
      </trkpt>
      <trkpt lat="43.85427" lon="6.37306">
        <ele>940.53</ele>
        <time>2014-08-29T11:41:12Z</time>
      </trkpt>
      <trkpt lat="43.85438" lon="6.37317">
        <ele>936.566</ele>
        <time>2014-08-29T11:41:18Z</time>
      </trkpt>
      <trkpt lat="43.85445" lon="6.37331">
        <ele>932.742</ele>
        <time>2014-08-29T11:41:23Z</time>
      </trkpt>
      <trkpt lat="43.85456" lon="6.37337">
        <ele>933.01</ele>
        <time>2014-08-29T11:41:29Z</time>
      </trkpt>
      <trkpt lat="43.85475" lon="6.37327">
        <ele>938.208</ele>
        <time>2014-08-29T11:41:35Z</time>
      </trkpt>
      <trkpt lat="43.85493" lon="6.37318">
        <ele>941.79</ele>
        <time>2014-08-29T11:41:40Z</time>
      </trkpt>
      <trkpt lat="43.85498" lon="6.37316">
        <ele>941.712</ele>
        <time>2014-08-29T11:41:41Z</time>
      </trkpt>
      <trkpt lat="43.85513" lon="6.37313">
        <ele>943.163</ele>
        <time>2014-08-29T11:41:44Z</time>
      </trkpt>
      <trkpt lat="43.85534" lon="6.37298">
        <ele>946.863</ele>
        <time>2014-08-29T11:41:48Z</time>
      </trkpt>
      <trkpt lat="43.85564" lon="6.37271">
        <ele>944.982</ele>
        <time>2014-08-29T11:41:54Z</time>
      </trkpt>
      <trkpt lat="43.85593" lon="6.37261">
        <ele>943.26</ele>
        <time>2014-08-29T11:41:59Z</time>
      </trkpt>
      <trkpt lat="43.8562" lon="6.37265">
        <ele>940.247</ele>
        <time>2014-08-29T11:42:03Z</time>
      </trkpt>
      <trkpt lat="43.8564" lon="6.37264">
        <ele>935.838</ele>
        <time>2014-08-29T11:42:08Z</time>
      </trkpt>
      <trkpt lat="43.85658" lon="6.37262">
        <ele>932.895</ele>
        <time>2014-08-29T11:42:13Z</time>
      </trkpt>
      <trkpt lat="43.85678" lon="6.37254">
        <ele>929.937</ele>
        <time>2014-08-29T11:42:19Z</time>
      </trkpt>
      <trkpt lat="43.85702" lon="6.3724">
        <ele>926.388</ele>
        <time>2014-08-29T11:42:27Z</time>
      </trkpt>
      <trkpt lat="43.85736" lon="6.37227">
        <ele>924.745</ele>
        <time>2014-08-29T11:42:36Z</time>
      </trkpt>
      <trkpt lat="43.85753" lon="6.37224">
        <ele>924.028</ele>
        <time>2014-08-29T11:42:41Z</time>
      </trkpt>
      <trkpt lat="43.8578" lon="6.37233">
        <ele>924.795</ele>
        <time>2014-08-29T11:42:48Z</time>
      </trkpt>
      <trkpt lat="43.85786" lon="6.37245">
        <ele>925.933</ele>
        <time>2014-08-29T11:42:51Z</time>
      </trkpt>
      <trkpt lat="43.85804" lon="6.3726">
        <ele>927.641</ele>
        <time>2014-08-29T11:42:57Z</time>
      </trkpt>
      <trkpt lat="43.85823" lon="6.37279">
        <ele>931.573</ele>
        <time>2014-08-29T11:43:01Z</time>
      </trkpt>
      <trkpt lat="43.85833" lon="6.37289">
        <ele>930.912</ele>
        <time>2014-08-29T11:43:03Z</time>
      </trkpt>
      <trkpt lat="43.85849" lon="6.37312">
        <ele>928.749</ele>
        <time>2014-08-29T11:43:08Z</time>
      </trkpt>
      <trkpt lat="43.85855" lon="6.37321">
        <ele>929.126</ele>
        <time>2014-08-29T11:43:10Z</time>
      </trkpt>
      <trkpt lat="43.85868" lon="6.37346">
        <ele>929.412</ele>
        <time>2014-08-29T11:43:16Z</time>
      </trkpt>
      <trkpt lat="43.85899" lon="6.37354">
        <ele>928.087</ele>
        <time>2014-08-29T11:43:23Z</time>
      </trkpt>
      <trkpt lat="43.85915" lon="6.37352">
        <ele>924.723</ele>
        <time>2014-08-29T11:43:29Z</time>
      </trkpt>
      <trkpt lat="43.85928" lon="6.37349">
        <ele>921.16</ele>
        <time>2014-08-29T11:43:34Z</time>
      </trkpt>
      <trkpt lat="43.85948" lon="6.37344">
        <ele>923.958</ele>
        <time>2014-08-29T11:43:39Z</time>
      </trkpt>
      <trkpt lat="43.85965" lon="6.3735">
        <ele>924.233</ele>
        <time>2014-08-29T11:43:44Z</time>
      </trkpt>
      <trkpt lat="43.85981" lon="6.37352">
        <ele>925.434</ele>
        <time>2014-08-29T11:43:50Z</time>
      </trkpt>
      <trkpt lat="43.85986" lon="6.37347">
        <ele>921.555</ele>
        <time>2014-08-29T11:43:55Z</time>
      </trkpt>
      <trkpt lat="43.85992" lon="6.37336">
        <ele>917.221</ele>
        <time>2014-08-29T11:44:01Z</time>
      </trkpt>
      <trkpt lat="43.85993" lon="6.37334">
        <ele>916.942</ele>
        <time>2014-08-29T11:44:02Z</time>
      </trkpt>
      <trkpt lat="43.85997" lon="6.37326">
        <ele>916.172</ele>
        <time>2014-08-29T11:44:06Z</time>
      </trkpt>
      <trkpt lat="43.86012" lon="6.37312">
        <ele>917.89</ele>
        <time>2014-08-29T11:44:14Z</time>
      </trkpt>
      <trkpt lat="43.86026" lon="6.37306">
        <ele>919.771</ele>
        <time>2014-08-29T11:44:21Z</time>
      </trkpt>
      <trkpt lat="43.8604" lon="6.37296">
        <ele>918.754</ele>
        <time>2014-08-29T11:44:28Z</time>
      </trkpt>
      <trkpt lat="43.86055" lon="6.37283">
        <ele>918.669</ele>
        <time>2014-08-29T11:44:35Z</time>
      </trkpt>
      <trkpt lat="43.86064" lon="6.37275">
        <ele>918.458</ele>
        <time>2014-08-29T11:44:39Z</time>
      </trkpt>
      <trkpt lat="43.8608" lon="6.37255">
        <ele>916.557</ele>
        <time>2014-08-29T11:44:45Z</time>
      </trkpt>
      <trkpt lat="43.86093" lon="6.37237">
        <ele>916.979</ele>
        <time>2014-08-29T11:44:51Z</time>
      </trkpt>
      <trkpt lat="43.8611" lon="6.37214">
        <ele>920.083</ele>
        <time>2014-08-29T11:44:59Z</time>
      </trkpt>
      <trkpt lat="43.86119" lon="6.37194">
        <ele>923.181</ele>
        <time>2014-08-29T11:45:06Z</time>
      </trkpt>
      <trkpt lat="43.86119" lon="6.37167">
        <ele>922.143</ele>
        <time>2014-08-29T11:45:11Z</time>
      </trkpt>
      <trkpt lat="43.86119" lon="6.37129">
        <ele>918.584</ele>
        <time>2014-08-29T11:45:16Z</time>
      </trkpt>
      <trkpt lat="43.86131" lon="6.37094">
        <ele>917.495</ele>
        <time>2014-08-29T11:45:20Z</time>
      </trkpt>
      <trkpt lat="43.86144" lon="6.37069">
        <ele>917.688</ele>
        <time>2014-08-29T11:45:23Z</time>
      </trkpt>
      <trkpt lat="43.86153" lon="6.37055">
        <ele>918.012</ele>
        <time>2014-08-29T11:45:25Z</time>
      </trkpt>
      <trkpt lat="43.86175" lon="6.37038">
        <ele>919.239</ele>
        <time>2014-08-29T11:45:30Z</time>
      </trkpt>
      <trkpt lat="43.86196" lon="6.37034">
        <ele>922.507</ele>
        <time>2014-08-29T11:45:36Z</time>
      </trkpt>
      <trkpt lat="43.86216" lon="6.37031">
        <ele>926.719</ele>
        <time>2014-08-29T11:45:43Z</time>
      </trkpt>
      <trkpt lat="43.86233" lon="6.37023">
        <ele>928.034</ele>
        <time>2014-08-29T11:45:49Z</time>
      </trkpt>
      <trkpt lat="43.86251" lon="6.37019">
        <ele>927.319</ele>
        <time>2014-08-29T11:45:55Z</time>
      </trkpt>
      <trkpt lat="43.86284" lon="6.37021">
        <ele>926.79</ele>
        <time>2014-08-29T11:46:04Z</time>
      </trkpt>
      <trkpt lat="43.86316" lon="6.37016">
        <ele>926.39</ele>
        <time>2014-08-29T11:46:13Z</time>
      </trkpt>
      <trkpt lat="43.86344" lon="6.37009">
        <ele>927.645</ele>
        <time>2014-08-29T11:46:21Z</time>
      </trkpt>
      <trkpt lat="43.86369" lon="6.37004">
        <ele>927.902</ele>
        <time>2014-08-29T11:46:28Z</time>
      </trkpt>
      <trkpt lat="43.864" lon="6.36993">
        <ele>927.91</ele>
        <time>2014-08-29T11:46:37Z</time>
      </trkpt>
      <trkpt lat="43.86425" lon="6.36979">
        <ele>925.903</ele>
        <time>2014-08-29T11:46:44Z</time>
      </trkpt>
      <trkpt lat="43.8643" lon="6.36977">
        <ele>925.523</ele>
        <time>2014-08-29T11:46:45Z</time>
      </trkpt>
      <trkpt lat="43.8645" lon="6.36972">
        <ele>924.222</ele>
        <time>2014-08-29T11:46:49Z</time>
      </trkpt>
      <trkpt lat="43.86481" lon="6.36961">
        <ele>923.695</ele>
        <time>2014-08-29T11:46:55Z</time>
      </trkpt>
      <trkpt lat="43.86498" lon="6.36956">
        <ele>924.931</ele>
        <time>2014-08-29T11:46:59Z</time>
      </trkpt>
      <trkpt lat="43.86527" lon="6.36954">
        <ele>925.252</ele>
        <time>2014-08-29T11:47:06Z</time>
      </trkpt>
      <trkpt lat="43.86549" lon="6.36949">
        <ele>928.548</ele>
        <time>2014-08-29T11:47:13Z</time>
      </trkpt>
      <trkpt lat="43.86562" lon="6.36945">
        <ele>937.3</ele>
        <time>2014-08-29T11:47:20Z</time>
      </trkpt>
      <trkpt lat="43.86568" lon="6.36938">
        <ele>940.647</ele>
        <time>2014-08-29T11:47:25Z</time>
      </trkpt>
      <trkpt lat="43.86577" lon="6.3693">
        <ele>943.425</ele>
        <time>2014-08-29T11:47:31Z</time>
      </trkpt>
      <trkpt lat="43.86592" lon="6.36918">
        <ele>944.538</ele>
        <time>2014-08-29T11:47:40Z</time>
      </trkpt>
      <trkpt lat="43.86599" lon="6.36911">
        <ele>943.414</ele>
        <time>2014-08-29T11:47:44Z</time>
      </trkpt>
      <trkpt lat="43.86605" lon="6.36905">
        <ele>944.226</ele>
        <time>2014-08-29T11:47:49Z</time>
      </trkpt>
      <trkpt lat="43.86616" lon="6.36897">
        <ele>945.397</ele>
        <time>2014-08-29T11:47:57Z</time>
      </trkpt>
      <trkpt lat="43.86632" lon="6.36891">
        <ele>949.408</ele>
        <time>2014-08-29T11:48:07Z</time>
      </trkpt>
      <trkpt lat="43.86645" lon="6.36888">
        <ele>953.589</ele>
        <time>2014-08-29T11:48:15Z</time>
      </trkpt>
      <trkpt lat="43.86664" lon="6.36884">
        <ele>948.331</ele>
        <time>2014-08-29T11:48:24Z</time>
      </trkpt>
      <trkpt lat="43.86681" lon="6.36883">
        <ele>946.826</ele>
        <time>2014-08-29T11:48:33Z</time>
      </trkpt>
      <trkpt lat="43.86694" lon="6.36886">
        <ele>946.029</ele>
        <time>2014-08-29T11:48:41Z</time>
      </trkpt>
      <trkpt lat="43.86711" lon="6.36889">
        <ele>945.671</ele>
        <time>2014-08-29T11:48:48Z</time>
      </trkpt>
      <trkpt lat="43.86733" lon="6.36886">
        <ele>944.84</ele>
        <time>2014-08-29T11:48:56Z</time>
      </trkpt>
      <trkpt lat="43.86744" lon="6.3688">
        <ele>946.085</ele>
        <time>2014-08-29T11:49:02Z</time>
      </trkpt>
      <trkpt lat="43.86765" lon="6.36869">
        <ele>943.758</ele>
        <time>2014-08-29T11:49:08Z</time>
      </trkpt>
      <trkpt lat="43.86792" lon="6.36858">
        <ele>940.583</ele>
        <time>2014-08-29T11:49:14Z</time>
      </trkpt>
      <trkpt lat="43.86825" lon="6.36838">
        <ele>938.183</ele>
        <time>2014-08-29T11:49:21Z</time>
      </trkpt>
      <trkpt lat="43.86841" lon="6.36834">
        <ele>937.323</ele>
        <time>2014-08-29T11:49:24Z</time>
      </trkpt>
      <trkpt lat="43.86869" lon="6.3684">
        <ele>936.529</ele>
        <time>2014-08-29T11:49:30Z</time>
      </trkpt>
      <trkpt lat="43.86881" lon="6.3685">
        <ele>937.752</ele>
        <time>2014-08-29T11:49:35Z</time>
      </trkpt>
      <trkpt lat="43.86886" lon="6.36871">
        <ele>937.331</ele>
        <time>2014-08-29T11:49:41Z</time>
      </trkpt>
      <trkpt lat="43.86893" lon="6.36899">
        <ele>936.349</ele>
        <time>2014-08-29T11:49:47Z</time>
      </trkpt>
      <trkpt lat="43.86902" lon="6.3694">
        <ele>937.653</ele>
        <time>2014-08-29T11:49:56Z</time>
      </trkpt>
      <trkpt lat="43.86898" lon="6.36964">
        <ele>937.229</ele>
        <time>2014-08-29T11:50:01Z</time>
      </trkpt>
      <trkpt lat="43.86902" lon="6.36981">
        <ele>939.123</ele>
        <time>2014-08-29T11:50:05Z</time>
      </trkpt>
      <trkpt lat="43.8691" lon="6.36996">
        <ele>941.294</ele>
        <time>2014-08-29T11:50:09Z</time>
      </trkpt>
      <trkpt lat="43.86923" lon="6.37007">
        <ele>942.233</ele>
        <time>2014-08-29T11:50:13Z</time>
      </trkpt>
      <trkpt lat="43.86939" lon="6.37046">
        <ele>939.857</ele>
        <time>2014-08-29T11:50:21Z</time>
      </trkpt>
      <trkpt lat="43.86943" lon="6.37068">
        <ele>939.627</ele>
        <time>2014-08-29T11:50:26Z</time>
      </trkpt>
      <trkpt lat="43.86942" lon="6.37092">
        <ele>937.801</ele>
        <time>2014-08-29T11:50:30Z</time>
      </trkpt>
      <trkpt lat="43.86947" lon="6.37111">
        <ele>938.435</ele>
        <time>2014-08-29T11:50:35Z</time>
      </trkpt>
      <trkpt lat="43.86948" lon="6.37112">
        <ele>939.677</ele>
        <time>2014-08-29T11:50:39Z</time>
      </trkpt>
      <trkpt lat="43.86944" lon="6.37108">
        <ele>959.143</ele>
        <time>2014-08-29T11:51:08Z</time>
      </trkpt>
      <trkpt lat="43.86943" lon="6.37123">
        <ele>955.779</ele>
        <time>2014-08-29T11:51:14Z</time>
      </trkpt>
      <trkpt lat="43.8694" lon="6.37139">
        <ele>953.569</ele>
        <time>2014-08-29T11:51:18Z</time>
      </trkpt>
      <trkpt lat="43.86928" lon="6.37161">
        <ele>949.224</ele>
        <time>2014-08-29T11:51:23Z</time>
      </trkpt>
      <trkpt lat="43.86927" lon="6.37178">
        <ele>951.363</ele>
        <time>2014-08-29T11:51:27Z</time>
      </trkpt>
      <trkpt lat="43.86928" lon="6.37197">
        <ele>947.482</ele>
        <time>2014-08-29T11:51:32Z</time>
      </trkpt>
      <trkpt lat="43.86925" lon="6.37211">
        <ele>947.154</ele>
        <time>2014-08-29T11:51:37Z</time>
      </trkpt>
      <trkpt lat="43.86922" lon="6.37228">
        <ele>946.136</ele>
        <time>2014-08-29T11:51:43Z</time>
      </trkpt>
      <trkpt lat="43.86921" lon="6.37243">
        <ele>940.669</ele>
        <time>2014-08-29T11:51:47Z</time>
      </trkpt>
      <trkpt lat="43.86918" lon="6.37262">
        <ele>937.128</ele>
        <time>2014-08-29T11:51:53Z</time>
      </trkpt>
      <trkpt lat="43.86915" lon="6.37279">
        <ele>940.873</ele>
        <time>2014-08-29T11:51:59Z</time>
      </trkpt>
      <trkpt lat="43.86913" lon="6.3729">
        <ele>943.589</ele>
        <time>2014-08-29T11:52:03Z</time>
      </trkpt>
      <trkpt lat="43.86912" lon="6.37301">
        <ele>942.779</ele>
        <time>2014-08-29T11:52:07Z</time>
      </trkpt>
      <trkpt lat="43.86909" lon="6.37308">
        <ele>940.885</ele>
        <time>2014-08-29T11:52:10Z</time>
      </trkpt>
      <trkpt lat="43.86909" lon="6.37322">
        <ele>947.135</ele>
        <time>2014-08-29T11:52:18Z</time>
      </trkpt>
      <trkpt lat="43.86907" lon="6.37331">
        <ele>947.531</ele>
        <time>2014-08-29T11:52:23Z</time>
      </trkpt>
      <trkpt lat="43.86905" lon="6.37346">
        <ele>948.709</ele>
        <time>2014-08-29T11:52:30Z</time>
      </trkpt>
      <trkpt lat="43.86902" lon="6.37359">
        <ele>949.027</ele>
        <time>2014-08-29T11:52:36Z</time>
      </trkpt>
      <trkpt lat="43.86893" lon="6.37376">
        <ele>950.802</ele>
        <time>2014-08-29T11:52:43Z</time>
      </trkpt>
      <trkpt lat="43.86887" lon="6.37386">
        <ele>955.522</ele>
        <time>2014-08-29T11:52:48Z</time>
      </trkpt>
      <trkpt lat="43.86885" lon="6.37389">
        <ele>956.323</ele>
        <time>2014-08-29T11:52:49Z</time>
      </trkpt>
      <trkpt lat="43.86878" lon="6.37402">
        <ele>959.148</ele>
        <time>2014-08-29T11:52:55Z</time>
      </trkpt>
      <trkpt lat="43.86872" lon="6.37416">
        <ele>962.835</ele>
        <time>2014-08-29T11:52:58Z</time>
      </trkpt>
      <trkpt lat="43.86855" lon="6.37452">
        <ele>965.483</ele>
        <time>2014-08-29T11:53:05Z</time>
      </trkpt>
      <trkpt lat="43.86845" lon="6.37477">
        <ele>963.666</ele>
        <time>2014-08-29T11:53:10Z</time>
      </trkpt>
      <trkpt lat="43.86843" lon="6.37484">
        <ele>963.736</ele>
        <time>2014-08-29T11:53:11Z</time>
      </trkpt>
      <trkpt lat="43.86823" lon="6.3752">
        <ele>961.226</ele>
        <time>2014-08-29T11:53:16Z</time>
      </trkpt>
      <trkpt lat="43.86814" lon="6.3755">
        <ele>954.482</ele>
        <time>2014-08-29T11:53:20Z</time>
      </trkpt>
      <trkpt lat="43.86802" lon="6.37584">
        <ele>947.784</ele>
        <time>2014-08-29T11:53:25Z</time>
      </trkpt>
      <trkpt lat="43.8679" lon="6.37604">
        <ele>944.644</ele>
        <time>2014-08-29T11:53:28Z</time>
      </trkpt>
      <trkpt lat="43.86782" lon="6.37613">
        <ele>943.227</ele>
        <time>2014-08-29T11:53:30Z</time>
      </trkpt>
      <trkpt lat="43.86761" lon="6.3764">
        <ele>935.39</ele>
        <time>2014-08-29T11:53:36Z</time>
      </trkpt>
      <trkpt lat="43.86749" lon="6.37656">
        <ele>935.48</ele>
        <time>2014-08-29T11:53:39Z</time>
      </trkpt>
      <trkpt lat="43.86733" lon="6.37679">
        <ele>933.986</ele>
        <time>2014-08-29T11:53:44Z</time>
      </trkpt>
      <trkpt lat="43.86719" lon="6.37708">
        <ele>935.344</ele>
        <time>2014-08-29T11:53:50Z</time>
      </trkpt>
      <trkpt lat="43.8671" lon="6.37726">
        <ele>935.699</ele>
        <time>2014-08-29T11:53:54Z</time>
      </trkpt>
      <trkpt lat="43.86702" lon="6.3777">
        <ele>928.577</ele>
        <time>2014-08-29T11:54:00Z</time>
      </trkpt>
      <trkpt lat="43.867" lon="6.37786">
        <ele>926.352</ele>
        <time>2014-08-29T11:54:02Z</time>
      </trkpt>
      <trkpt lat="43.86688" lon="6.37819">
        <ele>921.036</ele>
        <time>2014-08-29T11:54:07Z</time>
      </trkpt>
      <trkpt lat="43.86684" lon="6.37827">
        <ele>919.843</ele>
        <time>2014-08-29T11:54:08Z</time>
      </trkpt>
      <trkpt lat="43.86674" lon="6.37842">
        <ele>918.344</ele>
        <time>2014-08-29T11:54:10Z</time>
      </trkpt>
      <trkpt lat="43.86653" lon="6.37864">
        <ele>915.234</ele>
        <time>2014-08-29T11:54:14Z</time>
      </trkpt>
      <trkpt lat="43.86637" lon="6.37884">
        <ele>912.017</ele>
        <time>2014-08-29T11:54:19Z</time>
      </trkpt>
      <trkpt lat="43.86631" lon="6.37903">
        <ele>911.473</ele>
        <time>2014-08-29T11:54:23Z</time>
      </trkpt>
      <trkpt lat="43.8662" lon="6.37925">
        <ele>910.896</ele>
        <time>2014-08-29T11:54:27Z</time>
      </trkpt>
      <trkpt lat="43.86605" lon="6.37958">
        <ele>909.135</ele>
        <time>2014-08-29T11:54:32Z</time>
      </trkpt>
      <trkpt lat="43.86591" lon="6.37974">
        <ele>908.184</ele>
        <time>2014-08-29T11:54:36Z</time>
      </trkpt>
      <trkpt lat="43.86587" lon="6.37976">
        <ele>908.677</ele>
        <time>2014-08-29T11:54:37Z</time>
      </trkpt>
      <trkpt lat="43.86572" lon="6.37983">
        <ele>909.084</ele>
        <time>2014-08-29T11:54:43Z</time>
      </trkpt>
      <trkpt lat="43.86559" lon="6.37987">
        <ele>909.418</ele>
        <time>2014-08-29T11:54:48Z</time>
      </trkpt>
      <trkpt lat="43.86546" lon="6.37991">
        <ele>910.207</ele>
        <time>2014-08-29T11:54:53Z</time>
      </trkpt>
      <trkpt lat="43.86531" lon="6.37995">
        <ele>912.102</ele>
        <time>2014-08-29T11:54:58Z</time>
      </trkpt>
      <trkpt lat="43.8651" lon="6.38003">
        <ele>914.253</ele>
        <time>2014-08-29T11:55:04Z</time>
      </trkpt>
      <trkpt lat="43.86498" lon="6.38009">
        <ele>914.21</ele>
        <time>2014-08-29T11:55:08Z</time>
      </trkpt>
      <trkpt lat="43.86484" lon="6.38021">
        <ele>913.829</ele>
        <time>2014-08-29T11:55:13Z</time>
      </trkpt>
      <trkpt lat="43.86473" lon="6.38026">
        <ele>913.137</ele>
        <time>2014-08-29T11:55:17Z</time>
      </trkpt>
      <trkpt lat="43.86454" lon="6.38037">
        <ele>911.716</ele>
        <time>2014-08-29T11:55:22Z</time>
      </trkpt>
      <trkpt lat="43.86433" lon="6.38043">
        <ele>907.709</ele>
        <time>2014-08-29T11:55:28Z</time>
      </trkpt>
      <trkpt lat="43.86424" lon="6.38042">
        <ele>907.17</ele>
        <time>2014-08-29T11:55:31Z</time>
      </trkpt>
      <trkpt lat="43.86413" lon="6.38048">
        <ele>906.407</ele>
        <time>2014-08-29T11:55:35Z</time>
      </trkpt>
      <trkpt lat="43.86399" lon="6.38055">
        <ele>904.927</ele>
        <time>2014-08-29T11:55:41Z</time>
      </trkpt>
      <trkpt lat="43.86389" lon="6.38054">
        <ele>904.787</ele>
        <time>2014-08-29T11:55:44Z</time>
      </trkpt>
      <trkpt lat="43.8637" lon="6.38045">
        <ele>906.846</ele>
        <time>2014-08-29T11:55:51Z</time>
      </trkpt>
      <trkpt lat="43.86358" lon="6.38036">
        <ele>910.151</ele>
        <time>2014-08-29T11:55:57Z</time>
      </trkpt>
      <trkpt lat="43.86347" lon="6.38034">
        <ele>914.207</ele>
        <time>2014-08-29T11:56:03Z</time>
      </trkpt>
      <trkpt lat="43.86338" lon="6.38037">
        <ele>915.002</ele>
        <time>2014-08-29T11:56:08Z</time>
      </trkpt>
      <trkpt lat="43.86325" lon="6.38047">
        <ele>916.078</ele>
        <time>2014-08-29T11:56:13Z</time>
      </trkpt>
      <trkpt lat="43.86306" lon="6.38057">
        <ele>913.004</ele>
        <time>2014-08-29T11:56:18Z</time>
      </trkpt>
      <trkpt lat="43.86298" lon="6.38061">
        <ele>912.083</ele>
        <time>2014-08-29T11:56:20Z</time>
      </trkpt>
      <trkpt lat="43.86289" lon="6.38067">
        <ele>911.492</ele>
        <time>2014-08-29T11:56:22Z</time>
      </trkpt>
      <trkpt lat="43.86263" lon="6.38076">
        <ele>908.544</ele>
        <time>2014-08-29T11:56:27Z</time>
      </trkpt>
      <trkpt lat="43.86255" lon="6.38075">
        <ele>906.68</ele>
        <time>2014-08-29T11:56:29Z</time>
      </trkpt>
      <trkpt lat="43.8624" lon="6.38077">
        <ele>904.093</ele>
        <time>2014-08-29T11:56:35Z</time>
      </trkpt>
      <trkpt lat="43.86227" lon="6.38076">
        <ele>902.009</ele>
        <time>2014-08-29T11:56:40Z</time>
      </trkpt>
      <trkpt lat="43.86226" lon="6.38078">
        <ele>898.947</ele>
        <time>2014-08-29T11:56:44Z</time>
      </trkpt>
      <trkpt lat="43.86233" lon="6.38079">
        <ele>902.56</ele>
        <time>2014-08-29T11:56:57Z</time>
      </trkpt>
      <trkpt lat="43.86238" lon="6.38085">
        <ele>900.007</ele>
        <time>2014-08-29T11:57:02Z</time>
      </trkpt>
      <trkpt lat="43.86235" lon="6.38087">
        <ele>895.592</ele>
        <time>2014-08-29T11:57:18Z</time>
      </trkpt>
      <trkpt lat="43.86245" lon="6.38093">
        <ele>896.002</ele>
        <time>2014-08-29T11:57:23Z</time>
      </trkpt>
      <trkpt lat="43.86251" lon="6.38097">
        <ele>896.28</ele>
        <time>2014-08-29T11:57:26Z</time>
      </trkpt>
      <trkpt lat="43.86268" lon="6.38113">
        <ele>895.558</ele>
        <time>2014-08-29T11:57:31Z</time>
      </trkpt>
      <trkpt lat="43.86272" lon="6.38118">
        <ele>894.666</ele>
        <time>2014-08-29T11:57:32Z</time>
      </trkpt>
      <trkpt lat="43.86299" lon="6.38154">
        <ele>892.516</ele>
        <time>2014-08-29T11:57:38Z</time>
      </trkpt>
      <trkpt lat="43.86319" lon="6.38197">
        <ele>891.424</ele>
        <time>2014-08-29T11:57:42Z</time>
      </trkpt>
      <trkpt lat="43.86346" lon="6.38232">
        <ele>896.038</ele>
        <time>2014-08-29T11:57:47Z</time>
      </trkpt>
      <trkpt lat="43.86352" lon="6.38237">
        <ele>898.012</ele>
        <time>2014-08-29T11:57:48Z</time>
      </trkpt>
      <trkpt lat="43.86379" lon="6.38259">
        <ele>899.602</ele>
        <time>2014-08-29T11:57:52Z</time>
      </trkpt>
      <trkpt lat="43.86427" lon="6.38277">
        <ele>897.645</ele>
        <time>2014-08-29T11:57:58Z</time>
      </trkpt>
      <trkpt lat="43.86435" lon="6.38279">
        <ele>896.662</ele>
        <time>2014-08-29T11:57:59Z</time>
      </trkpt>
      <trkpt lat="43.86485" lon="6.38306">
        <ele>891.927</ele>
        <time>2014-08-29T11:58:07Z</time>
      </trkpt>
      <trkpt lat="43.86517" lon="6.38326">
        <ele>889.297</ele>
        <time>2014-08-29T11:58:12Z</time>
      </trkpt>
      <trkpt lat="43.86551" lon="6.38356">
        <ele>888.228</ele>
        <time>2014-08-29T11:58:18Z</time>
      </trkpt>
      <trkpt lat="43.86584" lon="6.38401">
        <ele>883.922</ele>
        <time>2014-08-29T11:58:25Z</time>
      </trkpt>
      <trkpt lat="43.86597" lon="6.38416">
        <ele>883.415</ele>
        <time>2014-08-29T11:58:28Z</time>
      </trkpt>
      <trkpt lat="43.86626" lon="6.38444">
        <ele>882.047</ele>
        <time>2014-08-29T11:58:34Z</time>
      </trkpt>
      <trkpt lat="43.86655" lon="6.38473">
        <ele>881.107</ele>
        <time>2014-08-29T11:58:40Z</time>
      </trkpt>
      <trkpt lat="43.86665" lon="6.38479">
        <ele>880.795</ele>
        <time>2014-08-29T11:58:42Z</time>
      </trkpt>
      <trkpt lat="43.86695" lon="6.38481">
        <ele>878.994</ele>
        <time>2014-08-29T11:58:47Z</time>
      </trkpt>
      <trkpt lat="43.86728" lon="6.38475">
        <ele>878.8</ele>
        <time>2014-08-29T11:58:53Z</time>
      </trkpt>
      <trkpt lat="43.8675" lon="6.38473">
        <ele>879.661</ele>
        <time>2014-08-29T11:58:57Z</time>
      </trkpt>
      <trkpt lat="43.86768" lon="6.38465">
        <ele>877.569</ele>
        <time>2014-08-29T11:59:02Z</time>
      </trkpt>
      <trkpt lat="43.86774" lon="6.38461">
        <ele>877.571</ele>
        <time>2014-08-29T11:59:06Z</time>
      </trkpt>
      <trkpt lat="43.86775" lon="6.38463">
        <ele>880.212</ele>
        <time>2014-08-29T11:59:32Z</time>
      </trkpt>
      <trkpt lat="43.86778" lon="6.38473">
        <ele>879.473</ele>
        <time>2014-08-29T11:59:38Z</time>
      </trkpt>
      <trkpt lat="43.86781" lon="6.38484">
        <ele>878.402</ele>
        <time>2014-08-29T11:59:42Z</time>
      </trkpt>
      <trkpt lat="43.86781" lon="6.38508">
        <ele>877.19</ele>
        <time>2014-08-29T11:59:48Z</time>
      </trkpt>
      <trkpt lat="43.86781" lon="6.3853">
        <ele>877.832</ele>
        <time>2014-08-29T11:59:52Z</time>
      </trkpt>
      <trkpt lat="43.86776" lon="6.38554">
        <ele>877.944</ele>
        <time>2014-08-29T11:59:57Z</time>
      </trkpt>
      <trkpt lat="43.86767" lon="6.38565">
        <ele>880.119</ele>
        <time>2014-08-29T12:00:01Z</time>
      </trkpt>
      <trkpt lat="43.86764" lon="6.38571">
        <ele>881.797</ele>
        <time>2014-08-29T12:00:05Z</time>
      </trkpt>
      <trkpt lat="43.86763" lon="6.38572">
        <ele>881.245</ele>
        <time>2014-08-29T12:00:21Z</time>
      </trkpt>
      <trkpt lat="43.86762" lon="6.3857">
        <ele>881.377</ele>
        <time>2014-08-29T12:00:26Z</time>
      </trkpt>
      <trkpt lat="43.86757" lon="6.3857">
        <ele>878.953</ele>
        <time>2014-08-29T12:00:40Z</time>
      </trkpt>
      <trkpt lat="43.86751" lon="6.38575">
        <ele>880.669</ele>
        <time>2014-08-29T12:00:49Z</time>
      </trkpt>
      <trkpt lat="43.86747" lon="6.38581">
        <ele>879.843</ele>
        <time>2014-08-29T12:00:55Z</time>
      </trkpt>
      <trkpt lat="43.86739" lon="6.38594">
        <ele>879.925</ele>
        <time>2014-08-29T12:01:05Z</time>
      </trkpt>
      <trkpt lat="43.86732" lon="6.38604">
        <ele>880.499</ele>
        <time>2014-08-29T12:01:13Z</time>
      </trkpt>
      <trkpt lat="43.86731" lon="6.38609">
        <ele>880.05</ele>
        <time>2014-08-29T12:01:18Z</time>
      </trkpt>
      <trkpt lat="43.86725" lon="6.38615">
        <ele>877.269</ele>
        <time>2014-08-29T12:05:02Z</time>
      </trkpt>
      <trkpt lat="43.86722" lon="6.38616">
        <ele>874.214</ele>
        <time>2014-08-29T12:05:09Z</time>
      </trkpt>
      <trkpt lat="43.86718" lon="6.38618">
        <ele>878.193</ele>
        <time>2014-08-29T12:05:19Z</time>
      </trkpt>
      <trkpt lat="43.86716" lon="6.38618">
        <ele>880.288</ele>
        <time>2014-08-29T12:05:22Z</time>
      </trkpt>
      <trkpt lat="43.86713" lon="6.38618">
        <ele>881.952</ele>
        <time>2014-08-29T12:05:25Z</time>
      </trkpt>
      <trkpt lat="43.8671" lon="6.38615">
        <ele>885.774</ele>
        <time>2014-08-29T12:05:30Z</time>
      </trkpt>
      <trkpt lat="43.86701" lon="6.38614">
        <ele>892.962</ele>
        <time>2014-08-29T12:05:40Z</time>
      </trkpt>
      <trkpt lat="43.86701" lon="6.38615">
        <ele>893.25</ele>
        <time>2014-08-29T12:05:45Z</time>
      </trkpt>
      <trkpt lat="43.86698" lon="6.38616">
        <ele>893.42</ele>
        <time>2014-08-29T12:05:54Z</time>
      </trkpt>
      <trkpt lat="43.86693" lon="6.38616">
        <ele>897.533</ele>
        <time>2014-08-29T12:06:02Z</time>
      </trkpt>
      <trkpt lat="43.86685" lon="6.38617">
        <ele>902.839</ele>
        <time>2014-08-29T12:06:09Z</time>
      </trkpt>
      <trkpt lat="43.86681" lon="6.3862">
        <ele>901.452</ele>
        <time>2014-08-29T12:06:14Z</time>
      </trkpt>
      <trkpt lat="43.86673" lon="6.38624">
        <ele>907.14</ele>
        <time>2014-08-29T12:06:23Z</time>
      </trkpt>
      <trkpt lat="43.86667" lon="6.38625">
        <ele>909.623</ele>
        <time>2014-08-29T12:06:31Z</time>
      </trkpt>
      <trkpt lat="43.86664" lon="6.38625">
        <ele>911.546</ele>
        <time>2014-08-29T12:06:38Z</time>
      </trkpt>
      <trkpt lat="43.86661" lon="6.38623">
        <ele>912.147</ele>
        <time>2014-08-29T12:06:43Z</time>
      </trkpt>
      <trkpt lat="43.86657" lon="6.38621">
        <ele>911.279</ele>
        <time>2014-08-29T12:06:48Z</time>
      </trkpt>
      <trkpt lat="43.86655" lon="6.3862">
        <ele>907.875</ele>
        <time>2014-08-29T12:06:53Z</time>
      </trkpt>
      <trkpt lat="43.8665" lon="6.38619">
        <ele>909.245</ele>
        <time>2014-08-29T12:07:03Z</time>
      </trkpt>
      <trkpt lat="43.86642" lon="6.38616">
        <ele>912.916</ele>
        <time>2014-08-29T12:07:11Z</time>
      </trkpt>
      <trkpt lat="43.86638" lon="6.38616">
        <ele>911.089</ele>
        <time>2014-08-29T12:07:18Z</time>
      </trkpt>
      <trkpt lat="43.86631" lon="6.38615">
        <ele>913.594</ele>
        <time>2014-08-29T12:07:26Z</time>
      </trkpt>
      <trkpt lat="43.86628" lon="6.38617">
        <ele>916.154</ele>
        <time>2014-08-29T12:07:32Z</time>
      </trkpt>
      <trkpt lat="43.86625" lon="6.38619">
        <ele>915.031</ele>
        <time>2014-08-29T12:07:35Z</time>
      </trkpt>
      <trkpt lat="43.86616" lon="6.38617">
        <ele>918.172</ele>
        <time>2014-08-29T12:07:43Z</time>
      </trkpt>
      <trkpt lat="43.86608" lon="6.38614">
        <ele>923.418</ele>
        <time>2014-08-29T12:07:51Z</time>
      </trkpt>
      <trkpt lat="43.86604" lon="6.38618">
        <ele>922.093</ele>
        <time>2014-08-29T12:07:59Z</time>
      </trkpt>
      <trkpt lat="43.86595" lon="6.38624">
        <ele>921.413</ele>
        <time>2014-08-29T12:08:04Z</time>
      </trkpt>
      <trkpt lat="43.86584" lon="6.38634">
        <ele>921.37</ele>
        <time>2014-08-29T12:08:11Z</time>
      </trkpt>
      <trkpt lat="43.8657" lon="6.38646">
        <ele>922.785</ele>
        <time>2014-08-29T12:08:19Z</time>
      </trkpt>
      <trkpt lat="43.86554" lon="6.38659">
        <ele>928.323</ele>
        <time>2014-08-29T12:08:28Z</time>
      </trkpt>
      <trkpt lat="43.86542" lon="6.38679">
        <ele>926.178</ele>
        <time>2014-08-29T12:08:37Z</time>
      </trkpt>
      <trkpt lat="43.86534" lon="6.38698">
        <ele>924.704</ele>
        <time>2014-08-29T12:08:45Z</time>
      </trkpt>
      <trkpt lat="43.86525" lon="6.38716">
        <ele>925.237</ele>
        <time>2014-08-29T12:08:53Z</time>
      </trkpt>
      <trkpt lat="43.86515" lon="6.3873">
        <ele>923.042</ele>
        <time>2014-08-29T12:09:00Z</time>
      </trkpt>
      <trkpt lat="43.86503" lon="6.38746">
        <ele>924.637</ele>
        <time>2014-08-29T12:09:09Z</time>
      </trkpt>
      <trkpt lat="43.86495" lon="6.38756">
        <ele>928.77</ele>
        <time>2014-08-29T12:09:16Z</time>
      </trkpt>
      <trkpt lat="43.86486" lon="6.38767">
        <ele>932.497</ele>
        <time>2014-08-29T12:09:24Z</time>
      </trkpt>
      <trkpt lat="43.86477" lon="6.38781">
        <ele>932.474</ele>
        <time>2014-08-29T12:09:31Z</time>
      </trkpt>
      <trkpt lat="43.86468" lon="6.38796">
        <ele>933.813</ele>
        <time>2014-08-29T12:09:38Z</time>
      </trkpt>
      <trkpt lat="43.86463" lon="6.38807">
        <ele>934.511</ele>
        <time>2014-08-29T12:09:43Z</time>
      </trkpt>
      <trkpt lat="43.86457" lon="6.3882">
        <ele>936.957</ele>
        <time>2014-08-29T12:09:49Z</time>
      </trkpt>
      <trkpt lat="43.86451" lon="6.38837">
        <ele>938.866</ele>
        <time>2014-08-29T12:09:56Z</time>
      </trkpt>
      <trkpt lat="43.86443" lon="6.38859">
        <ele>938.343</ele>
        <time>2014-08-29T12:10:04Z</time>
      </trkpt>
      <trkpt lat="43.86434" lon="6.38874">
        <ele>936.678</ele>
        <time>2014-08-29T12:10:11Z</time>
      </trkpt>
      <trkpt lat="43.86426" lon="6.3889">
        <ele>937.502</ele>
        <time>2014-08-29T12:10:19Z</time>
      </trkpt>
      <trkpt lat="43.8642" lon="6.38902">
        <ele>943.536</ele>
        <time>2014-08-29T12:10:26Z</time>
      </trkpt>
      <trkpt lat="43.86417" lon="6.38916">
        <ele>946.287</ele>
        <time>2014-08-29T12:10:32Z</time>
      </trkpt>
      <trkpt lat="43.86415" lon="6.38929">
        <ele>945.746</ele>
        <time>2014-08-29T12:10:37Z</time>
      </trkpt>
      <trkpt lat="43.86406" lon="6.38944">
        <ele>945.93</ele>
        <time>2014-08-29T12:10:44Z</time>
      </trkpt>
      <trkpt lat="43.86402" lon="6.38956">
        <ele>945.139</ele>
        <time>2014-08-29T12:10:49Z</time>
      </trkpt>
      <trkpt lat="43.86402" lon="6.38961">
        <ele>945.757</ele>
        <time>2014-08-29T12:10:56Z</time>
      </trkpt>
      <trkpt lat="43.86404" lon="6.38964">
        <ele>941.858</ele>
        <time>2014-08-29T12:11:05Z</time>
      </trkpt>
      <trkpt lat="43.86403" lon="6.38965">
        <ele>940.379</ele>
        <time>2014-08-29T12:11:06Z</time>
      </trkpt>
      <trkpt lat="43.86402" lon="6.38977">
        <ele>936.344</ele>
        <time>2014-08-29T12:11:11Z</time>
      </trkpt>
      <trkpt lat="43.864" lon="6.38982">
        <ele>936.974</ele>
        <time>2014-08-29T12:11:13Z</time>
      </trkpt>
      <trkpt lat="43.86399" lon="6.38992">
        <ele>935.209</ele>
        <time>2014-08-29T12:11:17Z</time>
      </trkpt>
      <trkpt lat="43.86398" lon="6.38997">
        <ele>936.686</ele>
        <time>2014-08-29T12:11:20Z</time>
      </trkpt>
      <trkpt lat="43.86393" lon="6.39011">
        <ele>944.809</ele>
        <time>2014-08-29T12:11:28Z</time>
      </trkpt>
      <trkpt lat="43.8639" lon="6.39018">
        <ele>948.609</ele>
        <time>2014-08-29T12:11:31Z</time>
      </trkpt>
      <trkpt lat="43.86389" lon="6.39031">
        <ele>948.302</ele>
        <time>2014-08-29T12:11:37Z</time>
      </trkpt>
      <trkpt lat="43.86389" lon="6.39036">
        <ele>947.114</ele>
        <time>2014-08-29T12:11:40Z</time>
      </trkpt>
      <trkpt lat="43.86387" lon="6.39041">
        <ele>947.35</ele>
        <time>2014-08-29T12:11:47Z</time>
      </trkpt>
      <trkpt lat="43.86384" lon="6.39039">
        <ele>952.215</ele>
        <time>2014-08-29T12:11:52Z</time>
      </trkpt>
      <trkpt lat="43.86383" lon="6.39036">
        <ele>952.215</ele>
        <time>2014-08-29T12:11:54Z</time>
      </trkpt>
      <trkpt lat="43.86379" lon="6.39029">
        <ele>948.057</ele>
        <time>2014-08-29T12:12:02Z</time>
      </trkpt>
      <trkpt lat="43.86378" lon="6.39026">
        <ele>944.31</ele>
        <time>2014-08-29T12:12:10Z</time>
      </trkpt>
      <trkpt lat="43.86368" lon="6.39016">
        <ele>951</ele>
        <time>2014-08-29T12:12:31Z</time>
      </trkpt>
      <trkpt lat="43.86367" lon="6.39017">
        <ele>950.889</ele>
        <time>2014-08-29T12:12:32Z</time>
      </trkpt>
      <trkpt lat="43.8636" lon="6.39019">
        <ele>953.76</ele>
        <time>2014-08-29T12:12:39Z</time>
      </trkpt>
      <trkpt lat="43.86358" lon="6.3902">
        <ele>951.27</ele>
        <time>2014-08-29T12:12:44Z</time>
      </trkpt>
      <trkpt lat="43.86354" lon="6.39018">
        <ele>953.703</ele>
        <time>2014-08-29T12:12:51Z</time>
      </trkpt>
      <trkpt lat="43.8635" lon="6.39019">
        <ele>955.623</ele>
        <time>2014-08-29T12:12:57Z</time>
      </trkpt>
      <trkpt lat="43.86347" lon="6.39025">
        <ele>957.036</ele>
        <time>2014-08-29T12:13:04Z</time>
      </trkpt>
      <trkpt lat="43.86347" lon="6.39027">
        <ele>958.815</ele>
        <time>2014-08-29T12:13:06Z</time>
      </trkpt>
      <trkpt lat="43.86345" lon="6.39034">
        <ele>958.701</ele>
        <time>2014-08-29T12:13:14Z</time>
      </trkpt>
      <trkpt lat="43.86344" lon="6.39035">
        <ele>959.409</ele>
        <time>2014-08-29T12:13:17Z</time>
      </trkpt>
      <trkpt lat="43.86342" lon="6.39038">
        <ele>959.42</ele>
        <time>2014-08-29T12:13:20Z</time>
      </trkpt>
      <trkpt lat="43.86338" lon="6.39051">
        <ele>967.453</ele>
        <time>2014-08-29T12:13:27Z</time>
      </trkpt>
      <trkpt lat="43.86336" lon="6.39066">
        <ele>972.923</ele>
        <time>2014-08-29T12:13:34Z</time>
      </trkpt>
      <trkpt lat="43.86337" lon="6.39081">
        <ele>969.698</ele>
        <time>2014-08-29T12:13:40Z</time>
      </trkpt>
      <trkpt lat="43.86336" lon="6.39087">
        <ele>970.47</ele>
        <time>2014-08-29T12:13:44Z</time>
      </trkpt>
      <trkpt lat="43.86334" lon="6.39104">
        <ele>971.092</ele>
        <time>2014-08-29T12:13:52Z</time>
      </trkpt>
      <trkpt lat="43.86333" lon="6.39121">
        <ele>974.538</ele>
        <time>2014-08-29T12:14:00Z</time>
      </trkpt>
      <trkpt lat="43.86337" lon="6.39139">
        <ele>972.984</ele>
        <time>2014-08-29T12:14:07Z</time>
      </trkpt>
      <trkpt lat="43.86333" lon="6.39155">
        <ele>973.772</ele>
        <time>2014-08-29T12:14:15Z</time>
      </trkpt>
      <trkpt lat="43.86332" lon="6.39156">
        <ele>974.852</ele>
        <time>2014-08-29T12:14:16Z</time>
      </trkpt>
      <trkpt lat="43.86332" lon="6.39164">
        <ele>973.866</ele>
        <time>2014-08-29T12:14:23Z</time>
      </trkpt>
      <trkpt lat="43.86337" lon="6.39175">
        <ele>965.765</ele>
        <time>2014-08-29T12:15:24Z</time>
      </trkpt>
      <trkpt lat="43.86334" lon="6.39178">
        <ele>969.356</ele>
        <time>2014-08-29T12:15:29Z</time>
      </trkpt>
      <trkpt lat="43.86333" lon="6.39178">
        <ele>969.116</ele>
        <time>2014-08-29T12:15:30Z</time>
      </trkpt>
      <trkpt lat="43.8633" lon="6.39183">
        <ele>973.124</ele>
        <time>2014-08-29T12:15:36Z</time>
      </trkpt>
      <trkpt lat="43.8633" lon="6.3919">
        <ele>971.949</ele>
        <time>2014-08-29T12:15:41Z</time>
      </trkpt>
      <trkpt lat="43.86326" lon="6.39195">
        <ele>975.623</ele>
        <time>2014-08-29T12:15:49Z</time>
      </trkpt>
      <trkpt lat="43.86326" lon="6.39202">
        <ele>978.655</ele>
        <time>2014-08-29T12:15:56Z</time>
      </trkpt>
      <trkpt lat="43.86324" lon="6.39208">
        <ele>982.237</ele>
        <time>2014-08-29T12:16:02Z</time>
      </trkpt>
      <trkpt lat="43.86319" lon="6.39213">
        <ele>984.216</ele>
        <time>2014-08-29T12:16:09Z</time>
      </trkpt>
      <trkpt lat="43.86318" lon="6.3922">
        <ele>980.261</ele>
        <time>2014-08-29T12:16:14Z</time>
      </trkpt>
      <trkpt lat="43.86316" lon="6.39227">
        <ele>975.255</ele>
        <time>2014-08-29T12:16:22Z</time>
      </trkpt>
      <trkpt lat="43.86318" lon="6.39232">
        <ele>977.997</ele>
        <time>2014-08-29T12:16:29Z</time>
      </trkpt>
      <trkpt lat="43.8632" lon="6.39236">
        <ele>983.658</ele>
        <time>2014-08-29T12:16:34Z</time>
      </trkpt>
      <trkpt lat="43.86317" lon="6.39243">
        <ele>986.808</ele>
        <time>2014-08-29T12:16:40Z</time>
      </trkpt>
      <trkpt lat="43.86311" lon="6.39244">
        <ele>990.434</ele>
        <time>2014-08-29T12:16:45Z</time>
      </trkpt>
      <trkpt lat="43.86309" lon="6.39248">
        <ele>991.18</ele>
        <time>2014-08-29T12:16:48Z</time>
      </trkpt>
      <trkpt lat="43.86307" lon="6.39252">
        <ele>992.838</ele>
        <time>2014-08-29T12:16:52Z</time>
      </trkpt>
      <trkpt lat="43.86304" lon="6.39259">
        <ele>995.269</ele>
        <time>2014-08-29T12:16:59Z</time>
      </trkpt>
      <trkpt lat="43.86297" lon="6.39265">
        <ele>997.272</ele>
        <time>2014-08-29T12:17:05Z</time>
      </trkpt>
      <trkpt lat="43.8629" lon="6.39267">
        <ele>1002.17</ele>
        <time>2014-08-29T12:17:11Z</time>
      </trkpt>
      <trkpt lat="43.86288" lon="6.39272">
        <ele>1001.774</ele>
        <time>2014-08-29T12:17:15Z</time>
      </trkpt>
      <trkpt lat="43.8629" lon="6.39283">
        <ele>998.736</ele>
        <time>2014-08-29T12:17:23Z</time>
      </trkpt>
      <trkpt lat="43.86289" lon="6.39291">
        <ele>997.104</ele>
        <time>2014-08-29T12:17:29Z</time>
      </trkpt>
      <trkpt lat="43.8629" lon="6.39301">
        <ele>996.561</ele>
        <time>2014-08-29T12:17:36Z</time>
      </trkpt>
      <trkpt lat="43.86288" lon="6.39304">
        <ele>996.372</ele>
        <time>2014-08-29T12:17:39Z</time>
      </trkpt>
      <trkpt lat="43.86286" lon="6.39306">
        <ele>998.451</ele>
        <time>2014-08-29T12:17:42Z</time>
      </trkpt>
      <trkpt lat="43.86278" lon="6.39311">
        <ele>998.054</ele>
        <time>2014-08-29T12:17:49Z</time>
      </trkpt>
      <trkpt lat="43.86273" lon="6.39317">
        <ele>1000.863</ele>
        <time>2014-08-29T12:17:56Z</time>
      </trkpt>
      <trkpt lat="43.86274" lon="6.39322">
        <ele>1000.314</ele>
        <time>2014-08-29T12:18:01Z</time>
      </trkpt>
      <trkpt lat="43.86275" lon="6.39331">
        <ele>999.714</ele>
        <time>2014-08-29T12:18:08Z</time>
      </trkpt>
      <trkpt lat="43.86276" lon="6.39334">
        <ele>998.92</ele>
        <time>2014-08-29T12:18:12Z</time>
      </trkpt>
      <trkpt lat="43.86272" lon="6.3934">
        <ele>1000.763</ele>
        <time>2014-08-29T12:18:17Z</time>
      </trkpt>
      <trkpt lat="43.86267" lon="6.39342">
        <ele>1004.103</ele>
        <time>2014-08-29T12:18:21Z</time>
      </trkpt>
      <trkpt lat="43.86265" lon="6.39347">
        <ele>1005.996</ele>
        <time>2014-08-29T12:18:26Z</time>
      </trkpt>
      <trkpt lat="43.86264" lon="6.39347">
        <ele>1006.482</ele>
        <time>2014-08-29T12:18:27Z</time>
      </trkpt>
      <trkpt lat="43.86258" lon="6.39353">
        <ele>1007.34</ele>
        <time>2014-08-29T12:18:33Z</time>
      </trkpt>
      <trkpt lat="43.86257" lon="6.39354">
        <ele>1008.013</ele>
        <time>2014-08-29T12:18:34Z</time>
      </trkpt>
      <trkpt lat="43.86255" lon="6.39359">
        <ele>1008.507</ele>
        <time>2014-08-29T12:18:40Z</time>
      </trkpt>
      <trkpt lat="43.86255" lon="6.39368">
        <ele>1005.796</ele>
        <time>2014-08-29T12:18:46Z</time>
      </trkpt>
      <trkpt lat="43.86255" lon="6.3937">
        <ele>1005.785</ele>
        <time>2014-08-29T12:18:47Z</time>
      </trkpt>
      <trkpt lat="43.86251" lon="6.39382">
        <ele>1001.135</ele>
        <time>2014-08-29T12:18:56Z</time>
      </trkpt>
      <trkpt lat="43.86247" lon="6.39388">
        <ele>1000.234</ele>
        <time>2014-08-29T12:19:02Z</time>
      </trkpt>
      <trkpt lat="43.86246" lon="6.39391">
        <ele>1000.723</ele>
        <time>2014-08-29T12:19:07Z</time>
      </trkpt>
      <trkpt lat="43.8624" lon="6.39396">
        <ele>1001.175</ele>
        <time>2014-08-29T12:19:14Z</time>
      </trkpt>
      <trkpt lat="43.86238" lon="6.39398">
        <ele>1001.365</ele>
        <time>2014-08-29T12:19:16Z</time>
      </trkpt>
      <trkpt lat="43.86236" lon="6.39402">
        <ele>1002.284</ele>
        <time>2014-08-29T12:19:22Z</time>
      </trkpt>
      <trkpt lat="43.86235" lon="6.39405">
        <ele>1003.372</ele>
        <time>2014-08-29T12:19:27Z</time>
      </trkpt>
      <trkpt lat="43.86233" lon="6.39404">
        <ele>1009.078</ele>
        <time>2014-08-29T12:19:34Z</time>
      </trkpt>
      <trkpt lat="43.86226" lon="6.394">
        <ele>1015.789</ele>
        <time>2014-08-29T12:19:46Z</time>
      </trkpt>
      <trkpt lat="43.86219" lon="6.39403">
        <ele>1016.128</ele>
        <time>2014-08-29T12:19:52Z</time>
      </trkpt>
      <trkpt lat="43.86218" lon="6.39405">
        <ele>1016.427</ele>
        <time>2014-08-29T12:19:56Z</time>
      </trkpt>
      <trkpt lat="43.86215" lon="6.39411">
        <ele>1013.834</ele>
        <time>2014-08-29T12:20:03Z</time>
      </trkpt>
      <trkpt lat="43.86214" lon="6.39416">
        <ele>1014.115</ele>
        <time>2014-08-29T12:20:09Z</time>
      </trkpt>
      <trkpt lat="43.86208" lon="6.39419">
        <ele>1014.139</ele>
        <time>2014-08-29T12:20:14Z</time>
      </trkpt>
      <trkpt lat="43.86202" lon="6.39419">
        <ele>1017.233</ele>
        <time>2014-08-29T12:20:19Z</time>
      </trkpt>
      <trkpt lat="43.86197" lon="6.39423">
        <ele>1015.88</ele>
        <time>2014-08-29T12:20:25Z</time>
      </trkpt>
      <trkpt lat="43.86195" lon="6.39428">
        <ele>1016.555</ele>
        <time>2014-08-29T12:20:30Z</time>
      </trkpt>
      <trkpt lat="43.86195" lon="6.3943">
        <ele>1017.48</ele>
        <time>2014-08-29T12:20:32Z</time>
      </trkpt>
      <trkpt lat="43.8619" lon="6.39434">
        <ele>1016.88</ele>
        <time>2014-08-29T12:20:39Z</time>
      </trkpt>
      <trkpt lat="43.86183" lon="6.39435">
        <ele>1019.844</ele>
        <time>2014-08-29T12:20:46Z</time>
      </trkpt>
      <trkpt lat="43.86177" lon="6.39436">
        <ele>1018.107</ele>
        <time>2014-08-29T12:20:55Z</time>
      </trkpt>
      <trkpt lat="43.86171" lon="6.39441">
        <ele>1019.01</ele>
        <time>2014-08-29T12:21:03Z</time>
      </trkpt>
      <trkpt lat="43.86161" lon="6.39447">
        <ele>1020.395</ele>
        <time>2014-08-29T12:21:10Z</time>
      </trkpt>
      <trkpt lat="43.86152" lon="6.39454">
        <ele>1019.131</ele>
        <time>2014-08-29T12:21:16Z</time>
      </trkpt>
      <trkpt lat="43.86143" lon="6.39459">
        <ele>1022.585</ele>
        <time>2014-08-29T12:21:21Z</time>
      </trkpt>
      <trkpt lat="43.8614" lon="6.39469">
        <ele>1025.076</ele>
        <time>2014-08-29T12:21:27Z</time>
      </trkpt>
      <trkpt lat="43.86138" lon="6.39477">
        <ele>1027.464</ele>
        <time>2014-08-29T12:21:31Z</time>
      </trkpt>
      <trkpt lat="43.86134" lon="6.39485">
        <ele>1030.169</ele>
        <time>2014-08-29T12:21:35Z</time>
      </trkpt>
      <trkpt lat="43.86133" lon="6.39501">
        <ele>1032.842</ele>
        <time>2014-08-29T12:21:43Z</time>
      </trkpt>
      <trkpt lat="43.86128" lon="6.39512">
        <ele>1033.762</ele>
        <time>2014-08-29T12:21:50Z</time>
      </trkpt>
      <trkpt lat="43.86127" lon="6.39515">
        <ele>1033.315</ele>
        <time>2014-08-29T12:21:51Z</time>
      </trkpt>
      <trkpt lat="43.86126" lon="6.39528">
        <ele>1035.47</ele>
        <time>2014-08-29T12:21:57Z</time>
      </trkpt>
      <trkpt lat="43.86122" lon="6.39545">
        <ele>1037.926</ele>
        <time>2014-08-29T12:22:05Z</time>
      </trkpt>
      <trkpt lat="43.86117" lon="6.39553">
        <ele>1035.684</ele>
        <time>2014-08-29T12:22:10Z</time>
      </trkpt>
      <trkpt lat="43.86117" lon="6.39554">
        <ele>1032.121</ele>
        <time>2014-08-29T12:22:18Z</time>
      </trkpt>
      <trkpt lat="43.86116" lon="6.39557">
        <ele>1029.755</ele>
        <time>2014-08-29T12:22:31Z</time>
      </trkpt>
      <trkpt lat="43.86116" lon="6.39558">
        <ele>1027.46</ele>
        <time>2014-08-29T12:22:39Z</time>
      </trkpt>
      <trkpt lat="43.86118" lon="6.39567">
        <ele>1014.686</ele>
        <time>2014-08-29T12:23:18Z</time>
      </trkpt>
      <trkpt lat="43.86119" lon="6.39573">
        <ele>1020.269</ele>
        <time>2014-08-29T12:23:24Z</time>
      </trkpt>
      <trkpt lat="43.86114" lon="6.39571">
        <ele>1027.796</ele>
        <time>2014-08-29T12:23:29Z</time>
      </trkpt>
      <trkpt lat="43.86109" lon="6.39574">
        <ele>1029.756</ele>
        <time>2014-08-29T12:23:33Z</time>
      </trkpt>
      <trkpt lat="43.86106" lon="6.39577">
        <ele>1030.754</ele>
        <time>2014-08-29T12:23:35Z</time>
      </trkpt>
      <trkpt lat="43.86105" lon="6.39583">
        <ele>1031.061</ele>
        <time>2014-08-29T12:23:39Z</time>
      </trkpt>
      <trkpt lat="43.86097" lon="6.39597">
        <ele>1030.536</ele>
        <time>2014-08-29T12:23:46Z</time>
      </trkpt>
      <trkpt lat="43.86089" lon="6.39611">
        <ele>1030.939</ele>
        <time>2014-08-29T12:23:52Z</time>
      </trkpt>
      <trkpt lat="43.86084" lon="6.39619">
        <ele>1030.756</ele>
        <time>2014-08-29T12:23:56Z</time>
      </trkpt>
      <trkpt lat="43.86073" lon="6.39629">
        <ele>1028.905</ele>
        <time>2014-08-29T12:24:01Z</time>
      </trkpt>
      <trkpt lat="43.86064" lon="6.39639">
        <ele>1028.707</ele>
        <time>2014-08-29T12:24:06Z</time>
      </trkpt>
      <trkpt lat="43.86067" lon="6.39644">
        <ele>1029.573</ele>
        <time>2014-08-29T12:24:09Z</time>
      </trkpt>
      <trkpt lat="43.86063" lon="6.39646">
        <ele>1028.292</ele>
        <time>2014-08-29T12:24:16Z</time>
      </trkpt>
      <trkpt lat="43.86063" lon="6.39652">
        <ele>1031.636</ele>
        <time>2014-08-29T12:24:22Z</time>
      </trkpt>
      <trkpt lat="43.8606" lon="6.39653">
        <ele>1035.083</ele>
        <time>2014-08-29T12:24:25Z</time>
      </trkpt>
      <trkpt lat="43.86054" lon="6.39657">
        <ele>1037.492</ele>
        <time>2014-08-29T12:24:30Z</time>
      </trkpt>
      <trkpt lat="43.86049" lon="6.39662">
        <ele>1041.808</ele>
        <time>2014-08-29T12:24:35Z</time>
      </trkpt>
      <trkpt lat="43.86047" lon="6.39665">
        <ele>1046.175</ele>
        <time>2014-08-29T12:24:39Z</time>
      </trkpt>
      <trkpt lat="43.8605" lon="6.39676">
        <ele>1043.67</ele>
        <time>2014-08-29T12:24:45Z</time>
      </trkpt>
      <trkpt lat="43.86051" lon="6.39681">
        <ele>1041.523</ele>
        <time>2014-08-29T12:24:48Z</time>
      </trkpt>
      <trkpt lat="43.86054" lon="6.39691">
        <ele>1039.388</ele>
        <time>2014-08-29T12:24:54Z</time>
      </trkpt>
      <trkpt lat="43.86058" lon="6.39695">
        <ele>1035.059</ele>
        <time>2014-08-29T12:25:01Z</time>
      </trkpt>
      <trkpt lat="43.86057" lon="6.39696">
        <ele>1035.3</ele>
        <time>2014-08-29T12:25:02Z</time>
      </trkpt>
      <trkpt lat="43.86057" lon="6.39706">
        <ele>1037.82</ele>
        <time>2014-08-29T12:25:06Z</time>
      </trkpt>
      <trkpt lat="43.86047" lon="6.39719">
        <ele>1042.345</ele>
        <time>2014-08-29T12:25:13Z</time>
      </trkpt>
      <trkpt lat="43.86043" lon="6.39732">
        <ele>1042.317</ele>
        <time>2014-08-29T12:25:19Z</time>
      </trkpt>
      <trkpt lat="43.86037" lon="6.39737">
        <ele>1041.444</ele>
        <time>2014-08-29T12:25:23Z</time>
      </trkpt>
      <trkpt lat="43.86028" lon="6.39737">
        <ele>1040.432</ele>
        <time>2014-08-29T12:25:27Z</time>
      </trkpt>
      <trkpt lat="43.86023" lon="6.39736">
        <ele>1042.368</ele>
        <time>2014-08-29T12:25:32Z</time>
      </trkpt>
      <trkpt lat="43.86021" lon="6.39741">
        <ele>1041.613</ele>
        <time>2014-08-29T12:25:38Z</time>
      </trkpt>
      <trkpt lat="43.8602" lon="6.3974">
        <ele>1040.339</ele>
        <time>2014-08-29T12:25:42Z</time>
      </trkpt>
      <trkpt lat="43.86014" lon="6.39739">
        <ele>1040.516</ele>
        <time>2014-08-29T12:25:49Z</time>
      </trkpt>
      <trkpt lat="43.86008" lon="6.39737">
        <ele>1041.527</ele>
        <time>2014-08-29T12:25:54Z</time>
      </trkpt>
      <trkpt lat="43.86004" lon="6.39738">
        <ele>1041.667</ele>
        <time>2014-08-29T12:25:59Z</time>
      </trkpt>
      <trkpt lat="43.85997" lon="6.39735">
        <ele>1043.675</ele>
        <time>2014-08-29T12:26:04Z</time>
      </trkpt>
      <trkpt lat="43.85993" lon="6.39735">
        <ele>1045.108</ele>
        <time>2014-08-29T12:26:11Z</time>
      </trkpt>
      <trkpt lat="43.85988" lon="6.39735">
        <ele>1045.947</ele>
        <time>2014-08-29T12:26:16Z</time>
      </trkpt>
      <trkpt lat="43.85986" lon="6.39735">
        <ele>1045.337</ele>
        <time>2014-08-29T12:26:19Z</time>
      </trkpt>
      <trkpt lat="43.8598" lon="6.39734">
        <ele>1045.188</ele>
        <time>2014-08-29T12:26:26Z</time>
      </trkpt>
      <trkpt lat="43.85975" lon="6.39735">
        <ele>1045.92</ele>
        <time>2014-08-29T12:26:33Z</time>
      </trkpt>
      <trkpt lat="43.85968" lon="6.39733">
        <ele>1047.38</ele>
        <time>2014-08-29T12:26:39Z</time>
      </trkpt>
      <trkpt lat="43.85966" lon="6.39734">
        <ele>1049.133</ele>
        <time>2014-08-29T12:26:46Z</time>
      </trkpt>
      <trkpt lat="43.85965" lon="6.39734">
        <ele>1050.394</ele>
        <time>2014-08-29T12:26:47Z</time>
      </trkpt>
      <trkpt lat="43.8596" lon="6.39729">
        <ele>1049.887</ele>
        <time>2014-08-29T12:26:54Z</time>
      </trkpt>
      <trkpt lat="43.8595" lon="6.39723">
        <ele>1048.716</ele>
        <time>2014-08-29T12:27:06Z</time>
      </trkpt>
      <trkpt lat="43.85944" lon="6.39722">
        <ele>1050.58</ele>
        <time>2014-08-29T12:27:12Z</time>
      </trkpt>
      <trkpt lat="43.85939" lon="6.39724">
        <ele>1053.56</ele>
        <time>2014-08-29T12:27:19Z</time>
      </trkpt>
      <trkpt lat="43.8593" lon="6.39726">
        <ele>1052.228</ele>
        <time>2014-08-29T12:27:26Z</time>
      </trkpt>
      <trkpt lat="43.85923" lon="6.39729">
        <ele>1053.53</ele>
        <time>2014-08-29T12:27:34Z</time>
      </trkpt>
      <trkpt lat="43.8592" lon="6.39731">
        <ele>1055.139</ele>
        <time>2014-08-29T12:27:40Z</time>
      </trkpt>
      <trkpt lat="43.85916" lon="6.3973">
        <ele>1057.191</ele>
        <time>2014-08-29T12:27:44Z</time>
      </trkpt>
      <trkpt lat="43.85911" lon="6.39728">
        <ele>1059.912</ele>
        <time>2014-08-29T12:27:50Z</time>
      </trkpt>
      <trkpt lat="43.85903" lon="6.39726">
        <ele>1060.829</ele>
        <time>2014-08-29T12:27:56Z</time>
      </trkpt>
      <trkpt lat="43.85897" lon="6.3973">
        <ele>1062.537</ele>
        <time>2014-08-29T12:28:05Z</time>
      </trkpt>
      <trkpt lat="43.85893" lon="6.39727">
        <ele>1065.261</ele>
        <time>2014-08-29T12:28:12Z</time>
      </trkpt>
      <trkpt lat="43.8588" lon="6.39726">
        <ele>1060.615</ele>
        <time>2014-08-29T12:28:29Z</time>
      </trkpt>
      <trkpt lat="43.85869" lon="6.3973">
        <ele>1058.023</ele>
        <time>2014-08-29T12:28:38Z</time>
      </trkpt>
      <trkpt lat="43.85866" lon="6.39732">
        <ele>1058.586</ele>
        <time>2014-08-29T12:28:42Z</time>
      </trkpt>
      <trkpt lat="43.85862" lon="6.39735">
        <ele>1063.152</ele>
        <time>2014-08-29T12:28:49Z</time>
      </trkpt>
      <trkpt lat="43.85859" lon="6.39739">
        <ele>1067.113</ele>
        <time>2014-08-29T12:28:54Z</time>
      </trkpt>
      <trkpt lat="43.85854" lon="6.39741">
        <ele>1070.281</ele>
        <time>2014-08-29T12:29:00Z</time>
      </trkpt>
      <trkpt lat="43.85854" lon="6.39743">
        <ele>1070.476</ele>
        <time>2014-08-29T12:29:10Z</time>
      </trkpt>
      <trkpt lat="43.85861" lon="6.39748">
        <ele>1069.646</ele>
        <time>2014-08-29T12:29:21Z</time>
      </trkpt>
      <trkpt lat="43.85857" lon="6.39756">
        <ele>1068.985</ele>
        <time>2014-08-29T12:29:24Z</time>
      </trkpt>
      <trkpt lat="43.85841" lon="6.39765">
        <ele>1066.482</ele>
        <time>2014-08-29T12:29:30Z</time>
      </trkpt>
      <trkpt lat="43.85828" lon="6.39776">
        <ele>1067.316</ele>
        <time>2014-08-29T12:29:37Z</time>
      </trkpt>
      <trkpt lat="43.85826" lon="6.39779">
        <ele>1067.155</ele>
        <time>2014-08-29T12:29:38Z</time>
      </trkpt>
      <trkpt lat="43.85822" lon="6.39783">
        <ele>1068.067</ele>
        <time>2014-08-29T12:29:40Z</time>
      </trkpt>
      <trkpt lat="43.85808" lon="6.39788">
        <ele>1062.206</ele>
        <time>2014-08-29T12:29:45Z</time>
      </trkpt>
      <trkpt lat="43.85801" lon="6.39789">
        <ele>1060.826</ele>
        <time>2014-08-29T12:29:47Z</time>
      </trkpt>
      <trkpt lat="43.8579" lon="6.39794">
        <ele>1061.713</ele>
        <time>2014-08-29T12:29:52Z</time>
      </trkpt>
      <trkpt lat="43.85786" lon="6.39794">
        <ele>1065.698</ele>
        <time>2014-08-29T12:29:56Z</time>
      </trkpt>
      <trkpt lat="43.85779" lon="6.39794">
        <ele>1067.149</ele>
        <time>2014-08-29T12:30:01Z</time>
      </trkpt>
      <trkpt lat="43.85768" lon="6.39805">
        <ele>1073.591</ele>
        <time>2014-08-29T12:30:26Z</time>
      </trkpt>
      <trkpt lat="43.85769" lon="6.39809">
        <ele>1065.037</ele>
        <time>2014-08-29T12:30:33Z</time>
      </trkpt>
      <trkpt lat="43.85765" lon="6.39808">
        <ele>1065.12</ele>
        <time>2014-08-29T12:30:36Z</time>
      </trkpt>
      <trkpt lat="43.85762" lon="6.39813">
        <ele>1064.813</ele>
        <time>2014-08-29T12:30:43Z</time>
      </trkpt>
      <trkpt lat="43.85749" lon="6.39816">
        <ele>1071.178</ele>
        <time>2014-08-29T12:30:50Z</time>
      </trkpt>
      <trkpt lat="43.85751" lon="6.39821">
        <ele>1072.711</ele>
        <time>2014-08-29T12:30:57Z</time>
      </trkpt>
      <trkpt lat="43.85745" lon="6.39833">
        <ele>1069.904</ele>
        <time>2014-08-29T12:31:03Z</time>
      </trkpt>
      <trkpt lat="43.85737" lon="6.39837">
        <ele>1076.555</ele>
        <time>2014-08-29T12:31:09Z</time>
      </trkpt>
      <trkpt lat="43.85738" lon="6.39841">
        <ele>1080.477</ele>
        <time>2014-08-29T12:31:13Z</time>
      </trkpt>
      <trkpt lat="43.85738" lon="6.39844">
        <ele>1083.592</ele>
        <time>2014-08-29T12:31:15Z</time>
      </trkpt>
      <trkpt lat="43.85726" lon="6.39841">
        <ele>1086.563</ele>
        <time>2014-08-29T12:31:20Z</time>
      </trkpt>
      <trkpt lat="43.85722" lon="6.3984">
        <ele>1090.292</ele>
        <time>2014-08-29T12:31:25Z</time>
      </trkpt>
      <trkpt lat="43.85716" lon="6.39842">
        <ele>1093.757</ele>
        <time>2014-08-29T12:31:37Z</time>
      </trkpt>
      <trkpt lat="43.85713" lon="6.39844">
        <ele>1094.894</ele>
        <time>2014-08-29T12:31:42Z</time>
      </trkpt>
      <trkpt lat="43.8571" lon="6.39847">
        <ele>1097.244</ele>
        <time>2014-08-29T12:31:47Z</time>
      </trkpt>
      <trkpt lat="43.85707" lon="6.39845">
        <ele>1101.058</ele>
        <time>2014-08-29T12:31:52Z</time>
      </trkpt>
      <trkpt lat="43.85708" lon="6.39849">
        <ele>1102.902</ele>
        <time>2014-08-29T12:31:57Z</time>
      </trkpt>
      <trkpt lat="43.85709" lon="6.39857">
        <ele>1094.579</ele>
        <time>2014-08-29T12:32:03Z</time>
      </trkpt>
      <trkpt lat="43.85705" lon="6.39861">
        <ele>1094.384</ele>
        <time>2014-08-29T12:32:09Z</time>
      </trkpt>
      <trkpt lat="43.85699" lon="6.39862">
        <ele>1096.771</ele>
        <time>2014-08-29T12:32:14Z</time>
      </trkpt>
      <trkpt lat="43.85697" lon="6.39863">
        <ele>1095.388</ele>
        <time>2014-08-29T12:32:16Z</time>
      </trkpt>
      <trkpt lat="43.8569" lon="6.39865">
        <ele>1098.041</ele>
        <time>2014-08-29T12:32:21Z</time>
      </trkpt>
      <trkpt lat="43.8569" lon="6.39868">
        <ele>1097.491</ele>
        <time>2014-08-29T12:32:23Z</time>
      </trkpt>
      <trkpt lat="43.85693" lon="6.39872">
        <ele>1094.625</ele>
        <time>2014-08-29T12:32:28Z</time>
      </trkpt>
      <trkpt lat="43.85698" lon="6.39875">
        <ele>1093.666</ele>
        <time>2014-08-29T12:32:33Z</time>
      </trkpt>
      <trkpt lat="43.85702" lon="6.39876">
        <ele>1094.159</ele>
        <time>2014-08-29T12:32:37Z</time>
      </trkpt>
      <trkpt lat="43.8571" lon="6.3988">
        <ele>1092.224</ele>
        <time>2014-08-29T12:32:42Z</time>
      </trkpt>
      <trkpt lat="43.8572" lon="6.39885">
        <ele>1087.832</ele>
        <time>2014-08-29T12:32:50Z</time>
      </trkpt>
      <trkpt lat="43.85726" lon="6.39893">
        <ele>1088.919</ele>
        <time>2014-08-29T12:32:57Z</time>
      </trkpt>
      <trkpt lat="43.85733" lon="6.399">
        <ele>1088.495</ele>
        <time>2014-08-29T12:33:03Z</time>
      </trkpt>
      <trkpt lat="43.85737" lon="6.39905">
        <ele>1084.059</ele>
        <time>2014-08-29T12:33:08Z</time>
      </trkpt>
      <trkpt lat="43.85747" lon="6.39903">
        <ele>1082.472</ele>
        <time>2014-08-29T12:33:15Z</time>
      </trkpt>
      <trkpt lat="43.85753" lon="6.39903">
        <ele>1081.154</ele>
        <time>2014-08-29T12:33:24Z</time>
      </trkpt>
      <trkpt lat="43.85765" lon="6.39904">
        <ele>1083.15</ele>
        <time>2014-08-29T12:33:32Z</time>
      </trkpt>
      <trkpt lat="43.85774" lon="6.39909">
        <ele>1085.945</ele>
        <time>2014-08-29T12:33:39Z</time>
      </trkpt>
      <trkpt lat="43.85779" lon="6.39916">
        <ele>1090.045</ele>
        <time>2014-08-29T12:33:46Z</time>
      </trkpt>
      <trkpt lat="43.85774" lon="6.39912">
        <ele>1102.713</ele>
        <time>2014-08-29T12:33:59Z</time>
      </trkpt>
      <trkpt lat="43.85778" lon="6.39911">
        <ele>1098.912</ele>
        <time>2014-08-29T12:34:12Z</time>
      </trkpt>
      <trkpt lat="43.8577" lon="6.39912">
        <ele>1107.22</ele>
        <time>2014-08-29T12:35:00Z</time>
      </trkpt>
      <trkpt lat="43.85768" lon="6.39917">
        <ele>1103.696</ele>
        <time>2014-08-29T12:35:07Z</time>
      </trkpt>
      <trkpt lat="43.85767" lon="6.3992">
        <ele>1102.365</ele>
        <time>2014-08-29T12:35:13Z</time>
      </trkpt>
      <trkpt lat="43.85766" lon="6.39923">
        <ele>1100.384</ele>
        <time>2014-08-29T12:35:16Z</time>
      </trkpt>
      <trkpt lat="43.85763" lon="6.39935">
        <ele>1099.598</ele>
        <time>2014-08-29T12:35:24Z</time>
      </trkpt>
      <trkpt lat="43.85763" lon="6.39947">
        <ele>1098.621</ele>
        <time>2014-08-29T12:35:34Z</time>
      </trkpt>
      <trkpt lat="43.85763" lon="6.39953">
        <ele>1097.479</ele>
        <time>2014-08-29T12:35:41Z</time>
      </trkpt>
      <trkpt lat="43.85761" lon="6.39956">
        <ele>1099.534</ele>
        <time>2014-08-29T12:35:46Z</time>
      </trkpt>
      <trkpt lat="43.8576" lon="6.39964">
        <ele>1095.978</ele>
        <time>2014-08-29T12:35:55Z</time>
      </trkpt>
      <trkpt lat="43.85756" lon="6.39969">
        <ele>1100.815</ele>
        <time>2014-08-29T12:36:03Z</time>
      </trkpt>
      <trkpt lat="43.85755" lon="6.39971">
        <ele>1101.976</ele>
        <time>2014-08-29T12:36:07Z</time>
      </trkpt>
      <trkpt lat="43.85751" lon="6.39978">
        <ele>1106.079</ele>
        <time>2014-08-29T12:36:14Z</time>
      </trkpt>
      <trkpt lat="43.85749" lon="6.39983">
        <ele>1107.022</ele>
        <time>2014-08-29T12:36:21Z</time>
      </trkpt>
      <trkpt lat="43.85747" lon="6.39984">
        <ele>1106.62</ele>
        <time>2014-08-29T12:36:29Z</time>
      </trkpt>
      <trkpt lat="43.85742" lon="6.39985">
        <ele>1107.231</ele>
        <time>2014-08-29T12:36:35Z</time>
      </trkpt>
      <trkpt lat="43.85738" lon="6.39988">
        <ele>1111.233</ele>
        <time>2014-08-29T12:36:40Z</time>
      </trkpt>
      <trkpt lat="43.85738" lon="6.3999">
        <ele>1110.481</ele>
        <time>2014-08-29T12:36:42Z</time>
      </trkpt>
      <trkpt lat="43.85733" lon="6.39991">
        <ele>1113.461</ele>
        <time>2014-08-29T12:36:50Z</time>
      </trkpt>
      <trkpt lat="43.8573" lon="6.39994">
        <ele>1109.724</ele>
        <time>2014-08-29T12:36:57Z</time>
      </trkpt>
      <trkpt lat="43.85727" lon="6.39995">
        <ele>1109.524</ele>
        <time>2014-08-29T12:37:04Z</time>
      </trkpt>
      <trkpt lat="43.85724" lon="6.40004">
        <ele>1109.996</ele>
        <time>2014-08-29T12:37:10Z</time>
      </trkpt>
      <trkpt lat="43.85722" lon="6.40015">
        <ele>1115.805</ele>
        <time>2014-08-29T12:37:18Z</time>
      </trkpt>
      <trkpt lat="43.8572" lon="6.40019">
        <ele>1119.561</ele>
        <time>2014-08-29T12:37:24Z</time>
      </trkpt>
      <trkpt lat="43.8572" lon="6.40025">
        <ele>1116.461</ele>
        <time>2014-08-29T12:37:30Z</time>
      </trkpt>
      <trkpt lat="43.85718" lon="6.40028">
        <ele>1118.132</ele>
        <time>2014-08-29T12:37:35Z</time>
      </trkpt>
      <trkpt lat="43.85715" lon="6.40032">
        <ele>1121.145</ele>
        <time>2014-08-29T12:37:41Z</time>
      </trkpt>
      <trkpt lat="43.85713" lon="6.40037">
        <ele>1121.726</ele>
        <time>2014-08-29T12:37:47Z</time>
      </trkpt>
      <trkpt lat="43.85713" lon="6.40038">
        <ele>1122.115</ele>
        <time>2014-08-29T12:37:48Z</time>
      </trkpt>
      <trkpt lat="43.85714" lon="6.40045">
        <ele>1123.154</ele>
        <time>2014-08-29T12:37:55Z</time>
      </trkpt>
      <trkpt lat="43.85716" lon="6.40052">
        <ele>1121.563</ele>
        <time>2014-08-29T12:38:01Z</time>
      </trkpt>
      <trkpt lat="43.85711" lon="6.40057">
        <ele>1124.88</ele>
        <time>2014-08-29T12:38:09Z</time>
      </trkpt>
      <trkpt lat="43.85708" lon="6.40063">
        <ele>1124.165</ele>
        <time>2014-08-29T12:38:16Z</time>
      </trkpt>
      <trkpt lat="43.85708" lon="6.40067">
        <ele>1123.653</ele>
        <time>2014-08-29T12:38:18Z</time>
      </trkpt>
      <trkpt lat="43.85707" lon="6.40071">
        <ele>1123.523</ele>
        <time>2014-08-29T12:38:21Z</time>
      </trkpt>
      <trkpt lat="43.8571" lon="6.40078">
        <ele>1122.87</ele>
        <time>2014-08-29T12:38:25Z</time>
      </trkpt>
      <trkpt lat="43.85706" lon="6.40087">
        <ele>1124.432</ele>
        <time>2014-08-29T12:38:32Z</time>
      </trkpt>
      <trkpt lat="43.85704" lon="6.40095">
        <ele>1127.971</ele>
        <time>2014-08-29T12:38:39Z</time>
      </trkpt>
      <trkpt lat="43.85707" lon="6.40099">
        <ele>1130.271</ele>
        <time>2014-08-29T12:38:43Z</time>
      </trkpt>
      <trkpt lat="43.85705" lon="6.40106">
        <ele>1130.073</ele>
        <time>2014-08-29T12:38:50Z</time>
      </trkpt>
      <trkpt lat="43.85703" lon="6.40119">
        <ele>1133.901</ele>
        <time>2014-08-29T12:39:05Z</time>
      </trkpt>
      <trkpt lat="43.85702" lon="6.40121">
        <ele>1135.296</ele>
        <time>2014-08-29T12:39:12Z</time>
      </trkpt>
      <trkpt lat="43.85699" lon="6.40123">
        <ele>1135.926</ele>
        <time>2014-08-29T12:39:17Z</time>
      </trkpt>
      <trkpt lat="43.85693" lon="6.40127">
        <ele>1139.02</ele>
        <time>2014-08-29T12:39:25Z</time>
      </trkpt>
      <trkpt lat="43.85692" lon="6.40128">
        <ele>1139.556</ele>
        <time>2014-08-29T12:39:26Z</time>
      </trkpt>
      <trkpt lat="43.85687" lon="6.4013">
        <ele>1140.621</ele>
        <time>2014-08-29T12:39:31Z</time>
      </trkpt>
      <trkpt lat="43.85685" lon="6.40132">
        <ele>1144.762</ele>
        <time>2014-08-29T12:39:34Z</time>
      </trkpt>
      <trkpt lat="43.85682" lon="6.40139">
        <ele>1148.31</ele>
        <time>2014-08-29T12:39:41Z</time>
      </trkpt>
      <trkpt lat="43.85679" lon="6.40142">
        <ele>1148.566</ele>
        <time>2014-08-29T12:39:45Z</time>
      </trkpt>
      <trkpt lat="43.85685" lon="6.40146">
        <ele>1148.518</ele>
        <time>2014-08-29T12:39:52Z</time>
      </trkpt>
      <trkpt lat="43.85689" lon="6.40148">
        <ele>1148.776</ele>
        <time>2014-08-29T12:40:03Z</time>
      </trkpt>
      <trkpt lat="43.85683" lon="6.40158">
        <ele>1150.217</ele>
        <time>2014-08-29T12:40:10Z</time>
      </trkpt>
      <trkpt lat="43.85685" lon="6.40159">
        <ele>1149.816</ele>
        <time>2014-08-29T12:40:11Z</time>
      </trkpt>
      <trkpt lat="43.85676" lon="6.40164">
        <ele>1152.858</ele>
        <time>2014-08-29T12:40:17Z</time>
      </trkpt>
      <trkpt lat="43.85675" lon="6.40175">
        <ele>1151.235</ele>
        <time>2014-08-29T12:40:26Z</time>
      </trkpt>
      <trkpt lat="43.85674" lon="6.40177">
        <ele>1150.514</ele>
        <time>2014-08-29T12:40:28Z</time>
      </trkpt>
      <trkpt lat="43.85676" lon="6.40185">
        <ele>1148.743</ele>
        <time>2014-08-29T12:40:35Z</time>
      </trkpt>
      <trkpt lat="43.85692" lon="6.40197">
        <ele>1145.719</ele>
        <time>2014-08-29T12:40:41Z</time>
      </trkpt>
      <trkpt lat="43.85692" lon="6.40198">
        <ele>1145.31</ele>
        <time>2014-08-29T12:40:42Z</time>
      </trkpt>
      <trkpt lat="43.85691" lon="6.40204">
        <ele>1144.542</ele>
        <time>2014-08-29T12:40:48Z</time>
      </trkpt>
      <trkpt lat="43.85691" lon="6.40211">
        <ele>1140.161</ele>
        <time>2014-08-29T12:40:57Z</time>
      </trkpt>
      <trkpt lat="43.85682" lon="6.40211">
        <ele>1141.223</ele>
        <time>2014-08-29T12:41:00Z</time>
      </trkpt>
      <trkpt lat="43.8567" lon="6.40213">
        <ele>1143.807</ele>
        <time>2014-08-29T12:41:09Z</time>
      </trkpt>
      <trkpt lat="43.85672" lon="6.40217">
        <ele>1142.816</ele>
        <time>2014-08-29T12:41:11Z</time>
      </trkpt>
      <trkpt lat="43.85673" lon="6.40225">
        <ele>1142.485</ele>
        <time>2014-08-29T12:41:18Z</time>
      </trkpt>
      <trkpt lat="43.85669" lon="6.40228">
        <ele>1144.858</ele>
        <time>2014-08-29T12:41:23Z</time>
      </trkpt>
      <trkpt lat="43.85671" lon="6.40243">
        <ele>1147.555</ele>
        <time>2014-08-29T12:41:36Z</time>
      </trkpt>
      <trkpt lat="43.85668" lon="6.40248">
        <ele>1144.732</ele>
        <time>2014-08-29T12:41:40Z</time>
      </trkpt>
      <trkpt lat="43.85672" lon="6.40262">
        <ele>1142.009</ele>
        <time>2014-08-29T12:41:47Z</time>
      </trkpt>
      <trkpt lat="43.85674" lon="6.40268">
        <ele>1139.64</ele>
        <time>2014-08-29T12:41:51Z</time>
      </trkpt>
      <trkpt lat="43.85675" lon="6.40275">
        <ele>1137.452</ele>
        <time>2014-08-29T12:41:56Z</time>
      </trkpt>
      <trkpt lat="43.85678" lon="6.40286">
        <ele>1130.961</ele>
        <time>2014-08-29T12:42:05Z</time>
      </trkpt>
      <trkpt lat="43.8567" lon="6.40289">
        <ele>1128.894</ele>
        <time>2014-08-29T12:42:12Z</time>
      </trkpt>
      <trkpt lat="43.8567" lon="6.40291">
        <ele>1128.745</ele>
        <time>2014-08-29T12:42:13Z</time>
      </trkpt>
      <trkpt lat="43.85671" lon="6.40297">
        <ele>1126.303</ele>
        <time>2014-08-29T12:42:17Z</time>
      </trkpt>
      <trkpt lat="43.85672" lon="6.40301">
        <ele>1124.821</ele>
        <time>2014-08-29T12:42:20Z</time>
      </trkpt>
      <trkpt lat="43.85677" lon="6.40314">
        <ele>1118.679</ele>
        <time>2014-08-29T12:42:28Z</time>
      </trkpt>
      <trkpt lat="43.85676" lon="6.40319">
        <ele>1118.441</ele>
        <time>2014-08-29T12:42:35Z</time>
      </trkpt>
      <trkpt lat="43.85665" lon="6.40316">
        <ele>1123.09</ele>
        <time>2014-08-29T12:42:39Z</time>
      </trkpt>
      <trkpt lat="43.85655" lon="6.40341">
        <ele>1121.228</ele>
        <time>2014-08-29T12:43:22Z</time>
      </trkpt>
      <trkpt lat="43.85655" lon="6.40345">
        <ele>1121.24</ele>
        <time>2014-08-29T12:43:29Z</time>
      </trkpt>
      <trkpt lat="43.85647" lon="6.40348">
        <ele>1126.126</ele>
        <time>2014-08-29T12:43:35Z</time>
      </trkpt>
      <trkpt lat="43.85614" lon="6.40396">
        <ele>1145.773</ele>
        <time>2014-08-29T12:44:40Z</time>
      </trkpt>
      <trkpt lat="43.85611" lon="6.40402">
        <ele>1146.722</ele>
        <time>2014-08-29T12:44:47Z</time>
      </trkpt>
      <trkpt lat="43.85601" lon="6.40411">
        <ele>1151.546</ele>
        <time>2014-08-29T12:45:03Z</time>
      </trkpt>
      <trkpt lat="43.85599" lon="6.40416">
        <ele>1152.254</ele>
        <time>2014-08-29T12:45:09Z</time>
      </trkpt>
      <trkpt lat="43.85598" lon="6.4042">
        <ele>1153.163</ele>
        <time>2014-08-29T12:45:14Z</time>
      </trkpt>
      <trkpt lat="43.85597" lon="6.40424">
        <ele>1155.676</ele>
        <time>2014-08-29T12:45:21Z</time>
      </trkpt>
      <trkpt lat="43.85598" lon="6.4043">
        <ele>1155.751</ele>
        <time>2014-08-29T12:45:27Z</time>
      </trkpt>
      <trkpt lat="43.85604" lon="6.40434">
        <ele>1151.729</ele>
        <time>2014-08-29T12:45:35Z</time>
      </trkpt>
      <trkpt lat="43.85605" lon="6.40437">
        <ele>1147.227</ele>
        <time>2014-08-29T12:45:39Z</time>
      </trkpt>
      <trkpt lat="43.85608" lon="6.40454">
        <ele>1138.868</ele>
        <time>2014-08-29T12:45:47Z</time>
      </trkpt>
      <trkpt lat="43.85611" lon="6.40472">
        <ele>1134.831</ele>
        <time>2014-08-29T12:45:54Z</time>
      </trkpt>
      <trkpt lat="43.85608" lon="6.40484">
        <ele>1135.497</ele>
        <time>2014-08-29T12:46:00Z</time>
      </trkpt>
      <trkpt lat="43.85606" lon="6.40496">
        <ele>1133.95</ele>
        <time>2014-08-29T12:46:06Z</time>
      </trkpt>
      <trkpt lat="43.85606" lon="6.40497">
        <ele>1133.958</ele>
        <time>2014-08-29T12:46:07Z</time>
      </trkpt>
      <trkpt lat="43.85608" lon="6.40507">
        <ele>1131.51</ele>
        <time>2014-08-29T12:46:13Z</time>
      </trkpt>
      <trkpt lat="43.85606" lon="6.40509">
        <ele>1132.782</ele>
        <time>2014-08-29T12:46:15Z</time>
      </trkpt>
      <trkpt lat="43.85606" lon="6.40513">
        <ele>1132.01</ele>
        <time>2014-08-29T12:46:17Z</time>
      </trkpt>
      <trkpt lat="43.85598" lon="6.40522">
        <ele>1133.057</ele>
        <time>2014-08-29T12:46:24Z</time>
      </trkpt>
      <trkpt lat="43.85597" lon="6.40523">
        <ele>1133.741</ele>
        <time>2014-08-29T12:46:25Z</time>
      </trkpt>
      <trkpt lat="43.85594" lon="6.40533">
        <ele>1133.787</ele>
        <time>2014-08-29T12:46:31Z</time>
      </trkpt>
      <trkpt lat="43.85594" lon="6.40536">
        <ele>1133.386</ele>
        <time>2014-08-29T12:46:32Z</time>
      </trkpt>
      <trkpt lat="43.85586" lon="6.40543">
        <ele>1136.119</ele>
        <time>2014-08-29T12:46:37Z</time>
      </trkpt>
      <trkpt lat="43.85578" lon="6.40554">
        <ele>1135.997</ele>
        <time>2014-08-29T12:46:44Z</time>
      </trkpt>
      <trkpt lat="43.85578" lon="6.40558">
        <ele>1136.663</ele>
        <time>2014-08-29T12:46:47Z</time>
      </trkpt>
      <trkpt lat="43.85576" lon="6.4056">
        <ele>1136.703</ele>
        <time>2014-08-29T12:46:50Z</time>
      </trkpt>
      <trkpt lat="43.85576" lon="6.40567">
        <ele>1139.028</ele>
        <time>2014-08-29T12:46:56Z</time>
      </trkpt>
      <trkpt lat="43.85571" lon="6.40575">
        <ele>1143.727</ele>
        <time>2014-08-29T12:47:02Z</time>
      </trkpt>
      <trkpt lat="43.85566" lon="6.40581">
        <ele>1145.96</ele>
        <time>2014-08-29T12:47:07Z</time>
      </trkpt>
      <trkpt lat="43.85556" lon="6.4058">
        <ele>1153.633</ele>
        <time>2014-08-29T12:47:13Z</time>
      </trkpt>
      <trkpt lat="43.85549" lon="6.40598">
        <ele>1174.267</ele>
        <time>2014-08-29T12:47:55Z</time>
      </trkpt>
      <trkpt lat="43.85545" lon="6.40604">
        <ele>1174.617</ele>
        <time>2014-08-29T12:48:02Z</time>
      </trkpt>
      <trkpt lat="43.85533" lon="6.406">
        <ele>1191.743</ele>
        <time>2014-08-29T12:48:16Z</time>
      </trkpt>
      <trkpt lat="43.85538" lon="6.40604">
        <ele>1195.487</ele>
        <time>2014-08-29T12:48:21Z</time>
      </trkpt>
      <trkpt lat="43.85555" lon="6.40623">
        <ele>1184.74</ele>
        <time>2014-08-29T12:48:53Z</time>
      </trkpt>
      <trkpt lat="43.85544" lon="6.40618">
        <ele>1190.727</ele>
        <time>2014-08-29T12:48:56Z</time>
      </trkpt>
      <trkpt lat="43.85528" lon="6.40611">
        <ele>1200.7</ele>
        <time>2014-08-29T12:49:00Z</time>
      </trkpt>
      <trkpt lat="43.85525" lon="6.40613">
        <ele>1201.871</ele>
        <time>2014-08-29T12:49:06Z</time>
      </trkpt>
      <trkpt lat="43.85534" lon="6.40629">
        <ele>1191.955</ele>
        <time>2014-08-29T12:49:17Z</time>
      </trkpt>
      <trkpt lat="43.85531" lon="6.40631">
        <ele>1191.377</ele>
        <time>2014-08-29T12:49:21Z</time>
      </trkpt>
      <trkpt lat="43.85541" lon="6.40634">
        <ele>1188.34</ele>
        <time>2014-08-29T12:49:27Z</time>
      </trkpt>
      <trkpt lat="43.85529" lon="6.40632">
        <ele>1194.435</ele>
        <time>2014-08-29T12:49:37Z</time>
      </trkpt>
      <trkpt lat="43.85519" lon="6.40634">
        <ele>1201.621</ele>
        <time>2014-08-29T12:50:09Z</time>
      </trkpt>
      <trkpt lat="43.85513" lon="6.40639">
        <ele>1202.934</ele>
        <time>2014-08-29T12:50:18Z</time>
      </trkpt>
      <trkpt lat="43.85507" lon="6.4064">
        <ele>1205.747</ele>
        <time>2014-08-29T12:50:23Z</time>
      </trkpt>
      <trkpt lat="43.85499" lon="6.40646">
        <ele>1209.353</ele>
        <time>2014-08-29T12:50:35Z</time>
      </trkpt>
      <trkpt lat="43.85494" lon="6.4065">
        <ele>1211.245</ele>
        <time>2014-08-29T12:50:43Z</time>
      </trkpt>
      <trkpt lat="43.8549" lon="6.4065">
        <ele>1213.561</ele>
        <time>2014-08-29T12:50:46Z</time>
      </trkpt>
      <trkpt lat="43.85479" lon="6.40651">
        <ele>1215.414</ele>
        <time>2014-08-29T12:50:55Z</time>
      </trkpt>
      <trkpt lat="43.85475" lon="6.4066">
        <ele>1211.835</ele>
        <time>2014-08-29T12:51:05Z</time>
      </trkpt>
      <trkpt lat="43.85474" lon="6.40662">
        <ele>1212.286</ele>
        <time>2014-08-29T12:51:09Z</time>
      </trkpt>
      <trkpt lat="43.85469" lon="6.40667">
        <ele>1213.838</ele>
        <time>2014-08-29T12:51:18Z</time>
      </trkpt>
      <trkpt lat="43.85463" lon="6.4067">
        <ele>1215.943</ele>
        <time>2014-08-29T12:51:26Z</time>
      </trkpt>
      <trkpt lat="43.85452" lon="6.40668">
        <ele>1222.06</ele>
        <time>2014-08-29T12:51:32Z</time>
      </trkpt>
      <trkpt lat="43.85454" lon="6.40686">
        <ele>1219.358</ele>
        <time>2014-08-29T12:51:56Z</time>
      </trkpt>
      <trkpt lat="43.85448" lon="6.40691">
        <ele>1217.87</ele>
        <time>2014-08-29T12:52:16Z</time>
      </trkpt>
      <trkpt lat="43.85449" lon="6.40698">
        <ele>1215.93</ele>
        <time>2014-08-29T12:52:23Z</time>
      </trkpt>
      <trkpt lat="43.85449" lon="6.40701">
        <ele>1216.274</ele>
        <time>2014-08-29T12:52:33Z</time>
      </trkpt>
      <trkpt lat="43.85449" lon="6.40703">
        <ele>1216.364</ele>
        <time>2014-08-29T12:52:37Z</time>
      </trkpt>
      <trkpt lat="43.85447" lon="6.40712">
        <ele>1221.847</ele>
        <time>2014-08-29T12:52:50Z</time>
      </trkpt>
      <trkpt lat="43.85438" lon="6.40719">
        <ele>1228.783</ele>
        <time>2014-08-29T12:53:06Z</time>
      </trkpt>
      <trkpt lat="43.85435" lon="6.40722">
        <ele>1229.58</ele>
        <time>2014-08-29T12:53:12Z</time>
      </trkpt>
      <trkpt lat="43.8543" lon="6.40724">
        <ele>1235.256</ele>
        <time>2014-08-29T12:53:19Z</time>
      </trkpt>
      <trkpt lat="43.85424" lon="6.40724">
        <ele>1239.569</ele>
        <time>2014-08-29T12:53:25Z</time>
      </trkpt>
      <trkpt lat="43.85422" lon="6.40725">
        <ele>1241.808</ele>
        <time>2014-08-29T12:53:30Z</time>
      </trkpt>
      <trkpt lat="43.85416" lon="6.40727">
        <ele>1246.973</ele>
        <time>2014-08-29T12:53:38Z</time>
      </trkpt>
      <trkpt lat="43.85414" lon="6.4073">
        <ele>1249.222</ele>
        <time>2014-08-29T12:53:43Z</time>
      </trkpt>
      <trkpt lat="43.85412" lon="6.40736">
        <ele>1250.644</ele>
        <time>2014-08-29T12:53:50Z</time>
      </trkpt>
      <trkpt lat="43.8541" lon="6.40739">
        <ele>1251.606</ele>
        <time>2014-08-29T12:53:56Z</time>
      </trkpt>
      <trkpt lat="43.85408" lon="6.40743">
        <ele>1252.514</ele>
        <time>2014-08-29T12:54:02Z</time>
      </trkpt>
      <trkpt lat="43.85411" lon="6.40749">
        <ele>1252.04</ele>
        <time>2014-08-29T12:54:11Z</time>
      </trkpt>
      <trkpt lat="43.85408" lon="6.40751">
        <ele>1253.763</ele>
        <time>2014-08-29T12:54:17Z</time>
      </trkpt>
      <trkpt lat="43.85402" lon="6.40754">
        <ele>1256.644</ele>
        <time>2014-08-29T12:54:25Z</time>
      </trkpt>
      <trkpt lat="43.85401" lon="6.40757">
        <ele>1257.693</ele>
        <time>2014-08-29T12:54:30Z</time>
      </trkpt>
      <trkpt lat="43.85405" lon="6.40767">
        <ele>1256.15</ele>
        <time>2014-08-29T12:54:43Z</time>
      </trkpt>
      <trkpt lat="43.85408" lon="6.40768">
        <ele>1258.318</ele>
        <time>2014-08-29T12:54:50Z</time>
      </trkpt>
      <trkpt lat="43.85412" lon="6.40772">
        <ele>1259.337</ele>
        <time>2014-08-29T12:54:56Z</time>
      </trkpt>
      <trkpt lat="43.85413" lon="6.40775">
        <ele>1259.958</ele>
        <time>2014-08-29T12:55:00Z</time>
      </trkpt>
      <trkpt lat="43.85403" lon="6.40782">
        <ele>1268.616</ele>
        <time>2014-08-29T12:56:00Z</time>
      </trkpt>
      <trkpt lat="43.85403" lon="6.4079">
        <ele>1266.21</ele>
        <time>2014-08-29T12:56:11Z</time>
      </trkpt>
      <trkpt lat="43.85408" lon="6.40802">
        <ele>1264.118</ele>
        <time>2014-08-29T12:56:22Z</time>
      </trkpt>
      <trkpt lat="43.85417" lon="6.40815">
        <ele>1252.086</ele>
        <time>2014-08-29T12:56:28Z</time>
      </trkpt>
      <trkpt lat="43.85417" lon="6.40816">
        <ele>1251.41</ele>
        <time>2014-08-29T12:56:29Z</time>
      </trkpt>
      <trkpt lat="43.85425" lon="6.4082">
        <ele>1246.681</ele>
        <time>2014-08-29T12:56:35Z</time>
      </trkpt>
      <trkpt lat="43.85425" lon="6.4082">
        <ele>1247.031</ele>
        <time>2014-08-29T12:56:38Z</time>
      </trkpt>
      <trkpt lat="43.85423" lon="6.40823">
        <ele>1249.105</ele>
        <time>2014-08-29T12:56:44Z</time>
      </trkpt>
      <trkpt lat="43.85416" lon="6.40826">
        <ele>1252.944</ele>
        <time>2014-08-29T12:56:53Z</time>
      </trkpt>
      <trkpt lat="43.8541" lon="6.40829">
        <ele>1258.339</ele>
        <time>2014-08-29T12:57:04Z</time>
      </trkpt>
      <trkpt lat="43.85408" lon="6.4083">
        <ele>1261.577</ele>
        <time>2014-08-29T12:57:12Z</time>
      </trkpt>
      <trkpt lat="43.85409" lon="6.40835">
        <ele>1263.434</ele>
        <time>2014-08-29T12:57:22Z</time>
      </trkpt>
      <trkpt lat="43.85404" lon="6.40846">
        <ele>1272.038</ele>
        <time>2014-08-29T12:57:53Z</time>
      </trkpt>
      <trkpt lat="43.85406" lon="6.40849">
        <ele>1273.657</ele>
        <time>2014-08-29T12:58:00Z</time>
      </trkpt>
      <trkpt lat="43.85406" lon="6.40853">
        <ele>1275.427</ele>
        <time>2014-08-29T12:58:08Z</time>
      </trkpt>
      <trkpt lat="43.85403" lon="6.40854">
        <ele>1276.357</ele>
        <time>2014-08-29T12:58:13Z</time>
      </trkpt>
      <trkpt lat="43.85401" lon="6.40858">
        <ele>1277.866</ele>
        <time>2014-08-29T12:58:21Z</time>
      </trkpt>
      <trkpt lat="43.85401" lon="6.4086">
        <ele>1279.105</ele>
        <time>2014-08-29T12:58:28Z</time>
      </trkpt>
      <trkpt lat="43.854" lon="6.40861">
        <ele>1279.394</ele>
        <time>2014-08-29T12:58:32Z</time>
      </trkpt>
      <trkpt lat="43.85398" lon="6.40864">
        <ele>1281.275</ele>
        <time>2014-08-29T12:58:37Z</time>
      </trkpt>
      <trkpt lat="43.85397" lon="6.40868">
        <ele>1283.023</ele>
        <time>2014-08-29T12:58:45Z</time>
      </trkpt>
      <trkpt lat="43.85393" lon="6.40874">
        <ele>1284.101</ele>
        <time>2014-08-29T12:58:56Z</time>
      </trkpt>
      <trkpt lat="43.85391" lon="6.40876">
        <ele>1284.65</ele>
        <time>2014-08-29T12:59:03Z</time>
      </trkpt>
      <trkpt lat="43.85397" lon="6.40883">
        <ele>1284.401</ele>
        <time>2014-08-29T12:59:10Z</time>
      </trkpt>
      <trkpt lat="43.85399" lon="6.40888">
        <ele>1284.28</ele>
        <time>2014-08-29T12:59:16Z</time>
      </trkpt>
      <trkpt lat="43.85399" lon="6.4089">
        <ele>1285.513</ele>
        <time>2014-08-29T12:59:22Z</time>
      </trkpt>
      <trkpt lat="43.85392" lon="6.40886">
        <ele>1292.277</ele>
        <time>2014-08-29T12:59:31Z</time>
      </trkpt>
      <trkpt lat="43.85394" lon="6.40907">
        <ele>1293.552</ele>
        <time>2014-08-29T13:00:27Z</time>
      </trkpt>
      <trkpt lat="43.85392" lon="6.40935">
        <ele>1295.048</ele>
        <time>2014-08-29T13:01:16Z</time>
      </trkpt>
      <trkpt lat="43.8539" lon="6.40945">
        <ele>1296.107</ele>
        <time>2014-08-29T13:01:30Z</time>
      </trkpt>
      <trkpt lat="43.85393" lon="6.40949">
        <ele>1299.455</ele>
        <time>2014-08-29T13:01:42Z</time>
      </trkpt>
      <trkpt lat="43.85386" lon="6.40951">
        <ele>1296.075</ele>
        <time>2014-08-29T13:01:49Z</time>
      </trkpt>
      <trkpt lat="43.85383" lon="6.40962">
        <ele>1295.599</ele>
        <time>2014-08-29T13:02:06Z</time>
      </trkpt>
      <trkpt lat="43.85377" lon="6.40966">
        <ele>1297.204</ele>
        <time>2014-08-29T13:02:31Z</time>
      </trkpt>
      <trkpt lat="43.85362" lon="6.40963">
        <ele>1302.312</ele>
        <time>2014-08-29T13:03:01Z</time>
      </trkpt>
      <trkpt lat="43.8534" lon="6.40974">
        <ele>1311.598</ele>
        <time>2014-08-29T13:03:42Z</time>
      </trkpt>
      <trkpt lat="43.85337" lon="6.40975">
        <ele>1314.731</ele>
        <time>2014-08-29T13:03:51Z</time>
      </trkpt>
      <trkpt lat="43.85333" lon="6.40976">
        <ele>1317.248</ele>
        <time>2014-08-29T13:04:00Z</time>
      </trkpt>
      <trkpt lat="43.85327" lon="6.40975">
        <ele>1317.809</ele>
        <time>2014-08-29T13:04:06Z</time>
      </trkpt>
      <trkpt lat="43.85324" lon="6.40976">
        <ele>1318.298</ele>
        <time>2014-08-29T13:04:13Z</time>
      </trkpt>
      <trkpt lat="43.85324" lon="6.40979">
        <ele>1321.2</ele>
        <time>2014-08-29T13:04:21Z</time>
      </trkpt>
      <trkpt lat="43.85321" lon="6.4098">
        <ele>1322.538</ele>
        <time>2014-08-29T13:04:30Z</time>
      </trkpt>
      <trkpt lat="43.85321" lon="6.40981">
        <ele>1323.39</ele>
        <time>2014-08-29T13:04:36Z</time>
      </trkpt>
      <trkpt lat="43.85316" lon="6.40978">
        <ele>1324.193</ele>
        <time>2014-08-29T13:04:44Z</time>
      </trkpt>
      <trkpt lat="43.85313" lon="6.40976">
        <ele>1326.311</ele>
        <time>2014-08-29T13:04:51Z</time>
      </trkpt>
      <trkpt lat="43.85307" lon="6.40976">
        <ele>1327.691</ele>
        <time>2014-08-29T13:05:04Z</time>
      </trkpt>
      <trkpt lat="43.85305" lon="6.40976">
        <ele>1330.829</ele>
        <time>2014-08-29T13:05:10Z</time>
      </trkpt>
      <trkpt lat="43.853" lon="6.40977">
        <ele>1332.497</ele>
        <time>2014-08-29T13:05:22Z</time>
      </trkpt>
      <trkpt lat="43.85299" lon="6.40979">
        <ele>1333.948</ele>
        <time>2014-08-29T13:05:28Z</time>
      </trkpt>
      <trkpt lat="43.85293" lon="6.40979">
        <ele>1335.48</ele>
        <time>2014-08-29T13:05:41Z</time>
      </trkpt>
      <trkpt lat="43.85291" lon="6.40979">
        <ele>1336.118</ele>
        <time>2014-08-29T13:05:47Z</time>
      </trkpt>
      <trkpt lat="43.85288" lon="6.40979">
        <ele>1336.257</ele>
        <time>2014-08-29T13:05:53Z</time>
      </trkpt>
      <trkpt lat="43.85283" lon="6.40978">
        <ele>1337.958</ele>
        <time>2014-08-29T13:06:00Z</time>
      </trkpt>
      <trkpt lat="43.85278" lon="6.40979">
        <ele>1339.459</ele>
        <time>2014-08-29T13:06:09Z</time>
      </trkpt>
      <trkpt lat="43.85274" lon="6.40979">
        <ele>1339.839</ele>
        <time>2014-08-29T13:06:15Z</time>
      </trkpt>
      <trkpt lat="43.85271" lon="6.40982">
        <ele>1339.676</ele>
        <time>2014-08-29T13:06:22Z</time>
      </trkpt>
      <trkpt lat="43.85269" lon="6.40985">
        <ele>1340.026</ele>
        <time>2014-08-29T13:06:30Z</time>
      </trkpt>
      <trkpt lat="43.85267" lon="6.40988">
        <ele>1339.926</ele>
        <time>2014-08-29T13:06:37Z</time>
      </trkpt>
      <trkpt lat="43.85265" lon="6.40992">
        <ele>1340.495</ele>
        <time>2014-08-29T13:06:44Z</time>
      </trkpt>
      <trkpt lat="43.85263" lon="6.40994">
        <ele>1341.167</ele>
        <time>2014-08-29T13:06:49Z</time>
      </trkpt>
      <trkpt lat="43.85259" lon="6.40998">
        <ele>1341.005</ele>
        <time>2014-08-29T13:06:58Z</time>
      </trkpt>
      <trkpt lat="43.85256" lon="6.41002">
        <ele>1341.155</ele>
        <time>2014-08-29T13:07:06Z</time>
      </trkpt>
      <trkpt lat="43.85254" lon="6.41006">
        <ele>1342.946</ele>
        <time>2014-08-29T13:07:15Z</time>
      </trkpt>
      <trkpt lat="43.85249" lon="6.41008">
        <ele>1344.158</ele>
        <time>2014-08-29T13:07:22Z</time>
      </trkpt>
      <trkpt lat="43.85245" lon="6.4101">
        <ele>1347.169</ele>
        <time>2014-08-29T13:07:35Z</time>
      </trkpt>
      <trkpt lat="43.85243" lon="6.41014">
        <ele>1349.38</ele>
        <time>2014-08-29T13:07:43Z</time>
      </trkpt>
      <trkpt lat="43.85242" lon="6.41018">
        <ele>1350.389</ele>
        <time>2014-08-29T13:07:51Z</time>
      </trkpt>
      <trkpt lat="43.8524" lon="6.41023">
        <ele>1350.216</ele>
        <time>2014-08-29T13:08:00Z</time>
      </trkpt>
      <trkpt lat="43.85237" lon="6.41026">
        <ele>1350.353</ele>
        <time>2014-08-29T13:08:08Z</time>
      </trkpt>
      <trkpt lat="43.8523" lon="6.41025">
        <ele>1349.157</ele>
        <time>2014-08-29T13:08:55Z</time>
      </trkpt>
      <trkpt lat="43.85231" lon="6.41027">
        <ele>1351.64</ele>
        <time>2014-08-29T13:09:00Z</time>
      </trkpt>
      <trkpt lat="43.85228" lon="6.4103">
        <ele>1354.533</ele>
        <time>2014-08-29T13:09:07Z</time>
      </trkpt>
      <trkpt lat="43.85227" lon="6.41037">
        <ele>1356.232</ele>
        <time>2014-08-29T13:09:15Z</time>
      </trkpt>
      <trkpt lat="43.85223" lon="6.41039">
        <ele>1355.836</ele>
        <time>2014-08-29T13:09:21Z</time>
      </trkpt>
      <trkpt lat="43.85218" lon="6.41043">
        <ele>1358.291</ele>
        <time>2014-08-29T13:09:27Z</time>
      </trkpt>
      <trkpt lat="43.85216" lon="6.41046">
        <ele>1358.698</ele>
        <time>2014-08-29T13:09:33Z</time>
      </trkpt>
      <trkpt lat="43.85214" lon="6.41049">
        <ele>1361.582</ele>
        <time>2014-08-29T13:09:39Z</time>
      </trkpt>
      <trkpt lat="43.85211" lon="6.41052">
        <ele>1362.702</ele>
        <time>2014-08-29T13:09:48Z</time>
      </trkpt>
      <trkpt lat="43.8521" lon="6.41054">
        <ele>1362.68</ele>
        <time>2014-08-29T13:09:53Z</time>
      </trkpt>
      <trkpt lat="43.85208" lon="6.41057">
        <ele>1363.181</ele>
        <time>2014-08-29T13:09:59Z</time>
      </trkpt>
      <trkpt lat="43.85205" lon="6.41061">
        <ele>1365.543</ele>
        <time>2014-08-29T13:10:06Z</time>
      </trkpt>
      <trkpt lat="43.85196" lon="6.41064">
        <ele>1375.386</ele>
        <time>2014-08-29T13:10:47Z</time>
      </trkpt>
      <trkpt lat="43.85194" lon="6.41069">
        <ele>1374.644</ele>
        <time>2014-08-29T13:10:53Z</time>
      </trkpt>
      <trkpt lat="43.85192" lon="6.41077">
        <ele>1373.393</ele>
        <time>2014-08-29T13:11:01Z</time>
      </trkpt>
      <trkpt lat="43.8519" lon="6.41081">
        <ele>1370.941</ele>
        <time>2014-08-29T13:11:06Z</time>
      </trkpt>
      <trkpt lat="43.85189" lon="6.41087">
        <ele>1368.434</ele>
        <time>2014-08-29T13:11:18Z</time>
      </trkpt>
      <trkpt lat="43.85187" lon="6.41093">
        <ele>1370.699</ele>
        <time>2014-08-29T13:11:25Z</time>
      </trkpt>
      <trkpt lat="43.85185" lon="6.41098">
        <ele>1373.378</ele>
        <time>2014-08-29T13:11:33Z</time>
      </trkpt>
      <trkpt lat="43.85185" lon="6.41102">
        <ele>1376.029</ele>
        <time>2014-08-29T13:11:41Z</time>
      </trkpt>
      <trkpt lat="43.85184" lon="6.41105">
        <ele>1378.2</ele>
        <time>2014-08-29T13:11:48Z</time>
      </trkpt>
      <trkpt lat="43.85182" lon="6.41109">
        <ele>1379.578</ele>
        <time>2014-08-29T13:11:55Z</time>
      </trkpt>
      <trkpt lat="43.85179" lon="6.41113">
        <ele>1379.856</ele>
        <time>2014-08-29T13:12:01Z</time>
      </trkpt>
      <trkpt lat="43.85179" lon="6.41117">
        <ele>1380.766</ele>
        <time>2014-08-29T13:12:07Z</time>
      </trkpt>
      <trkpt lat="43.85177" lon="6.4112">
        <ele>1382.46</ele>
        <time>2014-08-29T13:12:14Z</time>
      </trkpt>
      <trkpt lat="43.85176" lon="6.41125">
        <ele>1382.697</ele>
        <time>2014-08-29T13:12:22Z</time>
      </trkpt>
      <trkpt lat="43.85174" lon="6.41128">
        <ele>1382.918</ele>
        <time>2014-08-29T13:12:28Z</time>
      </trkpt>
      <trkpt lat="43.8517" lon="6.41135">
        <ele>1383.326</ele>
        <time>2014-08-29T13:12:37Z</time>
      </trkpt>
      <trkpt lat="43.85167" lon="6.41142">
        <ele>1381.249</ele>
        <time>2014-08-29T13:12:46Z</time>
      </trkpt>
      <trkpt lat="43.85163" lon="6.41146">
        <ele>1381.324</ele>
        <time>2014-08-29T13:12:55Z</time>
      </trkpt>
      <trkpt lat="43.8516" lon="6.41148">
        <ele>1381.795</ele>
        <time>2014-08-29T13:13:00Z</time>
      </trkpt>
      <trkpt lat="43.85154" lon="6.41153">
        <ele>1382.335</ele>
        <time>2014-08-29T13:13:09Z</time>
      </trkpt>
      <trkpt lat="43.85149" lon="6.41156">
        <ele>1383.866</ele>
        <time>2014-08-29T13:13:16Z</time>
      </trkpt>
      <trkpt lat="43.85143" lon="6.41159">
        <ele>1382.341</ele>
        <time>2014-08-29T13:13:22Z</time>
      </trkpt>
      <trkpt lat="43.85138" lon="6.41162">
        <ele>1379.027</ele>
        <time>2014-08-29T13:13:27Z</time>
      </trkpt>
      <trkpt lat="43.85131" lon="6.41166">
        <ele>1377.894</ele>
        <time>2014-08-29T13:13:35Z</time>
      </trkpt>
      <trkpt lat="43.85126" lon="6.41166">
        <ele>1378.944</ele>
        <time>2014-08-29T13:13:42Z</time>
      </trkpt>
      <trkpt lat="43.85122" lon="6.41166">
        <ele>1379.828</ele>
        <time>2014-08-29T13:13:47Z</time>
      </trkpt>
      <trkpt lat="43.85118" lon="6.41168">
        <ele>1382.364</ele>
        <time>2014-08-29T13:13:56Z</time>
      </trkpt>
      <trkpt lat="43.85117" lon="6.4117">
        <ele>1384.101</ele>
        <time>2014-08-29T13:14:02Z</time>
      </trkpt>
      <trkpt lat="43.85114" lon="6.41175">
        <ele>1386.449</ele>
        <time>2014-08-29T13:14:12Z</time>
      </trkpt>
      <trkpt lat="43.85114" lon="6.41179">
        <ele>1389.109</ele>
        <time>2014-08-29T13:14:20Z</time>
      </trkpt>
      <trkpt lat="43.85111" lon="6.41181">
        <ele>1389.918</ele>
        <time>2014-08-29T13:14:25Z</time>
      </trkpt>
      <trkpt lat="43.85109" lon="6.41184">
        <ele>1390.968</ele>
        <time>2014-08-29T13:14:31Z</time>
      </trkpt>
      <trkpt lat="43.85106" lon="6.41188">
        <ele>1390.966</ele>
        <time>2014-08-29T13:14:38Z</time>
      </trkpt>
      <trkpt lat="43.85108" lon="6.41187">
        <ele>1395.411</ele>
        <time>2014-08-29T13:14:47Z</time>
      </trkpt>
      <trkpt lat="43.85104" lon="6.41191">
        <ele>1395.926</ele>
        <time>2014-08-29T13:15:04Z</time>
      </trkpt>
      <trkpt lat="43.85101" lon="6.41195">
        <ele>1393.964</ele>
        <time>2014-08-29T13:15:13Z</time>
      </trkpt>
      <trkpt lat="43.85098" lon="6.41204">
        <ele>1392.879</ele>
        <time>2014-08-29T13:15:24Z</time>
      </trkpt>
      <trkpt lat="43.85098" lon="6.41207">
        <ele>1393.597</ele>
        <time>2014-08-29T13:15:29Z</time>
      </trkpt>
      <trkpt lat="43.85095" lon="6.41213">
        <ele>1390.058</ele>
        <time>2014-08-29T13:15:35Z</time>
      </trkpt>
      <trkpt lat="43.85091" lon="6.41216">
        <ele>1389.951</ele>
        <time>2014-08-29T13:15:42Z</time>
      </trkpt>
      <trkpt lat="43.85089" lon="6.41219">
        <ele>1391.014</ele>
        <time>2014-08-29T13:15:49Z</time>
      </trkpt>
      <trkpt lat="43.85088" lon="6.41222">
        <ele>1392.664</ele>
        <time>2014-08-29T13:15:56Z</time>
      </trkpt>
      <trkpt lat="43.8509" lon="6.41231">
        <ele>1397.671</ele>
        <time>2014-08-29T13:16:45Z</time>
      </trkpt>
      <trkpt lat="43.85088" lon="6.41234">
        <ele>1395.068</ele>
        <time>2014-08-29T13:16:50Z</time>
      </trkpt>
      <trkpt lat="43.85087" lon="6.41236">
        <ele>1394.182</ele>
        <time>2014-08-29T13:16:55Z</time>
      </trkpt>
      <trkpt lat="43.85081" lon="6.41235">
        <ele>1392.901</ele>
        <time>2014-08-29T13:17:01Z</time>
      </trkpt>
      <trkpt lat="43.85078" lon="6.41239">
        <ele>1392.75</ele>
        <time>2014-08-29T13:17:06Z</time>
      </trkpt>
      <trkpt lat="43.85073" lon="6.41243">
        <ele>1399.548</ele>
        <time>2014-08-29T13:17:16Z</time>
      </trkpt>
      <trkpt lat="43.85071" lon="6.41246">
        <ele>1399.917</ele>
        <time>2014-08-29T13:17:23Z</time>
      </trkpt>
      <trkpt lat="43.85068" lon="6.41251">
        <ele>1399.645</ele>
        <time>2014-08-29T13:17:32Z</time>
      </trkpt>
      <trkpt lat="43.85066" lon="6.41257">
        <ele>1399.687</ele>
        <time>2014-08-29T13:17:40Z</time>
      </trkpt>
      <trkpt lat="43.8506" lon="6.4126">
        <ele>1397.325</ele>
        <time>2014-08-29T13:17:48Z</time>
      </trkpt>
      <trkpt lat="43.85061" lon="6.41266">
        <ele>1402.163</ele>
        <time>2014-08-29T13:17:55Z</time>
      </trkpt>
      <trkpt lat="43.85061" lon="6.41271">
        <ele>1405.691</ele>
        <time>2014-08-29T13:18:05Z</time>
      </trkpt>
      <trkpt lat="43.85055" lon="6.41272">
        <ele>1408.122</ele>
        <time>2014-08-29T13:18:34Z</time>
      </trkpt>
      <trkpt lat="43.85053" lon="6.41271">
        <ele>1409.015</ele>
        <time>2014-08-29T13:18:40Z</time>
      </trkpt>
      <trkpt lat="43.85052" lon="6.4127">
        <ele>1409.575</ele>
        <time>2014-08-29T13:18:41Z</time>
      </trkpt>
      <trkpt lat="43.85049" lon="6.41274">
        <ele>1411.183</ele>
        <time>2014-08-29T13:18:47Z</time>
      </trkpt>
      <trkpt lat="43.85046" lon="6.41276">
        <ele>1413.541</ele>
        <time>2014-08-29T13:18:53Z</time>
      </trkpt>
      <trkpt lat="43.85044" lon="6.41283">
        <ele>1413.679</ele>
        <time>2014-08-29T13:19:01Z</time>
      </trkpt>
      <trkpt lat="43.85044" lon="6.41284">
        <ele>1413.478</ele>
        <time>2014-08-29T13:19:02Z</time>
      </trkpt>
      <trkpt lat="43.8504" lon="6.41291">
        <ele>1412.77</ele>
        <time>2014-08-29T13:19:10Z</time>
      </trkpt>
      <trkpt lat="43.85038" lon="6.41297">
        <ele>1414.145</ele>
        <time>2014-08-29T13:19:18Z</time>
      </trkpt>
      <trkpt lat="43.85035" lon="6.41299">
        <ele>1417.481</ele>
        <time>2014-08-29T13:19:25Z</time>
      </trkpt>
      <trkpt lat="43.85031" lon="6.41301">
        <ele>1419.321</ele>
        <time>2014-08-29T13:19:31Z</time>
      </trkpt>
      <trkpt lat="43.85029" lon="6.41304">
        <ele>1423.09</ele>
        <time>2014-08-29T13:19:38Z</time>
      </trkpt>
      <trkpt lat="43.85021" lon="6.41306">
        <ele>1426.954</ele>
        <time>2014-08-29T13:20:02Z</time>
      </trkpt>
      <trkpt lat="43.85016" lon="6.4131">
        <ele>1425.819</ele>
        <time>2014-08-29T13:20:08Z</time>
      </trkpt>
      <trkpt lat="43.8501" lon="6.41314">
        <ele>1425.028</ele>
        <time>2014-08-29T13:20:17Z</time>
      </trkpt>
      <trkpt lat="43.85009" lon="6.41316">
        <ele>1427.066</ele>
        <time>2014-08-29T13:20:21Z</time>
      </trkpt>
      <trkpt lat="43.85005" lon="6.41319">
        <ele>1427.04</ele>
        <time>2014-08-29T13:20:26Z</time>
      </trkpt>
      <trkpt lat="43.85006" lon="6.41328">
        <ele>1428.391</ele>
        <time>2014-08-29T13:20:33Z</time>
      </trkpt>
      <trkpt lat="43.85002" lon="6.41334">
        <ele>1427.13</ele>
        <time>2014-08-29T13:20:42Z</time>
      </trkpt>
      <trkpt lat="43.84998" lon="6.41335">
        <ele>1428.275</ele>
        <time>2014-08-29T13:20:48Z</time>
      </trkpt>
      <trkpt lat="43.84998" lon="6.4134">
        <ele>1430.003</ele>
        <time>2014-08-29T13:20:53Z</time>
      </trkpt>
      <trkpt lat="43.84998" lon="6.41345">
        <ele>1430.831</ele>
        <time>2014-08-29T13:20:57Z</time>
      </trkpt>
      <trkpt lat="43.84993" lon="6.4135">
        <ele>1426.912</ele>
        <time>2014-08-29T13:21:05Z</time>
      </trkpt>
      <trkpt lat="43.84992" lon="6.41358">
        <ele>1425.758</ele>
        <time>2014-08-29T13:21:13Z</time>
      </trkpt>
      <trkpt lat="43.84991" lon="6.41364">
        <ele>1427.37</ele>
        <time>2014-08-29T13:21:18Z</time>
      </trkpt>
      <trkpt lat="43.84989" lon="6.41373">
        <ele>1429.166</ele>
        <time>2014-08-29T13:21:26Z</time>
      </trkpt>
      <trkpt lat="43.8499" lon="6.41379">
        <ele>1431.161</ele>
        <time>2014-08-29T13:21:32Z</time>
      </trkpt>
      <trkpt lat="43.84989" lon="6.41386">
        <ele>1432.429</ele>
        <time>2014-08-29T13:21:39Z</time>
      </trkpt>
      <trkpt lat="43.84987" lon="6.41387">
        <ele>1432.537</ele>
        <time>2014-08-29T13:21:42Z</time>
      </trkpt>
      <trkpt lat="43.84984" lon="6.41386">
        <ele>1436.732</ele>
        <time>2014-08-29T13:21:48Z</time>
      </trkpt>
      <trkpt lat="43.84982" lon="6.4139">
        <ele>1436.604</ele>
        <time>2014-08-29T13:21:54Z</time>
      </trkpt>
      <trkpt lat="43.84979" lon="6.41393">
        <ele>1436.477</ele>
        <time>2014-08-29T13:22:00Z</time>
      </trkpt>
      <trkpt lat="43.84977" lon="6.41395">
        <ele>1437.972</ele>
        <time>2014-08-29T13:22:06Z</time>
      </trkpt>
      <trkpt lat="43.84974" lon="6.41399">
        <ele>1441.376</ele>
        <time>2014-08-29T13:22:13Z</time>
      </trkpt>
      <trkpt lat="43.84975" lon="6.41406">
        <ele>1444.656</ele>
        <time>2014-08-29T13:22:19Z</time>
      </trkpt>
      <trkpt lat="43.84972" lon="6.41416">
        <ele>1442.445</ele>
        <time>2014-08-29T13:22:28Z</time>
      </trkpt>
      <trkpt lat="43.8497" lon="6.4142">
        <ele>1444.942</ele>
        <time>2014-08-29T13:22:33Z</time>
      </trkpt>
      <trkpt lat="43.84963" lon="6.41427">
        <ele>1445.653</ele>
        <time>2014-08-29T13:22:41Z</time>
      </trkpt>
      <trkpt lat="43.8496" lon="6.41433">
        <ele>1443.352</ele>
        <time>2014-08-29T13:22:49Z</time>
      </trkpt>
      <trkpt lat="43.84958" lon="6.41438">
        <ele>1442.688</ele>
        <time>2014-08-29T13:22:57Z</time>
      </trkpt>
      <trkpt lat="43.84954" lon="6.41451">
        <ele>1442.326</ele>
        <time>2014-08-29T13:23:05Z</time>
      </trkpt>
      <trkpt lat="43.84952" lon="6.41462">
        <ele>1444.635</ele>
        <time>2014-08-29T13:23:10Z</time>
      </trkpt>
      <trkpt lat="43.84949" lon="6.41467">
        <ele>1445.934</ele>
        <time>2014-08-29T13:23:17Z</time>
      </trkpt>
      <trkpt lat="43.84945" lon="6.41473">
        <ele>1453.206</ele>
        <time>2014-08-29T13:36:55Z</time>
      </trkpt>
      <trkpt lat="43.84945" lon="6.41477">
        <ele>1455.206</ele>
        <time>2014-08-29T13:37:16Z</time>
      </trkpt>
      <trkpt lat="43.84944" lon="6.4149">
        <ele>1454.955</ele>
        <time>2014-08-29T13:37:22Z</time>
      </trkpt>
      <trkpt lat="43.84939" lon="6.41495">
        <ele>1453.05</ele>
        <time>2014-08-29T13:37:27Z</time>
      </trkpt>
      <trkpt lat="43.84931" lon="6.41509">
        <ele>1447.66</ele>
        <time>2014-08-29T13:37:33Z</time>
      </trkpt>
      <trkpt lat="43.84925" lon="6.41515">
        <ele>1442.968</ele>
        <time>2014-08-29T13:37:38Z</time>
      </trkpt>
      <trkpt lat="43.84924" lon="6.41518">
        <ele>1443.223</ele>
        <time>2014-08-29T13:37:46Z</time>
      </trkpt>
      <trkpt lat="43.84925" lon="6.4152">
        <ele>1441.229</ele>
        <time>2014-08-29T13:37:52Z</time>
      </trkpt>
      <trkpt lat="43.84925" lon="6.41521">
        <ele>1440.539</ele>
        <time>2014-08-29T13:37:53Z</time>
      </trkpt>
      <trkpt lat="43.84926" lon="6.41523">
        <ele>1438.51</ele>
        <time>2014-08-29T13:37:59Z</time>
      </trkpt>
      <trkpt lat="43.84926" lon="6.41524">
        <ele>1438.521</ele>
        <time>2014-08-29T13:38:02Z</time>
      </trkpt>
      <trkpt lat="43.84929" lon="6.4153">
        <ele>1438.333</ele>
        <time>2014-08-29T13:38:07Z</time>
      </trkpt>
      <trkpt lat="43.84931" lon="6.41532">
        <ele>1438.042</ele>
        <time>2014-08-29T13:38:10Z</time>
      </trkpt>
      <trkpt lat="43.84933" lon="6.41542">
        <ele>1436.73</ele>
        <time>2014-08-29T13:38:15Z</time>
      </trkpt>
      <trkpt lat="43.84931" lon="6.41546">
        <ele>1435.578</ele>
        <time>2014-08-29T13:38:17Z</time>
      </trkpt>
      <trkpt lat="43.84925" lon="6.41556">
        <ele>1432.444</ele>
        <time>2014-08-29T13:38:22Z</time>
      </trkpt>
      <trkpt lat="43.84915" lon="6.41566">
        <ele>1419.003</ele>
        <time>2014-08-29T13:38:27Z</time>
      </trkpt>
      <trkpt lat="43.8491" lon="6.41569">
        <ele>1417.426</ele>
        <time>2014-08-29T13:38:29Z</time>
      </trkpt>
      <trkpt lat="43.84903" lon="6.41576">
        <ele>1414.397</ele>
        <time>2014-08-29T13:38:34Z</time>
      </trkpt>
      <trkpt lat="43.84899" lon="6.41586">
        <ele>1417.282</ele>
        <time>2014-08-29T13:38:48Z</time>
      </trkpt>
      <trkpt lat="43.84889" lon="6.41605">
        <ele>1410.675</ele>
        <time>2014-08-29T13:38:54Z</time>
      </trkpt>
      <trkpt lat="43.84881" lon="6.41616">
        <ele>1409.124</ele>
        <time>2014-08-29T13:38:58Z</time>
      </trkpt>
      <trkpt lat="43.8488" lon="6.41617">
        <ele>1408.113</ele>
        <time>2014-08-29T13:38:59Z</time>
      </trkpt>
      <trkpt lat="43.84875" lon="6.41629">
        <ele>1407.326</ele>
        <time>2014-08-29T13:39:04Z</time>
      </trkpt>
      <trkpt lat="43.84874" lon="6.41631">
        <ele>1408.759</ele>
        <time>2014-08-29T13:39:07Z</time>
      </trkpt>
      <trkpt lat="43.84878" lon="6.41637">
        <ele>1409.281</ele>
        <time>2014-08-29T13:39:12Z</time>
      </trkpt>
      <trkpt lat="43.84881" lon="6.4164">
        <ele>1408.58</ele>
        <time>2014-08-29T13:39:14Z</time>
      </trkpt>
      <trkpt lat="43.84881" lon="6.41653">
        <ele>1405.206</ele>
        <time>2014-08-29T13:39:21Z</time>
      </trkpt>
      <trkpt lat="43.84882" lon="6.41662">
        <ele>1396.504</ele>
        <time>2014-08-29T13:39:25Z</time>
      </trkpt>
      <trkpt lat="43.84882" lon="6.41668">
        <ele>1393.32</ele>
        <time>2014-08-29T13:39:27Z</time>
      </trkpt>
      <trkpt lat="43.84873" lon="6.41674">
        <ele>1387.614</ele>
        <time>2014-08-29T13:39:33Z</time>
      </trkpt>
      <trkpt lat="43.84872" lon="6.41675">
        <ele>1387.504</ele>
        <time>2014-08-29T13:39:34Z</time>
      </trkpt>
      <trkpt lat="43.84874" lon="6.41682">
        <ele>1384.244</ele>
        <time>2014-08-29T13:39:39Z</time>
      </trkpt>
      <trkpt lat="43.84881" lon="6.41686">
        <ele>1382.746</ele>
        <time>2014-08-29T13:39:44Z</time>
      </trkpt>
      <trkpt lat="43.84887" lon="6.41699">
        <ele>1379.625</ele>
        <time>2014-08-29T13:39:49Z</time>
      </trkpt>
      <trkpt lat="43.84882" lon="6.41708">
        <ele>1376.532</ele>
        <time>2014-08-29T13:39:54Z</time>
      </trkpt>
      <trkpt lat="43.84876" lon="6.41723">
        <ele>1371.388</ele>
        <time>2014-08-29T13:40:00Z</time>
      </trkpt>
      <trkpt lat="43.84873" lon="6.41736">
        <ele>1369.98</ele>
        <time>2014-08-29T13:40:04Z</time>
      </trkpt>
      <trkpt lat="43.84869" lon="6.41744">
        <ele>1367.171</ele>
        <time>2014-08-29T13:40:08Z</time>
      </trkpt>
      <trkpt lat="43.84861" lon="6.41755">
        <ele>1359.394</ele>
        <time>2014-08-29T13:40:12Z</time>
      </trkpt>
      <trkpt lat="43.84858" lon="6.41758">
        <ele>1357.792</ele>
        <time>2014-08-29T13:40:13Z</time>
      </trkpt>
      <trkpt lat="43.84855" lon="6.41781">
        <ele>1352.171</ele>
        <time>2014-08-29T13:40:18Z</time>
      </trkpt>
      <trkpt lat="43.84857" lon="6.41793">
        <ele>1349.907</ele>
        <time>2014-08-29T13:40:22Z</time>
      </trkpt>
      <trkpt lat="43.84864" lon="6.41807">
        <ele>1347.282</ele>
        <time>2014-08-29T13:40:28Z</time>
      </trkpt>
      <trkpt lat="43.84864" lon="6.41814">
        <ele>1346.385</ele>
        <time>2014-08-29T13:40:31Z</time>
      </trkpt>
      <trkpt lat="43.8486" lon="6.41826">
        <ele>1344.203</ele>
        <time>2014-08-29T13:40:37Z</time>
      </trkpt>
      <trkpt lat="43.84862" lon="6.41843">
        <ele>1343.775</ele>
        <time>2014-08-29T13:40:43Z</time>
      </trkpt>
      <trkpt lat="43.84856" lon="6.41873">
        <ele>1337.168</ele>
        <time>2014-08-29T13:40:50Z</time>
      </trkpt>
      <trkpt lat="43.84847" lon="6.4189">
        <ele>1333.809</ele>
        <time>2014-08-29T13:40:55Z</time>
      </trkpt>
      <trkpt lat="43.84848" lon="6.41903">
        <ele>1330.16</ele>
        <time>2014-08-29T13:41:00Z</time>
      </trkpt>
      <trkpt lat="43.84842" lon="6.41914">
        <ele>1327.301</ele>
        <time>2014-08-29T13:41:05Z</time>
      </trkpt>
      <trkpt lat="43.84837" lon="6.41921">
        <ele>1323.852</ele>
        <time>2014-08-29T13:41:09Z</time>
      </trkpt>
      <trkpt lat="43.84831" lon="6.41924">
        <ele>1320.142</ele>
        <time>2014-08-29T13:41:12Z</time>
      </trkpt>
      <trkpt lat="43.8483" lon="6.41929">
        <ele>1318.292</ele>
        <time>2014-08-29T13:41:14Z</time>
      </trkpt>
      <trkpt lat="43.84824" lon="6.41943">
        <ele>1312.818</ele>
        <time>2014-08-29T13:41:20Z</time>
      </trkpt>
      <trkpt lat="43.84823" lon="6.41946">
        <ele>1312.017</ele>
        <time>2014-08-29T13:41:21Z</time>
      </trkpt>
      <trkpt lat="43.84819" lon="6.41963">
        <ele>1310.542</ele>
        <time>2014-08-29T13:41:27Z</time>
      </trkpt>
      <trkpt lat="43.84816" lon="6.41979">
        <ele>1306.461</ele>
        <time>2014-08-29T13:41:32Z</time>
      </trkpt>
      <trkpt lat="43.84814" lon="6.41995">
        <ele>1302.379</ele>
        <time>2014-08-29T13:41:37Z</time>
      </trkpt>
      <trkpt lat="43.84809" lon="6.42009">
        <ele>1298.305</ele>
        <time>2014-08-29T13:41:41Z</time>
      </trkpt>
      <trkpt lat="43.8481" lon="6.42022">
        <ele>1293.697</ele>
        <time>2014-08-29T13:41:45Z</time>
      </trkpt>
      <trkpt lat="43.84809" lon="6.42039">
        <ele>1289.047</ele>
        <time>2014-08-29T13:41:50Z</time>
      </trkpt>
      <trkpt lat="43.84809" lon="6.42042">
        <ele>1288.588</ele>
        <time>2014-08-29T13:41:51Z</time>
      </trkpt>
      <trkpt lat="43.8481" lon="6.42052">
        <ele>1287.034</ele>
        <time>2014-08-29T13:41:56Z</time>
      </trkpt>
      <trkpt lat="43.84807" lon="6.42053">
        <ele>1291.677</ele>
        <time>2014-08-29T13:42:23Z</time>
      </trkpt>
      <trkpt lat="43.84807" lon="6.42057">
        <ele>1292.206</ele>
        <time>2014-08-29T13:42:31Z</time>
      </trkpt>
      <trkpt lat="43.84807" lon="6.42058">
        <ele>1292.557</ele>
        <time>2014-08-29T13:42:33Z</time>
      </trkpt>
      <trkpt lat="43.84806" lon="6.42063">
        <ele>1291.546</ele>
        <time>2014-08-29T13:42:39Z</time>
      </trkpt>
      <trkpt lat="43.84805" lon="6.42068">
        <ele>1290.363</ele>
        <time>2014-08-29T13:42:46Z</time>
      </trkpt>
      <trkpt lat="43.84796" lon="6.42079">
        <ele>1283.576</ele>
        <time>2014-08-29T13:42:52Z</time>
      </trkpt>
      <trkpt lat="43.84786" lon="6.42093">
        <ele>1277.272</ele>
        <time>2014-08-29T13:42:58Z</time>
      </trkpt>
      <trkpt lat="43.84783" lon="6.421">
        <ele>1274.37</ele>
        <time>2014-08-29T13:43:02Z</time>
      </trkpt>
      <trkpt lat="43.84782" lon="6.42101">
        <ele>1277.127</ele>
        <time>2014-08-29T13:43:10Z</time>
      </trkpt>
      <trkpt lat="43.8478" lon="6.421">
        <ele>1279.621</ele>
        <time>2014-08-29T13:43:35Z</time>
      </trkpt>
      <trkpt lat="43.84777" lon="6.42108">
        <ele>1275.115</ele>
        <time>2014-08-29T13:44:34Z</time>
      </trkpt>
      <trkpt lat="43.84776" lon="6.42125">
        <ele>1273.544</ele>
        <time>2014-08-29T13:44:39Z</time>
      </trkpt>
      <trkpt lat="43.84775" lon="6.4214">
        <ele>1270.731</ele>
        <time>2014-08-29T13:44:44Z</time>
      </trkpt>
      <trkpt lat="43.84772" lon="6.42158">
        <ele>1267.299</ele>
        <time>2014-08-29T13:44:49Z</time>
      </trkpt>
      <trkpt lat="43.84772" lon="6.42168">
        <ele>1264.607</ele>
        <time>2014-08-29T13:44:53Z</time>
      </trkpt>
      <trkpt lat="43.84772" lon="6.42184">
        <ele>1260.105</ele>
        <time>2014-08-29T13:44:57Z</time>
      </trkpt>
      <trkpt lat="43.84771" lon="6.42188">
        <ele>1258.174</ele>
        <time>2014-08-29T13:44:59Z</time>
      </trkpt>
      <trkpt lat="43.84767" lon="6.42198">
        <ele>1253.901</ele>
        <time>2014-08-29T13:45:04Z</time>
      </trkpt>
      <trkpt lat="43.84759" lon="6.42215">
        <ele>1247.878</ele>
        <time>2014-08-29T13:45:10Z</time>
      </trkpt>
      <trkpt lat="43.84751" lon="6.42213">
        <ele>1242.802</ele>
        <time>2014-08-29T13:45:15Z</time>
      </trkpt>
      <trkpt lat="43.84736" lon="6.42218">
        <ele>1236.026</ele>
        <time>2014-08-29T13:45:21Z</time>
      </trkpt>
      <trkpt lat="43.8473" lon="6.42219">
        <ele>1234.308</ele>
        <time>2014-08-29T13:45:23Z</time>
      </trkpt>
      <trkpt lat="43.84726" lon="6.42222">
        <ele>1232.739</ele>
        <time>2014-08-29T13:45:25Z</time>
      </trkpt>
      <trkpt lat="43.84721" lon="6.42221">
        <ele>1230.536</ele>
        <time>2014-08-29T13:45:30Z</time>
      </trkpt>
      <trkpt lat="43.8472" lon="6.4222">
        <ele>1230.41</ele>
        <time>2014-08-29T13:45:31Z</time>
      </trkpt>
      <trkpt lat="43.84716" lon="6.4222">
        <ele>1228.842</ele>
        <time>2014-08-29T13:45:37Z</time>
      </trkpt>
      <trkpt lat="43.84711" lon="6.42226">
        <ele>1227.059</ele>
        <time>2014-08-29T13:45:41Z</time>
      </trkpt>
      <trkpt lat="43.84704" lon="6.42241">
        <ele>1225.589</ele>
        <time>2014-08-29T13:45:45Z</time>
      </trkpt>
      <trkpt lat="43.84704" lon="6.42253">
        <ele>1224.348</ele>
        <time>2014-08-29T13:45:48Z</time>
      </trkpt>
      <trkpt lat="43.84696" lon="6.4226">
        <ele>1221.183</ele>
        <time>2014-08-29T13:45:52Z</time>
      </trkpt>
      <trkpt lat="43.84678" lon="6.42266">
        <ele>1215.624</ele>
        <time>2014-08-29T13:45:58Z</time>
      </trkpt>
      <trkpt lat="43.84667" lon="6.42271">
        <ele>1212.311</ele>
        <time>2014-08-29T13:46:02Z</time>
      </trkpt>
      <trkpt lat="43.84654" lon="6.42285">
        <ele>1208.884</ele>
        <time>2014-08-29T13:46:07Z</time>
      </trkpt>
      <trkpt lat="43.84637" lon="6.42292">
        <ele>1204.932</ele>
        <time>2014-08-29T13:46:12Z</time>
      </trkpt>
      <trkpt lat="43.8462" lon="6.42296">
        <ele>1200.961</ele>
        <time>2014-08-29T13:46:17Z</time>
      </trkpt>
      <trkpt lat="43.84615" lon="6.423">
        <ele>1199.643</ele>
        <time>2014-08-29T13:46:19Z</time>
      </trkpt>
      <trkpt lat="43.84604" lon="6.42301">
        <ele>1197.014</ele>
        <time>2014-08-29T13:46:23Z</time>
      </trkpt>
      <trkpt lat="43.84589" lon="6.4231">
        <ele>1193.193</ele>
        <time>2014-08-29T13:46:28Z</time>
      </trkpt>
      <trkpt lat="43.84582" lon="6.42318">
        <ele>1190.091</ele>
        <time>2014-08-29T13:46:31Z</time>
      </trkpt>
      <trkpt lat="43.84573" lon="6.42327">
        <ele>1187.504</ele>
        <time>2014-08-29T13:46:35Z</time>
      </trkpt>
      <trkpt lat="43.84569" lon="6.42335">
        <ele>1186.245</ele>
        <time>2014-08-29T13:46:37Z</time>
      </trkpt>
      <trkpt lat="43.84559" lon="6.42353">
        <ele>1183.966</ele>
        <time>2014-08-29T13:46:42Z</time>
      </trkpt>
      <trkpt lat="43.84556" lon="6.42355">
        <ele>1183.566</ele>
        <time>2014-08-29T13:46:43Z</time>
      </trkpt>
      <trkpt lat="43.84541" lon="6.42374">
        <ele>1180.426</ele>
        <time>2014-08-29T13:46:49Z</time>
      </trkpt>
      <trkpt lat="43.84531" lon="6.42383">
        <ele>1178.305</ele>
        <time>2014-08-29T13:46:52Z</time>
      </trkpt>
      <trkpt lat="43.84516" lon="6.4241">
        <ele>1176.298</ele>
        <time>2014-08-29T13:46:57Z</time>
      </trkpt>
      <trkpt lat="43.84511" lon="6.42424">
        <ele>1175.21</ele>
        <time>2014-08-29T13:47:01Z</time>
      </trkpt>
      <trkpt lat="43.84511" lon="6.42424">
        <ele>1176.929</ele>
        <time>2014-08-29T13:47:07Z</time>
      </trkpt>
      <trkpt lat="43.84511" lon="6.42423">
        <ele>1176.739</ele>
        <time>2014-08-29T13:47:14Z</time>
      </trkpt>
      <trkpt lat="43.84509" lon="6.42423">
        <ele>1171.498</ele>
        <time>2014-08-29T13:47:39Z</time>
      </trkpt>
      <trkpt lat="43.84502" lon="6.42428">
        <ele>1171.095</ele>
        <time>2014-08-29T13:47:43Z</time>
      </trkpt>
      <trkpt lat="43.84497" lon="6.42432">
        <ele>1170.292</ele>
        <time>2014-08-29T13:47:45Z</time>
      </trkpt>
      <trkpt lat="43.84485" lon="6.42446">
        <ele>1167.608</ele>
        <time>2014-08-29T13:47:49Z</time>
      </trkpt>
      <trkpt lat="43.84477" lon="6.42452">
        <ele>1165.695</ele>
        <time>2014-08-29T13:47:51Z</time>
      </trkpt>
      <trkpt lat="43.8447" lon="6.42458">
        <ele>1163.602</ele>
        <time>2014-08-29T13:47:53Z</time>
      </trkpt>
      <trkpt lat="43.84454" lon="6.42484">
        <ele>1156.905</ele>
        <time>2014-08-29T13:47:59Z</time>
      </trkpt>
      <trkpt lat="43.84445" lon="6.42497">
        <ele>1152.78</ele>
        <time>2014-08-29T13:48:03Z</time>
      </trkpt>
      <trkpt lat="43.84435" lon="6.42494">
        <ele>1150.211</ele>
        <time>2014-08-29T13:48:06Z</time>
      </trkpt>
      <trkpt lat="43.84428" lon="6.42496">
        <ele>1148.199</ele>
        <time>2014-08-29T13:48:08Z</time>
      </trkpt>
      <trkpt lat="43.84409" lon="6.42513">
        <ele>1142.64</ele>
        <time>2014-08-29T13:48:14Z</time>
      </trkpt>
      <trkpt lat="43.84403" lon="6.42523">
        <ele>1140.891</ele>
        <time>2014-08-29T13:48:17Z</time>
      </trkpt>
      <trkpt lat="43.84397" lon="6.42535">
        <ele>1138.741</ele>
        <time>2014-08-29T13:48:20Z</time>
      </trkpt>
      <trkpt lat="43.84383" lon="6.42543">
        <ele>1134.358</ele>
        <time>2014-08-29T13:48:25Z</time>
      </trkpt>
      <trkpt lat="43.84379" lon="6.42547">
        <ele>1132.23</ele>
        <time>2014-08-29T13:48:28Z</time>
      </trkpt>
      <trkpt lat="43.84378" lon="6.4255">
        <ele>1131.871</ele>
        <time>2014-08-29T13:48:29Z</time>
      </trkpt>
      <trkpt lat="43.84378" lon="6.4257">
        <ele>1129.605</ele>
        <time>2014-08-29T13:48:35Z</time>
      </trkpt>
      <trkpt lat="43.84377" lon="6.42596">
        <ele>1129.352</ele>
        <time>2014-08-29T13:48:42Z</time>
      </trkpt>
      <trkpt lat="43.84377" lon="6.42598">
        <ele>1129.664</ele>
        <time>2014-08-29T13:48:43Z</time>
      </trkpt>
      <trkpt lat="43.84378" lon="6.42606">
        <ele>1132.341</ele>
        <time>2014-08-29T13:48:49Z</time>
      </trkpt>
      <trkpt lat="43.84374" lon="6.4262">
        <ele>1133.359</ele>
        <time>2014-08-29T13:48:56Z</time>
      </trkpt>
      <trkpt lat="43.84368" lon="6.42644">
        <ele>1133.748</ele>
        <time>2014-08-29T13:49:03Z</time>
      </trkpt>
      <trkpt lat="43.84359" lon="6.42664">
        <ele>1129.448</ele>
        <time>2014-08-29T13:49:09Z</time>
      </trkpt>
      <trkpt lat="43.84347" lon="6.42678">
        <ele>1125.404</ele>
        <time>2014-08-29T13:49:14Z</time>
      </trkpt>
      <trkpt lat="43.84344" lon="6.42685">
        <ele>1123.573</ele>
        <time>2014-08-29T13:49:16Z</time>
      </trkpt>
      <trkpt lat="43.84335" lon="6.42686">
        <ele>1120.034</ele>
        <time>2014-08-29T13:49:20Z</time>
      </trkpt>
      <trkpt lat="43.84334" lon="6.42682">
        <ele>1119.103</ele>
        <time>2014-08-29T13:49:21Z</time>
      </trkpt>
      <trkpt lat="43.84327" lon="6.42659">
        <ele>1116.316</ele>
        <time>2014-08-29T13:49:26Z</time>
      </trkpt>
      <trkpt lat="43.84319" lon="6.42638">
        <ele>1112.772</ele>
        <time>2014-08-29T13:49:32Z</time>
      </trkpt>
      <trkpt lat="43.84309" lon="6.42622">
        <ele>1109.039</ele>
        <time>2014-08-29T13:49:36Z</time>
      </trkpt>
      <trkpt lat="43.84307" lon="6.42619">
        <ele>1108.32</ele>
        <time>2014-08-29T13:49:37Z</time>
      </trkpt>
      <trkpt lat="43.84301" lon="6.42609">
        <ele>1105.024</ele>
        <time>2014-08-29T13:49:43Z</time>
      </trkpt>
      <trkpt lat="43.84294" lon="6.42617">
        <ele>1101.493</ele>
        <time>2014-08-29T13:49:48Z</time>
      </trkpt>
      <trkpt lat="43.84287" lon="6.42611">
        <ele>1098.473</ele>
        <time>2014-08-29T13:49:53Z</time>
      </trkpt>
      <trkpt lat="43.84285" lon="6.42612">
        <ele>1097.094</ele>
        <time>2014-08-29T13:49:55Z</time>
      </trkpt>
      <trkpt lat="43.84283" lon="6.42615">
        <ele>1095.173</ele>
        <time>2014-08-29T13:49:57Z</time>
      </trkpt>
      <trkpt lat="43.84279" lon="6.42616">
        <ele>1090.657</ele>
        <time>2014-08-29T13:50:02Z</time>
      </trkpt>
      <trkpt lat="43.84278" lon="6.42614">
        <ele>1093.64</ele>
        <time>2014-08-29T13:50:33Z</time>
      </trkpt>
      <trkpt lat="43.84276" lon="6.42612">
        <ele>1094.008</ele>
        <time>2014-08-29T13:50:42Z</time>
      </trkpt>
      <trkpt lat="43.8427" lon="6.42612">
        <ele>1091.572</ele>
        <time>2014-08-29T13:50:47Z</time>
      </trkpt>
      <trkpt lat="43.84269" lon="6.42622">
        <ele>1088.579</ele>
        <time>2014-08-29T13:50:51Z</time>
      </trkpt>
      <trkpt lat="43.84266" lon="6.42631">
        <ele>1085.137</ele>
        <time>2014-08-29T13:50:56Z</time>
      </trkpt>
      <trkpt lat="43.84259" lon="6.42635">
        <ele>1081.643</ele>
        <time>2014-08-29T13:51:00Z</time>
      </trkpt>
      <trkpt lat="43.84251" lon="6.42639">
        <ele>1076.52</ele>
        <time>2014-08-29T13:51:04Z</time>
      </trkpt>
      <trkpt lat="43.84245" lon="6.4264">
        <ele>1072.408</ele>
        <time>2014-08-29T13:51:07Z</time>
      </trkpt>
      <trkpt lat="43.84241" lon="6.42632">
        <ele>1070.065</ele>
        <time>2014-08-29T13:51:12Z</time>
      </trkpt>
      <trkpt lat="43.8424" lon="6.4263">
        <ele>1069.716</ele>
        <time>2014-08-29T13:51:14Z</time>
      </trkpt>
      <trkpt lat="43.84236" lon="6.42635">
        <ele>1068.46</ele>
        <time>2014-08-29T13:51:19Z</time>
      </trkpt>
      <trkpt lat="43.84231" lon="6.42645">
        <ele>1064.695</ele>
        <time>2014-08-29T13:51:24Z</time>
      </trkpt>
      <trkpt lat="43.84229" lon="6.42664">
        <ele>1061.736</ele>
        <time>2014-08-29T13:51:30Z</time>
      </trkpt>
      <trkpt lat="43.84236" lon="6.42692">
        <ele>1057.306</ele>
        <time>2014-08-29T13:51:37Z</time>
      </trkpt>
      <trkpt lat="43.84236" lon="6.42697">
        <ele>1056.787</ele>
        <time>2014-08-29T13:51:39Z</time>
      </trkpt>
      <trkpt lat="43.84224" lon="6.42712">
        <ele>1051.054</ele>
        <time>2014-08-29T13:51:45Z</time>
      </trkpt>
      <trkpt lat="43.84212" lon="6.42718">
        <ele>1047.825</ele>
        <time>2014-08-29T13:51:49Z</time>
      </trkpt>
      <trkpt lat="43.84209" lon="6.4272">
        <ele>1046.784</ele>
        <time>2014-08-29T13:51:50Z</time>
      </trkpt>
      <trkpt lat="43.84189" lon="6.42738">
        <ele>1042.454</ele>
        <time>2014-08-29T13:51:56Z</time>
      </trkpt>
      <trkpt lat="43.84179" lon="6.42746">
        <ele>1040.214</ele>
        <time>2014-08-29T13:51:59Z</time>
      </trkpt>
      <trkpt lat="43.84161" lon="6.42753">
        <ele>1037.307</ele>
        <time>2014-08-29T13:52:04Z</time>
      </trkpt>
      <trkpt lat="43.84157" lon="6.42744">
        <ele>1037.24</ele>
        <time>2014-08-29T13:52:07Z</time>
      </trkpt>
      <trkpt lat="43.84146" lon="6.42735">
        <ele>1037.072</ele>
        <time>2014-08-29T13:52:11Z</time>
      </trkpt>
      <trkpt lat="43.84124" lon="6.42724">
        <ele>1034.266</ele>
        <time>2014-08-29T13:52:17Z</time>
      </trkpt>
      <trkpt lat="43.84115" lon="6.42714">
        <ele>1032.113</ele>
        <time>2014-08-29T13:52:20Z</time>
      </trkpt>
      <trkpt lat="43.84114" lon="6.42697">
        <ele>1029.443</ele>
        <time>2014-08-29T13:52:24Z</time>
      </trkpt>
      <trkpt lat="43.84126" lon="6.42694">
        <ele>1026.902</ele>
        <time>2014-08-29T13:52:28Z</time>
      </trkpt>
      <trkpt lat="43.84135" lon="6.42705">
        <ele>1024.014</ele>
        <time>2014-08-29T13:52:32Z</time>
      </trkpt>
      <trkpt lat="43.84144" lon="6.42705">
        <ele>1018.558</ele>
        <time>2014-08-29T13:52:36Z</time>
      </trkpt>
      <trkpt lat="43.8415" lon="6.42703">
        <ele>1014.667</ele>
        <time>2014-08-29T13:52:39Z</time>
      </trkpt>
      <trkpt lat="43.84155" lon="6.42697">
        <ele>1011.658</ele>
        <time>2014-08-29T13:52:42Z</time>
      </trkpt>
      <trkpt lat="43.84157" lon="6.42691">
        <ele>1010.72</ele>
        <time>2014-08-29T13:52:44Z</time>
      </trkpt>
      <trkpt lat="43.84161" lon="6.42687">
        <ele>1010.818</ele>
        <time>2014-08-29T13:52:50Z</time>
      </trkpt>
      <trkpt lat="43.84162" lon="6.42684">
        <ele>1012.518</ele>
        <time>2014-08-29T13:53:00Z</time>
      </trkpt>
      <trkpt lat="43.84164" lon="6.42682">
        <ele>1020.104</ele>
        <time>2014-08-29T13:53:10Z</time>
      </trkpt>
      <trkpt lat="43.84165" lon="6.42681">
        <ele>1021.304</ele>
        <time>2014-08-29T13:53:14Z</time>
      </trkpt>
      <trkpt lat="43.84163" lon="6.42676">
        <ele>1021.991</ele>
        <time>2014-08-29T13:53:18Z</time>
      </trkpt>
      <trkpt lat="43.84161" lon="6.42679">
        <ele>1017.555</ele>
        <time>2014-08-29T13:53:25Z</time>
      </trkpt>
      <trkpt lat="43.84155" lon="6.4268">
        <ele>1014.111</ele>
        <time>2014-08-29T13:53:29Z</time>
      </trkpt>
      <trkpt lat="43.84151" lon="6.42681">
        <ele>1011.396</ele>
        <time>2014-08-29T13:53:35Z</time>
      </trkpt>
      <trkpt lat="43.8415" lon="6.42681">
        <ele>1011.005</ele>
        <time>2014-08-29T13:53:36Z</time>
      </trkpt>
      <trkpt lat="43.84147" lon="6.42678">
        <ele>1008.702</ele>
        <time>2014-08-29T13:53:41Z</time>
      </trkpt>
      <trkpt lat="43.84147" lon="6.42677">
        <ele>1008.173</ele>
        <time>2014-08-29T13:53:42Z</time>
      </trkpt>
      <trkpt lat="43.84144" lon="6.42676">
        <ele>1006.625</ele>
        <time>2014-08-29T13:53:48Z</time>
      </trkpt>
      <trkpt lat="43.8414" lon="6.42673">
        <ele>1007.169</ele>
        <time>2014-08-29T13:53:52Z</time>
      </trkpt>
      <trkpt lat="43.84129" lon="6.42662">
        <ele>1008.881</ele>
        <time>2014-08-29T13:53:57Z</time>
      </trkpt>
      <trkpt lat="43.8412" lon="6.42661">
        <ele>1006.414</ele>
        <time>2014-08-29T13:54:02Z</time>
      </trkpt>
      <trkpt lat="43.84112" lon="6.42663">
        <ele>1003.551</ele>
        <time>2014-08-29T13:54:06Z</time>
      </trkpt>
      <trkpt lat="43.8411" lon="6.42665">
        <ele>1002.93</ele>
        <time>2014-08-29T13:54:07Z</time>
      </trkpt>
      <trkpt lat="43.84103" lon="6.4267">
        <ele>1000.32</ele>
        <time>2014-08-29T13:54:10Z</time>
      </trkpt>
      <trkpt lat="43.84086" lon="6.42676">
        <ele>995.808</ele>
        <time>2014-08-29T13:54:15Z</time>
      </trkpt>
      <trkpt lat="43.84082" lon="6.42675">
        <ele>995.019</ele>
        <time>2014-08-29T13:54:18Z</time>
      </trkpt>
      <trkpt lat="43.84091" lon="6.4267">
        <ele>993.087</ele>
        <time>2014-08-29T13:54:22Z</time>
      </trkpt>
      <trkpt lat="43.84095" lon="6.42655">
        <ele>994.021</ele>
        <time>2014-08-29T13:54:26Z</time>
      </trkpt>
      <trkpt lat="43.84101" lon="6.42647">
        <ele>992.792</ele>
        <time>2014-08-29T13:54:30Z</time>
      </trkpt>
      <trkpt lat="43.841" lon="6.42646">
        <ele>992.575</ele>
        <time>2014-08-29T13:54:32Z</time>
      </trkpt>
      <trkpt lat="43.84091" lon="6.42657">
        <ele>988.11</ele>
        <time>2014-08-29T13:54:37Z</time>
      </trkpt>
      <trkpt lat="43.84088" lon="6.42659">
        <ele>987.531</ele>
        <time>2014-08-29T13:54:38Z</time>
      </trkpt>
      <trkpt lat="43.84076" lon="6.4267">
        <ele>982.768</ele>
        <time>2014-08-29T13:54:43Z</time>
      </trkpt>
      <trkpt lat="43.84078" lon="6.42662">
        <ele>981.28</ele>
        <time>2014-08-29T13:54:47Z</time>
      </trkpt>
      <trkpt lat="43.84087" lon="6.42641">
        <ele>981.954</ele>
        <time>2014-08-29T13:54:52Z</time>
      </trkpt>
      <trkpt lat="43.84088" lon="6.42638">
        <ele>981.984</ele>
        <time>2014-08-29T13:54:53Z</time>
      </trkpt>
      <trkpt lat="43.84085" lon="6.42626">
        <ele>979.62</ele>
        <time>2014-08-29T13:54:58Z</time>
      </trkpt>
      <trkpt lat="43.8408" lon="6.42632">
        <ele>976.598</ele>
        <time>2014-08-29T13:55:01Z</time>
      </trkpt>
      <trkpt lat="43.84068" lon="6.42644">
        <ele>969.622</ele>
        <time>2014-08-29T13:55:06Z</time>
      </trkpt>
      <trkpt lat="43.84054" lon="6.42652">
        <ele>964.25</ele>
        <time>2014-08-29T13:55:11Z</time>
      </trkpt>
      <trkpt lat="43.84036" lon="6.42668">
        <ele>958.753</ele>
        <time>2014-08-29T13:55:17Z</time>
      </trkpt>
      <trkpt lat="43.84027" lon="6.42683">
        <ele>955.001</ele>
        <time>2014-08-29T13:55:21Z</time>
      </trkpt>
      <trkpt lat="43.84019" lon="6.42698">
        <ele>951.291</ele>
        <time>2014-08-29T13:55:25Z</time>
      </trkpt>
      <trkpt lat="43.83999" lon="6.42703">
        <ele>945.29</ele>
        <time>2014-08-29T13:55:31Z</time>
      </trkpt>
      <trkpt lat="43.83996" lon="6.42705">
        <ele>944.07</ele>
        <time>2014-08-29T13:55:32Z</time>
      </trkpt>
      <trkpt lat="43.8398" lon="6.42715">
        <ele>938.842</ele>
        <time>2014-08-29T13:55:38Z</time>
      </trkpt>
      <trkpt lat="43.83961" lon="6.4272">
        <ele>933.685</ele>
        <time>2014-08-29T13:55:45Z</time>
      </trkpt>
      <trkpt lat="43.83959" lon="6.42722">
        <ele>933.315</ele>
        <time>2014-08-29T13:55:46Z</time>
      </trkpt>
      <trkpt lat="43.83958" lon="6.42715">
        <ele>931.917</ele>
        <time>2014-08-29T13:55:50Z</time>
      </trkpt>
      <trkpt lat="43.83956" lon="6.4271">
        <ele>930.808</ele>
        <time>2014-08-29T13:55:54Z</time>
      </trkpt>
      <trkpt lat="43.8395" lon="6.42707">
        <ele>928.597</ele>
        <time>2014-08-29T13:55:58Z</time>
      </trkpt>
      <trkpt lat="43.83952" lon="6.42702">
        <ele>929.01</ele>
        <time>2014-08-29T13:56:00Z</time>
      </trkpt>
      <trkpt lat="43.83948" lon="6.42698">
        <ele>927.488</ele>
        <time>2014-08-29T13:56:05Z</time>
      </trkpt>
      <trkpt lat="43.83946" lon="6.427">
        <ele>926.908</ele>
        <time>2014-08-29T13:56:06Z</time>
      </trkpt>
      <trkpt lat="43.83942" lon="6.42703">
        <ele>925.937</ele>
        <time>2014-08-29T13:56:08Z</time>
      </trkpt>
      <trkpt lat="43.83939" lon="6.42698">
        <ele>924.859</ele>
        <time>2014-08-29T13:56:12Z</time>
      </trkpt>
      <trkpt lat="43.8394" lon="6.42689">
        <ele>923.949</ele>
        <time>2014-08-29T13:56:16Z</time>
      </trkpt>
      <trkpt lat="43.83937" lon="6.42689">
        <ele>922.216</ele>
        <time>2014-08-29T13:56:18Z</time>
      </trkpt>
      <trkpt lat="43.83932" lon="6.4269">
        <ele>920.425</ele>
        <time>2014-08-29T13:56:21Z</time>
      </trkpt>
      <trkpt lat="43.83919" lon="6.42676">
        <ele>916.072</ele>
        <time>2014-08-29T13:56:26Z</time>
      </trkpt>
      <trkpt lat="43.83911" lon="6.42665">
        <ele>914.3</ele>
        <time>2014-08-29T13:56:28Z</time>
      </trkpt>
      <trkpt lat="43.83902" lon="6.42657">
        <ele>912.312</ele>
        <time>2014-08-29T13:56:30Z</time>
      </trkpt>
      <trkpt lat="43.83897" lon="6.42646">
        <ele>909.934</ele>
        <time>2014-08-29T13:56:34Z</time>
      </trkpt>
      <trkpt lat="43.83896" lon="6.42647">
        <ele>908.985</ele>
        <time>2014-08-29T13:56:35Z</time>
      </trkpt>
      <trkpt lat="43.8389" lon="6.42658">
        <ele>905.454</ele>
        <time>2014-08-29T13:56:39Z</time>
      </trkpt>
      <trkpt lat="43.83887" lon="6.42652">
        <ele>904.399</ele>
        <time>2014-08-29T13:56:43Z</time>
      </trkpt>
      <trkpt lat="43.83883" lon="6.42646">
        <ele>903.068</ele>
        <time>2014-08-29T13:56:46Z</time>
      </trkpt>
      <trkpt lat="43.83879" lon="6.42652">
        <ele>901.488</ele>
        <time>2014-08-29T13:56:49Z</time>
      </trkpt>
      <trkpt lat="43.83877" lon="6.42659">
        <ele>899.407</ele>
        <time>2014-08-29T13:56:52Z</time>
      </trkpt>
      <trkpt lat="43.83875" lon="6.42653">
        <ele>898.099</ele>
        <time>2014-08-29T13:56:55Z</time>
      </trkpt>
      <trkpt lat="43.83873" lon="6.42639">
        <ele>896.209</ele>
        <time>2014-08-29T13:56:59Z</time>
      </trkpt>
      <trkpt lat="43.83869" lon="6.42636">
        <ele>894.408</ele>
        <time>2014-08-29T13:57:03Z</time>
      </trkpt>
      <trkpt lat="43.83862" lon="6.42647">
        <ele>891.506</ele>
        <time>2014-08-29T13:57:07Z</time>
      </trkpt>
      <trkpt lat="43.83861" lon="6.42642">
        <ele>890.208</ele>
        <time>2014-08-29T13:57:10Z</time>
      </trkpt>
      <trkpt lat="43.83858" lon="6.4264">
        <ele>887.778</ele>
        <time>2014-08-29T13:57:15Z</time>
      </trkpt>
      <trkpt lat="43.83856" lon="6.42638">
        <ele>887.03</ele>
        <time>2014-08-29T13:57:18Z</time>
      </trkpt>
      <trkpt lat="43.83858" lon="6.42632">
        <ele>887.072</ele>
        <time>2014-08-29T13:57:20Z</time>
      </trkpt>
      <trkpt lat="43.83861" lon="6.42625">
        <ele>887.003</ele>
        <time>2014-08-29T13:57:22Z</time>
      </trkpt>
      <trkpt lat="43.83857" lon="6.42624">
        <ele>886.853</ele>
        <time>2014-08-29T13:57:26Z</time>
      </trkpt>
      <trkpt lat="43.8385" lon="6.42633">
        <ele>883.899</ele>
        <time>2014-08-29T13:57:30Z</time>
      </trkpt>
      <trkpt lat="43.83848" lon="6.42626">
        <ele>882.109</ele>
        <time>2014-08-29T13:57:33Z</time>
      </trkpt>
      <trkpt lat="43.8385" lon="6.42614">
        <ele>880.839</ele>
        <time>2014-08-29T13:57:37Z</time>
      </trkpt>
      <trkpt lat="43.83845" lon="6.42612">
        <ele>878.317</ele>
        <time>2014-08-29T13:57:40Z</time>
      </trkpt>
      <trkpt lat="43.83835" lon="6.42612">
        <ele>872.937</ele>
        <time>2014-08-29T13:57:46Z</time>
      </trkpt>
      <trkpt lat="43.83837" lon="6.42603">
        <ele>870.307</ele>
        <time>2014-08-29T13:57:50Z</time>
      </trkpt>
      <trkpt lat="43.83833" lon="6.42603">
        <ele>868.647</ele>
        <time>2014-08-29T13:57:53Z</time>
      </trkpt>
      <trkpt lat="43.83825" lon="6.42605">
        <ele>866.133</ele>
        <time>2014-08-29T13:57:59Z</time>
      </trkpt>
      <trkpt lat="43.83825" lon="6.42604">
        <ele>864.217</ele>
        <time>2014-08-29T13:58:27Z</time>
      </trkpt>
      <trkpt lat="43.83826" lon="6.42604">
        <ele>868.203</ele>
        <time>2014-08-29T13:58:34Z</time>
      </trkpt>
      <trkpt lat="43.83827" lon="6.42604">
        <ele>872.51</ele>
        <time>2014-08-29T13:58:47Z</time>
      </trkpt>
      <trkpt lat="43.83837" lon="6.42595">
        <ele>871.286</ele>
        <time>2014-08-29T13:58:52Z</time>
      </trkpt>
      <trkpt lat="43.83856" lon="6.4259">
        <ele>868.676</ele>
        <time>2014-08-29T13:58:58Z</time>
      </trkpt>
      <trkpt lat="43.83869" lon="6.42587">
        <ele>866.897</ele>
        <time>2014-08-29T13:59:04Z</time>
      </trkpt>
      <trkpt lat="43.83883" lon="6.42584">
        <ele>865.938</ele>
        <time>2014-08-29T13:59:11Z</time>
      </trkpt>
      <trkpt lat="43.83895" lon="6.42576">
        <ele>863.911</ele>
        <time>2014-08-29T13:59:17Z</time>
      </trkpt>
      <trkpt lat="43.83897" lon="6.42563">
        <ele>863.28</ele>
        <time>2014-08-29T13:59:21Z</time>
      </trkpt>
      <trkpt lat="43.83893" lon="6.42551">
        <ele>862.689</ele>
        <time>2014-08-29T13:59:24Z</time>
      </trkpt>
      <trkpt lat="43.83889" lon="6.42523">
        <ele>860.427</ele>
        <time>2014-08-29T13:59:30Z</time>
      </trkpt>
      <trkpt lat="43.83887" lon="6.42497">
        <ele>860.853</ele>
        <time>2014-08-29T13:59:35Z</time>
      </trkpt>
      <trkpt lat="43.83894" lon="6.42476">
        <ele>856.246</ele>
        <time>2014-08-29T13:59:39Z</time>
      </trkpt>
      <trkpt lat="43.83898" lon="6.42472">
        <ele>855.585</ele>
        <time>2014-08-29T13:59:40Z</time>
      </trkpt>
      <trkpt lat="43.8392" lon="6.42458">
        <ele>852.404</ele>
        <time>2014-08-29T13:59:44Z</time>
      </trkpt>
      <trkpt lat="43.83939" lon="6.42452">
        <ele>852.027</ele>
        <time>2014-08-29T13:59:48Z</time>
      </trkpt>
      <trkpt lat="43.8394" lon="6.42439">
        <ele>852.781</ele>
        <time>2014-08-29T13:59:51Z</time>
      </trkpt>
      <trkpt lat="43.83947" lon="6.42419">
        <ele>852.993</ele>
        <time>2014-08-29T13:59:55Z</time>
      </trkpt>
      <trkpt lat="43.8395" lon="6.42416">
        <ele>853.324</ele>
        <time>2014-08-29T13:59:56Z</time>
      </trkpt>
      <trkpt lat="43.83963" lon="6.42403">
        <ele>854.195</ele>
        <time>2014-08-29T14:00:02Z</time>
      </trkpt>
      <trkpt lat="43.83965" lon="6.42396">
        <ele>854.315</ele>
        <time>2014-08-29T14:00:04Z</time>
      </trkpt>
      <trkpt lat="43.83962" lon="6.42381">
        <ele>853.075</ele>
        <time>2014-08-29T14:00:08Z</time>
      </trkpt>
      <trkpt lat="43.83959" lon="6.42376">
        <ele>852.264</ele>
        <time>2014-08-29T14:00:10Z</time>
      </trkpt>
      <trkpt lat="43.8394" lon="6.42372">
        <ele>853.427</ele>
        <time>2014-08-29T14:00:17Z</time>
      </trkpt>
      <trkpt lat="43.83918" lon="6.4237">
        <ele>856.149</ele>
        <time>2014-08-29T14:00:26Z</time>
      </trkpt>
      <trkpt lat="43.83913" lon="6.42363">
        <ele>857.829</ele>
        <time>2014-08-29T14:00:29Z</time>
      </trkpt>
      <trkpt lat="43.83911" lon="6.42361">
        <ele>857.318</ele>
        <time>2014-08-29T14:00:32Z</time>
      </trkpt>
      <trkpt lat="43.83909" lon="6.42357">
        <ele>856.968</ele>
        <time>2014-08-29T14:00:38Z</time>
      </trkpt>
      <trkpt lat="43.83906" lon="6.4235">
        <ele>855.687</ele>
        <time>2014-08-29T14:00:43Z</time>
      </trkpt>
      <trkpt lat="43.83899" lon="6.42339">
        <ele>855.407</ele>
        <time>2014-08-29T14:00:52Z</time>
      </trkpt>
      <trkpt lat="43.83895" lon="6.42328">
        <ele>855.817</ele>
        <time>2014-08-29T14:00:59Z</time>
      </trkpt>
      <trkpt lat="43.83888" lon="6.42318">
        <ele>853.526</ele>
        <time>2014-08-29T14:01:08Z</time>
      </trkpt>
      <trkpt lat="43.83884" lon="6.42312">
        <ele>852.236</ele>
        <time>2014-08-29T14:01:13Z</time>
      </trkpt>
      <trkpt lat="43.83877" lon="6.42306">
        <ele>853.737</ele>
        <time>2014-08-29T14:01:20Z</time>
      </trkpt>
      <trkpt lat="43.83868" lon="6.423">
        <ele>847.564</ele>
        <time>2014-08-29T14:01:27Z</time>
      </trkpt>
      <trkpt lat="43.83858" lon="6.42297">
        <ele>848.276</ele>
        <time>2014-08-29T14:01:35Z</time>
      </trkpt>
      <trkpt lat="43.8385" lon="6.4229">
        <ele>844.134</ele>
        <time>2014-08-29T14:01:43Z</time>
      </trkpt>
      <trkpt lat="43.83842" lon="6.42287">
        <ele>844.255</ele>
        <time>2014-08-29T14:01:49Z</time>
      </trkpt>
      <trkpt lat="43.83832" lon="6.42287">
        <ele>838.293</ele>
        <time>2014-08-29T14:01:58Z</time>
      </trkpt>
      <trkpt lat="43.83832" lon="6.42287">
        <ele>838.269</ele>
        <time>2014-08-29T14:01:59Z</time>
      </trkpt>
      <trkpt lat="43.83822" lon="6.42293">
        <ele>854.755</ele>
        <time>2014-08-29T14:02:07Z</time>
      </trkpt>
      <trkpt lat="43.83815" lon="6.42296">
        <ele>864.458</ele>
        <time>2014-08-29T14:02:14Z</time>
      </trkpt>
      <trkpt lat="43.8381" lon="6.42297">
        <ele>871.111</ele>
        <time>2014-08-29T14:02:21Z</time>
      </trkpt>
      <trkpt lat="43.83805" lon="6.42294">
        <ele>869.622</ele>
        <time>2014-08-29T14:02:25Z</time>
      </trkpt>
      <trkpt lat="43.83808" lon="6.4229">
        <ele>872.244</ele>
        <time>2014-08-29T14:02:31Z</time>
      </trkpt>
      <trkpt lat="43.8381" lon="6.4229">
        <ele>875.137</ele>
        <time>2014-08-29T14:02:33Z</time>
      </trkpt>
      <trkpt lat="43.8382" lon="6.42287">
        <ele>879.506</ele>
        <time>2014-08-29T14:02:43Z</time>
      </trkpt>
      <trkpt lat="43.8382" lon="6.42285">
        <ele>879.856</ele>
        <time>2014-08-29T14:02:44Z</time>
      </trkpt>
      <trkpt lat="43.83816" lon="6.42277">
        <ele>886.288</ele>
        <time>2014-08-29T14:02:51Z</time>
      </trkpt>
      <trkpt lat="43.83805" lon="6.4227">
        <ele>881.215</ele>
        <time>2014-08-29T14:03:00Z</time>
      </trkpt>
      <trkpt lat="43.83797" lon="6.42263">
        <ele>877.854</ele>
        <time>2014-08-29T14:03:07Z</time>
      </trkpt>
      <trkpt lat="43.83785" lon="6.42257">
        <ele>876.347</ele>
        <time>2014-08-29T14:03:17Z</time>
      </trkpt>
      <trkpt lat="43.83774" lon="6.42251">
        <ele>878.382</ele>
        <time>2014-08-29T14:03:25Z</time>
      </trkpt>
      <trkpt lat="43.83765" lon="6.42245">
        <ele>882.373</ele>
        <time>2014-08-29T14:03:33Z</time>
      </trkpt>
      <trkpt lat="43.83757" lon="6.42239">
        <ele>882.16</ele>
        <time>2014-08-29T14:03:38Z</time>
      </trkpt>
      <trkpt lat="43.83746" lon="6.42225">
        <ele>884.462</ele>
        <time>2014-08-29T14:03:46Z</time>
      </trkpt>
      <trkpt lat="43.83736" lon="6.42209">
        <ele>882.627</ele>
        <time>2014-08-29T14:03:53Z</time>
      </trkpt>
      <trkpt lat="43.83725" lon="6.42204">
        <ele>879.302</ele>
        <time>2014-08-29T14:03:58Z</time>
      </trkpt>
      <trkpt lat="43.83717" lon="6.42205">
        <ele>878.681</ele>
        <time>2014-08-29T14:04:01Z</time>
      </trkpt>
      <trkpt lat="43.83707" lon="6.42219">
        <ele>873.375</ele>
        <time>2014-08-29T14:04:06Z</time>
      </trkpt>
      <trkpt lat="43.83695" lon="6.42247">
        <ele>871.578</ele>
        <time>2014-08-29T14:04:13Z</time>
      </trkpt>
      <trkpt lat="43.83684" lon="6.42268">
        <ele>873.402</ele>
        <time>2014-08-29T14:04:18Z</time>
      </trkpt>
      <trkpt lat="43.83684" lon="6.42269">
        <ele>873.154</ele>
        <time>2014-08-29T14:04:25Z</time>
      </trkpt>
      <trkpt lat="43.83684" lon="6.4226">
        <ele>888.829</ele>
        <time>2014-08-29T14:06:13Z</time>
      </trkpt>
      <trkpt lat="43.83687" lon="6.42265">
        <ele>893.34</ele>
        <time>2014-08-29T14:06:37Z</time>
      </trkpt>
      <trkpt lat="43.83687" lon="6.42265">
        <ele>893.528</ele>
        <time>2014-08-29T14:06:42Z</time>
      </trkpt>
      <trkpt lat="43.83692" lon="6.42264">
        <ele>893.377</ele>
        <time>2014-08-29T14:06:46Z</time>
      </trkpt>
      <trkpt lat="43.83702" lon="6.42256">
        <ele>891.122</ele>
        <time>2014-08-29T14:06:50Z</time>
      </trkpt>
      <trkpt lat="43.8372" lon="6.42256">
        <ele>888.431</ele>
        <time>2014-08-29T14:06:54Z</time>
      </trkpt>
      <trkpt lat="43.8373" lon="6.42274">
        <ele>884.616</ele>
        <time>2014-08-29T14:06:58Z</time>
      </trkpt>
      <trkpt lat="43.83728" lon="6.4229">
        <ele>881.874</ele>
        <time>2014-08-29T14:07:01Z</time>
      </trkpt>
      <trkpt lat="43.83716" lon="6.42294">
        <ele>877.94</ele>
        <time>2014-08-29T14:07:04Z</time>
      </trkpt>
      <trkpt lat="43.83711" lon="6.42291">
        <ele>876.789</ele>
        <time>2014-08-29T14:07:05Z</time>
      </trkpt>
      <trkpt lat="43.83685" lon="6.4229">
        <ele>872.899</ele>
        <time>2014-08-29T14:07:10Z</time>
      </trkpt>
      <trkpt lat="43.83673" lon="6.42306">
        <ele>869.247</ele>
        <time>2014-08-29T14:07:13Z</time>
      </trkpt>
      <trkpt lat="43.83655" lon="6.42333">
        <ele>863.477</ele>
        <time>2014-08-29T14:07:18Z</time>
      </trkpt>
      <trkpt lat="43.8365" lon="6.42335">
        <ele>861.726</ele>
        <time>2014-08-29T14:07:19Z</time>
      </trkpt>
      <trkpt lat="43.83641" lon="6.42337">
        <ele>859.054</ele>
        <time>2014-08-29T14:07:21Z</time>
      </trkpt>
      <trkpt lat="43.8362" lon="6.4233">
        <ele>856.418</ele>
        <time>2014-08-29T14:07:25Z</time>
      </trkpt>
      <trkpt lat="43.83609" lon="6.42324">
        <ele>852.904</ele>
        <time>2014-08-29T14:07:28Z</time>
      </trkpt>
      <trkpt lat="43.83614" lon="6.42341">
        <ele>848.414</ele>
        <time>2014-08-29T14:07:33Z</time>
      </trkpt>
      <trkpt lat="43.83628" lon="6.42352">
        <ele>848.17</ele>
        <time>2014-08-29T14:07:36Z</time>
      </trkpt>
      <trkpt lat="43.83649" lon="6.42368">
        <ele>847.484</ele>
        <time>2014-08-29T14:07:40Z</time>
      </trkpt>
      <trkpt lat="43.83654" lon="6.42373">
        <ele>846.764</ele>
        <time>2014-08-29T14:07:42Z</time>
      </trkpt>
      <trkpt lat="43.83655" lon="6.42374">
        <ele>847.863</ele>
        <time>2014-08-29T14:07:49Z</time>
      </trkpt>
      <trkpt lat="43.83654" lon="6.42374">
        <ele>848.906</ele>
        <time>2014-08-29T14:07:55Z</time>
      </trkpt>
      <trkpt lat="43.83646" lon="6.42382">
        <ele>847.063</ele>
        <time>2014-08-29T14:08:00Z</time>
      </trkpt>
      <trkpt lat="43.8363" lon="6.42383">
        <ele>847.665</ele>
        <time>2014-08-29T14:08:04Z</time>
      </trkpt>
      <trkpt lat="43.83626" lon="6.42382">
        <ele>847.996</ele>
        <time>2014-08-29T14:08:05Z</time>
      </trkpt>
      <trkpt lat="43.83596" lon="6.42377">
        <ele>848.013</ele>
        <time>2014-08-29T14:08:11Z</time>
      </trkpt>
      <trkpt lat="43.83582" lon="6.42373">
        <ele>848.733</ele>
        <time>2014-08-29T14:08:14Z</time>
      </trkpt>
      <trkpt lat="43.83563" lon="6.42372">
        <ele>848.135</ele>
        <time>2014-08-29T14:08:19Z</time>
      </trkpt>
      <trkpt lat="43.83563" lon="6.42372">
        <ele>848.356</ele>
        <time>2014-08-29T14:08:23Z</time>
      </trkpt>
      <trkpt lat="43.83563" lon="6.42372">
        <ele>849.725</ele>
        <time>2014-08-29T14:08:29Z</time>
      </trkpt>
    </trkseg>
  </trk>
</gpx>